<?xml version="1.0" encoding="UTF-8" standalone="no" ?>
<gpx xmlns="http://www.topografix.com/GPX/1/1" xmlns:xsi="http://www.w3.org/2001/XMLSchema-instance" xsi:schemaLocation="http://www.topografix.com/GPX/1/1 http://www.topografix.com/GPX/1/1/gpx.xsd" version="1.1" creator="VisuGPX - https://www.visugpx.com">
  <metadata>
    <name>Crevant-Laveine Cyclisme</name>
  </metadata>
  <trk>
    <name><![CDATA[Crevant-Laveine Cyclisme_1]]></name>
    <trkseg>
      <trkpt lat="45.91344" lon="3.37349">
        <ele>334.2</ele>
        <time>2024-04-15T15:24:55Z</time>
      </trkpt>
      <trkpt lat="45.91344" lon="3.37349">
        <ele>334</ele>
        <time>2024-04-15T15:24:56Z</time>
      </trkpt>
      <trkpt lat="45.91344" lon="3.37349">
        <ele>333.6</ele>
        <time>2024-04-15T15:24:57Z</time>
      </trkpt>
      <trkpt lat="45.91344" lon="3.37349">
        <ele>333.2</ele>
        <time>2024-04-15T15:24:58Z</time>
      </trkpt>
      <trkpt lat="45.91362" lon="3.37341">
        <ele>333</ele>
        <time>2024-04-15T15:24:59Z</time>
      </trkpt>
      <trkpt lat="45.91367" lon="3.37339">
        <ele>332.6</ele>
        <time>2024-04-15T15:25:00Z</time>
      </trkpt>
      <trkpt lat="45.91372" lon="3.37337">
        <ele>332.2</ele>
        <time>2024-04-15T15:25:01Z</time>
      </trkpt>
      <trkpt lat="45.91376" lon="3.37335">
        <ele>332</ele>
        <time>2024-04-15T15:25:02Z</time>
      </trkpt>
      <trkpt lat="45.91383" lon="3.37344">
        <ele>331.6</ele>
        <time>2024-04-15T15:25:03Z</time>
      </trkpt>
      <trkpt lat="45.91386" lon="3.37352">
        <ele>331.2</ele>
        <time>2024-04-15T15:25:04Z</time>
      </trkpt>
      <trkpt lat="45.91389" lon="3.3736">
        <ele>330.8</ele>
        <time>2024-04-15T15:25:05Z</time>
      </trkpt>
      <trkpt lat="45.91391" lon="3.37368">
        <ele>330.4</ele>
        <time>2024-04-15T15:25:06Z</time>
      </trkpt>
      <trkpt lat="45.91394" lon="3.37376">
        <ele>330.2</ele>
        <time>2024-04-15T15:25:07Z</time>
      </trkpt>
      <trkpt lat="45.91396" lon="3.37384">
        <ele>329.8</ele>
        <time>2024-04-15T15:25:08Z</time>
      </trkpt>
      <trkpt lat="45.91399" lon="3.37392">
        <ele>329.4</ele>
        <time>2024-04-15T15:25:09Z</time>
      </trkpt>
      <trkpt lat="45.91402" lon="3.37399">
        <ele>329.2</ele>
        <time>2024-04-15T15:25:10Z</time>
      </trkpt>
      <trkpt lat="45.91404" lon="3.37407">
        <ele>328.8</ele>
        <time>2024-04-15T15:25:11Z</time>
      </trkpt>
      <trkpt lat="45.91407" lon="3.37414">
        <ele>328.6</ele>
        <time>2024-04-15T15:25:12Z</time>
      </trkpt>
      <trkpt lat="45.91409" lon="3.37421">
        <ele>328.2</ele>
        <time>2024-04-15T15:25:13Z</time>
      </trkpt>
      <trkpt lat="45.91411" lon="3.37427">
        <ele>327.8</ele>
        <time>2024-04-15T15:25:14Z</time>
      </trkpt>
      <trkpt lat="45.91413" lon="3.37433">
        <ele>327.6</ele>
        <time>2024-04-15T15:25:15Z</time>
      </trkpt>
      <trkpt lat="45.91415" lon="3.37439">
        <ele>327.4</ele>
        <time>2024-04-15T15:25:16Z</time>
      </trkpt>
      <trkpt lat="45.91417" lon="3.37445">
        <ele>327</ele>
        <time>2024-04-15T15:25:17Z</time>
      </trkpt>
      <trkpt lat="45.91419" lon="3.3745">
        <ele>326.8</ele>
        <time>2024-04-15T15:25:18Z</time>
      </trkpt>
      <trkpt lat="45.9142" lon="3.37455">
        <ele>326.6</ele>
        <time>2024-04-15T15:25:19Z</time>
      </trkpt>
      <trkpt lat="45.91422" lon="3.37459">
        <ele>326.2</ele>
        <time>2024-04-15T15:25:20Z</time>
      </trkpt>
      <trkpt lat="45.91424" lon="3.37464">
        <ele>326</ele>
        <time>2024-04-15T15:25:21Z</time>
      </trkpt>
      <trkpt lat="45.91425" lon="3.37469">
        <ele>325.8</ele>
        <time>2024-04-15T15:25:22Z</time>
      </trkpt>
      <trkpt lat="45.91427" lon="3.37473">
        <ele>325.6</ele>
        <time>2024-04-15T15:25:23Z</time>
      </trkpt>
      <trkpt lat="45.91428" lon="3.37479">
        <ele>325.2</ele>
        <time>2024-04-15T15:25:24Z</time>
      </trkpt>
      <trkpt lat="45.9143" lon="3.37484">
        <ele>325</ele>
        <time>2024-04-15T15:25:25Z</time>
      </trkpt>
      <trkpt lat="45.91432" lon="3.37488">
        <ele>324.6</ele>
        <time>2024-04-15T15:25:26Z</time>
      </trkpt>
      <trkpt lat="45.91433" lon="3.37492">
        <ele>324.4</ele>
        <time>2024-04-15T15:25:27Z</time>
      </trkpt>
      <trkpt lat="45.91434" lon="3.37496">
        <ele>324.2</ele>
        <time>2024-04-15T15:25:28Z</time>
      </trkpt>
      <trkpt lat="45.91438" lon="3.37501">
        <ele>324</ele>
        <time>2024-04-15T15:25:29Z</time>
      </trkpt>
      <trkpt lat="45.91442" lon="3.37503">
        <ele>323.6</ele>
        <time>2024-04-15T15:25:30Z</time>
      </trkpt>
      <trkpt lat="45.91446" lon="3.37505">
        <ele>323.4</ele>
        <time>2024-04-15T15:25:31Z</time>
      </trkpt>
      <trkpt lat="45.9145" lon="3.37508">
        <ele>323.2</ele>
        <time>2024-04-15T15:25:32Z</time>
      </trkpt>
      <trkpt lat="45.91454" lon="3.3751">
        <ele>322.8</ele>
        <time>2024-04-15T15:25:33Z</time>
      </trkpt>
      <trkpt lat="45.9146" lon="3.37518">
        <ele>322.4</ele>
        <time>2024-04-15T15:25:34Z</time>
      </trkpt>
      <trkpt lat="45.91464" lon="3.37525">
        <ele>322</ele>
        <time>2024-04-15T15:25:35Z</time>
      </trkpt>
      <trkpt lat="45.91468" lon="3.37532">
        <ele>321.8</ele>
        <time>2024-04-15T15:25:36Z</time>
      </trkpt>
      <trkpt lat="45.91472" lon="3.37539">
        <ele>321.4</ele>
        <time>2024-04-15T15:25:37Z</time>
      </trkpt>
      <trkpt lat="45.91476" lon="3.37551">
        <ele>321</ele>
        <time>2024-04-15T15:25:38Z</time>
      </trkpt>
      <trkpt lat="45.91478" lon="3.3756">
        <ele>320.6</ele>
        <time>2024-04-15T15:25:39Z</time>
      </trkpt>
      <trkpt lat="45.9148" lon="3.37571">
        <ele>320.4</ele>
        <time>2024-04-15T15:25:40Z</time>
      </trkpt>
      <trkpt lat="45.91482" lon="3.37581">
        <ele>320</ele>
        <time>2024-04-15T15:25:41Z</time>
      </trkpt>
      <trkpt lat="45.91484" lon="3.37591">
        <ele>319.6</ele>
        <time>2024-04-15T15:25:42Z</time>
      </trkpt>
      <trkpt lat="45.91486" lon="3.37602">
        <ele>319.2</ele>
        <time>2024-04-15T15:25:43Z</time>
      </trkpt>
      <trkpt lat="45.91488" lon="3.37613">
        <ele>319</ele>
        <time>2024-04-15T15:25:44Z</time>
      </trkpt>
      <trkpt lat="45.9149" lon="3.37624">
        <ele>318.6</ele>
        <time>2024-04-15T15:25:45Z</time>
      </trkpt>
      <trkpt lat="45.91492" lon="3.37634">
        <ele>318.2</ele>
        <time>2024-04-15T15:25:46Z</time>
      </trkpt>
      <trkpt lat="45.91495" lon="3.37642">
        <ele>317.8</ele>
        <time>2024-04-15T15:25:47Z</time>
      </trkpt>
      <trkpt lat="45.91499" lon="3.37649">
        <ele>317.6</ele>
        <time>2024-04-15T15:25:48Z</time>
      </trkpt>
      <trkpt lat="45.91504" lon="3.37653">
        <ele>317.2</ele>
        <time>2024-04-15T15:25:49Z</time>
      </trkpt>
      <trkpt lat="45.9151" lon="3.37655">
        <ele>316.8</ele>
        <time>2024-04-15T15:25:50Z</time>
      </trkpt>
      <trkpt lat="45.91516" lon="3.37657">
        <ele>316.6</ele>
        <time>2024-04-15T15:25:51Z</time>
      </trkpt>
      <trkpt lat="45.91521" lon="3.37657">
        <ele>316.2</ele>
        <time>2024-04-15T15:25:52Z</time>
      </trkpt>
      <trkpt lat="45.91526" lon="3.37657">
        <ele>316</ele>
        <time>2024-04-15T15:25:53Z</time>
      </trkpt>
      <trkpt lat="45.91531" lon="3.37656">
        <ele>315.6</ele>
        <time>2024-04-15T15:25:54Z</time>
      </trkpt>
      <trkpt lat="45.91535" lon="3.37656">
        <ele>315.4</ele>
        <time>2024-04-15T15:25:55Z</time>
      </trkpt>
      <trkpt lat="45.91538" lon="3.37655">
        <ele>315</ele>
        <time>2024-04-15T15:25:56Z</time>
      </trkpt>
      <trkpt lat="45.91541" lon="3.37655">
        <ele>314.8</ele>
        <time>2024-04-15T15:25:57Z</time>
      </trkpt>
      <trkpt lat="45.91542" lon="3.37655">
        <ele>314.4</ele>
        <time>2024-04-15T15:25:58Z</time>
      </trkpt>
      <trkpt lat="45.91542" lon="3.37655">
        <ele>314.2</ele>
        <time>2024-04-15T15:25:59Z</time>
      </trkpt>
      <trkpt lat="45.91542" lon="3.37655">
        <ele>314</ele>
        <time>2024-04-15T15:26:00Z</time>
      </trkpt>
      <trkpt lat="45.91549" lon="3.37651">
        <ele>313</ele>
        <time>2024-04-15T15:26:05Z</time>
      </trkpt>
      <trkpt lat="45.91549" lon="3.37646">
        <ele>312.8</ele>
        <time>2024-04-15T15:26:06Z</time>
      </trkpt>
      <trkpt lat="45.91549" lon="3.37641">
        <ele>312.4</ele>
        <time>2024-04-15T15:26:07Z</time>
      </trkpt>
      <trkpt lat="45.91548" lon="3.37635">
        <ele>312</ele>
        <time>2024-04-15T15:26:08Z</time>
      </trkpt>
      <trkpt lat="45.91548" lon="3.37628">
        <ele>311.8</ele>
        <time>2024-04-15T15:26:09Z</time>
      </trkpt>
      <trkpt lat="45.91547" lon="3.37622">
        <ele>311.4</ele>
        <time>2024-04-15T15:26:10Z</time>
      </trkpt>
      <trkpt lat="45.91546" lon="3.37615">
        <ele>311</ele>
        <time>2024-04-15T15:26:11Z</time>
      </trkpt>
      <trkpt lat="45.91546" lon="3.37607">
        <ele>310.6</ele>
        <time>2024-04-15T15:26:12Z</time>
      </trkpt>
      <trkpt lat="45.91545" lon="3.37599">
        <ele>310.2</ele>
        <time>2024-04-15T15:26:13Z</time>
      </trkpt>
      <trkpt lat="45.91544" lon="3.37591">
        <ele>309.8</ele>
        <time>2024-04-15T15:26:14Z</time>
      </trkpt>
      <trkpt lat="45.91543" lon="3.37582">
        <ele>309.4</ele>
        <time>2024-04-15T15:26:15Z</time>
      </trkpt>
      <trkpt lat="45.91542" lon="3.37573">
        <ele>309</ele>
        <time>2024-04-15T15:26:16Z</time>
      </trkpt>
      <trkpt lat="45.91541" lon="3.37563">
        <ele>308.6</ele>
        <time>2024-04-15T15:26:17Z</time>
      </trkpt>
      <trkpt lat="45.91541" lon="3.37551">
        <ele>308.2</ele>
        <time>2024-04-15T15:26:18Z</time>
      </trkpt>
      <trkpt lat="45.91541" lon="3.37541">
        <ele>307.6</ele>
        <time>2024-04-15T15:26:19Z</time>
      </trkpt>
      <trkpt lat="45.91542" lon="3.37532">
        <ele>307.2</ele>
        <time>2024-04-15T15:26:20Z</time>
      </trkpt>
      <trkpt lat="45.91542" lon="3.37522">
        <ele>306.8</ele>
        <time>2024-04-15T15:26:21Z</time>
      </trkpt>
      <trkpt lat="45.91544" lon="3.37509">
        <ele>306.4</ele>
        <time>2024-04-15T15:26:22Z</time>
      </trkpt>
      <trkpt lat="45.91546" lon="3.375">
        <ele>306</ele>
        <time>2024-04-15T15:26:23Z</time>
      </trkpt>
      <trkpt lat="45.91548" lon="3.3749">
        <ele>305.6</ele>
        <time>2024-04-15T15:26:24Z</time>
      </trkpt>
      <trkpt lat="45.91549" lon="3.3748">
        <ele>305.2</ele>
        <time>2024-04-15T15:26:25Z</time>
      </trkpt>
      <trkpt lat="45.91551" lon="3.37471">
        <ele>304.8</ele>
        <time>2024-04-15T15:26:26Z</time>
      </trkpt>
      <trkpt lat="45.91553" lon="3.37461">
        <ele>304.4</ele>
        <time>2024-04-15T15:26:27Z</time>
      </trkpt>
      <trkpt lat="45.91556" lon="3.37449">
        <ele>304</ele>
        <time>2024-04-15T15:26:28Z</time>
      </trkpt>
      <trkpt lat="45.91559" lon="3.37439">
        <ele>303.6</ele>
        <time>2024-04-15T15:26:29Z</time>
      </trkpt>
      <trkpt lat="45.91562" lon="3.37429">
        <ele>303.2</ele>
        <time>2024-04-15T15:26:30Z</time>
      </trkpt>
      <trkpt lat="45.91565" lon="3.37419">
        <ele>302.8</ele>
        <time>2024-04-15T15:26:31Z</time>
      </trkpt>
      <trkpt lat="45.91567" lon="3.37408">
        <ele>302.4</ele>
        <time>2024-04-15T15:26:32Z</time>
      </trkpt>
      <trkpt lat="45.9157" lon="3.37398">
        <ele>302</ele>
        <time>2024-04-15T15:26:33Z</time>
      </trkpt>
      <trkpt lat="45.91573" lon="3.37388">
        <ele>301.8</ele>
        <time>2024-04-15T15:26:34Z</time>
      </trkpt>
      <trkpt lat="45.91576" lon="3.37377">
        <ele>301.4</ele>
        <time>2024-04-15T15:26:35Z</time>
      </trkpt>
      <trkpt lat="45.91579" lon="3.37367">
        <ele>301</ele>
        <time>2024-04-15T15:26:36Z</time>
      </trkpt>
      <trkpt lat="45.91582" lon="3.37357">
        <ele>300.6</ele>
        <time>2024-04-15T15:26:37Z</time>
      </trkpt>
      <trkpt lat="45.91585" lon="3.37347">
        <ele>300.2</ele>
        <time>2024-04-15T15:26:38Z</time>
      </trkpt>
      <trkpt lat="45.91588" lon="3.37337">
        <ele>300</ele>
        <time>2024-04-15T15:26:39Z</time>
      </trkpt>
      <trkpt lat="45.91591" lon="3.37326">
        <ele>299.6</ele>
        <time>2024-04-15T15:26:40Z</time>
      </trkpt>
      <trkpt lat="45.91594" lon="3.37316">
        <ele>299.2</ele>
        <time>2024-04-15T15:26:41Z</time>
      </trkpt>
      <trkpt lat="45.91597" lon="3.37305">
        <ele>299</ele>
        <time>2024-04-15T15:26:42Z</time>
      </trkpt>
      <trkpt lat="45.916" lon="3.37295">
        <ele>298.6</ele>
        <time>2024-04-15T15:26:43Z</time>
      </trkpt>
      <trkpt lat="45.91603" lon="3.37285">
        <ele>298.4</ele>
        <time>2024-04-15T15:26:44Z</time>
      </trkpt>
      <trkpt lat="45.91606" lon="3.37275">
        <ele>298</ele>
        <time>2024-04-15T15:26:45Z</time>
      </trkpt>
      <trkpt lat="45.91609" lon="3.37265">
        <ele>297.8</ele>
        <time>2024-04-15T15:26:46Z</time>
      </trkpt>
      <trkpt lat="45.91612" lon="3.37254">
        <ele>297.4</ele>
        <time>2024-04-15T15:26:47Z</time>
      </trkpt>
      <trkpt lat="45.91615" lon="3.37244">
        <ele>297.2</ele>
        <time>2024-04-15T15:26:48Z</time>
      </trkpt>
      <trkpt lat="45.91617" lon="3.37234">
        <ele>296.8</ele>
        <time>2024-04-15T15:26:49Z</time>
      </trkpt>
      <trkpt lat="45.91618" lon="3.37226">
        <ele>296.6</ele>
        <time>2024-04-15T15:26:50Z</time>
      </trkpt>
      <trkpt lat="45.91618" lon="3.37215">
        <ele>296.4</ele>
        <time>2024-04-15T15:26:51Z</time>
      </trkpt>
      <trkpt lat="45.91618" lon="3.37204">
        <ele>296</ele>
        <time>2024-04-15T15:26:52Z</time>
      </trkpt>
      <trkpt lat="45.91618" lon="3.37193">
        <ele>295.8</ele>
        <time>2024-04-15T15:26:53Z</time>
      </trkpt>
      <trkpt lat="45.91618" lon="3.37182">
        <ele>295.6</ele>
        <time>2024-04-15T15:26:54Z</time>
      </trkpt>
      <trkpt lat="45.91618" lon="3.37172">
        <ele>295.2</ele>
        <time>2024-04-15T15:26:55Z</time>
      </trkpt>
      <trkpt lat="45.91618" lon="3.37161">
        <ele>295</ele>
        <time>2024-04-15T15:26:56Z</time>
      </trkpt>
      <trkpt lat="45.91618" lon="3.37151">
        <ele>294.8</ele>
        <time>2024-04-15T15:26:57Z</time>
      </trkpt>
      <trkpt lat="45.91618" lon="3.3714">
        <ele>294.4</ele>
        <time>2024-04-15T15:26:58Z</time>
      </trkpt>
      <trkpt lat="45.91618" lon="3.3713">
        <ele>294.2</ele>
        <time>2024-04-15T15:26:59Z</time>
      </trkpt>
      <trkpt lat="45.91618" lon="3.3712">
        <ele>294</ele>
        <time>2024-04-15T15:27:00Z</time>
      </trkpt>
      <trkpt lat="45.91618" lon="3.3711">
        <ele>293.6</ele>
        <time>2024-04-15T15:27:01Z</time>
      </trkpt>
      <trkpt lat="45.91618" lon="3.371">
        <ele>293.4</ele>
        <time>2024-04-15T15:27:02Z</time>
      </trkpt>
      <trkpt lat="45.91618" lon="3.3709">
        <ele>293.2</ele>
        <time>2024-04-15T15:27:03Z</time>
      </trkpt>
      <trkpt lat="45.91618" lon="3.3708">
        <ele>292.8</ele>
        <time>2024-04-15T15:27:04Z</time>
      </trkpt>
      <trkpt lat="45.91618" lon="3.37069">
        <ele>292.6</ele>
        <time>2024-04-15T15:27:05Z</time>
      </trkpt>
      <trkpt lat="45.91618" lon="3.37059">
        <ele>292.4</ele>
        <time>2024-04-15T15:27:06Z</time>
      </trkpt>
      <trkpt lat="45.91619" lon="3.37049">
        <ele>292</ele>
        <time>2024-04-15T15:27:07Z</time>
      </trkpt>
      <trkpt lat="45.91619" lon="3.37039">
        <ele>291.8</ele>
        <time>2024-04-15T15:27:08Z</time>
      </trkpt>
      <trkpt lat="45.91619" lon="3.37029">
        <ele>291.6</ele>
        <time>2024-04-15T15:27:09Z</time>
      </trkpt>
      <trkpt lat="45.91619" lon="3.37019">
        <ele>291.4</ele>
        <time>2024-04-15T15:27:10Z</time>
      </trkpt>
      <trkpt lat="45.91619" lon="3.3701">
        <ele>291.2</ele>
        <time>2024-04-15T15:27:11Z</time>
      </trkpt>
      <trkpt lat="45.91619" lon="3.37">
        <ele>290.8</ele>
        <time>2024-04-15T15:27:12Z</time>
      </trkpt>
      <trkpt lat="45.91619" lon="3.36991">
        <ele>290.6</ele>
        <time>2024-04-15T15:27:13Z</time>
      </trkpt>
      <trkpt lat="45.91619" lon="3.36981">
        <ele>290.4</ele>
        <time>2024-04-15T15:27:14Z</time>
      </trkpt>
      <trkpt lat="45.91619" lon="3.36972">
        <ele>290.2</ele>
        <time>2024-04-15T15:27:15Z</time>
      </trkpt>
      <trkpt lat="45.91619" lon="3.36962">
        <ele>290</ele>
        <time>2024-04-15T15:27:16Z</time>
      </trkpt>
      <trkpt lat="45.91619" lon="3.36952">
        <ele>289.8</ele>
        <time>2024-04-15T15:27:17Z</time>
      </trkpt>
      <trkpt lat="45.91619" lon="3.36942">
        <ele>289.6</ele>
        <time>2024-04-15T15:27:18Z</time>
      </trkpt>
      <trkpt lat="45.91619" lon="3.36933">
        <ele>289.2</ele>
        <time>2024-04-15T15:27:19Z</time>
      </trkpt>
      <trkpt lat="45.91619" lon="3.36923">
        <ele>289</ele>
        <time>2024-04-15T15:27:20Z</time>
      </trkpt>
      <trkpt lat="45.91619" lon="3.36913">
        <ele>288.8</ele>
        <time>2024-04-15T15:27:21Z</time>
      </trkpt>
      <trkpt lat="45.91619" lon="3.36904">
        <ele>288.4</ele>
        <time>2024-04-15T15:27:22Z</time>
      </trkpt>
      <trkpt lat="45.91619" lon="3.36893">
        <ele>288.2</ele>
        <time>2024-04-15T15:27:23Z</time>
      </trkpt>
      <trkpt lat="45.91619" lon="3.36884">
        <ele>288</ele>
        <time>2024-04-15T15:27:24Z</time>
      </trkpt>
      <trkpt lat="45.91619" lon="3.36873">
        <ele>287.6</ele>
        <time>2024-04-15T15:27:25Z</time>
      </trkpt>
      <trkpt lat="45.91619" lon="3.36863">
        <ele>287.4</ele>
        <time>2024-04-15T15:27:26Z</time>
      </trkpt>
      <trkpt lat="45.91619" lon="3.36853">
        <ele>287</ele>
        <time>2024-04-15T15:27:27Z</time>
      </trkpt>
      <trkpt lat="45.91619" lon="3.36843">
        <ele>286.8</ele>
        <time>2024-04-15T15:27:28Z</time>
      </trkpt>
      <trkpt lat="45.91619" lon="3.36833">
        <ele>286.4</ele>
        <time>2024-04-15T15:27:29Z</time>
      </trkpt>
      <trkpt lat="45.91619" lon="3.36823">
        <ele>286.2</ele>
        <time>2024-04-15T15:27:30Z</time>
      </trkpt>
      <trkpt lat="45.91619" lon="3.36813">
        <ele>286</ele>
        <time>2024-04-15T15:27:31Z</time>
      </trkpt>
      <trkpt lat="45.91619" lon="3.36803">
        <ele>285.6</ele>
        <time>2024-04-15T15:27:32Z</time>
      </trkpt>
      <trkpt lat="45.91619" lon="3.36793">
        <ele>285.2</ele>
        <time>2024-04-15T15:27:33Z</time>
      </trkpt>
      <trkpt lat="45.91619" lon="3.36784">
        <ele>285</ele>
        <time>2024-04-15T15:27:34Z</time>
      </trkpt>
      <trkpt lat="45.9162" lon="3.36774">
        <ele>284.6</ele>
        <time>2024-04-15T15:27:35Z</time>
      </trkpt>
      <trkpt lat="45.9162" lon="3.36765">
        <ele>284.4</ele>
        <time>2024-04-15T15:27:36Z</time>
      </trkpt>
      <trkpt lat="45.9162" lon="3.36755">
        <ele>284</ele>
        <time>2024-04-15T15:27:37Z</time>
      </trkpt>
      <trkpt lat="45.9162" lon="3.36746">
        <ele>283.8</ele>
        <time>2024-04-15T15:27:38Z</time>
      </trkpt>
      <trkpt lat="45.9162" lon="3.36736">
        <ele>283.6</ele>
        <time>2024-04-15T15:27:39Z</time>
      </trkpt>
      <trkpt lat="45.9162" lon="3.36726">
        <ele>283.2</ele>
        <time>2024-04-15T15:27:40Z</time>
      </trkpt>
      <trkpt lat="45.9162" lon="3.36716">
        <ele>283</ele>
        <time>2024-04-15T15:27:41Z</time>
      </trkpt>
      <trkpt lat="45.9162" lon="3.36707">
        <ele>282.8</ele>
        <time>2024-04-15T15:27:42Z</time>
      </trkpt>
      <trkpt lat="45.9162" lon="3.36697">
        <ele>282.6</ele>
        <time>2024-04-15T15:27:43Z</time>
      </trkpt>
      <trkpt lat="45.9162" lon="3.36687">
        <ele>282.4</ele>
        <time>2024-04-15T15:27:44Z</time>
      </trkpt>
      <trkpt lat="45.9162" lon="3.36678">
        <ele>282</ele>
        <time>2024-04-15T15:27:45Z</time>
      </trkpt>
      <trkpt lat="45.9162" lon="3.36668">
        <ele>281.8</ele>
        <time>2024-04-15T15:27:46Z</time>
      </trkpt>
      <trkpt lat="45.9162" lon="3.36659">
        <ele>281.6</ele>
        <time>2024-04-15T15:27:47Z</time>
      </trkpt>
      <trkpt lat="45.91621" lon="3.36647">
        <ele>281.4</ele>
        <time>2024-04-15T15:27:48Z</time>
      </trkpt>
      <trkpt lat="45.91622" lon="3.36637">
        <ele>281.2</ele>
        <time>2024-04-15T15:27:49Z</time>
      </trkpt>
      <trkpt lat="45.91624" lon="3.36628">
        <ele>281</ele>
        <time>2024-04-15T15:27:50Z</time>
      </trkpt>
      <trkpt lat="45.91625" lon="3.36618">
        <ele>280.8</ele>
        <time>2024-04-15T15:27:51Z</time>
      </trkpt>
      <trkpt lat="45.91626" lon="3.36609">
        <ele>280.6</ele>
        <time>2024-04-15T15:27:52Z</time>
      </trkpt>
      <trkpt lat="45.91628" lon="3.36599">
        <ele>280.4</ele>
        <time>2024-04-15T15:27:53Z</time>
      </trkpt>
      <trkpt lat="45.9163" lon="3.36589">
        <ele>280.4</ele>
        <time>2024-04-15T15:27:54Z</time>
      </trkpt>
      <trkpt lat="45.91632" lon="3.3658">
        <ele>280.2</ele>
        <time>2024-04-15T15:27:55Z</time>
      </trkpt>
      <trkpt lat="45.91634" lon="3.36571">
        <ele>280</ele>
        <time>2024-04-15T15:27:56Z</time>
      </trkpt>
      <trkpt lat="45.91636" lon="3.36562">
        <ele>279.8</ele>
        <time>2024-04-15T15:27:57Z</time>
      </trkpt>
      <trkpt lat="45.91638" lon="3.36553">
        <ele>279.6</ele>
        <time>2024-04-15T15:27:58Z</time>
      </trkpt>
      <trkpt lat="45.9164" lon="3.36544">
        <ele>279.4</ele>
        <time>2024-04-15T15:27:59Z</time>
      </trkpt>
      <trkpt lat="45.91642" lon="3.36535">
        <ele>279.4</ele>
        <time>2024-04-15T15:28:00Z</time>
      </trkpt>
      <trkpt lat="45.91644" lon="3.36526">
        <ele>279.2</ele>
        <time>2024-04-15T15:28:01Z</time>
      </trkpt>
      <trkpt lat="45.91646" lon="3.36516">
        <ele>279.2</ele>
        <time>2024-04-15T15:28:02Z</time>
      </trkpt>
      <trkpt lat="45.91648" lon="3.36507">
        <ele>279.2</ele>
        <time>2024-04-15T15:28:03Z</time>
      </trkpt>
      <trkpt lat="45.9165" lon="3.36498">
        <ele>279</ele>
        <time>2024-04-15T15:28:04Z</time>
      </trkpt>
      <trkpt lat="45.91652" lon="3.36489">
        <ele>279</ele>
        <time>2024-04-15T15:28:05Z</time>
      </trkpt>
      <trkpt lat="45.91654" lon="3.3648">
        <ele>279</ele>
        <time>2024-04-15T15:28:06Z</time>
      </trkpt>
      <trkpt lat="45.91656" lon="3.36471">
        <ele>279</ele>
        <time>2024-04-15T15:28:07Z</time>
      </trkpt>
      <trkpt lat="45.91658" lon="3.36461">
        <ele>278.8</ele>
        <time>2024-04-15T15:28:08Z</time>
      </trkpt>
      <trkpt lat="45.9166" lon="3.36452">
        <ele>278.8</ele>
        <time>2024-04-15T15:28:09Z</time>
      </trkpt>
      <trkpt lat="45.91662" lon="3.36442">
        <ele>278.8</ele>
        <time>2024-04-15T15:28:10Z</time>
      </trkpt>
      <trkpt lat="45.91664" lon="3.36433">
        <ele>278.8</ele>
        <time>2024-04-15T15:28:11Z</time>
      </trkpt>
      <trkpt lat="45.91666" lon="3.36423">
        <ele>278.8</ele>
        <time>2024-04-15T15:28:12Z</time>
      </trkpt>
      <trkpt lat="45.91668" lon="3.36414">
        <ele>278.8</ele>
        <time>2024-04-15T15:28:13Z</time>
      </trkpt>
      <trkpt lat="45.9167" lon="3.36405">
        <ele>278.6</ele>
        <time>2024-04-15T15:28:14Z</time>
      </trkpt>
      <trkpt lat="45.91672" lon="3.36396">
        <ele>278.4</ele>
        <time>2024-04-15T15:28:15Z</time>
      </trkpt>
      <trkpt lat="45.91674" lon="3.36387">
        <ele>278.4</ele>
        <time>2024-04-15T15:28:16Z</time>
      </trkpt>
      <trkpt lat="45.91676" lon="3.36378">
        <ele>278.4</ele>
        <time>2024-04-15T15:28:17Z</time>
      </trkpt>
      <trkpt lat="45.91678" lon="3.36369">
        <ele>278.4</ele>
        <time>2024-04-15T15:28:18Z</time>
      </trkpt>
      <trkpt lat="45.9168" lon="3.3636">
        <ele>278.4</ele>
        <time>2024-04-15T15:28:19Z</time>
      </trkpt>
      <trkpt lat="45.91682" lon="3.36351">
        <ele>278.4</ele>
        <time>2024-04-15T15:28:20Z</time>
      </trkpt>
      <trkpt lat="45.91684" lon="3.36342">
        <ele>278.2</ele>
        <time>2024-04-15T15:28:21Z</time>
      </trkpt>
      <trkpt lat="45.91686" lon="3.36333">
        <ele>278.2</ele>
        <time>2024-04-15T15:28:22Z</time>
      </trkpt>
      <trkpt lat="45.91688" lon="3.36324">
        <ele>278.2</ele>
        <time>2024-04-15T15:28:23Z</time>
      </trkpt>
      <trkpt lat="45.9169" lon="3.36315">
        <ele>278</ele>
        <time>2024-04-15T15:28:24Z</time>
      </trkpt>
      <trkpt lat="45.91692" lon="3.36306">
        <ele>278</ele>
        <time>2024-04-15T15:28:25Z</time>
      </trkpt>
      <trkpt lat="45.91694" lon="3.36296">
        <ele>277.8</ele>
        <time>2024-04-15T15:28:26Z</time>
      </trkpt>
      <trkpt lat="45.91696" lon="3.36287">
        <ele>277.8</ele>
        <time>2024-04-15T15:28:27Z</time>
      </trkpt>
      <trkpt lat="45.91698" lon="3.36278">
        <ele>277.8</ele>
        <time>2024-04-15T15:28:28Z</time>
      </trkpt>
      <trkpt lat="45.917" lon="3.36269">
        <ele>277.6</ele>
        <time>2024-04-15T15:28:29Z</time>
      </trkpt>
      <trkpt lat="45.91702" lon="3.36259">
        <ele>277.6</ele>
        <time>2024-04-15T15:28:30Z</time>
      </trkpt>
      <trkpt lat="45.91704" lon="3.3625">
        <ele>277.6</ele>
        <time>2024-04-15T15:28:31Z</time>
      </trkpt>
      <trkpt lat="45.91706" lon="3.36241">
        <ele>277.4</ele>
        <time>2024-04-15T15:28:32Z</time>
      </trkpt>
      <trkpt lat="45.91708" lon="3.36231">
        <ele>277.4</ele>
        <time>2024-04-15T15:28:33Z</time>
      </trkpt>
      <trkpt lat="45.9171" lon="3.36222">
        <ele>277.2</ele>
        <time>2024-04-15T15:28:34Z</time>
      </trkpt>
      <trkpt lat="45.91713" lon="3.36213">
        <ele>277.2</ele>
        <time>2024-04-15T15:28:35Z</time>
      </trkpt>
      <trkpt lat="45.91715" lon="3.36203">
        <ele>277.2</ele>
        <time>2024-04-15T15:28:36Z</time>
      </trkpt>
      <trkpt lat="45.91717" lon="3.36194">
        <ele>277.2</ele>
        <time>2024-04-15T15:28:37Z</time>
      </trkpt>
      <trkpt lat="45.91719" lon="3.36184">
        <ele>277.2</ele>
        <time>2024-04-15T15:28:38Z</time>
      </trkpt>
      <trkpt lat="45.91721" lon="3.36175">
        <ele>277.2</ele>
        <time>2024-04-15T15:28:39Z</time>
      </trkpt>
      <trkpt lat="45.91723" lon="3.36166">
        <ele>277.2</ele>
        <time>2024-04-15T15:28:40Z</time>
      </trkpt>
      <trkpt lat="45.91725" lon="3.36156">
        <ele>277</ele>
        <time>2024-04-15T15:28:41Z</time>
      </trkpt>
      <trkpt lat="45.91727" lon="3.36147">
        <ele>277</ele>
        <time>2024-04-15T15:28:42Z</time>
      </trkpt>
      <trkpt lat="45.91729" lon="3.36137">
        <ele>277</ele>
        <time>2024-04-15T15:28:43Z</time>
      </trkpt>
      <trkpt lat="45.91731" lon="3.36128">
        <ele>276.8</ele>
        <time>2024-04-15T15:28:44Z</time>
      </trkpt>
      <trkpt lat="45.91732" lon="3.36119">
        <ele>276.8</ele>
        <time>2024-04-15T15:28:45Z</time>
      </trkpt>
      <trkpt lat="45.91733" lon="3.36109">
        <ele>276.8</ele>
        <time>2024-04-15T15:28:46Z</time>
      </trkpt>
      <trkpt lat="45.91734" lon="3.36099">
        <ele>276.8</ele>
        <time>2024-04-15T15:28:47Z</time>
      </trkpt>
      <trkpt lat="45.91735" lon="3.36089">
        <ele>276.8</ele>
        <time>2024-04-15T15:28:48Z</time>
      </trkpt>
      <trkpt lat="45.91737" lon="3.3608">
        <ele>276.6</ele>
        <time>2024-04-15T15:28:49Z</time>
      </trkpt>
      <trkpt lat="45.91738" lon="3.3607">
        <ele>276.6</ele>
        <time>2024-04-15T15:28:50Z</time>
      </trkpt>
      <trkpt lat="45.91739" lon="3.36061">
        <ele>276.6</ele>
        <time>2024-04-15T15:28:51Z</time>
      </trkpt>
      <trkpt lat="45.9174" lon="3.36052">
        <ele>276.4</ele>
        <time>2024-04-15T15:28:52Z</time>
      </trkpt>
      <trkpt lat="45.9174" lon="3.36043">
        <ele>276.2</ele>
        <time>2024-04-15T15:28:53Z</time>
      </trkpt>
      <trkpt lat="45.9174" lon="3.36034">
        <ele>276.2</ele>
        <time>2024-04-15T15:28:54Z</time>
      </trkpt>
      <trkpt lat="45.9174" lon="3.36025">
        <ele>276</ele>
        <time>2024-04-15T15:28:55Z</time>
      </trkpt>
      <trkpt lat="45.9174" lon="3.36015">
        <ele>276</ele>
        <time>2024-04-15T15:28:56Z</time>
      </trkpt>
      <trkpt lat="45.91739" lon="3.36007">
        <ele>275.8</ele>
        <time>2024-04-15T15:28:57Z</time>
      </trkpt>
      <trkpt lat="45.91738" lon="3.35998">
        <ele>275.8</ele>
        <time>2024-04-15T15:28:58Z</time>
      </trkpt>
      <trkpt lat="45.91737" lon="3.35988">
        <ele>275.8</ele>
        <time>2024-04-15T15:28:59Z</time>
      </trkpt>
      <trkpt lat="45.91736" lon="3.35979">
        <ele>275.6</ele>
        <time>2024-04-15T15:29:00Z</time>
      </trkpt>
      <trkpt lat="45.91734" lon="3.35969">
        <ele>275.6</ele>
        <time>2024-04-15T15:29:01Z</time>
      </trkpt>
      <trkpt lat="45.91732" lon="3.35961">
        <ele>275.6</ele>
        <time>2024-04-15T15:29:02Z</time>
      </trkpt>
      <trkpt lat="45.9173" lon="3.35952">
        <ele>275.4</ele>
        <time>2024-04-15T15:29:03Z</time>
      </trkpt>
      <trkpt lat="45.91727" lon="3.35943">
        <ele>275.4</ele>
        <time>2024-04-15T15:29:04Z</time>
      </trkpt>
      <trkpt lat="45.91725" lon="3.35933">
        <ele>275.4</ele>
        <time>2024-04-15T15:29:05Z</time>
      </trkpt>
      <trkpt lat="45.91722" lon="3.35924">
        <ele>275.2</ele>
        <time>2024-04-15T15:29:06Z</time>
      </trkpt>
      <trkpt lat="45.9172" lon="3.35915">
        <ele>275.2</ele>
        <time>2024-04-15T15:29:07Z</time>
      </trkpt>
      <trkpt lat="45.91717" lon="3.35906">
        <ele>275.2</ele>
        <time>2024-04-15T15:29:08Z</time>
      </trkpt>
      <trkpt lat="45.91714" lon="3.35896">
        <ele>275.2</ele>
        <time>2024-04-15T15:29:09Z</time>
      </trkpt>
      <trkpt lat="45.91712" lon="3.35887">
        <ele>275.2</ele>
        <time>2024-04-15T15:29:10Z</time>
      </trkpt>
      <trkpt lat="45.91709" lon="3.35877">
        <ele>275.2</ele>
        <time>2024-04-15T15:29:11Z</time>
      </trkpt>
      <trkpt lat="45.91706" lon="3.35868">
        <ele>275.2</ele>
        <time>2024-04-15T15:29:12Z</time>
      </trkpt>
      <trkpt lat="45.91704" lon="3.35859">
        <ele>275.2</ele>
        <time>2024-04-15T15:29:13Z</time>
      </trkpt>
      <trkpt lat="45.91701" lon="3.35849">
        <ele>275.2</ele>
        <time>2024-04-15T15:29:14Z</time>
      </trkpt>
      <trkpt lat="45.91698" lon="3.3584">
        <ele>275.2</ele>
        <time>2024-04-15T15:29:15Z</time>
      </trkpt>
      <trkpt lat="45.91696" lon="3.3583">
        <ele>275.2</ele>
        <time>2024-04-15T15:29:16Z</time>
      </trkpt>
      <trkpt lat="45.91693" lon="3.35821">
        <ele>275.2</ele>
        <time>2024-04-15T15:29:17Z</time>
      </trkpt>
      <trkpt lat="45.91691" lon="3.35812">
        <ele>275.2</ele>
        <time>2024-04-15T15:29:18Z</time>
      </trkpt>
      <trkpt lat="45.91688" lon="3.35803">
        <ele>275.2</ele>
        <time>2024-04-15T15:29:19Z</time>
      </trkpt>
      <trkpt lat="45.91686" lon="3.35794">
        <ele>275.4</ele>
        <time>2024-04-15T15:29:20Z</time>
      </trkpt>
      <trkpt lat="45.91683" lon="3.35785">
        <ele>275.4</ele>
        <time>2024-04-15T15:29:21Z</time>
      </trkpt>
      <trkpt lat="45.91681" lon="3.35776">
        <ele>274.8</ele>
        <time>2024-04-15T15:29:22Z</time>
      </trkpt>
      <trkpt lat="45.91678" lon="3.35767">
        <ele>275</ele>
        <time>2024-04-15T15:29:23Z</time>
      </trkpt>
      <trkpt lat="45.91676" lon="3.35759">
        <ele>275.4</ele>
        <time>2024-04-15T15:29:24Z</time>
      </trkpt>
      <trkpt lat="45.91674" lon="3.35749">
        <ele>275.8</ele>
        <time>2024-04-15T15:29:25Z</time>
      </trkpt>
      <trkpt lat="45.91672" lon="3.3574">
        <ele>276</ele>
        <time>2024-04-15T15:29:26Z</time>
      </trkpt>
      <trkpt lat="45.9167" lon="3.35731">
        <ele>275.6</ele>
        <time>2024-04-15T15:29:27Z</time>
      </trkpt>
      <trkpt lat="45.91668" lon="3.35723">
        <ele>275.8</ele>
        <time>2024-04-15T15:29:28Z</time>
      </trkpt>
      <trkpt lat="45.91666" lon="3.35714">
        <ele>275.8</ele>
        <time>2024-04-15T15:29:29Z</time>
      </trkpt>
      <trkpt lat="45.91664" lon="3.35705">
        <ele>275.8</ele>
        <time>2024-04-15T15:29:30Z</time>
      </trkpt>
      <trkpt lat="45.91662" lon="3.35696">
        <ele>276</ele>
        <time>2024-04-15T15:29:31Z</time>
      </trkpt>
      <trkpt lat="45.91661" lon="3.35687">
        <ele>276</ele>
        <time>2024-04-15T15:29:32Z</time>
      </trkpt>
      <trkpt lat="45.91659" lon="3.35678">
        <ele>276.2</ele>
        <time>2024-04-15T15:29:33Z</time>
      </trkpt>
      <trkpt lat="45.91657" lon="3.35669">
        <ele>276.4</ele>
        <time>2024-04-15T15:29:34Z</time>
      </trkpt>
      <trkpt lat="45.91655" lon="3.35661">
        <ele>276.4</ele>
        <time>2024-04-15T15:29:35Z</time>
      </trkpt>
      <trkpt lat="45.91653" lon="3.35652">
        <ele>276.6</ele>
        <time>2024-04-15T15:29:36Z</time>
      </trkpt>
      <trkpt lat="45.91653" lon="3.35652">
        <ele>276.6</ele>
        <time>2024-04-15T15:29:37Z</time>
      </trkpt>
      <trkpt lat="45.91653" lon="3.35652">
        <ele>276.8</ele>
        <time>2024-04-15T15:29:38Z</time>
      </trkpt>
      <trkpt lat="45.9165" lon="3.35636">
        <ele>276.8</ele>
        <time>2024-04-15T15:29:39Z</time>
      </trkpt>
      <trkpt lat="45.9165" lon="3.35636">
        <ele>277</ele>
        <time>2024-04-15T15:29:40Z</time>
      </trkpt>
      <trkpt lat="45.91647" lon="3.35609">
        <ele>277</ele>
        <time>2024-04-15T15:29:41Z</time>
      </trkpt>
      <trkpt lat="45.91646" lon="3.35601">
        <ele>277.2</ele>
        <time>2024-04-15T15:29:42Z</time>
      </trkpt>
      <trkpt lat="45.91645" lon="3.35592">
        <ele>277.2</ele>
        <time>2024-04-15T15:29:43Z</time>
      </trkpt>
      <trkpt lat="45.91644" lon="3.35584">
        <ele>277.4</ele>
        <time>2024-04-15T15:29:44Z</time>
      </trkpt>
      <trkpt lat="45.91644" lon="3.35576">
        <ele>277.4</ele>
        <time>2024-04-15T15:29:45Z</time>
      </trkpt>
      <trkpt lat="45.91644" lon="3.35568">
        <ele>277.4</ele>
        <time>2024-04-15T15:29:46Z</time>
      </trkpt>
      <trkpt lat="45.91645" lon="3.3556">
        <ele>277.6</ele>
        <time>2024-04-15T15:29:47Z</time>
      </trkpt>
      <trkpt lat="45.91645" lon="3.35551">
        <ele>277.6</ele>
        <time>2024-04-15T15:29:48Z</time>
      </trkpt>
      <trkpt lat="45.91646" lon="3.35543">
        <ele>277.8</ele>
        <time>2024-04-15T15:29:49Z</time>
      </trkpt>
      <trkpt lat="45.91646" lon="3.35535">
        <ele>277.8</ele>
        <time>2024-04-15T15:29:50Z</time>
      </trkpt>
      <trkpt lat="45.91647" lon="3.35526">
        <ele>278</ele>
        <time>2024-04-15T15:29:51Z</time>
      </trkpt>
      <trkpt lat="45.91647" lon="3.35518">
        <ele>278</ele>
        <time>2024-04-15T15:29:52Z</time>
      </trkpt>
      <trkpt lat="45.91648" lon="3.3551">
        <ele>278.2</ele>
        <time>2024-04-15T15:29:53Z</time>
      </trkpt>
      <trkpt lat="45.91649" lon="3.35503">
        <ele>278.2</ele>
        <time>2024-04-15T15:29:54Z</time>
      </trkpt>
      <trkpt lat="45.91651" lon="3.35496">
        <ele>278.4</ele>
        <time>2024-04-15T15:29:55Z</time>
      </trkpt>
      <trkpt lat="45.91651" lon="3.35496">
        <ele>278.6</ele>
        <time>2024-04-15T15:29:56Z</time>
      </trkpt>
      <trkpt lat="45.91651" lon="3.35496">
        <ele>278.6</ele>
        <time>2024-04-15T15:29:57Z</time>
      </trkpt>
      <trkpt lat="45.91651" lon="3.35496">
        <ele>278.8</ele>
        <time>2024-04-15T15:29:58Z</time>
      </trkpt>
      <trkpt lat="45.91659" lon="3.35466">
        <ele>279</ele>
        <time>2024-04-15T15:29:59Z</time>
      </trkpt>
      <trkpt lat="45.91661" lon="3.35459">
        <ele>279</ele>
        <time>2024-04-15T15:30:00Z</time>
      </trkpt>
      <trkpt lat="45.91663" lon="3.35451">
        <ele>279</ele>
        <time>2024-04-15T15:30:01Z</time>
      </trkpt>
      <trkpt lat="45.91665" lon="3.35444">
        <ele>279.2</ele>
        <time>2024-04-15T15:30:02Z</time>
      </trkpt>
      <trkpt lat="45.91667" lon="3.35437">
        <ele>279.2</ele>
        <time>2024-04-15T15:30:03Z</time>
      </trkpt>
      <trkpt lat="45.91669" lon="3.35429">
        <ele>279.4</ele>
        <time>2024-04-15T15:30:04Z</time>
      </trkpt>
      <trkpt lat="45.91671" lon="3.35422">
        <ele>279.4</ele>
        <time>2024-04-15T15:30:05Z</time>
      </trkpt>
      <trkpt lat="45.91673" lon="3.35414">
        <ele>279.6</ele>
        <time>2024-04-15T15:30:06Z</time>
      </trkpt>
      <trkpt lat="45.91675" lon="3.35407">
        <ele>279.6</ele>
        <time>2024-04-15T15:30:07Z</time>
      </trkpt>
      <trkpt lat="45.91677" lon="3.35399">
        <ele>279.8</ele>
        <time>2024-04-15T15:30:08Z</time>
      </trkpt>
      <trkpt lat="45.91679" lon="3.35392">
        <ele>279.8</ele>
        <time>2024-04-15T15:30:09Z</time>
      </trkpt>
      <trkpt lat="45.91681" lon="3.35384">
        <ele>280</ele>
        <time>2024-04-15T15:30:10Z</time>
      </trkpt>
      <trkpt lat="45.91683" lon="3.35377">
        <ele>280</ele>
        <time>2024-04-15T15:30:11Z</time>
      </trkpt>
      <trkpt lat="45.91684" lon="3.3537">
        <ele>280.2</ele>
        <time>2024-04-15T15:30:12Z</time>
      </trkpt>
      <trkpt lat="45.91686" lon="3.35362">
        <ele>280.2</ele>
        <time>2024-04-15T15:30:13Z</time>
      </trkpt>
      <trkpt lat="45.91688" lon="3.35355">
        <ele>280.4</ele>
        <time>2024-04-15T15:30:14Z</time>
      </trkpt>
      <trkpt lat="45.9169" lon="3.35348">
        <ele>280.4</ele>
        <time>2024-04-15T15:30:15Z</time>
      </trkpt>
      <trkpt lat="45.91692" lon="3.35341">
        <ele>280.6</ele>
        <time>2024-04-15T15:30:16Z</time>
      </trkpt>
      <trkpt lat="45.91694" lon="3.35333">
        <ele>280.6</ele>
        <time>2024-04-15T15:30:17Z</time>
      </trkpt>
      <trkpt lat="45.91696" lon="3.35326">
        <ele>280.8</ele>
        <time>2024-04-15T15:30:18Z</time>
      </trkpt>
      <trkpt lat="45.91698" lon="3.35319">
        <ele>280.8</ele>
        <time>2024-04-15T15:30:19Z</time>
      </trkpt>
      <trkpt lat="45.917" lon="3.35312">
        <ele>281</ele>
        <time>2024-04-15T15:30:20Z</time>
      </trkpt>
      <trkpt lat="45.91701" lon="3.35305">
        <ele>281</ele>
        <time>2024-04-15T15:30:21Z</time>
      </trkpt>
      <trkpt lat="45.91703" lon="3.35298">
        <ele>281</ele>
        <time>2024-04-15T15:30:22Z</time>
      </trkpt>
      <trkpt lat="45.91705" lon="3.35291">
        <ele>281.2</ele>
        <time>2024-04-15T15:30:23Z</time>
      </trkpt>
      <trkpt lat="45.91707" lon="3.35284">
        <ele>281.2</ele>
        <time>2024-04-15T15:30:24Z</time>
      </trkpt>
      <trkpt lat="45.91709" lon="3.35277">
        <ele>281.4</ele>
        <time>2024-04-15T15:30:25Z</time>
      </trkpt>
      <trkpt lat="45.91711" lon="3.3527">
        <ele>281.4</ele>
        <time>2024-04-15T15:30:26Z</time>
      </trkpt>
      <trkpt lat="45.91713" lon="3.35263">
        <ele>281.6</ele>
        <time>2024-04-15T15:30:27Z</time>
      </trkpt>
      <trkpt lat="45.91715" lon="3.35255">
        <ele>281.6</ele>
        <time>2024-04-15T15:30:28Z</time>
      </trkpt>
      <trkpt lat="45.91717" lon="3.35248">
        <ele>281.6</ele>
        <time>2024-04-15T15:30:29Z</time>
      </trkpt>
      <trkpt lat="45.91719" lon="3.3524">
        <ele>281.8</ele>
        <time>2024-04-15T15:30:30Z</time>
      </trkpt>
      <trkpt lat="45.91721" lon="3.35233">
        <ele>281.8</ele>
        <time>2024-04-15T15:30:31Z</time>
      </trkpt>
      <trkpt lat="45.91723" lon="3.35226">
        <ele>281.8</ele>
        <time>2024-04-15T15:30:32Z</time>
      </trkpt>
      <trkpt lat="45.91724" lon="3.35218">
        <ele>282</ele>
        <time>2024-04-15T15:30:33Z</time>
      </trkpt>
      <trkpt lat="45.91726" lon="3.35211">
        <ele>282</ele>
        <time>2024-04-15T15:30:34Z</time>
      </trkpt>
      <trkpt lat="45.91728" lon="3.35204">
        <ele>282.2</ele>
        <time>2024-04-15T15:30:35Z</time>
      </trkpt>
      <trkpt lat="45.9173" lon="3.35196">
        <ele>282.2</ele>
        <time>2024-04-15T15:30:36Z</time>
      </trkpt>
      <trkpt lat="45.91732" lon="3.35189">
        <ele>282.2</ele>
        <time>2024-04-15T15:30:37Z</time>
      </trkpt>
      <trkpt lat="45.91734" lon="3.35182">
        <ele>282.4</ele>
        <time>2024-04-15T15:30:38Z</time>
      </trkpt>
      <trkpt lat="45.91736" lon="3.35174">
        <ele>282.4</ele>
        <time>2024-04-15T15:30:39Z</time>
      </trkpt>
      <trkpt lat="45.91738" lon="3.35166">
        <ele>282.4</ele>
        <time>2024-04-15T15:30:40Z</time>
      </trkpt>
      <trkpt lat="45.91739" lon="3.35159">
        <ele>282.6</ele>
        <time>2024-04-15T15:30:41Z</time>
      </trkpt>
      <trkpt lat="45.91741" lon="3.35151">
        <ele>282.6</ele>
        <time>2024-04-15T15:30:42Z</time>
      </trkpt>
      <trkpt lat="45.91742" lon="3.35143">
        <ele>282.8</ele>
        <time>2024-04-15T15:30:43Z</time>
      </trkpt>
      <trkpt lat="45.91744" lon="3.35134">
        <ele>282.8</ele>
        <time>2024-04-15T15:30:44Z</time>
      </trkpt>
      <trkpt lat="45.91746" lon="3.35126">
        <ele>282.8</ele>
        <time>2024-04-15T15:30:45Z</time>
      </trkpt>
      <trkpt lat="45.91747" lon="3.35118">
        <ele>282.8</ele>
        <time>2024-04-15T15:30:46Z</time>
      </trkpt>
      <trkpt lat="45.91749" lon="3.3511">
        <ele>283</ele>
        <time>2024-04-15T15:30:47Z</time>
      </trkpt>
      <trkpt lat="45.9175" lon="3.35102">
        <ele>283</ele>
        <time>2024-04-15T15:30:48Z</time>
      </trkpt>
      <trkpt lat="45.91752" lon="3.35094">
        <ele>283</ele>
        <time>2024-04-15T15:30:49Z</time>
      </trkpt>
      <trkpt lat="45.91754" lon="3.35086">
        <ele>283.2</ele>
        <time>2024-04-15T15:30:50Z</time>
      </trkpt>
      <trkpt lat="45.91755" lon="3.35078">
        <ele>283.2</ele>
        <time>2024-04-15T15:30:51Z</time>
      </trkpt>
      <trkpt lat="45.91757" lon="3.3507">
        <ele>283.2</ele>
        <time>2024-04-15T15:30:52Z</time>
      </trkpt>
      <trkpt lat="45.91758" lon="3.35062">
        <ele>283.2</ele>
        <time>2024-04-15T15:30:53Z</time>
      </trkpt>
      <trkpt lat="45.9176" lon="3.35054">
        <ele>283.4</ele>
        <time>2024-04-15T15:30:54Z</time>
      </trkpt>
      <trkpt lat="45.91762" lon="3.35046">
        <ele>283.4</ele>
        <time>2024-04-15T15:30:55Z</time>
      </trkpt>
      <trkpt lat="45.91763" lon="3.35038">
        <ele>283.4</ele>
        <time>2024-04-15T15:30:56Z</time>
      </trkpt>
      <trkpt lat="45.91765" lon="3.3503">
        <ele>283.6</ele>
        <time>2024-04-15T15:30:57Z</time>
      </trkpt>
      <trkpt lat="45.91766" lon="3.35022">
        <ele>283.6</ele>
        <time>2024-04-15T15:30:58Z</time>
      </trkpt>
      <trkpt lat="45.91768" lon="3.35014">
        <ele>283.6</ele>
        <time>2024-04-15T15:30:59Z</time>
      </trkpt>
      <trkpt lat="45.9177" lon="3.35006">
        <ele>283.6</ele>
        <time>2024-04-15T15:31:00Z</time>
      </trkpt>
      <trkpt lat="45.91771" lon="3.34999">
        <ele>283.8</ele>
        <time>2024-04-15T15:31:01Z</time>
      </trkpt>
      <trkpt lat="45.91773" lon="3.34991">
        <ele>283.8</ele>
        <time>2024-04-15T15:31:02Z</time>
      </trkpt>
      <trkpt lat="45.91774" lon="3.34983">
        <ele>283.8</ele>
        <time>2024-04-15T15:31:03Z</time>
      </trkpt>
      <trkpt lat="45.91774" lon="3.34983">
        <ele>283.8</ele>
        <time>2024-04-15T15:31:04Z</time>
      </trkpt>
      <trkpt lat="45.91774" lon="3.34983">
        <ele>284</ele>
        <time>2024-04-15T15:31:05Z</time>
      </trkpt>
      <trkpt lat="45.91779" lon="3.34959">
        <ele>284</ele>
        <time>2024-04-15T15:31:06Z</time>
      </trkpt>
      <trkpt lat="45.91781" lon="3.3495">
        <ele>284</ele>
        <time>2024-04-15T15:31:07Z</time>
      </trkpt>
      <trkpt lat="45.91782" lon="3.34942">
        <ele>284</ele>
        <time>2024-04-15T15:31:08Z</time>
      </trkpt>
      <trkpt lat="45.91784" lon="3.34934">
        <ele>284</ele>
        <time>2024-04-15T15:31:09Z</time>
      </trkpt>
      <trkpt lat="45.91787" lon="3.34926">
        <ele>284</ele>
        <time>2024-04-15T15:31:10Z</time>
      </trkpt>
      <trkpt lat="45.91789" lon="3.34918">
        <ele>284.2</ele>
        <time>2024-04-15T15:31:11Z</time>
      </trkpt>
      <trkpt lat="45.91791" lon="3.34911">
        <ele>284.2</ele>
        <time>2024-04-15T15:31:12Z</time>
      </trkpt>
      <trkpt lat="45.91793" lon="3.34903">
        <ele>284.2</ele>
        <time>2024-04-15T15:31:13Z</time>
      </trkpt>
      <trkpt lat="45.91795" lon="3.34895">
        <ele>284.2</ele>
        <time>2024-04-15T15:31:14Z</time>
      </trkpt>
      <trkpt lat="45.91798" lon="3.34888">
        <ele>284.4</ele>
        <time>2024-04-15T15:31:15Z</time>
      </trkpt>
      <trkpt lat="45.918" lon="3.34881">
        <ele>284.4</ele>
        <time>2024-04-15T15:31:16Z</time>
      </trkpt>
      <trkpt lat="45.91802" lon="3.34873">
        <ele>284.4</ele>
        <time>2024-04-15T15:31:17Z</time>
      </trkpt>
      <trkpt lat="45.91804" lon="3.34866">
        <ele>284.4</ele>
        <time>2024-04-15T15:31:18Z</time>
      </trkpt>
      <trkpt lat="45.91806" lon="3.34858">
        <ele>284.6</ele>
        <time>2024-04-15T15:31:19Z</time>
      </trkpt>
      <trkpt lat="45.91808" lon="3.34851">
        <ele>284.6</ele>
        <time>2024-04-15T15:31:20Z</time>
      </trkpt>
      <trkpt lat="45.9181" lon="3.34844">
        <ele>284.6</ele>
        <time>2024-04-15T15:31:21Z</time>
      </trkpt>
      <trkpt lat="45.91812" lon="3.34837">
        <ele>284.6</ele>
        <time>2024-04-15T15:31:22Z</time>
      </trkpt>
      <trkpt lat="45.91814" lon="3.34831">
        <ele>284.6</ele>
        <time>2024-04-15T15:31:23Z</time>
      </trkpt>
      <trkpt lat="45.91816" lon="3.34824">
        <ele>284.6</ele>
        <time>2024-04-15T15:31:24Z</time>
      </trkpt>
      <trkpt lat="45.91818" lon="3.34817">
        <ele>284.8</ele>
        <time>2024-04-15T15:31:25Z</time>
      </trkpt>
      <trkpt lat="45.91819" lon="3.34811">
        <ele>284.8</ele>
        <time>2024-04-15T15:31:26Z</time>
      </trkpt>
      <trkpt lat="45.91821" lon="3.34804">
        <ele>284.8</ele>
        <time>2024-04-15T15:31:27Z</time>
      </trkpt>
      <trkpt lat="45.91823" lon="3.34798">
        <ele>284.8</ele>
        <time>2024-04-15T15:31:28Z</time>
      </trkpt>
      <trkpt lat="45.91825" lon="3.34791">
        <ele>284.8</ele>
        <time>2024-04-15T15:31:29Z</time>
      </trkpt>
      <trkpt lat="45.91827" lon="3.34785">
        <ele>284.8</ele>
        <time>2024-04-15T15:31:30Z</time>
      </trkpt>
      <trkpt lat="45.91829" lon="3.34779">
        <ele>284.8</ele>
        <time>2024-04-15T15:31:31Z</time>
      </trkpt>
      <trkpt lat="45.9183" lon="3.34772">
        <ele>285</ele>
        <time>2024-04-15T15:31:32Z</time>
      </trkpt>
      <trkpt lat="45.91832" lon="3.34766">
        <ele>285</ele>
        <time>2024-04-15T15:31:33Z</time>
      </trkpt>
      <trkpt lat="45.91834" lon="3.3476">
        <ele>285</ele>
        <time>2024-04-15T15:31:34Z</time>
      </trkpt>
      <trkpt lat="45.91836" lon="3.34754">
        <ele>285</ele>
        <time>2024-04-15T15:31:35Z</time>
      </trkpt>
      <trkpt lat="45.91837" lon="3.34747">
        <ele>285.2</ele>
        <time>2024-04-15T15:31:36Z</time>
      </trkpt>
      <trkpt lat="45.91839" lon="3.34741">
        <ele>285.2</ele>
        <time>2024-04-15T15:31:37Z</time>
      </trkpt>
      <trkpt lat="45.91841" lon="3.34735">
        <ele>285.2</ele>
        <time>2024-04-15T15:31:38Z</time>
      </trkpt>
      <trkpt lat="45.91843" lon="3.34729">
        <ele>285.2</ele>
        <time>2024-04-15T15:31:39Z</time>
      </trkpt>
      <trkpt lat="45.91844" lon="3.34723">
        <ele>285.2</ele>
        <time>2024-04-15T15:31:40Z</time>
      </trkpt>
      <trkpt lat="45.91846" lon="3.34717">
        <ele>285.4</ele>
        <time>2024-04-15T15:31:41Z</time>
      </trkpt>
      <trkpt lat="45.91848" lon="3.34711">
        <ele>285.4</ele>
        <time>2024-04-15T15:31:42Z</time>
      </trkpt>
      <trkpt lat="45.91849" lon="3.34705">
        <ele>285.4</ele>
        <time>2024-04-15T15:31:43Z</time>
      </trkpt>
      <trkpt lat="45.91851" lon="3.34699">
        <ele>285.4</ele>
        <time>2024-04-15T15:31:44Z</time>
      </trkpt>
      <trkpt lat="45.91853" lon="3.34693">
        <ele>285.4</ele>
        <time>2024-04-15T15:31:45Z</time>
      </trkpt>
      <trkpt lat="45.91854" lon="3.34687">
        <ele>285.4</ele>
        <time>2024-04-15T15:31:46Z</time>
      </trkpt>
      <trkpt lat="45.91856" lon="3.34681">
        <ele>285.4</ele>
        <time>2024-04-15T15:31:47Z</time>
      </trkpt>
      <trkpt lat="45.91859" lon="3.34676">
        <ele>285.4</ele>
        <time>2024-04-15T15:31:48Z</time>
      </trkpt>
      <trkpt lat="45.91861" lon="3.3467">
        <ele>285.2</ele>
        <time>2024-04-15T15:31:49Z</time>
      </trkpt>
      <trkpt lat="45.91864" lon="3.34665">
        <ele>285.2</ele>
        <time>2024-04-15T15:31:50Z</time>
      </trkpt>
      <trkpt lat="45.91866" lon="3.3466">
        <ele>285.2</ele>
        <time>2024-04-15T15:31:51Z</time>
      </trkpt>
      <trkpt lat="45.91868" lon="3.34655">
        <ele>285.6</ele>
        <time>2024-04-15T15:31:52Z</time>
      </trkpt>
      <trkpt lat="45.91871" lon="3.3465">
        <ele>285.2</ele>
        <time>2024-04-15T15:31:53Z</time>
      </trkpt>
      <trkpt lat="45.91873" lon="3.34645">
        <ele>284.8</ele>
        <time>2024-04-15T15:31:54Z</time>
      </trkpt>
      <trkpt lat="45.91875" lon="3.3464">
        <ele>284.8</ele>
        <time>2024-04-15T15:31:55Z</time>
      </trkpt>
      <trkpt lat="45.91878" lon="3.34635">
        <ele>284.8</ele>
        <time>2024-04-15T15:31:56Z</time>
      </trkpt>
      <trkpt lat="45.9188" lon="3.3463">
        <ele>284.8</ele>
        <time>2024-04-15T15:31:57Z</time>
      </trkpt>
      <trkpt lat="45.91882" lon="3.34625">
        <ele>284.8</ele>
        <time>2024-04-15T15:31:58Z</time>
      </trkpt>
      <trkpt lat="45.91885" lon="3.3462">
        <ele>284.6</ele>
        <time>2024-04-15T15:31:59Z</time>
      </trkpt>
      <trkpt lat="45.91887" lon="3.34615">
        <ele>284.6</ele>
        <time>2024-04-15T15:32:00Z</time>
      </trkpt>
      <trkpt lat="45.9189" lon="3.34611">
        <ele>284.6</ele>
        <time>2024-04-15T15:32:01Z</time>
      </trkpt>
      <trkpt lat="45.91892" lon="3.34607">
        <ele>284.6</ele>
        <time>2024-04-15T15:32:02Z</time>
      </trkpt>
      <trkpt lat="45.91895" lon="3.34603">
        <ele>284.6</ele>
        <time>2024-04-15T15:32:03Z</time>
      </trkpt>
      <trkpt lat="45.91897" lon="3.34599">
        <ele>284.4</ele>
        <time>2024-04-15T15:32:04Z</time>
      </trkpt>
      <trkpt lat="45.919" lon="3.34594">
        <ele>284.4</ele>
        <time>2024-04-15T15:32:05Z</time>
      </trkpt>
      <trkpt lat="45.91902" lon="3.3459">
        <ele>284.4</ele>
        <time>2024-04-15T15:32:06Z</time>
      </trkpt>
      <trkpt lat="45.91905" lon="3.34586">
        <ele>284.2</ele>
        <time>2024-04-15T15:32:07Z</time>
      </trkpt>
      <trkpt lat="45.91907" lon="3.34583">
        <ele>284.2</ele>
        <time>2024-04-15T15:32:08Z</time>
      </trkpt>
      <trkpt lat="45.9191" lon="3.34579">
        <ele>284.2</ele>
        <time>2024-04-15T15:32:09Z</time>
      </trkpt>
      <trkpt lat="45.91912" lon="3.34576">
        <ele>284.2</ele>
        <time>2024-04-15T15:32:10Z</time>
      </trkpt>
      <trkpt lat="45.91915" lon="3.34573">
        <ele>284.2</ele>
        <time>2024-04-15T15:32:11Z</time>
      </trkpt>
      <trkpt lat="45.91917" lon="3.34569">
        <ele>284.2</ele>
        <time>2024-04-15T15:32:12Z</time>
      </trkpt>
      <trkpt lat="45.9192" lon="3.34566">
        <ele>284.2</ele>
        <time>2024-04-15T15:32:13Z</time>
      </trkpt>
      <trkpt lat="45.91922" lon="3.34562">
        <ele>284.2</ele>
        <time>2024-04-15T15:32:14Z</time>
      </trkpt>
      <trkpt lat="45.91925" lon="3.34559">
        <ele>284.2</ele>
        <time>2024-04-15T15:32:15Z</time>
      </trkpt>
      <trkpt lat="45.91927" lon="3.34555">
        <ele>284.2</ele>
        <time>2024-04-15T15:32:16Z</time>
      </trkpt>
      <trkpt lat="45.9193" lon="3.34552">
        <ele>284.2</ele>
        <time>2024-04-15T15:32:17Z</time>
      </trkpt>
      <trkpt lat="45.91933" lon="3.34548">
        <ele>284.4</ele>
        <time>2024-04-15T15:32:18Z</time>
      </trkpt>
      <trkpt lat="45.91935" lon="3.34545">
        <ele>284.4</ele>
        <time>2024-04-15T15:32:19Z</time>
      </trkpt>
      <trkpt lat="45.91938" lon="3.34541">
        <ele>284</ele>
        <time>2024-04-15T15:32:20Z</time>
      </trkpt>
      <trkpt lat="45.9194" lon="3.34538">
        <ele>283.8</ele>
        <time>2024-04-15T15:32:21Z</time>
      </trkpt>
      <trkpt lat="45.91942" lon="3.34535">
        <ele>284.8</ele>
        <time>2024-04-15T15:32:22Z</time>
      </trkpt>
      <trkpt lat="45.91946" lon="3.34533">
        <ele>284.8</ele>
        <time>2024-04-15T15:32:23Z</time>
      </trkpt>
      <trkpt lat="45.91949" lon="3.3453">
        <ele>284.8</ele>
        <time>2024-04-15T15:32:24Z</time>
      </trkpt>
      <trkpt lat="45.91953" lon="3.34527">
        <ele>284.8</ele>
        <time>2024-04-15T15:32:25Z</time>
      </trkpt>
      <trkpt lat="45.91957" lon="3.34524">
        <ele>285</ele>
        <time>2024-04-15T15:32:26Z</time>
      </trkpt>
      <trkpt lat="45.91961" lon="3.34521">
        <ele>285</ele>
        <time>2024-04-15T15:32:27Z</time>
      </trkpt>
      <trkpt lat="45.91965" lon="3.34518">
        <ele>285</ele>
        <time>2024-04-15T15:32:28Z</time>
      </trkpt>
      <trkpt lat="45.91969" lon="3.34515">
        <ele>285</ele>
        <time>2024-04-15T15:32:29Z</time>
      </trkpt>
      <trkpt lat="45.91973" lon="3.34512">
        <ele>285</ele>
        <time>2024-04-15T15:32:30Z</time>
      </trkpt>
      <trkpt lat="45.91977" lon="3.34509">
        <ele>285.2</ele>
        <time>2024-04-15T15:32:31Z</time>
      </trkpt>
      <trkpt lat="45.91981" lon="3.34506">
        <ele>285.2</ele>
        <time>2024-04-15T15:32:32Z</time>
      </trkpt>
      <trkpt lat="45.91985" lon="3.34502">
        <ele>285.2</ele>
        <time>2024-04-15T15:32:33Z</time>
      </trkpt>
      <trkpt lat="45.9199" lon="3.34499">
        <ele>285.2</ele>
        <time>2024-04-15T15:32:34Z</time>
      </trkpt>
      <trkpt lat="45.91995" lon="3.34495">
        <ele>285.2</ele>
        <time>2024-04-15T15:32:35Z</time>
      </trkpt>
      <trkpt lat="45.92001" lon="3.34492">
        <ele>285.4</ele>
        <time>2024-04-15T15:32:36Z</time>
      </trkpt>
      <trkpt lat="45.92006" lon="3.34488">
        <ele>285.4</ele>
        <time>2024-04-15T15:32:37Z</time>
      </trkpt>
      <trkpt lat="45.92012" lon="3.34485">
        <ele>285.4</ele>
        <time>2024-04-15T15:32:38Z</time>
      </trkpt>
      <trkpt lat="45.92017" lon="3.34481">
        <ele>285.4</ele>
        <time>2024-04-15T15:32:39Z</time>
      </trkpt>
      <trkpt lat="45.92023" lon="3.34477">
        <ele>285.4</ele>
        <time>2024-04-15T15:32:40Z</time>
      </trkpt>
      <trkpt lat="45.92029" lon="3.34472">
        <ele>285.6</ele>
        <time>2024-04-15T15:32:41Z</time>
      </trkpt>
      <trkpt lat="45.92034" lon="3.34466">
        <ele>285.6</ele>
        <time>2024-04-15T15:32:42Z</time>
      </trkpt>
      <trkpt lat="45.92039" lon="3.34461">
        <ele>285.6</ele>
        <time>2024-04-15T15:32:43Z</time>
      </trkpt>
      <trkpt lat="45.92044" lon="3.34455">
        <ele>285.6</ele>
        <time>2024-04-15T15:32:44Z</time>
      </trkpt>
      <trkpt lat="45.92049" lon="3.34449">
        <ele>285.6</ele>
        <time>2024-04-15T15:32:45Z</time>
      </trkpt>
      <trkpt lat="45.92054" lon="3.34443">
        <ele>285.6</ele>
        <time>2024-04-15T15:32:46Z</time>
      </trkpt>
      <trkpt lat="45.9206" lon="3.34436">
        <ele>285.6</ele>
        <time>2024-04-15T15:32:47Z</time>
      </trkpt>
      <trkpt lat="45.92065" lon="3.3443">
        <ele>285.6</ele>
        <time>2024-04-15T15:32:48Z</time>
      </trkpt>
      <trkpt lat="45.9207" lon="3.34424">
        <ele>285.6</ele>
        <time>2024-04-15T15:32:49Z</time>
      </trkpt>
      <trkpt lat="45.92075" lon="3.34416">
        <ele>285.8</ele>
        <time>2024-04-15T15:32:50Z</time>
      </trkpt>
      <trkpt lat="45.9208" lon="3.3441">
        <ele>285.8</ele>
        <time>2024-04-15T15:32:51Z</time>
      </trkpt>
      <trkpt lat="45.92084" lon="3.34403">
        <ele>285.8</ele>
        <time>2024-04-15T15:32:52Z</time>
      </trkpt>
      <trkpt lat="45.92088" lon="3.34396">
        <ele>285.8</ele>
        <time>2024-04-15T15:32:53Z</time>
      </trkpt>
      <trkpt lat="45.92091" lon="3.34389">
        <ele>285.8</ele>
        <time>2024-04-15T15:32:54Z</time>
      </trkpt>
      <trkpt lat="45.92093" lon="3.3438">
        <ele>285.8</ele>
        <time>2024-04-15T15:32:55Z</time>
      </trkpt>
      <trkpt lat="45.92095" lon="3.34372">
        <ele>285.8</ele>
        <time>2024-04-15T15:32:56Z</time>
      </trkpt>
      <trkpt lat="45.92096" lon="3.34364">
        <ele>285.8</ele>
        <time>2024-04-15T15:32:57Z</time>
      </trkpt>
      <trkpt lat="45.92098" lon="3.34356">
        <ele>285.8</ele>
        <time>2024-04-15T15:32:58Z</time>
      </trkpt>
      <trkpt lat="45.921" lon="3.34348">
        <ele>286</ele>
        <time>2024-04-15T15:32:59Z</time>
      </trkpt>
      <trkpt lat="45.92101" lon="3.34341">
        <ele>286</ele>
        <time>2024-04-15T15:33:00Z</time>
      </trkpt>
      <trkpt lat="45.92101" lon="3.34333">
        <ele>286</ele>
        <time>2024-04-15T15:33:01Z</time>
      </trkpt>
      <trkpt lat="45.92101" lon="3.34325">
        <ele>286.2</ele>
        <time>2024-04-15T15:33:02Z</time>
      </trkpt>
      <trkpt lat="45.92101" lon="3.34317">
        <ele>286.4</ele>
        <time>2024-04-15T15:33:03Z</time>
      </trkpt>
      <trkpt lat="45.92101" lon="3.34309">
        <ele>286.4</ele>
        <time>2024-04-15T15:33:04Z</time>
      </trkpt>
      <trkpt lat="45.92101" lon="3.343">
        <ele>286.6</ele>
        <time>2024-04-15T15:33:05Z</time>
      </trkpt>
      <trkpt lat="45.92101" lon="3.34292">
        <ele>286.6</ele>
        <time>2024-04-15T15:33:06Z</time>
      </trkpt>
      <trkpt lat="45.92101" lon="3.34284">
        <ele>286.6</ele>
        <time>2024-04-15T15:33:07Z</time>
      </trkpt>
      <trkpt lat="45.92101" lon="3.34276">
        <ele>286.8</ele>
        <time>2024-04-15T15:33:08Z</time>
      </trkpt>
      <trkpt lat="45.92101" lon="3.34268">
        <ele>287</ele>
        <time>2024-04-15T15:33:09Z</time>
      </trkpt>
      <trkpt lat="45.921" lon="3.3426">
        <ele>287</ele>
        <time>2024-04-15T15:33:10Z</time>
      </trkpt>
      <trkpt lat="45.921" lon="3.34252">
        <ele>287.2</ele>
        <time>2024-04-15T15:33:11Z</time>
      </trkpt>
      <trkpt lat="45.92099" lon="3.34243">
        <ele>287.2</ele>
        <time>2024-04-15T15:33:12Z</time>
      </trkpt>
      <trkpt lat="45.92098" lon="3.34235">
        <ele>287.4</ele>
        <time>2024-04-15T15:33:13Z</time>
      </trkpt>
      <trkpt lat="45.92098" lon="3.34226">
        <ele>287.4</ele>
        <time>2024-04-15T15:33:14Z</time>
      </trkpt>
      <trkpt lat="45.92097" lon="3.34217">
        <ele>287.6</ele>
        <time>2024-04-15T15:33:15Z</time>
      </trkpt>
      <trkpt lat="45.92096" lon="3.34209">
        <ele>287.8</ele>
        <time>2024-04-15T15:33:16Z</time>
      </trkpt>
      <trkpt lat="45.92095" lon="3.342">
        <ele>287.8</ele>
        <time>2024-04-15T15:33:17Z</time>
      </trkpt>
      <trkpt lat="45.92095" lon="3.34191">
        <ele>288</ele>
        <time>2024-04-15T15:33:18Z</time>
      </trkpt>
      <trkpt lat="45.92094" lon="3.34183">
        <ele>288</ele>
        <time>2024-04-15T15:33:19Z</time>
      </trkpt>
      <trkpt lat="45.92093" lon="3.34175">
        <ele>288.2</ele>
        <time>2024-04-15T15:33:20Z</time>
      </trkpt>
      <trkpt lat="45.92093" lon="3.34167">
        <ele>288.2</ele>
        <time>2024-04-15T15:33:21Z</time>
      </trkpt>
      <trkpt lat="45.92092" lon="3.34159">
        <ele>288.2</ele>
        <time>2024-04-15T15:33:22Z</time>
      </trkpt>
      <trkpt lat="45.92091" lon="3.3415">
        <ele>288.4</ele>
        <time>2024-04-15T15:33:23Z</time>
      </trkpt>
      <trkpt lat="45.92091" lon="3.34142">
        <ele>288.4</ele>
        <time>2024-04-15T15:33:24Z</time>
      </trkpt>
      <trkpt lat="45.9209" lon="3.34134">
        <ele>288.6</ele>
        <time>2024-04-15T15:33:25Z</time>
      </trkpt>
      <trkpt lat="45.92089" lon="3.34126">
        <ele>288.6</ele>
        <time>2024-04-15T15:33:26Z</time>
      </trkpt>
      <trkpt lat="45.92089" lon="3.34119">
        <ele>288.8</ele>
        <time>2024-04-15T15:33:27Z</time>
      </trkpt>
      <trkpt lat="45.92088" lon="3.34111">
        <ele>288.8</ele>
        <time>2024-04-15T15:33:28Z</time>
      </trkpt>
      <trkpt lat="45.92087" lon="3.34104">
        <ele>289</ele>
        <time>2024-04-15T15:33:29Z</time>
      </trkpt>
      <trkpt lat="45.92084" lon="3.34098">
        <ele>289</ele>
        <time>2024-04-15T15:33:30Z</time>
      </trkpt>
      <trkpt lat="45.92081" lon="3.34091">
        <ele>289</ele>
        <time>2024-04-15T15:33:31Z</time>
      </trkpt>
      <trkpt lat="45.92078" lon="3.34085">
        <ele>289.2</ele>
        <time>2024-04-15T15:33:32Z</time>
      </trkpt>
      <trkpt lat="45.92075" lon="3.34078">
        <ele>289.4</ele>
        <time>2024-04-15T15:33:33Z</time>
      </trkpt>
      <trkpt lat="45.92072" lon="3.34072">
        <ele>289.4</ele>
        <time>2024-04-15T15:33:34Z</time>
      </trkpt>
      <trkpt lat="45.92069" lon="3.34065">
        <ele>289.4</ele>
        <time>2024-04-15T15:33:35Z</time>
      </trkpt>
      <trkpt lat="45.92066" lon="3.34059">
        <ele>289.6</ele>
        <time>2024-04-15T15:33:36Z</time>
      </trkpt>
      <trkpt lat="45.92063" lon="3.34052">
        <ele>289.6</ele>
        <time>2024-04-15T15:33:37Z</time>
      </trkpt>
      <trkpt lat="45.9206" lon="3.34046">
        <ele>289.8</ele>
        <time>2024-04-15T15:33:38Z</time>
      </trkpt>
      <trkpt lat="45.92057" lon="3.34039">
        <ele>289.8</ele>
        <time>2024-04-15T15:33:39Z</time>
      </trkpt>
      <trkpt lat="45.92054" lon="3.34033">
        <ele>290</ele>
        <time>2024-04-15T15:33:40Z</time>
      </trkpt>
      <trkpt lat="45.92051" lon="3.34026">
        <ele>290.2</ele>
        <time>2024-04-15T15:33:41Z</time>
      </trkpt>
      <trkpt lat="45.92049" lon="3.34019">
        <ele>290.2</ele>
        <time>2024-04-15T15:33:42Z</time>
      </trkpt>
      <trkpt lat="45.92047" lon="3.34012">
        <ele>290.4</ele>
        <time>2024-04-15T15:33:43Z</time>
      </trkpt>
      <trkpt lat="45.92045" lon="3.34005">
        <ele>290.6</ele>
        <time>2024-04-15T15:33:44Z</time>
      </trkpt>
      <trkpt lat="45.92043" lon="3.33997">
        <ele>290.6</ele>
        <time>2024-04-15T15:33:45Z</time>
      </trkpt>
      <trkpt lat="45.92042" lon="3.33989">
        <ele>290.8</ele>
        <time>2024-04-15T15:33:46Z</time>
      </trkpt>
      <trkpt lat="45.9204" lon="3.33982">
        <ele>290.8</ele>
        <time>2024-04-15T15:33:47Z</time>
      </trkpt>
      <trkpt lat="45.92038" lon="3.33974">
        <ele>291</ele>
        <time>2024-04-15T15:33:48Z</time>
      </trkpt>
      <trkpt lat="45.92036" lon="3.33966">
        <ele>291</ele>
        <time>2024-04-15T15:33:49Z</time>
      </trkpt>
      <trkpt lat="45.92034" lon="3.33959">
        <ele>291.2</ele>
        <time>2024-04-15T15:33:50Z</time>
      </trkpt>
      <trkpt lat="45.92033" lon="3.33952">
        <ele>291.2</ele>
        <time>2024-04-15T15:33:51Z</time>
      </trkpt>
      <trkpt lat="45.92031" lon="3.33944">
        <ele>291.4</ele>
        <time>2024-04-15T15:33:52Z</time>
      </trkpt>
      <trkpt lat="45.92031" lon="3.33934">
        <ele>291.4</ele>
        <time>2024-04-15T15:33:53Z</time>
      </trkpt>
      <trkpt lat="45.92031" lon="3.33934">
        <ele>291.6</ele>
        <time>2024-04-15T15:33:54Z</time>
      </trkpt>
      <trkpt lat="45.92033" lon="3.33919">
        <ele>291.6</ele>
        <time>2024-04-15T15:33:55Z</time>
      </trkpt>
      <trkpt lat="45.92034" lon="3.33912">
        <ele>291.8</ele>
        <time>2024-04-15T15:33:56Z</time>
      </trkpt>
      <trkpt lat="45.92035" lon="3.33904">
        <ele>291.8</ele>
        <time>2024-04-15T15:33:57Z</time>
      </trkpt>
      <trkpt lat="45.92036" lon="3.33897">
        <ele>292</ele>
        <time>2024-04-15T15:33:58Z</time>
      </trkpt>
      <trkpt lat="45.92037" lon="3.33889">
        <ele>292</ele>
        <time>2024-04-15T15:33:59Z</time>
      </trkpt>
      <trkpt lat="45.92038" lon="3.33881">
        <ele>292.2</ele>
        <time>2024-04-15T15:34:00Z</time>
      </trkpt>
      <trkpt lat="45.9204" lon="3.33874">
        <ele>292.4</ele>
        <time>2024-04-15T15:34:01Z</time>
      </trkpt>
      <trkpt lat="45.92041" lon="3.33866">
        <ele>292.4</ele>
        <time>2024-04-15T15:34:02Z</time>
      </trkpt>
      <trkpt lat="45.92042" lon="3.33859">
        <ele>292.6</ele>
        <time>2024-04-15T15:34:03Z</time>
      </trkpt>
      <trkpt lat="45.92046" lon="3.3385">
        <ele>292.6</ele>
        <time>2024-04-15T15:34:04Z</time>
      </trkpt>
      <trkpt lat="45.92054" lon="3.33848">
        <ele>292.8</ele>
        <time>2024-04-15T15:34:05Z</time>
      </trkpt>
      <trkpt lat="45.9206" lon="3.33848">
        <ele>292.8</ele>
        <time>2024-04-15T15:34:06Z</time>
      </trkpt>
      <trkpt lat="45.92066" lon="3.33849">
        <ele>292.8</ele>
        <time>2024-04-15T15:34:07Z</time>
      </trkpt>
      <trkpt lat="45.92072" lon="3.3385">
        <ele>293</ele>
        <time>2024-04-15T15:34:08Z</time>
      </trkpt>
      <trkpt lat="45.92079" lon="3.33851">
        <ele>293</ele>
        <time>2024-04-15T15:34:09Z</time>
      </trkpt>
      <trkpt lat="45.92086" lon="3.33851">
        <ele>293</ele>
        <time>2024-04-15T15:34:10Z</time>
      </trkpt>
      <trkpt lat="45.92093" lon="3.33852">
        <ele>293.2</ele>
        <time>2024-04-15T15:34:11Z</time>
      </trkpt>
      <trkpt lat="45.92099" lon="3.33853">
        <ele>293.2</ele>
        <time>2024-04-15T15:34:12Z</time>
      </trkpt>
      <trkpt lat="45.92107" lon="3.33856">
        <ele>293.2</ele>
        <time>2024-04-15T15:34:13Z</time>
      </trkpt>
      <trkpt lat="45.92114" lon="3.33859">
        <ele>293.2</ele>
        <time>2024-04-15T15:34:14Z</time>
      </trkpt>
      <trkpt lat="45.9212" lon="3.33862">
        <ele>293.2</ele>
        <time>2024-04-15T15:34:15Z</time>
      </trkpt>
      <trkpt lat="45.92127" lon="3.33866">
        <ele>293.4</ele>
        <time>2024-04-15T15:34:16Z</time>
      </trkpt>
      <trkpt lat="45.92134" lon="3.33869">
        <ele>293.4</ele>
        <time>2024-04-15T15:34:17Z</time>
      </trkpt>
      <trkpt lat="45.9214" lon="3.33872">
        <ele>293.4</ele>
        <time>2024-04-15T15:34:18Z</time>
      </trkpt>
      <trkpt lat="45.92147" lon="3.33876">
        <ele>293.4</ele>
        <time>2024-04-15T15:34:19Z</time>
      </trkpt>
      <trkpt lat="45.92154" lon="3.33879">
        <ele>293.4</ele>
        <time>2024-04-15T15:34:20Z</time>
      </trkpt>
      <trkpt lat="45.9216" lon="3.33882">
        <ele>293.4</ele>
        <time>2024-04-15T15:34:21Z</time>
      </trkpt>
      <trkpt lat="45.92167" lon="3.33886">
        <ele>293.4</ele>
        <time>2024-04-15T15:34:22Z</time>
      </trkpt>
      <trkpt lat="45.92174" lon="3.33889">
        <ele>293.4</ele>
        <time>2024-04-15T15:34:23Z</time>
      </trkpt>
      <trkpt lat="45.9218" lon="3.33892">
        <ele>293.4</ele>
        <time>2024-04-15T15:34:24Z</time>
      </trkpt>
      <trkpt lat="45.92186" lon="3.33895">
        <ele>293.4</ele>
        <time>2024-04-15T15:34:25Z</time>
      </trkpt>
      <trkpt lat="45.92192" lon="3.33898">
        <ele>293.4</ele>
        <time>2024-04-15T15:34:26Z</time>
      </trkpt>
      <trkpt lat="45.92198" lon="3.33901">
        <ele>293.4</ele>
        <time>2024-04-15T15:34:27Z</time>
      </trkpt>
      <trkpt lat="45.92203" lon="3.33903">
        <ele>293.4</ele>
        <time>2024-04-15T15:34:28Z</time>
      </trkpt>
      <trkpt lat="45.92209" lon="3.33905">
        <ele>293.4</ele>
        <time>2024-04-15T15:34:29Z</time>
      </trkpt>
      <trkpt lat="45.92215" lon="3.33906">
        <ele>293.4</ele>
        <time>2024-04-15T15:34:30Z</time>
      </trkpt>
      <trkpt lat="45.92221" lon="3.33907">
        <ele>293.4</ele>
        <time>2024-04-15T15:34:31Z</time>
      </trkpt>
      <trkpt lat="45.92226" lon="3.33909">
        <ele>293.2</ele>
        <time>2024-04-15T15:34:32Z</time>
      </trkpt>
      <trkpt lat="45.92232" lon="3.3391">
        <ele>293.2</ele>
        <time>2024-04-15T15:34:33Z</time>
      </trkpt>
      <trkpt lat="45.92237" lon="3.33911">
        <ele>293.6</ele>
        <time>2024-04-15T15:34:34Z</time>
      </trkpt>
      <trkpt lat="45.92242" lon="3.33912">
        <ele>293.2</ele>
        <time>2024-04-15T15:34:35Z</time>
      </trkpt>
      <trkpt lat="45.92248" lon="3.33914">
        <ele>293</ele>
        <time>2024-04-15T15:34:36Z</time>
      </trkpt>
      <trkpt lat="45.92253" lon="3.33915">
        <ele>293</ele>
        <time>2024-04-15T15:34:37Z</time>
      </trkpt>
      <trkpt lat="45.92258" lon="3.33916">
        <ele>293</ele>
        <time>2024-04-15T15:34:38Z</time>
      </trkpt>
      <trkpt lat="45.92263" lon="3.33917">
        <ele>292.8</ele>
        <time>2024-04-15T15:34:39Z</time>
      </trkpt>
      <trkpt lat="45.92268" lon="3.33918">
        <ele>292.8</ele>
        <time>2024-04-15T15:34:40Z</time>
      </trkpt>
      <trkpt lat="45.92273" lon="3.33918">
        <ele>292.8</ele>
        <time>2024-04-15T15:34:41Z</time>
      </trkpt>
      <trkpt lat="45.92278" lon="3.33917">
        <ele>292.6</ele>
        <time>2024-04-15T15:34:42Z</time>
      </trkpt>
      <trkpt lat="45.92283" lon="3.33917">
        <ele>292.6</ele>
        <time>2024-04-15T15:34:43Z</time>
      </trkpt>
      <trkpt lat="45.92288" lon="3.33917">
        <ele>292.6</ele>
        <time>2024-04-15T15:34:44Z</time>
      </trkpt>
      <trkpt lat="45.92294" lon="3.33917">
        <ele>292.8</ele>
        <time>2024-04-15T15:34:45Z</time>
      </trkpt>
      <trkpt lat="45.92299" lon="3.33916">
        <ele>292.6</ele>
        <time>2024-04-15T15:34:46Z</time>
      </trkpt>
      <trkpt lat="45.92304" lon="3.33916">
        <ele>292.8</ele>
        <time>2024-04-15T15:34:47Z</time>
      </trkpt>
      <trkpt lat="45.9231" lon="3.33916">
        <ele>292.8</ele>
        <time>2024-04-15T15:34:48Z</time>
      </trkpt>
      <trkpt lat="45.92315" lon="3.33916">
        <ele>293</ele>
        <time>2024-04-15T15:34:49Z</time>
      </trkpt>
      <trkpt lat="45.9232" lon="3.33915">
        <ele>292.8</ele>
        <time>2024-04-15T15:34:50Z</time>
      </trkpt>
      <trkpt lat="45.92325" lon="3.33915">
        <ele>292.6</ele>
        <time>2024-04-15T15:34:51Z</time>
      </trkpt>
      <trkpt lat="45.92331" lon="3.33915">
        <ele>292.6</ele>
        <time>2024-04-15T15:34:52Z</time>
      </trkpt>
      <trkpt lat="45.92336" lon="3.33915">
        <ele>292.6</ele>
        <time>2024-04-15T15:34:53Z</time>
      </trkpt>
      <trkpt lat="45.92341" lon="3.33914">
        <ele>292.8</ele>
        <time>2024-04-15T15:34:54Z</time>
      </trkpt>
      <trkpt lat="45.92346" lon="3.33914">
        <ele>292.8</ele>
        <time>2024-04-15T15:34:55Z</time>
      </trkpt>
      <trkpt lat="45.92352" lon="3.33914">
        <ele>293</ele>
        <time>2024-04-15T15:34:56Z</time>
      </trkpt>
      <trkpt lat="45.92357" lon="3.33914">
        <ele>293.2</ele>
        <time>2024-04-15T15:34:57Z</time>
      </trkpt>
      <trkpt lat="45.92362" lon="3.33912">
        <ele>293.4</ele>
        <time>2024-04-15T15:34:58Z</time>
      </trkpt>
      <trkpt lat="45.92367" lon="3.3391">
        <ele>293.2</ele>
        <time>2024-04-15T15:34:59Z</time>
      </trkpt>
      <trkpt lat="45.92372" lon="3.33907">
        <ele>293.2</ele>
        <time>2024-04-15T15:35:00Z</time>
      </trkpt>
      <trkpt lat="45.92378" lon="3.33905">
        <ele>293.4</ele>
        <time>2024-04-15T15:35:01Z</time>
      </trkpt>
      <trkpt lat="45.92383" lon="3.33903">
        <ele>293.6</ele>
        <time>2024-04-15T15:35:02Z</time>
      </trkpt>
      <trkpt lat="45.92389" lon="3.33901">
        <ele>293.6</ele>
        <time>2024-04-15T15:35:03Z</time>
      </trkpt>
      <trkpt lat="45.92394" lon="3.33899">
        <ele>293.8</ele>
        <time>2024-04-15T15:35:04Z</time>
      </trkpt>
      <trkpt lat="45.92399" lon="3.33897">
        <ele>294</ele>
        <time>2024-04-15T15:35:05Z</time>
      </trkpt>
      <trkpt lat="45.92404" lon="3.33895">
        <ele>294</ele>
        <time>2024-04-15T15:35:06Z</time>
      </trkpt>
      <trkpt lat="45.92409" lon="3.33893">
        <ele>294.2</ele>
        <time>2024-04-15T15:35:07Z</time>
      </trkpt>
      <trkpt lat="45.92414" lon="3.33892">
        <ele>294.2</ele>
        <time>2024-04-15T15:35:08Z</time>
      </trkpt>
      <trkpt lat="45.92419" lon="3.3389">
        <ele>294.4</ele>
        <time>2024-04-15T15:35:09Z</time>
      </trkpt>
      <trkpt lat="45.92424" lon="3.33888">
        <ele>294.4</ele>
        <time>2024-04-15T15:35:10Z</time>
      </trkpt>
      <trkpt lat="45.92429" lon="3.33886">
        <ele>294.4</ele>
        <time>2024-04-15T15:35:11Z</time>
      </trkpt>
      <trkpt lat="45.92434" lon="3.33884">
        <ele>294.6</ele>
        <time>2024-04-15T15:35:12Z</time>
      </trkpt>
      <trkpt lat="45.92439" lon="3.33882">
        <ele>294.6</ele>
        <time>2024-04-15T15:35:13Z</time>
      </trkpt>
      <trkpt lat="45.92444" lon="3.3388">
        <ele>294.8</ele>
        <time>2024-04-15T15:35:14Z</time>
      </trkpt>
      <trkpt lat="45.92449" lon="3.33878">
        <ele>294.8</ele>
        <time>2024-04-15T15:35:15Z</time>
      </trkpt>
      <trkpt lat="45.92454" lon="3.33876">
        <ele>295</ele>
        <time>2024-04-15T15:35:16Z</time>
      </trkpt>
      <trkpt lat="45.92459" lon="3.33875">
        <ele>295</ele>
        <time>2024-04-15T15:35:17Z</time>
      </trkpt>
      <trkpt lat="45.92464" lon="3.33873">
        <ele>295.2</ele>
        <time>2024-04-15T15:35:18Z</time>
      </trkpt>
      <trkpt lat="45.92468" lon="3.33871">
        <ele>295.2</ele>
        <time>2024-04-15T15:35:19Z</time>
      </trkpt>
      <trkpt lat="45.92473" lon="3.33869">
        <ele>295.2</ele>
        <time>2024-04-15T15:35:20Z</time>
      </trkpt>
      <trkpt lat="45.92478" lon="3.33867">
        <ele>295.4</ele>
        <time>2024-04-15T15:35:21Z</time>
      </trkpt>
      <trkpt lat="45.92483" lon="3.33865">
        <ele>295.6</ele>
        <time>2024-04-15T15:35:22Z</time>
      </trkpt>
      <trkpt lat="45.92488" lon="3.33863">
        <ele>295.6</ele>
        <time>2024-04-15T15:35:23Z</time>
      </trkpt>
      <trkpt lat="45.92493" lon="3.33861">
        <ele>295.8</ele>
        <time>2024-04-15T15:35:24Z</time>
      </trkpt>
      <trkpt lat="45.92498" lon="3.3386">
        <ele>295.8</ele>
        <time>2024-04-15T15:35:25Z</time>
      </trkpt>
      <trkpt lat="45.92503" lon="3.33858">
        <ele>296</ele>
        <time>2024-04-15T15:35:26Z</time>
      </trkpt>
      <trkpt lat="45.92508" lon="3.33856">
        <ele>296</ele>
        <time>2024-04-15T15:35:27Z</time>
      </trkpt>
      <trkpt lat="45.92514" lon="3.33854">
        <ele>296.2</ele>
        <time>2024-04-15T15:35:28Z</time>
      </trkpt>
      <trkpt lat="45.92519" lon="3.33852">
        <ele>296.4</ele>
        <time>2024-04-15T15:35:29Z</time>
      </trkpt>
      <trkpt lat="45.92524" lon="3.3385">
        <ele>296.4</ele>
        <time>2024-04-15T15:35:30Z</time>
      </trkpt>
      <trkpt lat="45.92529" lon="3.33849">
        <ele>296.6</ele>
        <time>2024-04-15T15:35:31Z</time>
      </trkpt>
      <trkpt lat="45.92535" lon="3.33847">
        <ele>296.6</ele>
        <time>2024-04-15T15:35:32Z</time>
      </trkpt>
      <trkpt lat="45.9254" lon="3.33847">
        <ele>296.8</ele>
        <time>2024-04-15T15:35:33Z</time>
      </trkpt>
      <trkpt lat="45.92545" lon="3.33847">
        <ele>296.8</ele>
        <time>2024-04-15T15:35:34Z</time>
      </trkpt>
      <trkpt lat="45.92551" lon="3.33847">
        <ele>297</ele>
        <time>2024-04-15T15:35:35Z</time>
      </trkpt>
      <trkpt lat="45.92556" lon="3.33846">
        <ele>297.2</ele>
        <time>2024-04-15T15:35:36Z</time>
      </trkpt>
      <trkpt lat="45.92561" lon="3.33846">
        <ele>297.2</ele>
        <time>2024-04-15T15:35:37Z</time>
      </trkpt>
      <trkpt lat="45.92567" lon="3.33846">
        <ele>297.4</ele>
        <time>2024-04-15T15:35:38Z</time>
      </trkpt>
      <trkpt lat="45.92572" lon="3.33846">
        <ele>297.4</ele>
        <time>2024-04-15T15:35:39Z</time>
      </trkpt>
      <trkpt lat="45.92578" lon="3.33846">
        <ele>297.6</ele>
        <time>2024-04-15T15:35:40Z</time>
      </trkpt>
      <trkpt lat="45.92583" lon="3.33846">
        <ele>297.6</ele>
        <time>2024-04-15T15:35:41Z</time>
      </trkpt>
      <trkpt lat="45.92589" lon="3.33845">
        <ele>297.6</ele>
        <time>2024-04-15T15:35:42Z</time>
      </trkpt>
      <trkpt lat="45.92594" lon="3.33845">
        <ele>297.8</ele>
        <time>2024-04-15T15:35:43Z</time>
      </trkpt>
      <trkpt lat="45.926" lon="3.33845">
        <ele>297.8</ele>
        <time>2024-04-15T15:35:44Z</time>
      </trkpt>
      <trkpt lat="45.92605" lon="3.33845">
        <ele>298</ele>
        <time>2024-04-15T15:35:45Z</time>
      </trkpt>
      <trkpt lat="45.92611" lon="3.33845">
        <ele>298</ele>
        <time>2024-04-15T15:35:46Z</time>
      </trkpt>
      <trkpt lat="45.92616" lon="3.33846">
        <ele>298.2</ele>
        <time>2024-04-15T15:35:47Z</time>
      </trkpt>
      <trkpt lat="45.92622" lon="3.33846">
        <ele>298.4</ele>
        <time>2024-04-15T15:35:48Z</time>
      </trkpt>
      <trkpt lat="45.92627" lon="3.33846">
        <ele>298.4</ele>
        <time>2024-04-15T15:35:49Z</time>
      </trkpt>
      <trkpt lat="45.92632" lon="3.33847">
        <ele>298.6</ele>
        <time>2024-04-15T15:35:50Z</time>
      </trkpt>
      <trkpt lat="45.92638" lon="3.33847">
        <ele>298.6</ele>
        <time>2024-04-15T15:35:51Z</time>
      </trkpt>
      <trkpt lat="45.92643" lon="3.33847">
        <ele>298.6</ele>
        <time>2024-04-15T15:35:52Z</time>
      </trkpt>
      <trkpt lat="45.92649" lon="3.33848">
        <ele>298.8</ele>
        <time>2024-04-15T15:35:53Z</time>
      </trkpt>
      <trkpt lat="45.92654" lon="3.33848">
        <ele>298.8</ele>
        <time>2024-04-15T15:35:54Z</time>
      </trkpt>
      <trkpt lat="45.9266" lon="3.33848">
        <ele>299</ele>
        <time>2024-04-15T15:35:55Z</time>
      </trkpt>
      <trkpt lat="45.92665" lon="3.33849">
        <ele>299</ele>
        <time>2024-04-15T15:35:56Z</time>
      </trkpt>
      <trkpt lat="45.92671" lon="3.33849">
        <ele>299.2</ele>
        <time>2024-04-15T15:35:57Z</time>
      </trkpt>
      <trkpt lat="45.92676" lon="3.33849">
        <ele>299.2</ele>
        <time>2024-04-15T15:35:58Z</time>
      </trkpt>
      <trkpt lat="45.92682" lon="3.33849">
        <ele>299.4</ele>
        <time>2024-04-15T15:35:59Z</time>
      </trkpt>
      <trkpt lat="45.92687" lon="3.3385">
        <ele>299.4</ele>
        <time>2024-04-15T15:36:00Z</time>
      </trkpt>
      <trkpt lat="45.92692" lon="3.3385">
        <ele>299.6</ele>
        <time>2024-04-15T15:36:01Z</time>
      </trkpt>
      <trkpt lat="45.92697" lon="3.3385">
        <ele>299.8</ele>
        <time>2024-04-15T15:36:02Z</time>
      </trkpt>
      <trkpt lat="45.92702" lon="3.33851">
        <ele>299.8</ele>
        <time>2024-04-15T15:36:03Z</time>
      </trkpt>
      <trkpt lat="45.92708" lon="3.33851">
        <ele>299.8</ele>
        <time>2024-04-15T15:36:04Z</time>
      </trkpt>
      <trkpt lat="45.92713" lon="3.33851">
        <ele>299.8</ele>
        <time>2024-04-15T15:36:05Z</time>
      </trkpt>
      <trkpt lat="45.92719" lon="3.33852">
        <ele>300</ele>
        <time>2024-04-15T15:36:06Z</time>
      </trkpt>
      <trkpt lat="45.92724" lon="3.33852">
        <ele>300</ele>
        <time>2024-04-15T15:36:07Z</time>
      </trkpt>
      <trkpt lat="45.92729" lon="3.33852">
        <ele>300.2</ele>
        <time>2024-04-15T15:36:08Z</time>
      </trkpt>
      <trkpt lat="45.92735" lon="3.33853">
        <ele>300.2</ele>
        <time>2024-04-15T15:36:09Z</time>
      </trkpt>
      <trkpt lat="45.92741" lon="3.33853">
        <ele>300.4</ele>
        <time>2024-04-15T15:36:10Z</time>
      </trkpt>
      <trkpt lat="45.92746" lon="3.33853">
        <ele>300.4</ele>
        <time>2024-04-15T15:36:11Z</time>
      </trkpt>
      <trkpt lat="45.92752" lon="3.33854">
        <ele>300.6</ele>
        <time>2024-04-15T15:36:12Z</time>
      </trkpt>
      <trkpt lat="45.92757" lon="3.33854">
        <ele>300.6</ele>
        <time>2024-04-15T15:36:13Z</time>
      </trkpt>
      <trkpt lat="45.92763" lon="3.33854">
        <ele>300.8</ele>
        <time>2024-04-15T15:36:14Z</time>
      </trkpt>
      <trkpt lat="45.92768" lon="3.33855">
        <ele>300.8</ele>
        <time>2024-04-15T15:36:15Z</time>
      </trkpt>
      <trkpt lat="45.92773" lon="3.33855">
        <ele>301</ele>
        <time>2024-04-15T15:36:16Z</time>
      </trkpt>
      <trkpt lat="45.92778" lon="3.33855">
        <ele>301</ele>
        <time>2024-04-15T15:36:17Z</time>
      </trkpt>
      <trkpt lat="45.92784" lon="3.33856">
        <ele>301.2</ele>
        <time>2024-04-15T15:36:18Z</time>
      </trkpt>
      <trkpt lat="45.92789" lon="3.33856">
        <ele>301.2</ele>
        <time>2024-04-15T15:36:19Z</time>
      </trkpt>
      <trkpt lat="45.92794" lon="3.33856">
        <ele>301.2</ele>
        <time>2024-04-15T15:36:20Z</time>
      </trkpt>
      <trkpt lat="45.928" lon="3.33857">
        <ele>301.4</ele>
        <time>2024-04-15T15:36:21Z</time>
      </trkpt>
      <trkpt lat="45.92806" lon="3.33857">
        <ele>301.4</ele>
        <time>2024-04-15T15:36:22Z</time>
      </trkpt>
      <trkpt lat="45.92811" lon="3.33857">
        <ele>301.4</ele>
        <time>2024-04-15T15:36:23Z</time>
      </trkpt>
      <trkpt lat="45.92817" lon="3.33858">
        <ele>301.4</ele>
        <time>2024-04-15T15:36:24Z</time>
      </trkpt>
      <trkpt lat="45.92823" lon="3.33858">
        <ele>301.6</ele>
        <time>2024-04-15T15:36:25Z</time>
      </trkpt>
      <trkpt lat="45.92828" lon="3.33858">
        <ele>301.6</ele>
        <time>2024-04-15T15:36:26Z</time>
      </trkpt>
      <trkpt lat="45.92834" lon="3.33859">
        <ele>301.8</ele>
        <time>2024-04-15T15:36:27Z</time>
      </trkpt>
      <trkpt lat="45.92839" lon="3.33859">
        <ele>301.8</ele>
        <time>2024-04-15T15:36:28Z</time>
      </trkpt>
      <trkpt lat="45.92845" lon="3.33859">
        <ele>301.8</ele>
        <time>2024-04-15T15:36:29Z</time>
      </trkpt>
      <trkpt lat="45.9285" lon="3.3386">
        <ele>302</ele>
        <time>2024-04-15T15:36:30Z</time>
      </trkpt>
      <trkpt lat="45.92856" lon="3.3386">
        <ele>302</ele>
        <time>2024-04-15T15:36:31Z</time>
      </trkpt>
      <trkpt lat="45.92861" lon="3.33859">
        <ele>302.2</ele>
        <time>2024-04-15T15:36:32Z</time>
      </trkpt>
      <trkpt lat="45.92866" lon="3.33859">
        <ele>302.2</ele>
        <time>2024-04-15T15:36:33Z</time>
      </trkpt>
      <trkpt lat="45.92872" lon="3.33858">
        <ele>302.2</ele>
        <time>2024-04-15T15:36:34Z</time>
      </trkpt>
      <trkpt lat="45.92877" lon="3.33858">
        <ele>302.2</ele>
        <time>2024-04-15T15:36:35Z</time>
      </trkpt>
      <trkpt lat="45.92882" lon="3.33857">
        <ele>302.4</ele>
        <time>2024-04-15T15:36:36Z</time>
      </trkpt>
      <trkpt lat="45.92887" lon="3.33855">
        <ele>302.4</ele>
        <time>2024-04-15T15:36:37Z</time>
      </trkpt>
      <trkpt lat="45.92892" lon="3.33853">
        <ele>302.6</ele>
        <time>2024-04-15T15:36:38Z</time>
      </trkpt>
      <trkpt lat="45.92897" lon="3.33851">
        <ele>302.6</ele>
        <time>2024-04-15T15:36:39Z</time>
      </trkpt>
      <trkpt lat="45.92902" lon="3.33852">
        <ele>302.8</ele>
        <time>2024-04-15T15:36:40Z</time>
      </trkpt>
      <trkpt lat="45.92907" lon="3.33853">
        <ele>302.8</ele>
        <time>2024-04-15T15:36:41Z</time>
      </trkpt>
      <trkpt lat="45.92913" lon="3.33853">
        <ele>302.8</ele>
        <time>2024-04-15T15:36:42Z</time>
      </trkpt>
      <trkpt lat="45.92918" lon="3.33854">
        <ele>302.8</ele>
        <time>2024-04-15T15:36:43Z</time>
      </trkpt>
      <trkpt lat="45.92923" lon="3.33854">
        <ele>303</ele>
        <time>2024-04-15T15:36:44Z</time>
      </trkpt>
      <trkpt lat="45.92929" lon="3.33855">
        <ele>303</ele>
        <time>2024-04-15T15:36:45Z</time>
      </trkpt>
      <trkpt lat="45.92935" lon="3.33856">
        <ele>303</ele>
        <time>2024-04-15T15:36:46Z</time>
      </trkpt>
      <trkpt lat="45.9294" lon="3.33858">
        <ele>303</ele>
        <time>2024-04-15T15:36:47Z</time>
      </trkpt>
      <trkpt lat="45.92945" lon="3.33859">
        <ele>303.2</ele>
        <time>2024-04-15T15:36:48Z</time>
      </trkpt>
      <trkpt lat="45.92951" lon="3.33861">
        <ele>303.2</ele>
        <time>2024-04-15T15:36:49Z</time>
      </trkpt>
      <trkpt lat="45.92956" lon="3.33863">
        <ele>303.2</ele>
        <time>2024-04-15T15:36:50Z</time>
      </trkpt>
      <trkpt lat="45.92962" lon="3.33865">
        <ele>303.4</ele>
        <time>2024-04-15T15:36:51Z</time>
      </trkpt>
      <trkpt lat="45.92967" lon="3.33866">
        <ele>303.4</ele>
        <time>2024-04-15T15:36:52Z</time>
      </trkpt>
      <trkpt lat="45.92972" lon="3.33868">
        <ele>303.4</ele>
        <time>2024-04-15T15:36:53Z</time>
      </trkpt>
      <trkpt lat="45.92978" lon="3.33871">
        <ele>303.4</ele>
        <time>2024-04-15T15:36:54Z</time>
      </trkpt>
      <trkpt lat="45.92983" lon="3.33874">
        <ele>303.6</ele>
        <time>2024-04-15T15:36:55Z</time>
      </trkpt>
      <trkpt lat="45.92988" lon="3.33877">
        <ele>303.6</ele>
        <time>2024-04-15T15:36:56Z</time>
      </trkpt>
      <trkpt lat="45.92993" lon="3.3388">
        <ele>303.8</ele>
        <time>2024-04-15T15:36:57Z</time>
      </trkpt>
      <trkpt lat="45.92998" lon="3.33883">
        <ele>303.8</ele>
        <time>2024-04-15T15:36:58Z</time>
      </trkpt>
      <trkpt lat="45.93003" lon="3.33886">
        <ele>303.8</ele>
        <time>2024-04-15T15:36:59Z</time>
      </trkpt>
      <trkpt lat="45.93008" lon="3.33889">
        <ele>304</ele>
        <time>2024-04-15T15:37:00Z</time>
      </trkpt>
      <trkpt lat="45.93013" lon="3.33892">
        <ele>304</ele>
        <time>2024-04-15T15:37:01Z</time>
      </trkpt>
      <trkpt lat="45.93019" lon="3.33895">
        <ele>304.2</ele>
        <time>2024-04-15T15:37:02Z</time>
      </trkpt>
      <trkpt lat="45.93024" lon="3.33898">
        <ele>304.2</ele>
        <time>2024-04-15T15:37:03Z</time>
      </trkpt>
      <trkpt lat="45.93029" lon="3.33901">
        <ele>304.4</ele>
        <time>2024-04-15T15:37:04Z</time>
      </trkpt>
      <trkpt lat="45.93035" lon="3.33904">
        <ele>304.4</ele>
        <time>2024-04-15T15:37:05Z</time>
      </trkpt>
      <trkpt lat="45.9304" lon="3.33907">
        <ele>304.4</ele>
        <time>2024-04-15T15:37:06Z</time>
      </trkpt>
      <trkpt lat="45.93045" lon="3.3391">
        <ele>304.6</ele>
        <time>2024-04-15T15:37:07Z</time>
      </trkpt>
      <trkpt lat="45.93051" lon="3.33914">
        <ele>304.6</ele>
        <time>2024-04-15T15:37:08Z</time>
      </trkpt>
      <trkpt lat="45.93056" lon="3.33917">
        <ele>304.8</ele>
        <time>2024-04-15T15:37:09Z</time>
      </trkpt>
      <trkpt lat="45.93062" lon="3.3392">
        <ele>304.8</ele>
        <time>2024-04-15T15:37:10Z</time>
      </trkpt>
      <trkpt lat="45.93067" lon="3.33923">
        <ele>305</ele>
        <time>2024-04-15T15:37:11Z</time>
      </trkpt>
      <trkpt lat="45.93072" lon="3.33926">
        <ele>305</ele>
        <time>2024-04-15T15:37:12Z</time>
      </trkpt>
      <trkpt lat="45.93078" lon="3.33929">
        <ele>305.2</ele>
        <time>2024-04-15T15:37:13Z</time>
      </trkpt>
      <trkpt lat="45.93083" lon="3.33932">
        <ele>305.2</ele>
        <time>2024-04-15T15:37:14Z</time>
      </trkpt>
      <trkpt lat="45.93088" lon="3.33936">
        <ele>305.2</ele>
        <time>2024-04-15T15:37:15Z</time>
      </trkpt>
      <trkpt lat="45.93093" lon="3.33939">
        <ele>305.4</ele>
        <time>2024-04-15T15:37:16Z</time>
      </trkpt>
      <trkpt lat="45.93099" lon="3.33942">
        <ele>305.4</ele>
        <time>2024-04-15T15:37:17Z</time>
      </trkpt>
      <trkpt lat="45.93104" lon="3.33945">
        <ele>305.4</ele>
        <time>2024-04-15T15:37:18Z</time>
      </trkpt>
      <trkpt lat="45.93109" lon="3.33948">
        <ele>305.6</ele>
        <time>2024-04-15T15:37:19Z</time>
      </trkpt>
      <trkpt lat="45.93114" lon="3.33951">
        <ele>305.6</ele>
        <time>2024-04-15T15:37:20Z</time>
      </trkpt>
      <trkpt lat="45.93119" lon="3.33954">
        <ele>305.8</ele>
        <time>2024-04-15T15:37:21Z</time>
      </trkpt>
      <trkpt lat="45.93125" lon="3.33957">
        <ele>305.8</ele>
        <time>2024-04-15T15:37:22Z</time>
      </trkpt>
      <trkpt lat="45.9313" lon="3.3396">
        <ele>306</ele>
        <time>2024-04-15T15:37:23Z</time>
      </trkpt>
      <trkpt lat="45.93135" lon="3.33963">
        <ele>306</ele>
        <time>2024-04-15T15:37:24Z</time>
      </trkpt>
      <trkpt lat="45.9314" lon="3.33966">
        <ele>306.2</ele>
        <time>2024-04-15T15:37:25Z</time>
      </trkpt>
      <trkpt lat="45.93146" lon="3.33969">
        <ele>306.2</ele>
        <time>2024-04-15T15:37:26Z</time>
      </trkpt>
      <trkpt lat="45.93151" lon="3.33972">
        <ele>306.2</ele>
        <time>2024-04-15T15:37:27Z</time>
      </trkpt>
      <trkpt lat="45.93156" lon="3.33976">
        <ele>306.4</ele>
        <time>2024-04-15T15:37:28Z</time>
      </trkpt>
      <trkpt lat="45.93162" lon="3.33979">
        <ele>306.4</ele>
        <time>2024-04-15T15:37:29Z</time>
      </trkpt>
      <trkpt lat="45.93167" lon="3.33982">
        <ele>306.4</ele>
        <time>2024-04-15T15:37:30Z</time>
      </trkpt>
      <trkpt lat="45.93172" lon="3.33985">
        <ele>306.6</ele>
        <time>2024-04-15T15:37:31Z</time>
      </trkpt>
      <trkpt lat="45.93177" lon="3.33988">
        <ele>306.6</ele>
        <time>2024-04-15T15:37:32Z</time>
      </trkpt>
      <trkpt lat="45.93182" lon="3.33991">
        <ele>306.6</ele>
        <time>2024-04-15T15:37:33Z</time>
      </trkpt>
      <trkpt lat="45.93187" lon="3.33994">
        <ele>306.8</ele>
        <time>2024-04-15T15:37:34Z</time>
      </trkpt>
      <trkpt lat="45.93193" lon="3.33997">
        <ele>306.8</ele>
        <time>2024-04-15T15:37:35Z</time>
      </trkpt>
      <trkpt lat="45.93198" lon="3.34">
        <ele>307</ele>
        <time>2024-04-15T15:37:36Z</time>
      </trkpt>
      <trkpt lat="45.93203" lon="3.34003">
        <ele>307</ele>
        <time>2024-04-15T15:37:37Z</time>
      </trkpt>
      <trkpt lat="45.93208" lon="3.34006">
        <ele>307.2</ele>
        <time>2024-04-15T15:37:38Z</time>
      </trkpt>
      <trkpt lat="45.93213" lon="3.34009">
        <ele>307.2</ele>
        <time>2024-04-15T15:37:39Z</time>
      </trkpt>
      <trkpt lat="45.93218" lon="3.34012">
        <ele>307.2</ele>
        <time>2024-04-15T15:37:40Z</time>
      </trkpt>
      <trkpt lat="45.93223" lon="3.34015">
        <ele>307.4</ele>
        <time>2024-04-15T15:37:41Z</time>
      </trkpt>
      <trkpt lat="45.93229" lon="3.34018">
        <ele>307.4</ele>
        <time>2024-04-15T15:37:42Z</time>
      </trkpt>
      <trkpt lat="45.93234" lon="3.34021">
        <ele>307.4</ele>
        <time>2024-04-15T15:37:43Z</time>
      </trkpt>
      <trkpt lat="45.93239" lon="3.34024">
        <ele>307.6</ele>
        <time>2024-04-15T15:37:44Z</time>
      </trkpt>
      <trkpt lat="45.93244" lon="3.34027">
        <ele>307.6</ele>
        <time>2024-04-15T15:37:45Z</time>
      </trkpt>
      <trkpt lat="45.93249" lon="3.3403">
        <ele>307.6</ele>
        <time>2024-04-15T15:37:46Z</time>
      </trkpt>
      <trkpt lat="45.93254" lon="3.34033">
        <ele>307.8</ele>
        <time>2024-04-15T15:37:47Z</time>
      </trkpt>
      <trkpt lat="45.93259" lon="3.34036">
        <ele>307.8</ele>
        <time>2024-04-15T15:37:48Z</time>
      </trkpt>
      <trkpt lat="45.93264" lon="3.34039">
        <ele>307.8</ele>
        <time>2024-04-15T15:37:49Z</time>
      </trkpt>
      <trkpt lat="45.93269" lon="3.34042">
        <ele>308</ele>
        <time>2024-04-15T15:37:50Z</time>
      </trkpt>
      <trkpt lat="45.93275" lon="3.34045">
        <ele>308</ele>
        <time>2024-04-15T15:37:51Z</time>
      </trkpt>
      <trkpt lat="45.9328" lon="3.34048">
        <ele>308</ele>
        <time>2024-04-15T15:37:52Z</time>
      </trkpt>
      <trkpt lat="45.93285" lon="3.34051">
        <ele>308.2</ele>
        <time>2024-04-15T15:37:53Z</time>
      </trkpt>
      <trkpt lat="45.9329" lon="3.34054">
        <ele>308.2</ele>
        <time>2024-04-15T15:37:54Z</time>
      </trkpt>
      <trkpt lat="45.93296" lon="3.34057">
        <ele>308.2</ele>
        <time>2024-04-15T15:37:55Z</time>
      </trkpt>
      <trkpt lat="45.93301" lon="3.3406">
        <ele>308.4</ele>
        <time>2024-04-15T15:37:56Z</time>
      </trkpt>
      <trkpt lat="45.93306" lon="3.34064">
        <ele>308.4</ele>
        <time>2024-04-15T15:37:57Z</time>
      </trkpt>
      <trkpt lat="45.93311" lon="3.34067">
        <ele>308.4</ele>
        <time>2024-04-15T15:37:58Z</time>
      </trkpt>
      <trkpt lat="45.93316" lon="3.3407">
        <ele>308.6</ele>
        <time>2024-04-15T15:37:59Z</time>
      </trkpt>
      <trkpt lat="45.93322" lon="3.34073">
        <ele>308.6</ele>
        <time>2024-04-15T15:38:00Z</time>
      </trkpt>
      <trkpt lat="45.93327" lon="3.34076">
        <ele>308.8</ele>
        <time>2024-04-15T15:38:01Z</time>
      </trkpt>
      <trkpt lat="45.93332" lon="3.34079">
        <ele>308.8</ele>
        <time>2024-04-15T15:38:02Z</time>
      </trkpt>
      <trkpt lat="45.93337" lon="3.34082">
        <ele>309</ele>
        <time>2024-04-15T15:38:03Z</time>
      </trkpt>
      <trkpt lat="45.93343" lon="3.34085">
        <ele>309</ele>
        <time>2024-04-15T15:38:04Z</time>
      </trkpt>
      <trkpt lat="45.93348" lon="3.34088">
        <ele>309</ele>
        <time>2024-04-15T15:38:05Z</time>
      </trkpt>
      <trkpt lat="45.93353" lon="3.34091">
        <ele>309</ele>
        <time>2024-04-15T15:38:06Z</time>
      </trkpt>
      <trkpt lat="45.93358" lon="3.34093">
        <ele>309.2</ele>
        <time>2024-04-15T15:38:07Z</time>
      </trkpt>
      <trkpt lat="45.93364" lon="3.34096">
        <ele>309.2</ele>
        <time>2024-04-15T15:38:08Z</time>
      </trkpt>
      <trkpt lat="45.93369" lon="3.34099">
        <ele>309.2</ele>
        <time>2024-04-15T15:38:09Z</time>
      </trkpt>
      <trkpt lat="45.93374" lon="3.34102">
        <ele>309.4</ele>
        <time>2024-04-15T15:38:10Z</time>
      </trkpt>
      <trkpt lat="45.9338" lon="3.34105">
        <ele>309.4</ele>
        <time>2024-04-15T15:38:11Z</time>
      </trkpt>
      <trkpt lat="45.93385" lon="3.34108">
        <ele>309.6</ele>
        <time>2024-04-15T15:38:12Z</time>
      </trkpt>
      <trkpt lat="45.93391" lon="3.34111">
        <ele>309.6</ele>
        <time>2024-04-15T15:38:13Z</time>
      </trkpt>
      <trkpt lat="45.93397" lon="3.34114">
        <ele>309.6</ele>
        <time>2024-04-15T15:38:14Z</time>
      </trkpt>
      <trkpt lat="45.93402" lon="3.34117">
        <ele>309.6</ele>
        <time>2024-04-15T15:38:15Z</time>
      </trkpt>
      <trkpt lat="45.93408" lon="3.3412">
        <ele>309.8</ele>
        <time>2024-04-15T15:38:16Z</time>
      </trkpt>
      <trkpt lat="45.93413" lon="3.34123">
        <ele>309.8</ele>
        <time>2024-04-15T15:38:17Z</time>
      </trkpt>
      <trkpt lat="45.93419" lon="3.34126">
        <ele>310</ele>
        <time>2024-04-15T15:38:18Z</time>
      </trkpt>
      <trkpt lat="45.93424" lon="3.34129">
        <ele>310</ele>
        <time>2024-04-15T15:38:19Z</time>
      </trkpt>
      <trkpt lat="45.93431" lon="3.34131">
        <ele>310</ele>
        <time>2024-04-15T15:38:20Z</time>
      </trkpt>
      <trkpt lat="45.93436" lon="3.34134">
        <ele>310.2</ele>
        <time>2024-04-15T15:38:21Z</time>
      </trkpt>
      <trkpt lat="45.93442" lon="3.34136">
        <ele>310.2</ele>
        <time>2024-04-15T15:38:22Z</time>
      </trkpt>
      <trkpt lat="45.93449" lon="3.34139">
        <ele>310.4</ele>
        <time>2024-04-15T15:38:23Z</time>
      </trkpt>
      <trkpt lat="45.93454" lon="3.34141">
        <ele>310.4</ele>
        <time>2024-04-15T15:38:24Z</time>
      </trkpt>
      <trkpt lat="45.9346" lon="3.34143">
        <ele>310.4</ele>
        <time>2024-04-15T15:38:25Z</time>
      </trkpt>
      <trkpt lat="45.93466" lon="3.34146">
        <ele>310.6</ele>
        <time>2024-04-15T15:38:26Z</time>
      </trkpt>
      <trkpt lat="45.93472" lon="3.34148">
        <ele>310.6</ele>
        <time>2024-04-15T15:38:27Z</time>
      </trkpt>
      <trkpt lat="45.93478" lon="3.3415">
        <ele>310.6</ele>
        <time>2024-04-15T15:38:28Z</time>
      </trkpt>
      <trkpt lat="45.93484" lon="3.34153">
        <ele>310.8</ele>
        <time>2024-04-15T15:38:29Z</time>
      </trkpt>
      <trkpt lat="45.93489" lon="3.34155">
        <ele>310.8</ele>
        <time>2024-04-15T15:38:30Z</time>
      </trkpt>
      <trkpt lat="45.93495" lon="3.34157">
        <ele>310.8</ele>
        <time>2024-04-15T15:38:31Z</time>
      </trkpt>
      <trkpt lat="45.93501" lon="3.34159">
        <ele>311</ele>
        <time>2024-04-15T15:38:32Z</time>
      </trkpt>
      <trkpt lat="45.93507" lon="3.34162">
        <ele>311</ele>
        <time>2024-04-15T15:38:33Z</time>
      </trkpt>
      <trkpt lat="45.93513" lon="3.34163">
        <ele>311</ele>
        <time>2024-04-15T15:38:34Z</time>
      </trkpt>
      <trkpt lat="45.93519" lon="3.34164">
        <ele>311.2</ele>
        <time>2024-04-15T15:38:35Z</time>
      </trkpt>
      <trkpt lat="45.93525" lon="3.34164">
        <ele>311.2</ele>
        <time>2024-04-15T15:38:36Z</time>
      </trkpt>
      <trkpt lat="45.93531" lon="3.34165">
        <ele>311.2</ele>
        <time>2024-04-15T15:38:37Z</time>
      </trkpt>
      <trkpt lat="45.93537" lon="3.34166">
        <ele>311.4</ele>
        <time>2024-04-15T15:38:38Z</time>
      </trkpt>
      <trkpt lat="45.93543" lon="3.34166">
        <ele>311.4</ele>
        <time>2024-04-15T15:38:39Z</time>
      </trkpt>
      <trkpt lat="45.93549" lon="3.34167">
        <ele>311.4</ele>
        <time>2024-04-15T15:38:40Z</time>
      </trkpt>
      <trkpt lat="45.93555" lon="3.34167">
        <ele>311.6</ele>
        <time>2024-04-15T15:38:41Z</time>
      </trkpt>
      <trkpt lat="45.9356" lon="3.34168">
        <ele>311.6</ele>
        <time>2024-04-15T15:38:42Z</time>
      </trkpt>
      <trkpt lat="45.93566" lon="3.34169">
        <ele>311.6</ele>
        <time>2024-04-15T15:38:43Z</time>
      </trkpt>
      <trkpt lat="45.93572" lon="3.34169">
        <ele>311.6</ele>
        <time>2024-04-15T15:38:44Z</time>
      </trkpt>
      <trkpt lat="45.93578" lon="3.3417">
        <ele>311.8</ele>
        <time>2024-04-15T15:38:45Z</time>
      </trkpt>
      <trkpt lat="45.93584" lon="3.34171">
        <ele>311.8</ele>
        <time>2024-04-15T15:38:46Z</time>
      </trkpt>
      <trkpt lat="45.9359" lon="3.34171">
        <ele>311.8</ele>
        <time>2024-04-15T15:38:47Z</time>
      </trkpt>
      <trkpt lat="45.93596" lon="3.34172">
        <ele>311.8</ele>
        <time>2024-04-15T15:38:48Z</time>
      </trkpt>
      <trkpt lat="45.93602" lon="3.34173">
        <ele>312</ele>
        <time>2024-04-15T15:38:49Z</time>
      </trkpt>
      <trkpt lat="45.93607" lon="3.34173">
        <ele>312</ele>
        <time>2024-04-15T15:38:50Z</time>
      </trkpt>
      <trkpt lat="45.93613" lon="3.34174">
        <ele>312</ele>
        <time>2024-04-15T15:38:51Z</time>
      </trkpt>
      <trkpt lat="45.93619" lon="3.34174">
        <ele>312.2</ele>
        <time>2024-04-15T15:38:52Z</time>
      </trkpt>
      <trkpt lat="45.93625" lon="3.34175">
        <ele>312</ele>
        <time>2024-04-15T15:38:53Z</time>
      </trkpt>
      <trkpt lat="45.9363" lon="3.34176">
        <ele>312.2</ele>
        <time>2024-04-15T15:38:54Z</time>
      </trkpt>
      <trkpt lat="45.93636" lon="3.34176">
        <ele>312.2</ele>
        <time>2024-04-15T15:38:55Z</time>
      </trkpt>
      <trkpt lat="45.93642" lon="3.34177">
        <ele>312.2</ele>
        <time>2024-04-15T15:38:56Z</time>
      </trkpt>
      <trkpt lat="45.93647" lon="3.34178">
        <ele>312.2</ele>
        <time>2024-04-15T15:38:57Z</time>
      </trkpt>
      <trkpt lat="45.93653" lon="3.34178">
        <ele>312.4</ele>
        <time>2024-04-15T15:38:58Z</time>
      </trkpt>
      <trkpt lat="45.93659" lon="3.34179">
        <ele>312.4</ele>
        <time>2024-04-15T15:38:59Z</time>
      </trkpt>
      <trkpt lat="45.93664" lon="3.34179">
        <ele>312.4</ele>
        <time>2024-04-15T15:39:00Z</time>
      </trkpt>
      <trkpt lat="45.9367" lon="3.3418">
        <ele>312.4</ele>
        <time>2024-04-15T15:39:01Z</time>
      </trkpt>
      <trkpt lat="45.93675" lon="3.34181">
        <ele>312.4</ele>
        <time>2024-04-15T15:39:02Z</time>
      </trkpt>
      <trkpt lat="45.93681" lon="3.34181">
        <ele>312.6</ele>
        <time>2024-04-15T15:39:03Z</time>
      </trkpt>
      <trkpt lat="45.93687" lon="3.34182">
        <ele>312.6</ele>
        <time>2024-04-15T15:39:04Z</time>
      </trkpt>
      <trkpt lat="45.93693" lon="3.34182">
        <ele>312.6</ele>
        <time>2024-04-15T15:39:05Z</time>
      </trkpt>
      <trkpt lat="45.93698" lon="3.34183">
        <ele>312.6</ele>
        <time>2024-04-15T15:39:06Z</time>
      </trkpt>
      <trkpt lat="45.93704" lon="3.34184">
        <ele>312.6</ele>
        <time>2024-04-15T15:39:07Z</time>
      </trkpt>
      <trkpt lat="45.9371" lon="3.34184">
        <ele>312.6</ele>
        <time>2024-04-15T15:39:08Z</time>
      </trkpt>
      <trkpt lat="45.93715" lon="3.34185">
        <ele>312.6</ele>
        <time>2024-04-15T15:39:09Z</time>
      </trkpt>
      <trkpt lat="45.93721" lon="3.34185">
        <ele>312.8</ele>
        <time>2024-04-15T15:39:10Z</time>
      </trkpt>
      <trkpt lat="45.93726" lon="3.34186">
        <ele>312.8</ele>
        <time>2024-04-15T15:39:11Z</time>
      </trkpt>
      <trkpt lat="45.93732" lon="3.34187">
        <ele>312.8</ele>
        <time>2024-04-15T15:39:12Z</time>
      </trkpt>
      <trkpt lat="45.93738" lon="3.34187">
        <ele>312.8</ele>
        <time>2024-04-15T15:39:13Z</time>
      </trkpt>
      <trkpt lat="45.93743" lon="3.34188">
        <ele>313</ele>
        <time>2024-04-15T15:39:14Z</time>
      </trkpt>
      <trkpt lat="45.93749" lon="3.34189">
        <ele>313</ele>
        <time>2024-04-15T15:39:15Z</time>
      </trkpt>
      <trkpt lat="45.93756" lon="3.34189">
        <ele>313</ele>
        <time>2024-04-15T15:39:16Z</time>
      </trkpt>
      <trkpt lat="45.93762" lon="3.3419">
        <ele>313</ele>
        <time>2024-04-15T15:39:17Z</time>
      </trkpt>
      <trkpt lat="45.93768" lon="3.34191">
        <ele>313</ele>
        <time>2024-04-15T15:39:18Z</time>
      </trkpt>
      <trkpt lat="45.93774" lon="3.34191">
        <ele>313</ele>
        <time>2024-04-15T15:39:19Z</time>
      </trkpt>
      <trkpt lat="45.9378" lon="3.34192">
        <ele>313</ele>
        <time>2024-04-15T15:39:20Z</time>
      </trkpt>
      <trkpt lat="45.93787" lon="3.34193">
        <ele>313</ele>
        <time>2024-04-15T15:39:21Z</time>
      </trkpt>
      <trkpt lat="45.93793" lon="3.34193">
        <ele>313.2</ele>
        <time>2024-04-15T15:39:22Z</time>
      </trkpt>
      <trkpt lat="45.93799" lon="3.34194">
        <ele>313.2</ele>
        <time>2024-04-15T15:39:23Z</time>
      </trkpt>
      <trkpt lat="45.93805" lon="3.34195">
        <ele>313.2</ele>
        <time>2024-04-15T15:39:24Z</time>
      </trkpt>
      <trkpt lat="45.93811" lon="3.34195">
        <ele>313.2</ele>
        <time>2024-04-15T15:39:25Z</time>
      </trkpt>
      <trkpt lat="45.93817" lon="3.34196">
        <ele>313.4</ele>
        <time>2024-04-15T15:39:26Z</time>
      </trkpt>
      <trkpt lat="45.93823" lon="3.34197">
        <ele>313.4</ele>
        <time>2024-04-15T15:39:27Z</time>
      </trkpt>
      <trkpt lat="45.93829" lon="3.34197">
        <ele>313.4</ele>
        <time>2024-04-15T15:39:28Z</time>
      </trkpt>
      <trkpt lat="45.93835" lon="3.34198">
        <ele>313.4</ele>
        <time>2024-04-15T15:39:29Z</time>
      </trkpt>
      <trkpt lat="45.93841" lon="3.34199">
        <ele>313.6</ele>
        <time>2024-04-15T15:39:30Z</time>
      </trkpt>
      <trkpt lat="45.93847" lon="3.34199">
        <ele>313.6</ele>
        <time>2024-04-15T15:39:31Z</time>
      </trkpt>
      <trkpt lat="45.93853" lon="3.342">
        <ele>313.6</ele>
        <time>2024-04-15T15:39:32Z</time>
      </trkpt>
      <trkpt lat="45.93859" lon="3.34201">
        <ele>313.6</ele>
        <time>2024-04-15T15:39:33Z</time>
      </trkpt>
      <trkpt lat="45.93865" lon="3.34201">
        <ele>313.6</ele>
        <time>2024-04-15T15:39:34Z</time>
      </trkpt>
      <trkpt lat="45.93871" lon="3.34202">
        <ele>313.6</ele>
        <time>2024-04-15T15:39:35Z</time>
      </trkpt>
      <trkpt lat="45.93877" lon="3.34202">
        <ele>313.8</ele>
        <time>2024-04-15T15:39:36Z</time>
      </trkpt>
      <trkpt lat="45.93883" lon="3.34203">
        <ele>313.8</ele>
        <time>2024-04-15T15:39:37Z</time>
      </trkpt>
      <trkpt lat="45.93889" lon="3.34203">
        <ele>313.8</ele>
        <time>2024-04-15T15:39:38Z</time>
      </trkpt>
      <trkpt lat="45.93895" lon="3.34202">
        <ele>314</ele>
        <time>2024-04-15T15:39:39Z</time>
      </trkpt>
      <trkpt lat="45.93901" lon="3.34202">
        <ele>314</ele>
        <time>2024-04-15T15:39:40Z</time>
      </trkpt>
      <trkpt lat="45.93907" lon="3.34201">
        <ele>314.2</ele>
        <time>2024-04-15T15:39:41Z</time>
      </trkpt>
      <trkpt lat="45.93912" lon="3.34201">
        <ele>314.2</ele>
        <time>2024-04-15T15:39:42Z</time>
      </trkpt>
      <trkpt lat="45.93918" lon="3.34201">
        <ele>314.2</ele>
        <time>2024-04-15T15:39:43Z</time>
      </trkpt>
      <trkpt lat="45.93924" lon="3.342">
        <ele>314.4</ele>
        <time>2024-04-15T15:39:44Z</time>
      </trkpt>
      <trkpt lat="45.9393" lon="3.342">
        <ele>314.4</ele>
        <time>2024-04-15T15:39:45Z</time>
      </trkpt>
      <trkpt lat="45.93936" lon="3.34199">
        <ele>314.4</ele>
        <time>2024-04-15T15:39:46Z</time>
      </trkpt>
      <trkpt lat="45.93942" lon="3.34199">
        <ele>314.6</ele>
        <time>2024-04-15T15:39:47Z</time>
      </trkpt>
      <trkpt lat="45.93947" lon="3.34198">
        <ele>314.6</ele>
        <time>2024-04-15T15:39:48Z</time>
      </trkpt>
      <trkpt lat="45.93953" lon="3.34198">
        <ele>314.6</ele>
        <time>2024-04-15T15:39:49Z</time>
      </trkpt>
      <trkpt lat="45.93959" lon="3.34197">
        <ele>314.8</ele>
        <time>2024-04-15T15:39:50Z</time>
      </trkpt>
      <trkpt lat="45.93965" lon="3.34197">
        <ele>314.8</ele>
        <time>2024-04-15T15:39:51Z</time>
      </trkpt>
      <trkpt lat="45.93971" lon="3.34196">
        <ele>314.8</ele>
        <time>2024-04-15T15:39:52Z</time>
      </trkpt>
      <trkpt lat="45.93976" lon="3.34194">
        <ele>315</ele>
        <time>2024-04-15T15:39:53Z</time>
      </trkpt>
      <trkpt lat="45.93982" lon="3.34192">
        <ele>315</ele>
        <time>2024-04-15T15:39:54Z</time>
      </trkpt>
      <trkpt lat="45.93987" lon="3.3419">
        <ele>315</ele>
        <time>2024-04-15T15:39:55Z</time>
      </trkpt>
      <trkpt lat="45.93993" lon="3.34188">
        <ele>315.2</ele>
        <time>2024-04-15T15:39:56Z</time>
      </trkpt>
      <trkpt lat="45.93998" lon="3.34186">
        <ele>315.2</ele>
        <time>2024-04-15T15:39:57Z</time>
      </trkpt>
      <trkpt lat="45.94003" lon="3.34184">
        <ele>315.2</ele>
        <time>2024-04-15T15:39:58Z</time>
      </trkpt>
      <trkpt lat="45.94009" lon="3.34182">
        <ele>315.4</ele>
        <time>2024-04-15T15:39:59Z</time>
      </trkpt>
      <trkpt lat="45.94015" lon="3.3418">
        <ele>315.4</ele>
        <time>2024-04-15T15:40:00Z</time>
      </trkpt>
      <trkpt lat="45.94021" lon="3.34177">
        <ele>315.4</ele>
        <time>2024-04-15T15:40:01Z</time>
      </trkpt>
      <trkpt lat="45.94026" lon="3.34174">
        <ele>315.6</ele>
        <time>2024-04-15T15:40:02Z</time>
      </trkpt>
      <trkpt lat="45.94031" lon="3.34171">
        <ele>315.6</ele>
        <time>2024-04-15T15:40:03Z</time>
      </trkpt>
      <trkpt lat="45.94037" lon="3.34168">
        <ele>315.6</ele>
        <time>2024-04-15T15:40:04Z</time>
      </trkpt>
      <trkpt lat="45.94043" lon="3.34165">
        <ele>315.8</ele>
        <time>2024-04-15T15:40:05Z</time>
      </trkpt>
      <trkpt lat="45.94048" lon="3.34162">
        <ele>315.8</ele>
        <time>2024-04-15T15:40:06Z</time>
      </trkpt>
      <trkpt lat="45.94054" lon="3.34158">
        <ele>315.8</ele>
        <time>2024-04-15T15:40:07Z</time>
      </trkpt>
      <trkpt lat="45.94059" lon="3.34155">
        <ele>315.8</ele>
        <time>2024-04-15T15:40:08Z</time>
      </trkpt>
      <trkpt lat="45.94065" lon="3.34152">
        <ele>316</ele>
        <time>2024-04-15T15:40:09Z</time>
      </trkpt>
      <trkpt lat="45.9407" lon="3.34149">
        <ele>316</ele>
        <time>2024-04-15T15:40:10Z</time>
      </trkpt>
      <trkpt lat="45.94075" lon="3.34145">
        <ele>316</ele>
        <time>2024-04-15T15:40:11Z</time>
      </trkpt>
      <trkpt lat="45.94079" lon="3.34141">
        <ele>316.2</ele>
        <time>2024-04-15T15:40:12Z</time>
      </trkpt>
      <trkpt lat="45.94084" lon="3.34137">
        <ele>316.2</ele>
        <time>2024-04-15T15:40:13Z</time>
      </trkpt>
      <trkpt lat="45.94088" lon="3.34133">
        <ele>316.2</ele>
        <time>2024-04-15T15:40:14Z</time>
      </trkpt>
      <trkpt lat="45.94093" lon="3.34129">
        <ele>316.2</ele>
        <time>2024-04-15T15:40:15Z</time>
      </trkpt>
      <trkpt lat="45.94097" lon="3.34125">
        <ele>316.4</ele>
        <time>2024-04-15T15:40:16Z</time>
      </trkpt>
      <trkpt lat="45.94102" lon="3.34121">
        <ele>316.4</ele>
        <time>2024-04-15T15:40:17Z</time>
      </trkpt>
      <trkpt lat="45.94106" lon="3.34117">
        <ele>316.4</ele>
        <time>2024-04-15T15:40:18Z</time>
      </trkpt>
      <trkpt lat="45.9411" lon="3.34113">
        <ele>316.6</ele>
        <time>2024-04-15T15:40:19Z</time>
      </trkpt>
      <trkpt lat="45.94115" lon="3.34109">
        <ele>316.6</ele>
        <time>2024-04-15T15:40:20Z</time>
      </trkpt>
      <trkpt lat="45.94119" lon="3.34105">
        <ele>316.8</ele>
        <time>2024-04-15T15:40:21Z</time>
      </trkpt>
      <trkpt lat="45.94124" lon="3.34101">
        <ele>316.8</ele>
        <time>2024-04-15T15:40:22Z</time>
      </trkpt>
      <trkpt lat="45.94128" lon="3.34097">
        <ele>317</ele>
        <time>2024-04-15T15:40:23Z</time>
      </trkpt>
      <trkpt lat="45.94132" lon="3.34093">
        <ele>317</ele>
        <time>2024-04-15T15:40:24Z</time>
      </trkpt>
      <trkpt lat="45.94136" lon="3.34089">
        <ele>317.2</ele>
        <time>2024-04-15T15:40:25Z</time>
      </trkpt>
      <trkpt lat="45.94141" lon="3.34085">
        <ele>317.4</ele>
        <time>2024-04-15T15:40:26Z</time>
      </trkpt>
      <trkpt lat="45.94145" lon="3.34082">
        <ele>317.4</ele>
        <time>2024-04-15T15:40:27Z</time>
      </trkpt>
      <trkpt lat="45.94149" lon="3.34076">
        <ele>317.4</ele>
        <time>2024-04-15T15:40:28Z</time>
      </trkpt>
      <trkpt lat="45.94152" lon="3.34071">
        <ele>317.6</ele>
        <time>2024-04-15T15:40:29Z</time>
      </trkpt>
      <trkpt lat="45.94156" lon="3.34066">
        <ele>317.6</ele>
        <time>2024-04-15T15:40:30Z</time>
      </trkpt>
      <trkpt lat="45.94159" lon="3.34061">
        <ele>317.8</ele>
        <time>2024-04-15T15:40:31Z</time>
      </trkpt>
      <trkpt lat="45.94163" lon="3.34056">
        <ele>317.8</ele>
        <time>2024-04-15T15:40:32Z</time>
      </trkpt>
      <trkpt lat="45.94166" lon="3.34051">
        <ele>318</ele>
        <time>2024-04-15T15:40:33Z</time>
      </trkpt>
      <trkpt lat="45.9417" lon="3.34046">
        <ele>318</ele>
        <time>2024-04-15T15:40:34Z</time>
      </trkpt>
      <trkpt lat="45.94173" lon="3.34041">
        <ele>318</ele>
        <time>2024-04-15T15:40:35Z</time>
      </trkpt>
      <trkpt lat="45.94177" lon="3.34036">
        <ele>318.2</ele>
        <time>2024-04-15T15:40:36Z</time>
      </trkpt>
      <trkpt lat="45.9418" lon="3.34031">
        <ele>318.2</ele>
        <time>2024-04-15T15:40:37Z</time>
      </trkpt>
      <trkpt lat="45.94184" lon="3.34026">
        <ele>318.4</ele>
        <time>2024-04-15T15:40:38Z</time>
      </trkpt>
      <trkpt lat="45.94187" lon="3.34021">
        <ele>318.4</ele>
        <time>2024-04-15T15:40:39Z</time>
      </trkpt>
      <trkpt lat="45.94191" lon="3.34016">
        <ele>318.4</ele>
        <time>2024-04-15T15:40:40Z</time>
      </trkpt>
      <trkpt lat="45.94194" lon="3.34011">
        <ele>318.6</ele>
        <time>2024-04-15T15:40:41Z</time>
      </trkpt>
      <trkpt lat="45.94197" lon="3.34005">
        <ele>318.6</ele>
        <time>2024-04-15T15:40:42Z</time>
      </trkpt>
      <trkpt lat="45.942" lon="3.33999">
        <ele>318.6</ele>
        <time>2024-04-15T15:40:43Z</time>
      </trkpt>
      <trkpt lat="45.94203" lon="3.33993">
        <ele>318.8</ele>
        <time>2024-04-15T15:40:44Z</time>
      </trkpt>
      <trkpt lat="45.94206" lon="3.33988">
        <ele>318.8</ele>
        <time>2024-04-15T15:40:45Z</time>
      </trkpt>
      <trkpt lat="45.94209" lon="3.33982">
        <ele>319</ele>
        <time>2024-04-15T15:40:46Z</time>
      </trkpt>
      <trkpt lat="45.94212" lon="3.33977">
        <ele>319</ele>
        <time>2024-04-15T15:40:47Z</time>
      </trkpt>
      <trkpt lat="45.94214" lon="3.33971">
        <ele>319.2</ele>
        <time>2024-04-15T15:40:48Z</time>
      </trkpt>
      <trkpt lat="45.94217" lon="3.33965">
        <ele>319.2</ele>
        <time>2024-04-15T15:40:49Z</time>
      </trkpt>
      <trkpt lat="45.9422" lon="3.3396">
        <ele>319.2</ele>
        <time>2024-04-15T15:40:50Z</time>
      </trkpt>
      <trkpt lat="45.94223" lon="3.33954">
        <ele>319.4</ele>
        <time>2024-04-15T15:40:51Z</time>
      </trkpt>
      <trkpt lat="45.94226" lon="3.33949">
        <ele>319.4</ele>
        <time>2024-04-15T15:40:52Z</time>
      </trkpt>
      <trkpt lat="45.94228" lon="3.33943">
        <ele>319.6</ele>
        <time>2024-04-15T15:40:53Z</time>
      </trkpt>
      <trkpt lat="45.94231" lon="3.33938">
        <ele>319.6</ele>
        <time>2024-04-15T15:40:54Z</time>
      </trkpt>
      <trkpt lat="45.94233" lon="3.33932">
        <ele>319.8</ele>
        <time>2024-04-15T15:40:55Z</time>
      </trkpt>
      <trkpt lat="45.94235" lon="3.33926">
        <ele>319.8</ele>
        <time>2024-04-15T15:40:56Z</time>
      </trkpt>
      <trkpt lat="45.94237" lon="3.3392">
        <ele>320</ele>
        <time>2024-04-15T15:40:57Z</time>
      </trkpt>
      <trkpt lat="45.94239" lon="3.33914">
        <ele>320</ele>
        <time>2024-04-15T15:40:58Z</time>
      </trkpt>
      <trkpt lat="45.94241" lon="3.33908">
        <ele>320</ele>
        <time>2024-04-15T15:40:59Z</time>
      </trkpt>
      <trkpt lat="45.94243" lon="3.33902">
        <ele>320.2</ele>
        <time>2024-04-15T15:41:00Z</time>
      </trkpt>
      <trkpt lat="45.94245" lon="3.33896">
        <ele>320.2</ele>
        <time>2024-04-15T15:41:01Z</time>
      </trkpt>
      <trkpt lat="45.94247" lon="3.33891">
        <ele>320.2</ele>
        <time>2024-04-15T15:41:02Z</time>
      </trkpt>
      <trkpt lat="45.94249" lon="3.33885">
        <ele>320.4</ele>
        <time>2024-04-15T15:41:03Z</time>
      </trkpt>
      <trkpt lat="45.94251" lon="3.33879">
        <ele>320.4</ele>
        <time>2024-04-15T15:41:04Z</time>
      </trkpt>
      <trkpt lat="45.94253" lon="3.33873">
        <ele>320.6</ele>
        <time>2024-04-15T15:41:05Z</time>
      </trkpt>
      <trkpt lat="45.94255" lon="3.33867">
        <ele>320.6</ele>
        <time>2024-04-15T15:41:06Z</time>
      </trkpt>
      <trkpt lat="45.94257" lon="3.33861">
        <ele>320.8</ele>
        <time>2024-04-15T15:41:07Z</time>
      </trkpt>
      <trkpt lat="45.94259" lon="3.33856">
        <ele>320.8</ele>
        <time>2024-04-15T15:41:08Z</time>
      </trkpt>
      <trkpt lat="45.94261" lon="3.3385">
        <ele>320.8</ele>
        <time>2024-04-15T15:41:09Z</time>
      </trkpt>
      <trkpt lat="45.94263" lon="3.33844">
        <ele>321</ele>
        <time>2024-04-15T15:41:10Z</time>
      </trkpt>
      <trkpt lat="45.94265" lon="3.33838">
        <ele>321</ele>
        <time>2024-04-15T15:41:11Z</time>
      </trkpt>
      <trkpt lat="45.94267" lon="3.33832">
        <ele>321</ele>
        <time>2024-04-15T15:41:12Z</time>
      </trkpt>
      <trkpt lat="45.94269" lon="3.33826">
        <ele>321.2</ele>
        <time>2024-04-15T15:41:13Z</time>
      </trkpt>
      <trkpt lat="45.94271" lon="3.33821">
        <ele>321.2</ele>
        <time>2024-04-15T15:41:14Z</time>
      </trkpt>
      <trkpt lat="45.94273" lon="3.33815">
        <ele>321.2</ele>
        <time>2024-04-15T15:41:15Z</time>
      </trkpt>
      <trkpt lat="45.94275" lon="3.33809">
        <ele>321.4</ele>
        <time>2024-04-15T15:41:16Z</time>
      </trkpt>
      <trkpt lat="45.94277" lon="3.33804">
        <ele>321.4</ele>
        <time>2024-04-15T15:41:17Z</time>
      </trkpt>
      <trkpt lat="45.94279" lon="3.33798">
        <ele>321.4</ele>
        <time>2024-04-15T15:41:18Z</time>
      </trkpt>
      <trkpt lat="45.94281" lon="3.33792">
        <ele>321.6</ele>
        <time>2024-04-15T15:41:19Z</time>
      </trkpt>
      <trkpt lat="45.94283" lon="3.33787">
        <ele>321.6</ele>
        <time>2024-04-15T15:41:20Z</time>
      </trkpt>
      <trkpt lat="45.94284" lon="3.33781">
        <ele>321.6</ele>
        <time>2024-04-15T15:41:21Z</time>
      </trkpt>
      <trkpt lat="45.94286" lon="3.33775">
        <ele>321.8</ele>
        <time>2024-04-15T15:41:22Z</time>
      </trkpt>
      <trkpt lat="45.94288" lon="3.3377">
        <ele>321.8</ele>
        <time>2024-04-15T15:41:23Z</time>
      </trkpt>
      <trkpt lat="45.9429" lon="3.33764">
        <ele>322</ele>
        <time>2024-04-15T15:41:24Z</time>
      </trkpt>
      <trkpt lat="45.94292" lon="3.33759">
        <ele>322</ele>
        <time>2024-04-15T15:41:25Z</time>
      </trkpt>
      <trkpt lat="45.94294" lon="3.33753">
        <ele>322</ele>
        <time>2024-04-15T15:41:26Z</time>
      </trkpt>
      <trkpt lat="45.94296" lon="3.33748">
        <ele>322.2</ele>
        <time>2024-04-15T15:41:27Z</time>
      </trkpt>
      <trkpt lat="45.94298" lon="3.33742">
        <ele>322.2</ele>
        <time>2024-04-15T15:41:28Z</time>
      </trkpt>
      <trkpt lat="45.943" lon="3.33737">
        <ele>322.4</ele>
        <time>2024-04-15T15:41:29Z</time>
      </trkpt>
      <trkpt lat="45.94301" lon="3.33731">
        <ele>322.4</ele>
        <time>2024-04-15T15:41:30Z</time>
      </trkpt>
      <trkpt lat="45.94303" lon="3.33726">
        <ele>322.4</ele>
        <time>2024-04-15T15:41:31Z</time>
      </trkpt>
      <trkpt lat="45.94305" lon="3.3372">
        <ele>322.6</ele>
        <time>2024-04-15T15:41:32Z</time>
      </trkpt>
      <trkpt lat="45.94307" lon="3.33714">
        <ele>322.6</ele>
        <time>2024-04-15T15:41:33Z</time>
      </trkpt>
      <trkpt lat="45.94309" lon="3.33708">
        <ele>322.8</ele>
        <time>2024-04-15T15:41:34Z</time>
      </trkpt>
      <trkpt lat="45.94311" lon="3.33702">
        <ele>322.8</ele>
        <time>2024-04-15T15:41:35Z</time>
      </trkpt>
      <trkpt lat="45.94313" lon="3.33697">
        <ele>323</ele>
        <time>2024-04-15T15:41:36Z</time>
      </trkpt>
      <trkpt lat="45.94315" lon="3.3369">
        <ele>323</ele>
        <time>2024-04-15T15:41:37Z</time>
      </trkpt>
      <trkpt lat="45.94317" lon="3.33684">
        <ele>323</ele>
        <time>2024-04-15T15:41:38Z</time>
      </trkpt>
      <trkpt lat="45.94319" lon="3.33679">
        <ele>323</ele>
        <time>2024-04-15T15:41:39Z</time>
      </trkpt>
      <trkpt lat="45.94321" lon="3.33673">
        <ele>323.2</ele>
        <time>2024-04-15T15:41:40Z</time>
      </trkpt>
      <trkpt lat="45.94323" lon="3.33667">
        <ele>323.2</ele>
        <time>2024-04-15T15:41:41Z</time>
      </trkpt>
      <trkpt lat="45.94325" lon="3.33661">
        <ele>323.2</ele>
        <time>2024-04-15T15:41:42Z</time>
      </trkpt>
      <trkpt lat="45.94327" lon="3.33656">
        <ele>323.4</ele>
        <time>2024-04-15T15:41:43Z</time>
      </trkpt>
      <trkpt lat="45.94329" lon="3.3365">
        <ele>323.4</ele>
        <time>2024-04-15T15:41:44Z</time>
      </trkpt>
      <trkpt lat="45.94331" lon="3.33644">
        <ele>323.4</ele>
        <time>2024-04-15T15:41:45Z</time>
      </trkpt>
      <trkpt lat="45.94333" lon="3.33638">
        <ele>323.6</ele>
        <time>2024-04-15T15:41:46Z</time>
      </trkpt>
      <trkpt lat="45.94335" lon="3.33632">
        <ele>323.6</ele>
        <time>2024-04-15T15:41:47Z</time>
      </trkpt>
      <trkpt lat="45.94337" lon="3.33626">
        <ele>323.6</ele>
        <time>2024-04-15T15:41:48Z</time>
      </trkpt>
      <trkpt lat="45.94339" lon="3.3362">
        <ele>323.8</ele>
        <time>2024-04-15T15:41:49Z</time>
      </trkpt>
      <trkpt lat="45.94341" lon="3.33614">
        <ele>323.8</ele>
        <time>2024-04-15T15:41:50Z</time>
      </trkpt>
      <trkpt lat="45.94342" lon="3.33608">
        <ele>323.8</ele>
        <time>2024-04-15T15:41:51Z</time>
      </trkpt>
      <trkpt lat="45.94344" lon="3.33602">
        <ele>323.8</ele>
        <time>2024-04-15T15:41:52Z</time>
      </trkpt>
      <trkpt lat="45.94346" lon="3.33597">
        <ele>324</ele>
        <time>2024-04-15T15:41:53Z</time>
      </trkpt>
      <trkpt lat="45.94348" lon="3.33591">
        <ele>324</ele>
        <time>2024-04-15T15:41:54Z</time>
      </trkpt>
      <trkpt lat="45.9435" lon="3.33585">
        <ele>324</ele>
        <time>2024-04-15T15:41:55Z</time>
      </trkpt>
      <trkpt lat="45.94352" lon="3.33579">
        <ele>324.2</ele>
        <time>2024-04-15T15:41:56Z</time>
      </trkpt>
      <trkpt lat="45.94354" lon="3.33573">
        <ele>324.2</ele>
        <time>2024-04-15T15:41:57Z</time>
      </trkpt>
      <trkpt lat="45.94356" lon="3.33567">
        <ele>324.4</ele>
        <time>2024-04-15T15:41:58Z</time>
      </trkpt>
      <trkpt lat="45.94358" lon="3.33561">
        <ele>324.4</ele>
        <time>2024-04-15T15:41:59Z</time>
      </trkpt>
      <trkpt lat="45.9436" lon="3.33555">
        <ele>324.6</ele>
        <time>2024-04-15T15:42:00Z</time>
      </trkpt>
      <trkpt lat="45.94362" lon="3.33549">
        <ele>324.6</ele>
        <time>2024-04-15T15:42:01Z</time>
      </trkpt>
      <trkpt lat="45.94364" lon="3.33543">
        <ele>324.6</ele>
        <time>2024-04-15T15:42:02Z</time>
      </trkpt>
      <trkpt lat="45.94366" lon="3.33537">
        <ele>324.8</ele>
        <time>2024-04-15T15:42:03Z</time>
      </trkpt>
      <trkpt lat="45.94368" lon="3.33531">
        <ele>324.8</ele>
        <time>2024-04-15T15:42:04Z</time>
      </trkpt>
      <trkpt lat="45.9437" lon="3.33526">
        <ele>324.8</ele>
        <time>2024-04-15T15:42:05Z</time>
      </trkpt>
      <trkpt lat="45.94372" lon="3.3352">
        <ele>325</ele>
        <time>2024-04-15T15:42:06Z</time>
      </trkpt>
      <trkpt lat="45.94373" lon="3.33515">
        <ele>325</ele>
        <time>2024-04-15T15:42:07Z</time>
      </trkpt>
      <trkpt lat="45.94375" lon="3.33509">
        <ele>325</ele>
        <time>2024-04-15T15:42:08Z</time>
      </trkpt>
      <trkpt lat="45.94377" lon="3.33504">
        <ele>325</ele>
        <time>2024-04-15T15:42:09Z</time>
      </trkpt>
      <trkpt lat="45.94379" lon="3.33498">
        <ele>325</ele>
        <time>2024-04-15T15:42:10Z</time>
      </trkpt>
      <trkpt lat="45.94381" lon="3.33493">
        <ele>325.2</ele>
        <time>2024-04-15T15:42:11Z</time>
      </trkpt>
      <trkpt lat="45.94383" lon="3.33487">
        <ele>325.2</ele>
        <time>2024-04-15T15:42:12Z</time>
      </trkpt>
      <trkpt lat="45.94384" lon="3.33482">
        <ele>325.2</ele>
        <time>2024-04-15T15:42:13Z</time>
      </trkpt>
      <trkpt lat="45.94386" lon="3.33477">
        <ele>325.4</ele>
        <time>2024-04-15T15:42:14Z</time>
      </trkpt>
      <trkpt lat="45.94388" lon="3.33471">
        <ele>325.4</ele>
        <time>2024-04-15T15:42:15Z</time>
      </trkpt>
      <trkpt lat="45.9439" lon="3.33466">
        <ele>325.4</ele>
        <time>2024-04-15T15:42:16Z</time>
      </trkpt>
      <trkpt lat="45.94391" lon="3.33461">
        <ele>325.4</ele>
        <time>2024-04-15T15:42:17Z</time>
      </trkpt>
      <trkpt lat="45.94393" lon="3.33455">
        <ele>325.6</ele>
        <time>2024-04-15T15:42:18Z</time>
      </trkpt>
      <trkpt lat="45.94395" lon="3.3345">
        <ele>325.6</ele>
        <time>2024-04-15T15:42:19Z</time>
      </trkpt>
      <trkpt lat="45.94397" lon="3.33444">
        <ele>325.6</ele>
        <time>2024-04-15T15:42:20Z</time>
      </trkpt>
      <trkpt lat="45.94399" lon="3.33438">
        <ele>325.8</ele>
        <time>2024-04-15T15:42:21Z</time>
      </trkpt>
      <trkpt lat="45.94401" lon="3.33433">
        <ele>325.8</ele>
        <time>2024-04-15T15:42:22Z</time>
      </trkpt>
      <trkpt lat="45.94403" lon="3.33427">
        <ele>325.8</ele>
        <time>2024-04-15T15:42:23Z</time>
      </trkpt>
      <trkpt lat="45.94405" lon="3.33421">
        <ele>326</ele>
        <time>2024-04-15T15:42:24Z</time>
      </trkpt>
      <trkpt lat="45.94406" lon="3.33416">
        <ele>326</ele>
        <time>2024-04-15T15:42:25Z</time>
      </trkpt>
      <trkpt lat="45.94408" lon="3.3341">
        <ele>326</ele>
        <time>2024-04-15T15:42:26Z</time>
      </trkpt>
      <trkpt lat="45.9441" lon="3.33404">
        <ele>326.2</ele>
        <time>2024-04-15T15:42:27Z</time>
      </trkpt>
      <trkpt lat="45.94412" lon="3.33397">
        <ele>326.2</ele>
        <time>2024-04-15T15:42:28Z</time>
      </trkpt>
      <trkpt lat="45.94414" lon="3.33391">
        <ele>326.2</ele>
        <time>2024-04-15T15:42:29Z</time>
      </trkpt>
      <trkpt lat="45.94416" lon="3.33386">
        <ele>326.4</ele>
        <time>2024-04-15T15:42:30Z</time>
      </trkpt>
      <trkpt lat="45.94418" lon="3.3338">
        <ele>326.4</ele>
        <time>2024-04-15T15:42:31Z</time>
      </trkpt>
      <trkpt lat="45.9442" lon="3.33374">
        <ele>326.4</ele>
        <time>2024-04-15T15:42:32Z</time>
      </trkpt>
      <trkpt lat="45.94422" lon="3.33367">
        <ele>326.6</ele>
        <time>2024-04-15T15:42:33Z</time>
      </trkpt>
      <trkpt lat="45.94424" lon="3.33361">
        <ele>326.6</ele>
        <time>2024-04-15T15:42:34Z</time>
      </trkpt>
      <trkpt lat="45.94426" lon="3.33355">
        <ele>326.6</ele>
        <time>2024-04-15T15:42:35Z</time>
      </trkpt>
      <trkpt lat="45.94429" lon="3.33349">
        <ele>326.6</ele>
        <time>2024-04-15T15:42:36Z</time>
      </trkpt>
      <trkpt lat="45.94431" lon="3.33343">
        <ele>326.8</ele>
        <time>2024-04-15T15:42:37Z</time>
      </trkpt>
      <trkpt lat="45.94433" lon="3.33337">
        <ele>326.8</ele>
        <time>2024-04-15T15:42:38Z</time>
      </trkpt>
      <trkpt lat="45.94435" lon="3.3333">
        <ele>326.8</ele>
        <time>2024-04-15T15:42:39Z</time>
      </trkpt>
      <trkpt lat="45.94437" lon="3.33324">
        <ele>327</ele>
        <time>2024-04-15T15:42:40Z</time>
      </trkpt>
      <trkpt lat="45.94439" lon="3.33318">
        <ele>327</ele>
        <time>2024-04-15T15:42:41Z</time>
      </trkpt>
      <trkpt lat="45.94441" lon="3.33312">
        <ele>327</ele>
        <time>2024-04-15T15:42:42Z</time>
      </trkpt>
      <trkpt lat="45.94443" lon="3.33306">
        <ele>327.2</ele>
        <time>2024-04-15T15:42:43Z</time>
      </trkpt>
      <trkpt lat="45.94445" lon="3.333">
        <ele>327.2</ele>
        <time>2024-04-15T15:42:44Z</time>
      </trkpt>
      <trkpt lat="45.94447" lon="3.33294">
        <ele>327.2</ele>
        <time>2024-04-15T15:42:45Z</time>
      </trkpt>
      <trkpt lat="45.94449" lon="3.33288">
        <ele>327.4</ele>
        <time>2024-04-15T15:42:46Z</time>
      </trkpt>
      <trkpt lat="45.94451" lon="3.33282">
        <ele>327.4</ele>
        <time>2024-04-15T15:42:47Z</time>
      </trkpt>
      <trkpt lat="45.94453" lon="3.33276">
        <ele>327.4</ele>
        <time>2024-04-15T15:42:48Z</time>
      </trkpt>
      <trkpt lat="45.94453" lon="3.33276">
        <ele>327.4</ele>
        <time>2024-04-15T15:42:49Z</time>
      </trkpt>
      <trkpt lat="45.94457" lon="3.33264">
        <ele>327.4</ele>
        <time>2024-04-15T15:42:50Z</time>
      </trkpt>
      <trkpt lat="45.94457" lon="3.33264">
        <ele>327.6</ele>
        <time>2024-04-15T15:42:51Z</time>
      </trkpt>
      <trkpt lat="45.94459" lon="3.33258">
        <ele>327.6</ele>
        <time>2024-04-15T15:42:52Z</time>
      </trkpt>
      <trkpt lat="45.94463" lon="3.33246">
        <ele>327.6</ele>
        <time>2024-04-15T15:42:53Z</time>
      </trkpt>
      <trkpt lat="45.94465" lon="3.3324">
        <ele>327.6</ele>
        <time>2024-04-15T15:42:54Z</time>
      </trkpt>
      <trkpt lat="45.94465" lon="3.3324">
        <ele>327.8</ele>
        <time>2024-04-15T15:42:55Z</time>
      </trkpt>
      <trkpt lat="45.94469" lon="3.33227">
        <ele>327.8</ele>
        <time>2024-04-15T15:42:56Z</time>
      </trkpt>
      <trkpt lat="45.94471" lon="3.33221">
        <ele>327.8</ele>
        <time>2024-04-15T15:42:57Z</time>
      </trkpt>
      <trkpt lat="45.94471" lon="3.33221">
        <ele>327.8</ele>
        <time>2024-04-15T15:42:58Z</time>
      </trkpt>
      <trkpt lat="45.94475" lon="3.33209">
        <ele>327.8</ele>
        <time>2024-04-15T15:42:59Z</time>
      </trkpt>
      <trkpt lat="45.94477" lon="3.33202">
        <ele>328</ele>
        <time>2024-04-15T15:43:00Z</time>
      </trkpt>
      <trkpt lat="45.9448" lon="3.33195">
        <ele>328</ele>
        <time>2024-04-15T15:43:01Z</time>
      </trkpt>
      <trkpt lat="45.94482" lon="3.33188">
        <ele>328</ele>
        <time>2024-04-15T15:43:02Z</time>
      </trkpt>
      <trkpt lat="45.94484" lon="3.33182">
        <ele>328</ele>
        <time>2024-04-15T15:43:03Z</time>
      </trkpt>
      <trkpt lat="45.94487" lon="3.33175">
        <ele>328</ele>
        <time>2024-04-15T15:43:04Z</time>
      </trkpt>
      <trkpt lat="45.94489" lon="3.33168">
        <ele>328</ele>
        <time>2024-04-15T15:43:05Z</time>
      </trkpt>
      <trkpt lat="45.94491" lon="3.33161">
        <ele>328.2</ele>
        <time>2024-04-15T15:43:06Z</time>
      </trkpt>
      <trkpt lat="45.94493" lon="3.33154">
        <ele>328.2</ele>
        <time>2024-04-15T15:43:07Z</time>
      </trkpt>
      <trkpt lat="45.94496" lon="3.33148">
        <ele>328.2</ele>
        <time>2024-04-15T15:43:08Z</time>
      </trkpt>
      <trkpt lat="45.94498" lon="3.33141">
        <ele>328.2</ele>
        <time>2024-04-15T15:43:09Z</time>
      </trkpt>
      <trkpt lat="45.945" lon="3.33134">
        <ele>328.4</ele>
        <time>2024-04-15T15:43:10Z</time>
      </trkpt>
      <trkpt lat="45.94502" lon="3.33127">
        <ele>328.4</ele>
        <time>2024-04-15T15:43:11Z</time>
      </trkpt>
      <trkpt lat="45.94504" lon="3.33121">
        <ele>328.4</ele>
        <time>2024-04-15T15:43:12Z</time>
      </trkpt>
      <trkpt lat="45.94507" lon="3.33115">
        <ele>328.4</ele>
        <time>2024-04-15T15:43:13Z</time>
      </trkpt>
      <trkpt lat="45.94509" lon="3.33108">
        <ele>328.4</ele>
        <time>2024-04-15T15:43:14Z</time>
      </trkpt>
      <trkpt lat="45.94511" lon="3.33102">
        <ele>328.4</ele>
        <time>2024-04-15T15:43:15Z</time>
      </trkpt>
      <trkpt lat="45.94513" lon="3.33095">
        <ele>328.4</ele>
        <time>2024-04-15T15:43:16Z</time>
      </trkpt>
      <trkpt lat="45.94515" lon="3.33089">
        <ele>328.6</ele>
        <time>2024-04-15T15:43:17Z</time>
      </trkpt>
      <trkpt lat="45.94517" lon="3.33082">
        <ele>328.6</ele>
        <time>2024-04-15T15:43:18Z</time>
      </trkpt>
      <trkpt lat="45.9452" lon="3.33076">
        <ele>328.6</ele>
        <time>2024-04-15T15:43:19Z</time>
      </trkpt>
      <trkpt lat="45.94522" lon="3.33069">
        <ele>328.6</ele>
        <time>2024-04-15T15:43:20Z</time>
      </trkpt>
      <trkpt lat="45.94524" lon="3.33062">
        <ele>328.6</ele>
        <time>2024-04-15T15:43:21Z</time>
      </trkpt>
      <trkpt lat="45.94526" lon="3.33055">
        <ele>328.8</ele>
        <time>2024-04-15T15:43:22Z</time>
      </trkpt>
      <trkpt lat="45.94529" lon="3.33048">
        <ele>328.8</ele>
        <time>2024-04-15T15:43:23Z</time>
      </trkpt>
      <trkpt lat="45.94531" lon="3.33042">
        <ele>328.8</ele>
        <time>2024-04-15T15:43:24Z</time>
      </trkpt>
      <trkpt lat="45.94533" lon="3.33035">
        <ele>328.8</ele>
        <time>2024-04-15T15:43:25Z</time>
      </trkpt>
      <trkpt lat="45.94535" lon="3.33028">
        <ele>328.8</ele>
        <time>2024-04-15T15:43:26Z</time>
      </trkpt>
      <trkpt lat="45.94538" lon="3.33021">
        <ele>328.8</ele>
        <time>2024-04-15T15:43:27Z</time>
      </trkpt>
      <trkpt lat="45.9454" lon="3.33015">
        <ele>328.8</ele>
        <time>2024-04-15T15:43:28Z</time>
      </trkpt>
      <trkpt lat="45.94542" lon="3.33008">
        <ele>329</ele>
        <time>2024-04-15T15:43:29Z</time>
      </trkpt>
      <trkpt lat="45.94544" lon="3.33001">
        <ele>329</ele>
        <time>2024-04-15T15:43:30Z</time>
      </trkpt>
      <trkpt lat="45.94546" lon="3.32995">
        <ele>329</ele>
        <time>2024-04-15T15:43:31Z</time>
      </trkpt>
      <trkpt lat="45.94548" lon="3.32989">
        <ele>329</ele>
        <time>2024-04-15T15:43:32Z</time>
      </trkpt>
      <trkpt lat="45.94551" lon="3.32982">
        <ele>329</ele>
        <time>2024-04-15T15:43:33Z</time>
      </trkpt>
      <trkpt lat="45.94553" lon="3.32976">
        <ele>329.2</ele>
        <time>2024-04-15T15:43:34Z</time>
      </trkpt>
      <trkpt lat="45.94555" lon="3.3297">
        <ele>329</ele>
        <time>2024-04-15T15:43:35Z</time>
      </trkpt>
      <trkpt lat="45.94557" lon="3.32963">
        <ele>329.2</ele>
        <time>2024-04-15T15:43:36Z</time>
      </trkpt>
      <trkpt lat="45.94559" lon="3.32957">
        <ele>329.2</ele>
        <time>2024-04-15T15:43:37Z</time>
      </trkpt>
      <trkpt lat="45.94561" lon="3.3295">
        <ele>329.2</ele>
        <time>2024-04-15T15:43:38Z</time>
      </trkpt>
      <trkpt lat="45.94563" lon="3.32943">
        <ele>329.2</ele>
        <time>2024-04-15T15:43:39Z</time>
      </trkpt>
      <trkpt lat="45.94566" lon="3.32937">
        <ele>329.2</ele>
        <time>2024-04-15T15:43:40Z</time>
      </trkpt>
      <trkpt lat="45.94568" lon="3.3293">
        <ele>329.2</ele>
        <time>2024-04-15T15:43:41Z</time>
      </trkpt>
      <trkpt lat="45.9457" lon="3.32924">
        <ele>329.2</ele>
        <time>2024-04-15T15:43:42Z</time>
      </trkpt>
      <trkpt lat="45.94572" lon="3.32917">
        <ele>329.2</ele>
        <time>2024-04-15T15:43:43Z</time>
      </trkpt>
      <trkpt lat="45.94575" lon="3.3291">
        <ele>329.2</ele>
        <time>2024-04-15T15:43:44Z</time>
      </trkpt>
      <trkpt lat="45.94577" lon="3.32903">
        <ele>329.4</ele>
        <time>2024-04-15T15:43:45Z</time>
      </trkpt>
      <trkpt lat="45.94579" lon="3.32896">
        <ele>329.4</ele>
        <time>2024-04-15T15:43:46Z</time>
      </trkpt>
      <trkpt lat="45.94582" lon="3.32889">
        <ele>329.4</ele>
        <time>2024-04-15T15:43:47Z</time>
      </trkpt>
      <trkpt lat="45.94584" lon="3.32882">
        <ele>329.4</ele>
        <time>2024-04-15T15:43:48Z</time>
      </trkpt>
      <trkpt lat="45.94586" lon="3.32875">
        <ele>329.4</ele>
        <time>2024-04-15T15:43:49Z</time>
      </trkpt>
      <trkpt lat="45.94589" lon="3.32867">
        <ele>329.4</ele>
        <time>2024-04-15T15:43:50Z</time>
      </trkpt>
      <trkpt lat="45.94591" lon="3.3286">
        <ele>329.4</ele>
        <time>2024-04-15T15:43:51Z</time>
      </trkpt>
      <trkpt lat="45.94594" lon="3.32853">
        <ele>329.4</ele>
        <time>2024-04-15T15:43:52Z</time>
      </trkpt>
      <trkpt lat="45.94596" lon="3.32846">
        <ele>329.4</ele>
        <time>2024-04-15T15:43:53Z</time>
      </trkpt>
      <trkpt lat="45.94598" lon="3.32839">
        <ele>329.6</ele>
        <time>2024-04-15T15:43:54Z</time>
      </trkpt>
      <trkpt lat="45.94601" lon="3.32832">
        <ele>329.6</ele>
        <time>2024-04-15T15:43:55Z</time>
      </trkpt>
      <trkpt lat="45.94603" lon="3.32824">
        <ele>329.6</ele>
        <time>2024-04-15T15:43:56Z</time>
      </trkpt>
      <trkpt lat="45.94605" lon="3.32817">
        <ele>329.6</ele>
        <time>2024-04-15T15:43:57Z</time>
      </trkpt>
      <trkpt lat="45.94608" lon="3.3281">
        <ele>329.6</ele>
        <time>2024-04-15T15:43:58Z</time>
      </trkpt>
      <trkpt lat="45.9461" lon="3.32803">
        <ele>329.6</ele>
        <time>2024-04-15T15:43:59Z</time>
      </trkpt>
      <trkpt lat="45.94612" lon="3.32797">
        <ele>329.6</ele>
        <time>2024-04-15T15:44:00Z</time>
      </trkpt>
      <trkpt lat="45.94615" lon="3.3279">
        <ele>329.6</ele>
        <time>2024-04-15T15:44:01Z</time>
      </trkpt>
      <trkpt lat="45.94617" lon="3.32783">
        <ele>329.6</ele>
        <time>2024-04-15T15:44:02Z</time>
      </trkpt>
      <trkpt lat="45.94619" lon="3.32776">
        <ele>329.8</ele>
        <time>2024-04-15T15:44:03Z</time>
      </trkpt>
      <trkpt lat="45.94621" lon="3.32769">
        <ele>329.8</ele>
        <time>2024-04-15T15:44:04Z</time>
      </trkpt>
      <trkpt lat="45.94623" lon="3.32763">
        <ele>329.8</ele>
        <time>2024-04-15T15:44:05Z</time>
      </trkpt>
      <trkpt lat="45.94626" lon="3.32757">
        <ele>329.8</ele>
        <time>2024-04-15T15:44:06Z</time>
      </trkpt>
      <trkpt lat="45.94628" lon="3.3275">
        <ele>329.8</ele>
        <time>2024-04-15T15:44:07Z</time>
      </trkpt>
      <trkpt lat="45.9463" lon="3.32744">
        <ele>329.8</ele>
        <time>2024-04-15T15:44:08Z</time>
      </trkpt>
      <trkpt lat="45.94633" lon="3.32738">
        <ele>329.8</ele>
        <time>2024-04-15T15:44:09Z</time>
      </trkpt>
      <trkpt lat="45.94635" lon="3.32732">
        <ele>329.8</ele>
        <time>2024-04-15T15:44:10Z</time>
      </trkpt>
      <trkpt lat="45.94638" lon="3.32726">
        <ele>329.8</ele>
        <time>2024-04-15T15:44:11Z</time>
      </trkpt>
      <trkpt lat="45.94641" lon="3.32719">
        <ele>329.8</ele>
        <time>2024-04-15T15:44:12Z</time>
      </trkpt>
      <trkpt lat="45.94643" lon="3.32713">
        <ele>329.8</ele>
        <time>2024-04-15T15:44:13Z</time>
      </trkpt>
      <trkpt lat="45.94646" lon="3.32707">
        <ele>329.8</ele>
        <time>2024-04-15T15:44:14Z</time>
      </trkpt>
      <trkpt lat="45.94649" lon="3.327">
        <ele>329.8</ele>
        <time>2024-04-15T15:44:15Z</time>
      </trkpt>
      <trkpt lat="45.94652" lon="3.32694">
        <ele>329.8</ele>
        <time>2024-04-15T15:44:16Z</time>
      </trkpt>
      <trkpt lat="45.94655" lon="3.32687">
        <ele>330</ele>
        <time>2024-04-15T15:44:17Z</time>
      </trkpt>
      <trkpt lat="45.94657" lon="3.32681">
        <ele>330</ele>
        <time>2024-04-15T15:44:18Z</time>
      </trkpt>
      <trkpt lat="45.9466" lon="3.32675">
        <ele>330</ele>
        <time>2024-04-15T15:44:19Z</time>
      </trkpt>
      <trkpt lat="45.94663" lon="3.32669">
        <ele>329.8</ele>
        <time>2024-04-15T15:44:20Z</time>
      </trkpt>
      <trkpt lat="45.94667" lon="3.32663">
        <ele>330</ele>
        <time>2024-04-15T15:44:21Z</time>
      </trkpt>
      <trkpt lat="45.9467" lon="3.32658">
        <ele>329.8</ele>
        <time>2024-04-15T15:44:22Z</time>
      </trkpt>
      <trkpt lat="45.94674" lon="3.32652">
        <ele>329.8</ele>
        <time>2024-04-15T15:44:23Z</time>
      </trkpt>
      <trkpt lat="45.94677" lon="3.32647">
        <ele>330</ele>
        <time>2024-04-15T15:44:24Z</time>
      </trkpt>
      <trkpt lat="45.9468" lon="3.32642">
        <ele>329.8</ele>
        <time>2024-04-15T15:44:25Z</time>
      </trkpt>
      <trkpt lat="45.94684" lon="3.32637">
        <ele>329.8</ele>
        <time>2024-04-15T15:44:26Z</time>
      </trkpt>
      <trkpt lat="45.94687" lon="3.32631">
        <ele>329.8</ele>
        <time>2024-04-15T15:44:27Z</time>
      </trkpt>
      <trkpt lat="45.9469" lon="3.32626">
        <ele>330</ele>
        <time>2024-04-15T15:44:28Z</time>
      </trkpt>
      <trkpt lat="45.94694" lon="3.32621">
        <ele>330</ele>
        <time>2024-04-15T15:44:29Z</time>
      </trkpt>
      <trkpt lat="45.94697" lon="3.32615">
        <ele>330</ele>
        <time>2024-04-15T15:44:30Z</time>
      </trkpt>
      <trkpt lat="45.94701" lon="3.3261">
        <ele>330</ele>
        <time>2024-04-15T15:44:31Z</time>
      </trkpt>
      <trkpt lat="45.94704" lon="3.32604">
        <ele>330</ele>
        <time>2024-04-15T15:44:32Z</time>
      </trkpt>
      <trkpt lat="45.94707" lon="3.32599">
        <ele>330</ele>
        <time>2024-04-15T15:44:33Z</time>
      </trkpt>
      <trkpt lat="45.9471" lon="3.32594">
        <ele>330</ele>
        <time>2024-04-15T15:44:34Z</time>
      </trkpt>
      <trkpt lat="45.94714" lon="3.32589">
        <ele>330</ele>
        <time>2024-04-15T15:44:35Z</time>
      </trkpt>
      <trkpt lat="45.94718" lon="3.32585">
        <ele>330.2</ele>
        <time>2024-04-15T15:44:36Z</time>
      </trkpt>
      <trkpt lat="45.94722" lon="3.32581">
        <ele>330.2</ele>
        <time>2024-04-15T15:44:37Z</time>
      </trkpt>
      <trkpt lat="45.94727" lon="3.32577">
        <ele>330.2</ele>
        <time>2024-04-15T15:44:38Z</time>
      </trkpt>
      <trkpt lat="45.94731" lon="3.32572">
        <ele>330.2</ele>
        <time>2024-04-15T15:44:39Z</time>
      </trkpt>
      <trkpt lat="45.94735" lon="3.32568">
        <ele>330.2</ele>
        <time>2024-04-15T15:44:40Z</time>
      </trkpt>
      <trkpt lat="45.94739" lon="3.32564">
        <ele>330.2</ele>
        <time>2024-04-15T15:44:41Z</time>
      </trkpt>
      <trkpt lat="45.94743" lon="3.3256">
        <ele>330.2</ele>
        <time>2024-04-15T15:44:42Z</time>
      </trkpt>
      <trkpt lat="45.94747" lon="3.32555">
        <ele>330.2</ele>
        <time>2024-04-15T15:44:43Z</time>
      </trkpt>
      <trkpt lat="45.94751" lon="3.32551">
        <ele>330.2</ele>
        <time>2024-04-15T15:44:44Z</time>
      </trkpt>
      <trkpt lat="45.94756" lon="3.32547">
        <ele>330.4</ele>
        <time>2024-04-15T15:44:45Z</time>
      </trkpt>
      <trkpt lat="45.94759" lon="3.32543">
        <ele>330.4</ele>
        <time>2024-04-15T15:44:46Z</time>
      </trkpt>
      <trkpt lat="45.94763" lon="3.32539">
        <ele>330.4</ele>
        <time>2024-04-15T15:44:47Z</time>
      </trkpt>
      <trkpt lat="45.94768" lon="3.32535">
        <ele>330.4</ele>
        <time>2024-04-15T15:44:48Z</time>
      </trkpt>
      <trkpt lat="45.94771" lon="3.32531">
        <ele>330.4</ele>
        <time>2024-04-15T15:44:49Z</time>
      </trkpt>
      <trkpt lat="45.94775" lon="3.32527">
        <ele>330.6</ele>
        <time>2024-04-15T15:44:50Z</time>
      </trkpt>
      <trkpt lat="45.94779" lon="3.32523">
        <ele>330.6</ele>
        <time>2024-04-15T15:44:51Z</time>
      </trkpt>
      <trkpt lat="45.94783" lon="3.32519">
        <ele>330.6</ele>
        <time>2024-04-15T15:44:52Z</time>
      </trkpt>
      <trkpt lat="45.94787" lon="3.32515">
        <ele>330.6</ele>
        <time>2024-04-15T15:44:53Z</time>
      </trkpt>
      <trkpt lat="45.94791" lon="3.32511">
        <ele>330.8</ele>
        <time>2024-04-15T15:44:54Z</time>
      </trkpt>
      <trkpt lat="45.94795" lon="3.32507">
        <ele>330.8</ele>
        <time>2024-04-15T15:44:55Z</time>
      </trkpt>
      <trkpt lat="45.94799" lon="3.32504">
        <ele>330.8</ele>
        <time>2024-04-15T15:44:56Z</time>
      </trkpt>
      <trkpt lat="45.94804" lon="3.325">
        <ele>330.8</ele>
        <time>2024-04-15T15:44:57Z</time>
      </trkpt>
      <trkpt lat="45.94808" lon="3.32497">
        <ele>330.8</ele>
        <time>2024-04-15T15:44:58Z</time>
      </trkpt>
      <trkpt lat="45.94812" lon="3.32493">
        <ele>331</ele>
        <time>2024-04-15T15:44:59Z</time>
      </trkpt>
      <trkpt lat="45.94816" lon="3.3249">
        <ele>331</ele>
        <time>2024-04-15T15:45:00Z</time>
      </trkpt>
      <trkpt lat="45.94821" lon="3.32486">
        <ele>331.2</ele>
        <time>2024-04-15T15:45:01Z</time>
      </trkpt>
      <trkpt lat="45.94825" lon="3.32483">
        <ele>331.2</ele>
        <time>2024-04-15T15:45:02Z</time>
      </trkpt>
      <trkpt lat="45.94829" lon="3.32479">
        <ele>331.2</ele>
        <time>2024-04-15T15:45:03Z</time>
      </trkpt>
      <trkpt lat="45.94833" lon="3.32475">
        <ele>331.2</ele>
        <time>2024-04-15T15:45:04Z</time>
      </trkpt>
      <trkpt lat="45.94837" lon="3.32472">
        <ele>331.4</ele>
        <time>2024-04-15T15:45:05Z</time>
      </trkpt>
      <trkpt lat="45.94842" lon="3.32468">
        <ele>331.2</ele>
        <time>2024-04-15T15:45:06Z</time>
      </trkpt>
      <trkpt lat="45.94846" lon="3.32465">
        <ele>331.4</ele>
        <time>2024-04-15T15:45:07Z</time>
      </trkpt>
      <trkpt lat="45.9485" lon="3.32461">
        <ele>331.4</ele>
        <time>2024-04-15T15:45:08Z</time>
      </trkpt>
      <trkpt lat="45.94854" lon="3.32458">
        <ele>331.4</ele>
        <time>2024-04-15T15:45:09Z</time>
      </trkpt>
      <trkpt lat="45.94858" lon="3.32454">
        <ele>331.6</ele>
        <time>2024-04-15T15:45:10Z</time>
      </trkpt>
      <trkpt lat="45.94862" lon="3.32451">
        <ele>331.6</ele>
        <time>2024-04-15T15:45:11Z</time>
      </trkpt>
      <trkpt lat="45.94867" lon="3.32447">
        <ele>331.6</ele>
        <time>2024-04-15T15:45:12Z</time>
      </trkpt>
      <trkpt lat="45.94871" lon="3.32444">
        <ele>331.6</ele>
        <time>2024-04-15T15:45:13Z</time>
      </trkpt>
      <trkpt lat="45.94875" lon="3.32441">
        <ele>331.6</ele>
        <time>2024-04-15T15:45:14Z</time>
      </trkpt>
      <trkpt lat="45.94878" lon="3.32437">
        <ele>331.8</ele>
        <time>2024-04-15T15:45:15Z</time>
      </trkpt>
      <trkpt lat="45.94882" lon="3.32434">
        <ele>331.8</ele>
        <time>2024-04-15T15:45:16Z</time>
      </trkpt>
      <trkpt lat="45.94886" lon="3.32431">
        <ele>331.8</ele>
        <time>2024-04-15T15:45:17Z</time>
      </trkpt>
      <trkpt lat="45.9489" lon="3.32428">
        <ele>331.8</ele>
        <time>2024-04-15T15:45:18Z</time>
      </trkpt>
      <trkpt lat="45.94894" lon="3.32424">
        <ele>332</ele>
        <time>2024-04-15T15:45:19Z</time>
      </trkpt>
      <trkpt lat="45.94898" lon="3.32421">
        <ele>332</ele>
        <time>2024-04-15T15:45:20Z</time>
      </trkpt>
      <trkpt lat="45.94902" lon="3.32417">
        <ele>332</ele>
        <time>2024-04-15T15:45:21Z</time>
      </trkpt>
      <trkpt lat="45.94902" lon="3.32417">
        <ele>332</ele>
        <time>2024-04-15T15:45:22Z</time>
      </trkpt>
      <trkpt lat="45.9491" lon="3.32411">
        <ele>332.2</ele>
        <time>2024-04-15T15:45:23Z</time>
      </trkpt>
      <trkpt lat="45.94914" lon="3.32407">
        <ele>332.2</ele>
        <time>2024-04-15T15:45:24Z</time>
      </trkpt>
      <trkpt lat="45.94918" lon="3.32404">
        <ele>332.2</ele>
        <time>2024-04-15T15:45:25Z</time>
      </trkpt>
      <trkpt lat="45.94922" lon="3.32401">
        <ele>332.4</ele>
        <time>2024-04-15T15:45:26Z</time>
      </trkpt>
      <trkpt lat="45.94926" lon="3.32398">
        <ele>332.4</ele>
        <time>2024-04-15T15:45:27Z</time>
      </trkpt>
      <trkpt lat="45.9493" lon="3.32396">
        <ele>332.4</ele>
        <time>2024-04-15T15:45:28Z</time>
      </trkpt>
      <trkpt lat="45.94935" lon="3.32393">
        <ele>332.4</ele>
        <time>2024-04-15T15:45:29Z</time>
      </trkpt>
      <trkpt lat="45.94939" lon="3.32391">
        <ele>332.6</ele>
        <time>2024-04-15T15:45:30Z</time>
      </trkpt>
      <trkpt lat="45.94944" lon="3.32389">
        <ele>332.6</ele>
        <time>2024-04-15T15:45:31Z</time>
      </trkpt>
      <trkpt lat="45.94948" lon="3.32386">
        <ele>332.6</ele>
        <time>2024-04-15T15:45:32Z</time>
      </trkpt>
      <trkpt lat="45.94953" lon="3.32384">
        <ele>332.6</ele>
        <time>2024-04-15T15:45:33Z</time>
      </trkpt>
      <trkpt lat="45.94957" lon="3.32382">
        <ele>332.8</ele>
        <time>2024-04-15T15:45:34Z</time>
      </trkpt>
      <trkpt lat="45.94962" lon="3.3238">
        <ele>332.8</ele>
        <time>2024-04-15T15:45:35Z</time>
      </trkpt>
      <trkpt lat="45.94966" lon="3.32377">
        <ele>332.8</ele>
        <time>2024-04-15T15:45:36Z</time>
      </trkpt>
      <trkpt lat="45.9497" lon="3.32375">
        <ele>332.8</ele>
        <time>2024-04-15T15:45:37Z</time>
      </trkpt>
      <trkpt lat="45.94975" lon="3.32373">
        <ele>333</ele>
        <time>2024-04-15T15:45:38Z</time>
      </trkpt>
      <trkpt lat="45.9498" lon="3.3237">
        <ele>333</ele>
        <time>2024-04-15T15:45:39Z</time>
      </trkpt>
      <trkpt lat="45.94984" lon="3.32368">
        <ele>333</ele>
        <time>2024-04-15T15:45:40Z</time>
      </trkpt>
      <trkpt lat="45.94989" lon="3.32365">
        <ele>333</ele>
        <time>2024-04-15T15:45:41Z</time>
      </trkpt>
      <trkpt lat="45.94994" lon="3.32363">
        <ele>333.2</ele>
        <time>2024-04-15T15:45:42Z</time>
      </trkpt>
      <trkpt lat="45.95" lon="3.32362">
        <ele>333.2</ele>
        <time>2024-04-15T15:45:43Z</time>
      </trkpt>
      <trkpt lat="45.95005" lon="3.32362">
        <ele>333.2</ele>
        <time>2024-04-15T15:45:44Z</time>
      </trkpt>
      <trkpt lat="45.9501" lon="3.32361">
        <ele>333.4</ele>
        <time>2024-04-15T15:45:45Z</time>
      </trkpt>
      <trkpt lat="45.95015" lon="3.32361">
        <ele>333.4</ele>
        <time>2024-04-15T15:45:46Z</time>
      </trkpt>
      <trkpt lat="45.95021" lon="3.32361">
        <ele>333.4</ele>
        <time>2024-04-15T15:45:47Z</time>
      </trkpt>
      <trkpt lat="45.95026" lon="3.32361">
        <ele>333.6</ele>
        <time>2024-04-15T15:45:48Z</time>
      </trkpt>
      <trkpt lat="45.95031" lon="3.3236">
        <ele>333.6</ele>
        <time>2024-04-15T15:45:49Z</time>
      </trkpt>
      <trkpt lat="45.95036" lon="3.3236">
        <ele>333.8</ele>
        <time>2024-04-15T15:45:50Z</time>
      </trkpt>
      <trkpt lat="45.95041" lon="3.32361">
        <ele>333.8</ele>
        <time>2024-04-15T15:45:51Z</time>
      </trkpt>
      <trkpt lat="45.95046" lon="3.32361">
        <ele>334</ele>
        <time>2024-04-15T15:45:52Z</time>
      </trkpt>
      <trkpt lat="45.95051" lon="3.32362">
        <ele>334</ele>
        <time>2024-04-15T15:45:53Z</time>
      </trkpt>
      <trkpt lat="45.95056" lon="3.32363">
        <ele>334</ele>
        <time>2024-04-15T15:45:54Z</time>
      </trkpt>
      <trkpt lat="45.9506" lon="3.32364">
        <ele>334.2</ele>
        <time>2024-04-15T15:45:55Z</time>
      </trkpt>
      <trkpt lat="45.95065" lon="3.32364">
        <ele>334.2</ele>
        <time>2024-04-15T15:45:56Z</time>
      </trkpt>
      <trkpt lat="45.9507" lon="3.32365">
        <ele>334.4</ele>
        <time>2024-04-15T15:45:57Z</time>
      </trkpt>
      <trkpt lat="45.95075" lon="3.32366">
        <ele>334.4</ele>
        <time>2024-04-15T15:45:58Z</time>
      </trkpt>
      <trkpt lat="45.9508" lon="3.32366">
        <ele>334.4</ele>
        <time>2024-04-15T15:45:59Z</time>
      </trkpt>
      <trkpt lat="45.95085" lon="3.32368">
        <ele>334.6</ele>
        <time>2024-04-15T15:46:00Z</time>
      </trkpt>
      <trkpt lat="45.9509" lon="3.3237">
        <ele>334.6</ele>
        <time>2024-04-15T15:46:01Z</time>
      </trkpt>
      <trkpt lat="45.95094" lon="3.32372">
        <ele>334.6</ele>
        <time>2024-04-15T15:46:02Z</time>
      </trkpt>
      <trkpt lat="45.95099" lon="3.32374">
        <ele>334.8</ele>
        <time>2024-04-15T15:46:03Z</time>
      </trkpt>
      <trkpt lat="45.95104" lon="3.32376">
        <ele>334.8</ele>
        <time>2024-04-15T15:46:04Z</time>
      </trkpt>
      <trkpt lat="45.95109" lon="3.32378">
        <ele>335</ele>
        <time>2024-04-15T15:46:05Z</time>
      </trkpt>
      <trkpt lat="45.95114" lon="3.32381">
        <ele>335</ele>
        <time>2024-04-15T15:46:06Z</time>
      </trkpt>
      <trkpt lat="45.95119" lon="3.32383">
        <ele>335</ele>
        <time>2024-04-15T15:46:07Z</time>
      </trkpt>
      <trkpt lat="45.95124" lon="3.32385">
        <ele>335.2</ele>
        <time>2024-04-15T15:46:08Z</time>
      </trkpt>
      <trkpt lat="45.95129" lon="3.32388">
        <ele>335.2</ele>
        <time>2024-04-15T15:46:09Z</time>
      </trkpt>
      <trkpt lat="45.95133" lon="3.32391">
        <ele>335.2</ele>
        <time>2024-04-15T15:46:10Z</time>
      </trkpt>
      <trkpt lat="45.95138" lon="3.32395">
        <ele>335.2</ele>
        <time>2024-04-15T15:46:11Z</time>
      </trkpt>
      <trkpt lat="45.95142" lon="3.32398">
        <ele>335.4</ele>
        <time>2024-04-15T15:46:12Z</time>
      </trkpt>
      <trkpt lat="45.95147" lon="3.32402">
        <ele>335.4</ele>
        <time>2024-04-15T15:46:13Z</time>
      </trkpt>
      <trkpt lat="45.95151" lon="3.32405">
        <ele>335.4</ele>
        <time>2024-04-15T15:46:14Z</time>
      </trkpt>
      <trkpt lat="45.95155" lon="3.32408">
        <ele>335.4</ele>
        <time>2024-04-15T15:46:15Z</time>
      </trkpt>
      <trkpt lat="45.95159" lon="3.32411">
        <ele>335.6</ele>
        <time>2024-04-15T15:46:16Z</time>
      </trkpt>
      <trkpt lat="45.95164" lon="3.32415">
        <ele>335.6</ele>
        <time>2024-04-15T15:46:17Z</time>
      </trkpt>
      <trkpt lat="45.95168" lon="3.32418">
        <ele>335.6</ele>
        <time>2024-04-15T15:46:18Z</time>
      </trkpt>
      <trkpt lat="45.95172" lon="3.32421">
        <ele>335.8</ele>
        <time>2024-04-15T15:46:19Z</time>
      </trkpt>
      <trkpt lat="45.95176" lon="3.32424">
        <ele>335.8</ele>
        <time>2024-04-15T15:46:20Z</time>
      </trkpt>
      <trkpt lat="45.9518" lon="3.32427">
        <ele>335.8</ele>
        <time>2024-04-15T15:46:21Z</time>
      </trkpt>
      <trkpt lat="45.95184" lon="3.32432">
        <ele>335.8</ele>
        <time>2024-04-15T15:46:22Z</time>
      </trkpt>
      <trkpt lat="45.95188" lon="3.32437">
        <ele>336</ele>
        <time>2024-04-15T15:46:23Z</time>
      </trkpt>
      <trkpt lat="45.95192" lon="3.32441">
        <ele>336</ele>
        <time>2024-04-15T15:46:24Z</time>
      </trkpt>
      <trkpt lat="45.95195" lon="3.32446">
        <ele>336</ele>
        <time>2024-04-15T15:46:25Z</time>
      </trkpt>
      <trkpt lat="45.95199" lon="3.32451">
        <ele>336</ele>
        <time>2024-04-15T15:46:26Z</time>
      </trkpt>
      <trkpt lat="45.95203" lon="3.32455">
        <ele>336</ele>
        <time>2024-04-15T15:46:27Z</time>
      </trkpt>
      <trkpt lat="45.95206" lon="3.3246">
        <ele>336</ele>
        <time>2024-04-15T15:46:28Z</time>
      </trkpt>
      <trkpt lat="45.9521" lon="3.32465">
        <ele>336</ele>
        <time>2024-04-15T15:46:29Z</time>
      </trkpt>
      <trkpt lat="45.95214" lon="3.3247">
        <ele>336</ele>
        <time>2024-04-15T15:46:30Z</time>
      </trkpt>
      <trkpt lat="45.95218" lon="3.32475">
        <ele>336.2</ele>
        <time>2024-04-15T15:46:31Z</time>
      </trkpt>
      <trkpt lat="45.95222" lon="3.3248">
        <ele>336.2</ele>
        <time>2024-04-15T15:46:32Z</time>
      </trkpt>
      <trkpt lat="45.95226" lon="3.32485">
        <ele>336.2</ele>
        <time>2024-04-15T15:46:33Z</time>
      </trkpt>
      <trkpt lat="45.95229" lon="3.3249">
        <ele>336.2</ele>
        <time>2024-04-15T15:46:34Z</time>
      </trkpt>
      <trkpt lat="45.95233" lon="3.32494">
        <ele>336.2</ele>
        <time>2024-04-15T15:46:35Z</time>
      </trkpt>
      <trkpt lat="45.95237" lon="3.325">
        <ele>336.4</ele>
        <time>2024-04-15T15:46:36Z</time>
      </trkpt>
      <trkpt lat="45.95241" lon="3.32505">
        <ele>336.4</ele>
        <time>2024-04-15T15:46:37Z</time>
      </trkpt>
      <trkpt lat="45.95245" lon="3.3251">
        <ele>336.4</ele>
        <time>2024-04-15T15:46:38Z</time>
      </trkpt>
      <trkpt lat="45.95249" lon="3.32514">
        <ele>336.4</ele>
        <time>2024-04-15T15:46:39Z</time>
      </trkpt>
      <trkpt lat="45.95253" lon="3.32519">
        <ele>336.6</ele>
        <time>2024-04-15T15:46:40Z</time>
      </trkpt>
      <trkpt lat="45.95256" lon="3.32524">
        <ele>336.6</ele>
        <time>2024-04-15T15:46:41Z</time>
      </trkpt>
      <trkpt lat="45.9526" lon="3.32529">
        <ele>336.8</ele>
        <time>2024-04-15T15:46:42Z</time>
      </trkpt>
      <trkpt lat="45.95264" lon="3.32533">
        <ele>336.8</ele>
        <time>2024-04-15T15:46:43Z</time>
      </trkpt>
      <trkpt lat="45.95267" lon="3.32538">
        <ele>337</ele>
        <time>2024-04-15T15:46:44Z</time>
      </trkpt>
      <trkpt lat="45.95272" lon="3.32541">
        <ele>337</ele>
        <time>2024-04-15T15:46:45Z</time>
      </trkpt>
      <trkpt lat="45.95276" lon="3.32545">
        <ele>337</ele>
        <time>2024-04-15T15:46:46Z</time>
      </trkpt>
      <trkpt lat="45.9528" lon="3.32549">
        <ele>337.2</ele>
        <time>2024-04-15T15:46:47Z</time>
      </trkpt>
      <trkpt lat="45.95284" lon="3.32553">
        <ele>337.2</ele>
        <time>2024-04-15T15:46:48Z</time>
      </trkpt>
      <trkpt lat="45.95288" lon="3.32556">
        <ele>337.4</ele>
        <time>2024-04-15T15:46:49Z</time>
      </trkpt>
      <trkpt lat="45.95293" lon="3.32558">
        <ele>337.4</ele>
        <time>2024-04-15T15:46:50Z</time>
      </trkpt>
      <trkpt lat="45.95298" lon="3.3256">
        <ele>337.6</ele>
        <time>2024-04-15T15:46:51Z</time>
      </trkpt>
      <trkpt lat="45.95302" lon="3.32561">
        <ele>337.6</ele>
        <time>2024-04-15T15:46:52Z</time>
      </trkpt>
      <trkpt lat="45.95306" lon="3.32562">
        <ele>337.6</ele>
        <time>2024-04-15T15:46:53Z</time>
      </trkpt>
      <trkpt lat="45.9531" lon="3.32563">
        <ele>337.8</ele>
        <time>2024-04-15T15:46:54Z</time>
      </trkpt>
      <trkpt lat="45.95313" lon="3.32564">
        <ele>337.8</ele>
        <time>2024-04-15T15:46:55Z</time>
      </trkpt>
      <trkpt lat="45.95316" lon="3.32565">
        <ele>337.8</ele>
        <time>2024-04-15T15:46:56Z</time>
      </trkpt>
      <trkpt lat="45.9532" lon="3.32565">
        <ele>338</ele>
        <time>2024-04-15T15:46:57Z</time>
      </trkpt>
      <trkpt lat="45.95323" lon="3.32566">
        <ele>338</ele>
        <time>2024-04-15T15:46:58Z</time>
      </trkpt>
      <trkpt lat="45.95326" lon="3.32567">
        <ele>338</ele>
        <time>2024-04-15T15:46:59Z</time>
      </trkpt>
      <trkpt lat="45.95328" lon="3.32568">
        <ele>338.2</ele>
        <time>2024-04-15T15:47:00Z</time>
      </trkpt>
      <trkpt lat="45.95331" lon="3.32568">
        <ele>338.2</ele>
        <time>2024-04-15T15:47:01Z</time>
      </trkpt>
      <trkpt lat="45.9533" lon="3.32568">
        <ele>338.2</ele>
        <time>2024-04-15T15:47:02Z</time>
      </trkpt>
      <trkpt lat="45.9533" lon="3.32568">
        <ele>338.2</ele>
        <time>2024-04-15T15:47:03Z</time>
      </trkpt>
      <trkpt lat="45.9533" lon="3.32558">
        <ele>338.2</ele>
        <time>2024-04-15T15:47:04Z</time>
      </trkpt>
      <trkpt lat="45.9533" lon="3.32551">
        <ele>338.2</ele>
        <time>2024-04-15T15:47:05Z</time>
      </trkpt>
      <trkpt lat="45.9533" lon="3.32534">
        <ele>338.2</ele>
        <time>2024-04-15T15:47:06Z</time>
      </trkpt>
      <trkpt lat="45.9533" lon="3.32525">
        <ele>338.2</ele>
        <time>2024-04-15T15:47:07Z</time>
      </trkpt>
      <trkpt lat="45.9533" lon="3.32515">
        <ele>338.2</ele>
        <time>2024-04-15T15:47:08Z</time>
      </trkpt>
      <trkpt lat="45.9533" lon="3.32504">
        <ele>338.2</ele>
        <time>2024-04-15T15:47:09Z</time>
      </trkpt>
      <trkpt lat="45.9533" lon="3.32493">
        <ele>338.2</ele>
        <time>2024-04-15T15:47:10Z</time>
      </trkpt>
      <trkpt lat="45.9533" lon="3.32482">
        <ele>338.2</ele>
        <time>2024-04-15T15:47:11Z</time>
      </trkpt>
      <trkpt lat="45.9533" lon="3.32471">
        <ele>338</ele>
        <time>2024-04-15T15:47:12Z</time>
      </trkpt>
      <trkpt lat="45.9533" lon="3.32459">
        <ele>338</ele>
        <time>2024-04-15T15:47:13Z</time>
      </trkpt>
      <trkpt lat="45.9533" lon="3.32447">
        <ele>338.6</ele>
        <time>2024-04-15T15:47:14Z</time>
      </trkpt>
      <trkpt lat="45.9533" lon="3.32435">
        <ele>338.2</ele>
        <time>2024-04-15T15:47:15Z</time>
      </trkpt>
      <trkpt lat="45.9533" lon="3.32422">
        <ele>338</ele>
        <time>2024-04-15T15:47:16Z</time>
      </trkpt>
      <trkpt lat="45.9533" lon="3.3241">
        <ele>337.2</ele>
        <time>2024-04-15T15:47:17Z</time>
      </trkpt>
      <trkpt lat="45.9533" lon="3.32397">
        <ele>337.6</ele>
        <time>2024-04-15T15:47:18Z</time>
      </trkpt>
      <trkpt lat="45.9533" lon="3.32385">
        <ele>337.4</ele>
        <time>2024-04-15T15:47:19Z</time>
      </trkpt>
      <trkpt lat="45.9533" lon="3.32372">
        <ele>337.4</ele>
        <time>2024-04-15T15:47:20Z</time>
      </trkpt>
      <trkpt lat="45.9533" lon="3.32359">
        <ele>337.2</ele>
        <time>2024-04-15T15:47:21Z</time>
      </trkpt>
      <trkpt lat="45.9533" lon="3.32346">
        <ele>337.2</ele>
        <time>2024-04-15T15:47:22Z</time>
      </trkpt>
      <trkpt lat="45.9533" lon="3.32333">
        <ele>337</ele>
        <time>2024-04-15T15:47:23Z</time>
      </trkpt>
      <trkpt lat="45.9533" lon="3.3232">
        <ele>336.8</ele>
        <time>2024-04-15T15:47:24Z</time>
      </trkpt>
      <trkpt lat="45.9533" lon="3.32308">
        <ele>336.8</ele>
        <time>2024-04-15T15:47:25Z</time>
      </trkpt>
      <trkpt lat="45.9533" lon="3.32295">
        <ele>336.6</ele>
        <time>2024-04-15T15:47:26Z</time>
      </trkpt>
      <trkpt lat="45.9533" lon="3.32283">
        <ele>336.6</ele>
        <time>2024-04-15T15:47:27Z</time>
      </trkpt>
      <trkpt lat="45.9533" lon="3.32271">
        <ele>336.4</ele>
        <time>2024-04-15T15:47:28Z</time>
      </trkpt>
      <trkpt lat="45.9533" lon="3.32259">
        <ele>336.2</ele>
        <time>2024-04-15T15:47:29Z</time>
      </trkpt>
      <trkpt lat="45.9533" lon="3.32247">
        <ele>336.2</ele>
        <time>2024-04-15T15:47:30Z</time>
      </trkpt>
      <trkpt lat="45.9533" lon="3.32236">
        <ele>336.2</ele>
        <time>2024-04-15T15:47:31Z</time>
      </trkpt>
      <trkpt lat="45.9533" lon="3.32224">
        <ele>336</ele>
        <time>2024-04-15T15:47:32Z</time>
      </trkpt>
      <trkpt lat="45.9533" lon="3.32213">
        <ele>335.8</ele>
        <time>2024-04-15T15:47:33Z</time>
      </trkpt>
      <trkpt lat="45.9533" lon="3.32203">
        <ele>335.6</ele>
        <time>2024-04-15T15:47:34Z</time>
      </trkpt>
      <trkpt lat="45.9533" lon="3.32192">
        <ele>335.6</ele>
        <time>2024-04-15T15:47:35Z</time>
      </trkpt>
      <trkpt lat="45.9533" lon="3.32181">
        <ele>335.4</ele>
        <time>2024-04-15T15:47:36Z</time>
      </trkpt>
      <trkpt lat="45.9533" lon="3.3217">
        <ele>335.2</ele>
        <time>2024-04-15T15:47:37Z</time>
      </trkpt>
      <trkpt lat="45.9533" lon="3.32159">
        <ele>335</ele>
        <time>2024-04-15T15:47:38Z</time>
      </trkpt>
      <trkpt lat="45.9533" lon="3.32148">
        <ele>334.8</ele>
        <time>2024-04-15T15:47:39Z</time>
      </trkpt>
      <trkpt lat="45.9533" lon="3.32136">
        <ele>334.6</ele>
        <time>2024-04-15T15:47:40Z</time>
      </trkpt>
      <trkpt lat="45.9533" lon="3.32125">
        <ele>334.6</ele>
        <time>2024-04-15T15:47:41Z</time>
      </trkpt>
      <trkpt lat="45.9533" lon="3.32114">
        <ele>334.4</ele>
        <time>2024-04-15T15:47:42Z</time>
      </trkpt>
      <trkpt lat="45.9533" lon="3.32102">
        <ele>334.2</ele>
        <time>2024-04-15T15:47:43Z</time>
      </trkpt>
      <trkpt lat="45.9533" lon="3.32091">
        <ele>334</ele>
        <time>2024-04-15T15:47:44Z</time>
      </trkpt>
      <trkpt lat="45.9533" lon="3.3208">
        <ele>333.8</ele>
        <time>2024-04-15T15:47:45Z</time>
      </trkpt>
      <trkpt lat="45.9533" lon="3.32069">
        <ele>333.8</ele>
        <time>2024-04-15T15:47:46Z</time>
      </trkpt>
      <trkpt lat="45.9533" lon="3.32058">
        <ele>333.6</ele>
        <time>2024-04-15T15:47:47Z</time>
      </trkpt>
      <trkpt lat="45.9533" lon="3.32048">
        <ele>333.4</ele>
        <time>2024-04-15T15:47:48Z</time>
      </trkpt>
      <trkpt lat="45.9533" lon="3.32037">
        <ele>333.2</ele>
        <time>2024-04-15T15:47:49Z</time>
      </trkpt>
      <trkpt lat="45.9533" lon="3.32027">
        <ele>333</ele>
        <time>2024-04-15T15:47:50Z</time>
      </trkpt>
      <trkpt lat="45.9533" lon="3.32017">
        <ele>332.8</ele>
        <time>2024-04-15T15:47:51Z</time>
      </trkpt>
      <trkpt lat="45.9533" lon="3.32006">
        <ele>332.8</ele>
        <time>2024-04-15T15:47:52Z</time>
      </trkpt>
      <trkpt lat="45.9533" lon="3.31996">
        <ele>332.6</ele>
        <time>2024-04-15T15:47:53Z</time>
      </trkpt>
      <trkpt lat="45.95329" lon="3.31986">
        <ele>332.6</ele>
        <time>2024-04-15T15:47:54Z</time>
      </trkpt>
      <trkpt lat="45.95328" lon="3.31976">
        <ele>332.4</ele>
        <time>2024-04-15T15:47:55Z</time>
      </trkpt>
      <trkpt lat="45.95328" lon="3.31967">
        <ele>332.4</ele>
        <time>2024-04-15T15:47:56Z</time>
      </trkpt>
      <trkpt lat="45.95327" lon="3.31957">
        <ele>332.2</ele>
        <time>2024-04-15T15:47:57Z</time>
      </trkpt>
      <trkpt lat="45.95326" lon="3.31947">
        <ele>332.2</ele>
        <time>2024-04-15T15:47:58Z</time>
      </trkpt>
      <trkpt lat="45.95326" lon="3.31937">
        <ele>332</ele>
        <time>2024-04-15T15:47:59Z</time>
      </trkpt>
      <trkpt lat="45.95325" lon="3.31927">
        <ele>332</ele>
        <time>2024-04-15T15:48:00Z</time>
      </trkpt>
      <trkpt lat="45.95324" lon="3.31916">
        <ele>331.8</ele>
        <time>2024-04-15T15:48:01Z</time>
      </trkpt>
      <trkpt lat="45.95323" lon="3.31906">
        <ele>331.8</ele>
        <time>2024-04-15T15:48:02Z</time>
      </trkpt>
      <trkpt lat="45.95322" lon="3.31896">
        <ele>331.6</ele>
        <time>2024-04-15T15:48:03Z</time>
      </trkpt>
      <trkpt lat="45.95321" lon="3.31886">
        <ele>331.4</ele>
        <time>2024-04-15T15:48:04Z</time>
      </trkpt>
      <trkpt lat="45.9532" lon="3.31876">
        <ele>331.2</ele>
        <time>2024-04-15T15:48:05Z</time>
      </trkpt>
      <trkpt lat="45.95319" lon="3.31866">
        <ele>331.2</ele>
        <time>2024-04-15T15:48:06Z</time>
      </trkpt>
      <trkpt lat="45.95318" lon="3.31857">
        <ele>331</ele>
        <time>2024-04-15T15:48:07Z</time>
      </trkpt>
      <trkpt lat="45.95317" lon="3.31847">
        <ele>331</ele>
        <time>2024-04-15T15:48:08Z</time>
      </trkpt>
      <trkpt lat="45.95316" lon="3.31838">
        <ele>330.8</ele>
        <time>2024-04-15T15:48:09Z</time>
      </trkpt>
      <trkpt lat="45.95315" lon="3.31828">
        <ele>330.8</ele>
        <time>2024-04-15T15:48:10Z</time>
      </trkpt>
      <trkpt lat="45.95314" lon="3.31819">
        <ele>330.8</ele>
        <time>2024-04-15T15:48:11Z</time>
      </trkpt>
      <trkpt lat="45.95313" lon="3.3181">
        <ele>330.6</ele>
        <time>2024-04-15T15:48:12Z</time>
      </trkpt>
      <trkpt lat="45.95312" lon="3.31801">
        <ele>330.4</ele>
        <time>2024-04-15T15:48:13Z</time>
      </trkpt>
      <trkpt lat="45.95312" lon="3.31792">
        <ele>330.4</ele>
        <time>2024-04-15T15:48:14Z</time>
      </trkpt>
      <trkpt lat="45.95311" lon="3.31783">
        <ele>330.2</ele>
        <time>2024-04-15T15:48:15Z</time>
      </trkpt>
      <trkpt lat="45.9531" lon="3.31775">
        <ele>330.2</ele>
        <time>2024-04-15T15:48:16Z</time>
      </trkpt>
      <trkpt lat="45.95309" lon="3.31768">
        <ele>330</ele>
        <time>2024-04-15T15:48:17Z</time>
      </trkpt>
      <trkpt lat="45.95309" lon="3.3176">
        <ele>330</ele>
        <time>2024-04-15T15:48:18Z</time>
      </trkpt>
      <trkpt lat="45.95308" lon="3.31753">
        <ele>329.8</ele>
        <time>2024-04-15T15:48:19Z</time>
      </trkpt>
      <trkpt lat="45.95307" lon="3.31746">
        <ele>329.8</ele>
        <time>2024-04-15T15:48:20Z</time>
      </trkpt>
      <trkpt lat="45.95307" lon="3.3174">
        <ele>329.6</ele>
        <time>2024-04-15T15:48:21Z</time>
      </trkpt>
      <trkpt lat="45.95306" lon="3.31731">
        <ele>329.4</ele>
        <time>2024-04-15T15:48:22Z</time>
      </trkpt>
      <trkpt lat="45.95307" lon="3.31722">
        <ele>329.4</ele>
        <time>2024-04-15T15:48:23Z</time>
      </trkpt>
      <trkpt lat="45.95308" lon="3.31713">
        <ele>329.2</ele>
        <time>2024-04-15T15:48:24Z</time>
      </trkpt>
      <trkpt lat="45.95309" lon="3.31704">
        <ele>329</ele>
        <time>2024-04-15T15:48:25Z</time>
      </trkpt>
      <trkpt lat="45.9531" lon="3.31695">
        <ele>329</ele>
        <time>2024-04-15T15:48:26Z</time>
      </trkpt>
      <trkpt lat="45.95311" lon="3.31686">
        <ele>328.8</ele>
        <time>2024-04-15T15:48:27Z</time>
      </trkpt>
      <trkpt lat="45.95312" lon="3.31677">
        <ele>328.8</ele>
        <time>2024-04-15T15:48:28Z</time>
      </trkpt>
      <trkpt lat="45.95313" lon="3.31668">
        <ele>328.6</ele>
        <time>2024-04-15T15:48:29Z</time>
      </trkpt>
      <trkpt lat="45.95314" lon="3.31659">
        <ele>328.6</ele>
        <time>2024-04-15T15:48:30Z</time>
      </trkpt>
      <trkpt lat="45.95315" lon="3.31649">
        <ele>328.4</ele>
        <time>2024-04-15T15:48:31Z</time>
      </trkpt>
      <trkpt lat="45.95316" lon="3.3164">
        <ele>328.4</ele>
        <time>2024-04-15T15:48:32Z</time>
      </trkpt>
      <trkpt lat="45.95317" lon="3.3163">
        <ele>328.2</ele>
        <time>2024-04-15T15:48:33Z</time>
      </trkpt>
      <trkpt lat="45.95318" lon="3.3162">
        <ele>328</ele>
        <time>2024-04-15T15:48:34Z</time>
      </trkpt>
      <trkpt lat="45.95319" lon="3.3161">
        <ele>328</ele>
        <time>2024-04-15T15:48:35Z</time>
      </trkpt>
      <trkpt lat="45.9532" lon="3.316">
        <ele>327.8</ele>
        <time>2024-04-15T15:48:36Z</time>
      </trkpt>
      <trkpt lat="45.95321" lon="3.3159">
        <ele>327.6</ele>
        <time>2024-04-15T15:48:37Z</time>
      </trkpt>
      <trkpt lat="45.95323" lon="3.3158">
        <ele>327.6</ele>
        <time>2024-04-15T15:48:38Z</time>
      </trkpt>
      <trkpt lat="45.95324" lon="3.3157">
        <ele>327.4</ele>
        <time>2024-04-15T15:48:39Z</time>
      </trkpt>
      <trkpt lat="45.95325" lon="3.31561">
        <ele>327.2</ele>
        <time>2024-04-15T15:48:40Z</time>
      </trkpt>
      <trkpt lat="45.95326" lon="3.31551">
        <ele>327</ele>
        <time>2024-04-15T15:48:41Z</time>
      </trkpt>
      <trkpt lat="45.95327" lon="3.31542">
        <ele>327</ele>
        <time>2024-04-15T15:48:42Z</time>
      </trkpt>
      <trkpt lat="45.95328" lon="3.31533">
        <ele>326.8</ele>
        <time>2024-04-15T15:48:43Z</time>
      </trkpt>
      <trkpt lat="45.95329" lon="3.31524">
        <ele>326.6</ele>
        <time>2024-04-15T15:48:44Z</time>
      </trkpt>
      <trkpt lat="45.9533" lon="3.31515">
        <ele>326.6</ele>
        <time>2024-04-15T15:48:45Z</time>
      </trkpt>
      <trkpt lat="45.9533" lon="3.31506">
        <ele>326.4</ele>
        <time>2024-04-15T15:48:46Z</time>
      </trkpt>
      <trkpt lat="45.95329" lon="3.31497">
        <ele>326.2</ele>
        <time>2024-04-15T15:48:47Z</time>
      </trkpt>
      <trkpt lat="45.95329" lon="3.31488">
        <ele>326</ele>
        <time>2024-04-15T15:48:48Z</time>
      </trkpt>
      <trkpt lat="45.95328" lon="3.31479">
        <ele>325.8</ele>
        <time>2024-04-15T15:48:49Z</time>
      </trkpt>
      <trkpt lat="45.95335" lon="3.31464">
        <ele>325.6</ele>
        <time>2024-04-15T15:48:50Z</time>
      </trkpt>
      <trkpt lat="45.95339" lon="3.31464">
        <ele>325.4</ele>
        <time>2024-04-15T15:48:51Z</time>
      </trkpt>
      <trkpt lat="45.95345" lon="3.31464">
        <ele>325.2</ele>
        <time>2024-04-15T15:48:52Z</time>
      </trkpt>
      <trkpt lat="45.95351" lon="3.31465">
        <ele>325</ele>
        <time>2024-04-15T15:48:53Z</time>
      </trkpt>
      <trkpt lat="45.95357" lon="3.31465">
        <ele>324.8</ele>
        <time>2024-04-15T15:48:54Z</time>
      </trkpt>
      <trkpt lat="45.95363" lon="3.31465">
        <ele>324.6</ele>
        <time>2024-04-15T15:48:55Z</time>
      </trkpt>
      <trkpt lat="45.9537" lon="3.31467">
        <ele>324.4</ele>
        <time>2024-04-15T15:48:56Z</time>
      </trkpt>
      <trkpt lat="45.95377" lon="3.31468">
        <ele>324.2</ele>
        <time>2024-04-15T15:48:57Z</time>
      </trkpt>
      <trkpt lat="45.95384" lon="3.31469">
        <ele>324</ele>
        <time>2024-04-15T15:48:58Z</time>
      </trkpt>
      <trkpt lat="45.95391" lon="3.3147">
        <ele>323.8</ele>
        <time>2024-04-15T15:48:59Z</time>
      </trkpt>
      <trkpt lat="45.95398" lon="3.31472">
        <ele>323.6</ele>
        <time>2024-04-15T15:49:00Z</time>
      </trkpt>
      <trkpt lat="45.95405" lon="3.31473">
        <ele>323.6</ele>
        <time>2024-04-15T15:49:01Z</time>
      </trkpt>
      <trkpt lat="45.95413" lon="3.31474">
        <ele>323.4</ele>
        <time>2024-04-15T15:49:02Z</time>
      </trkpt>
      <trkpt lat="45.9542" lon="3.31476">
        <ele>323.2</ele>
        <time>2024-04-15T15:49:03Z</time>
      </trkpt>
      <trkpt lat="45.95427" lon="3.31477">
        <ele>323.2</ele>
        <time>2024-04-15T15:49:04Z</time>
      </trkpt>
      <trkpt lat="45.95434" lon="3.31478">
        <ele>322.8</ele>
        <time>2024-04-15T15:49:05Z</time>
      </trkpt>
      <trkpt lat="45.9544" lon="3.31479">
        <ele>322.8</ele>
        <time>2024-04-15T15:49:06Z</time>
      </trkpt>
      <trkpt lat="45.95447" lon="3.3148">
        <ele>322.6</ele>
        <time>2024-04-15T15:49:07Z</time>
      </trkpt>
      <trkpt lat="45.95453" lon="3.31481">
        <ele>322.6</ele>
        <time>2024-04-15T15:49:08Z</time>
      </trkpt>
      <trkpt lat="45.9546" lon="3.31482">
        <ele>322.6</ele>
        <time>2024-04-15T15:49:09Z</time>
      </trkpt>
      <trkpt lat="45.95466" lon="3.31483">
        <ele>322.4</ele>
        <time>2024-04-15T15:49:10Z</time>
      </trkpt>
      <trkpt lat="45.95473" lon="3.31484">
        <ele>322.4</ele>
        <time>2024-04-15T15:49:11Z</time>
      </trkpt>
      <trkpt lat="45.95479" lon="3.31485">
        <ele>322.2</ele>
        <time>2024-04-15T15:49:12Z</time>
      </trkpt>
      <trkpt lat="45.95486" lon="3.31486">
        <ele>322</ele>
        <time>2024-04-15T15:49:13Z</time>
      </trkpt>
      <trkpt lat="45.95492" lon="3.31487">
        <ele>322</ele>
        <time>2024-04-15T15:49:14Z</time>
      </trkpt>
      <trkpt lat="45.95499" lon="3.31488">
        <ele>321.8</ele>
        <time>2024-04-15T15:49:15Z</time>
      </trkpt>
      <trkpt lat="45.95505" lon="3.31489">
        <ele>321.8</ele>
        <time>2024-04-15T15:49:16Z</time>
      </trkpt>
      <trkpt lat="45.95512" lon="3.3149">
        <ele>321.6</ele>
        <time>2024-04-15T15:49:17Z</time>
      </trkpt>
      <trkpt lat="45.95518" lon="3.31491">
        <ele>321.6</ele>
        <time>2024-04-15T15:49:18Z</time>
      </trkpt>
      <trkpt lat="45.95525" lon="3.31491">
        <ele>321.4</ele>
        <time>2024-04-15T15:49:19Z</time>
      </trkpt>
      <trkpt lat="45.95531" lon="3.31492">
        <ele>321.4</ele>
        <time>2024-04-15T15:49:20Z</time>
      </trkpt>
      <trkpt lat="45.95538" lon="3.31493">
        <ele>321.2</ele>
        <time>2024-04-15T15:49:21Z</time>
      </trkpt>
      <trkpt lat="45.95544" lon="3.31494">
        <ele>321</ele>
        <time>2024-04-15T15:49:22Z</time>
      </trkpt>
      <trkpt lat="45.9555" lon="3.31495">
        <ele>321</ele>
        <time>2024-04-15T15:49:23Z</time>
      </trkpt>
      <trkpt lat="45.95556" lon="3.31496">
        <ele>321</ele>
        <time>2024-04-15T15:49:24Z</time>
      </trkpt>
      <trkpt lat="45.95561" lon="3.31497">
        <ele>320.8</ele>
        <time>2024-04-15T15:49:25Z</time>
      </trkpt>
      <trkpt lat="45.95567" lon="3.31497">
        <ele>320.8</ele>
        <time>2024-04-15T15:49:26Z</time>
      </trkpt>
      <trkpt lat="45.95573" lon="3.31497">
        <ele>320.8</ele>
        <time>2024-04-15T15:49:27Z</time>
      </trkpt>
      <trkpt lat="45.95579" lon="3.31496">
        <ele>320.6</ele>
        <time>2024-04-15T15:49:28Z</time>
      </trkpt>
      <trkpt lat="45.95584" lon="3.31496">
        <ele>320.6</ele>
        <time>2024-04-15T15:49:29Z</time>
      </trkpt>
      <trkpt lat="45.9559" lon="3.31495">
        <ele>320.6</ele>
        <time>2024-04-15T15:49:30Z</time>
      </trkpt>
      <trkpt lat="45.95596" lon="3.31494">
        <ele>320.4</ele>
        <time>2024-04-15T15:49:31Z</time>
      </trkpt>
      <trkpt lat="45.95602" lon="3.31493">
        <ele>320.4</ele>
        <time>2024-04-15T15:49:32Z</time>
      </trkpt>
      <trkpt lat="45.95607" lon="3.31492">
        <ele>320.4</ele>
        <time>2024-04-15T15:49:33Z</time>
      </trkpt>
      <trkpt lat="45.95613" lon="3.31491">
        <ele>320.4</ele>
        <time>2024-04-15T15:49:34Z</time>
      </trkpt>
      <trkpt lat="45.95618" lon="3.31489">
        <ele>320.4</ele>
        <time>2024-04-15T15:49:35Z</time>
      </trkpt>
      <trkpt lat="45.95623" lon="3.31487">
        <ele>320.4</ele>
        <time>2024-04-15T15:49:36Z</time>
      </trkpt>
      <trkpt lat="45.95628" lon="3.31484">
        <ele>320.6</ele>
        <time>2024-04-15T15:49:37Z</time>
      </trkpt>
      <trkpt lat="45.95633" lon="3.31482">
        <ele>320.6</ele>
        <time>2024-04-15T15:49:38Z</time>
      </trkpt>
      <trkpt lat="45.95638" lon="3.3148">
        <ele>320.6</ele>
        <time>2024-04-15T15:49:39Z</time>
      </trkpt>
      <trkpt lat="45.95644" lon="3.31477">
        <ele>320.6</ele>
        <time>2024-04-15T15:49:40Z</time>
      </trkpt>
      <trkpt lat="45.9565" lon="3.31475">
        <ele>320.4</ele>
        <time>2024-04-15T15:49:41Z</time>
      </trkpt>
      <trkpt lat="45.95654" lon="3.31473">
        <ele>320.6</ele>
        <time>2024-04-15T15:49:42Z</time>
      </trkpt>
      <trkpt lat="45.9566" lon="3.31471">
        <ele>320.6</ele>
        <time>2024-04-15T15:49:43Z</time>
      </trkpt>
      <trkpt lat="45.95665" lon="3.31468">
        <ele>320.6</ele>
        <time>2024-04-15T15:49:44Z</time>
      </trkpt>
      <trkpt lat="45.9567" lon="3.31464">
        <ele>320.8</ele>
        <time>2024-04-15T15:49:45Z</time>
      </trkpt>
      <trkpt lat="45.95674" lon="3.3146">
        <ele>320.2</ele>
        <time>2024-04-15T15:49:46Z</time>
      </trkpt>
      <trkpt lat="45.95679" lon="3.31455">
        <ele>320.6</ele>
        <time>2024-04-15T15:49:47Z</time>
      </trkpt>
      <trkpt lat="45.95683" lon="3.31451">
        <ele>320.8</ele>
        <time>2024-04-15T15:49:48Z</time>
      </trkpt>
      <trkpt lat="45.95687" lon="3.31447">
        <ele>321</ele>
        <time>2024-04-15T15:49:49Z</time>
      </trkpt>
      <trkpt lat="45.95692" lon="3.31442">
        <ele>321</ele>
        <time>2024-04-15T15:49:50Z</time>
      </trkpt>
      <trkpt lat="45.95697" lon="3.31437">
        <ele>320.6</ele>
        <time>2024-04-15T15:49:51Z</time>
      </trkpt>
      <trkpt lat="45.95702" lon="3.31433">
        <ele>320.8</ele>
        <time>2024-04-15T15:49:52Z</time>
      </trkpt>
      <trkpt lat="45.95706" lon="3.31428">
        <ele>321.2</ele>
        <time>2024-04-15T15:49:53Z</time>
      </trkpt>
      <trkpt lat="45.9571" lon="3.31424">
        <ele>321</ele>
        <time>2024-04-15T15:49:54Z</time>
      </trkpt>
      <trkpt lat="45.95715" lon="3.3142">
        <ele>321</ele>
        <time>2024-04-15T15:49:55Z</time>
      </trkpt>
      <trkpt lat="45.95719" lon="3.31415">
        <ele>321</ele>
        <time>2024-04-15T15:49:56Z</time>
      </trkpt>
      <trkpt lat="45.95723" lon="3.31411">
        <ele>321</ele>
        <time>2024-04-15T15:49:57Z</time>
      </trkpt>
      <trkpt lat="45.95728" lon="3.31406">
        <ele>321</ele>
        <time>2024-04-15T15:49:58Z</time>
      </trkpt>
      <trkpt lat="45.95732" lon="3.31402">
        <ele>321</ele>
        <time>2024-04-15T15:49:59Z</time>
      </trkpt>
      <trkpt lat="45.95737" lon="3.31398">
        <ele>321</ele>
        <time>2024-04-15T15:50:00Z</time>
      </trkpt>
      <trkpt lat="45.95741" lon="3.31393">
        <ele>321</ele>
        <time>2024-04-15T15:50:01Z</time>
      </trkpt>
      <trkpt lat="45.95745" lon="3.31389">
        <ele>321</ele>
        <time>2024-04-15T15:50:02Z</time>
      </trkpt>
      <trkpt lat="45.9575" lon="3.31384">
        <ele>321</ele>
        <time>2024-04-15T15:50:03Z</time>
      </trkpt>
      <trkpt lat="45.95755" lon="3.3138">
        <ele>321</ele>
        <time>2024-04-15T15:50:04Z</time>
      </trkpt>
      <trkpt lat="45.95759" lon="3.31377">
        <ele>321</ele>
        <time>2024-04-15T15:50:05Z</time>
      </trkpt>
      <trkpt lat="45.95764" lon="3.31373">
        <ele>321</ele>
        <time>2024-04-15T15:50:06Z</time>
      </trkpt>
      <trkpt lat="45.95768" lon="3.3137">
        <ele>321.2</ele>
        <time>2024-04-15T15:50:07Z</time>
      </trkpt>
      <trkpt lat="45.95773" lon="3.31366">
        <ele>321.2</ele>
        <time>2024-04-15T15:50:08Z</time>
      </trkpt>
      <trkpt lat="45.95777" lon="3.31363">
        <ele>321.2</ele>
        <time>2024-04-15T15:50:09Z</time>
      </trkpt>
      <trkpt lat="45.95781" lon="3.3136">
        <ele>321.4</ele>
        <time>2024-04-15T15:50:10Z</time>
      </trkpt>
      <trkpt lat="45.95785" lon="3.31356">
        <ele>321.6</ele>
        <time>2024-04-15T15:50:11Z</time>
      </trkpt>
      <trkpt lat="45.95789" lon="3.31353">
        <ele>321.6</ele>
        <time>2024-04-15T15:50:12Z</time>
      </trkpt>
      <trkpt lat="45.95794" lon="3.3135">
        <ele>321.4</ele>
        <time>2024-04-15T15:50:13Z</time>
      </trkpt>
      <trkpt lat="45.95798" lon="3.31346">
        <ele>321.4</ele>
        <time>2024-04-15T15:50:14Z</time>
      </trkpt>
      <trkpt lat="45.95802" lon="3.31344">
        <ele>321.6</ele>
        <time>2024-04-15T15:50:15Z</time>
      </trkpt>
      <trkpt lat="45.95807" lon="3.31341">
        <ele>321.6</ele>
        <time>2024-04-15T15:50:16Z</time>
      </trkpt>
      <trkpt lat="45.95811" lon="3.31338">
        <ele>321.6</ele>
        <time>2024-04-15T15:50:17Z</time>
      </trkpt>
      <trkpt lat="45.95816" lon="3.31336">
        <ele>321.6</ele>
        <time>2024-04-15T15:50:18Z</time>
      </trkpt>
      <trkpt lat="45.9582" lon="3.31333">
        <ele>321.6</ele>
        <time>2024-04-15T15:50:19Z</time>
      </trkpt>
      <trkpt lat="45.95825" lon="3.31331">
        <ele>321.6</ele>
        <time>2024-04-15T15:50:20Z</time>
      </trkpt>
      <trkpt lat="45.95829" lon="3.31329">
        <ele>321.6</ele>
        <time>2024-04-15T15:50:21Z</time>
      </trkpt>
      <trkpt lat="45.95834" lon="3.31328">
        <ele>321.6</ele>
        <time>2024-04-15T15:50:22Z</time>
      </trkpt>
      <trkpt lat="45.95838" lon="3.31326">
        <ele>321.6</ele>
        <time>2024-04-15T15:50:23Z</time>
      </trkpt>
      <trkpt lat="45.95843" lon="3.31324">
        <ele>321.8</ele>
        <time>2024-04-15T15:50:24Z</time>
      </trkpt>
      <trkpt lat="45.95847" lon="3.31323">
        <ele>321.8</ele>
        <time>2024-04-15T15:50:25Z</time>
      </trkpt>
      <trkpt lat="45.95852" lon="3.31321">
        <ele>321.8</ele>
        <time>2024-04-15T15:50:26Z</time>
      </trkpt>
      <trkpt lat="45.95856" lon="3.3132">
        <ele>321.8</ele>
        <time>2024-04-15T15:50:27Z</time>
      </trkpt>
      <trkpt lat="45.9586" lon="3.31318">
        <ele>322</ele>
        <time>2024-04-15T15:50:28Z</time>
      </trkpt>
      <trkpt lat="45.95865" lon="3.31316">
        <ele>322</ele>
        <time>2024-04-15T15:50:29Z</time>
      </trkpt>
      <trkpt lat="45.95869" lon="3.31315">
        <ele>322</ele>
        <time>2024-04-15T15:50:30Z</time>
      </trkpt>
      <trkpt lat="45.95873" lon="3.31313">
        <ele>322</ele>
        <time>2024-04-15T15:50:31Z</time>
      </trkpt>
      <trkpt lat="45.95878" lon="3.31312">
        <ele>322</ele>
        <time>2024-04-15T15:50:32Z</time>
      </trkpt>
      <trkpt lat="45.95882" lon="3.3131">
        <ele>322</ele>
        <time>2024-04-15T15:50:33Z</time>
      </trkpt>
      <trkpt lat="45.95886" lon="3.31308">
        <ele>322</ele>
        <time>2024-04-15T15:50:34Z</time>
      </trkpt>
      <trkpt lat="45.95891" lon="3.31307">
        <ele>322.2</ele>
        <time>2024-04-15T15:50:35Z</time>
      </trkpt>
      <trkpt lat="45.95895" lon="3.31305">
        <ele>322</ele>
        <time>2024-04-15T15:50:36Z</time>
      </trkpt>
      <trkpt lat="45.95899" lon="3.31304">
        <ele>322.2</ele>
        <time>2024-04-15T15:50:37Z</time>
      </trkpt>
      <trkpt lat="45.95904" lon="3.31302">
        <ele>322.2</ele>
        <time>2024-04-15T15:50:38Z</time>
      </trkpt>
      <trkpt lat="45.95909" lon="3.313">
        <ele>322.2</ele>
        <time>2024-04-15T15:50:39Z</time>
      </trkpt>
      <trkpt lat="45.95913" lon="3.31298">
        <ele>322.2</ele>
        <time>2024-04-15T15:50:40Z</time>
      </trkpt>
      <trkpt lat="45.95918" lon="3.31297">
        <ele>322.2</ele>
        <time>2024-04-15T15:50:41Z</time>
      </trkpt>
      <trkpt lat="45.95923" lon="3.31295">
        <ele>322.4</ele>
        <time>2024-04-15T15:50:42Z</time>
      </trkpt>
      <trkpt lat="45.95927" lon="3.31293">
        <ele>322.4</ele>
        <time>2024-04-15T15:50:43Z</time>
      </trkpt>
      <trkpt lat="45.95932" lon="3.31292">
        <ele>322.4</ele>
        <time>2024-04-15T15:50:44Z</time>
      </trkpt>
      <trkpt lat="45.95937" lon="3.3129">
        <ele>322.4</ele>
        <time>2024-04-15T15:50:45Z</time>
      </trkpt>
      <trkpt lat="45.95942" lon="3.31288">
        <ele>322.4</ele>
        <time>2024-04-15T15:50:46Z</time>
      </trkpt>
      <trkpt lat="45.95946" lon="3.31286">
        <ele>322.4</ele>
        <time>2024-04-15T15:50:47Z</time>
      </trkpt>
      <trkpt lat="45.95951" lon="3.31285">
        <ele>322.6</ele>
        <time>2024-04-15T15:50:48Z</time>
      </trkpt>
      <trkpt lat="45.95956" lon="3.31283">
        <ele>322.4</ele>
        <time>2024-04-15T15:50:49Z</time>
      </trkpt>
      <trkpt lat="45.95961" lon="3.31281">
        <ele>322.6</ele>
        <time>2024-04-15T15:50:50Z</time>
      </trkpt>
      <trkpt lat="45.95966" lon="3.31279">
        <ele>322.6</ele>
        <time>2024-04-15T15:50:51Z</time>
      </trkpt>
      <trkpt lat="45.95971" lon="3.31277">
        <ele>322.6</ele>
        <time>2024-04-15T15:50:52Z</time>
      </trkpt>
      <trkpt lat="45.95976" lon="3.31276">
        <ele>322.6</ele>
        <time>2024-04-15T15:50:53Z</time>
      </trkpt>
      <trkpt lat="45.95981" lon="3.31274">
        <ele>322.6</ele>
        <time>2024-04-15T15:50:54Z</time>
      </trkpt>
      <trkpt lat="45.95986" lon="3.31272">
        <ele>322.6</ele>
        <time>2024-04-15T15:50:55Z</time>
      </trkpt>
      <trkpt lat="45.95991" lon="3.3127">
        <ele>322.8</ele>
        <time>2024-04-15T15:50:56Z</time>
      </trkpt>
      <trkpt lat="45.95996" lon="3.31267">
        <ele>322.8</ele>
        <time>2024-04-15T15:50:57Z</time>
      </trkpt>
      <trkpt lat="45.96001" lon="3.31264">
        <ele>322.8</ele>
        <time>2024-04-15T15:50:58Z</time>
      </trkpt>
      <trkpt lat="45.96006" lon="3.31261">
        <ele>322.8</ele>
        <time>2024-04-15T15:50:59Z</time>
      </trkpt>
      <trkpt lat="45.96011" lon="3.31258">
        <ele>322.8</ele>
        <time>2024-04-15T15:51:00Z</time>
      </trkpt>
      <trkpt lat="45.96016" lon="3.31255">
        <ele>323</ele>
        <time>2024-04-15T15:51:01Z</time>
      </trkpt>
      <trkpt lat="45.96021" lon="3.31252">
        <ele>323</ele>
        <time>2024-04-15T15:51:02Z</time>
      </trkpt>
      <trkpt lat="45.96026" lon="3.31249">
        <ele>323</ele>
        <time>2024-04-15T15:51:03Z</time>
      </trkpt>
      <trkpt lat="45.9603" lon="3.31246">
        <ele>323</ele>
        <time>2024-04-15T15:51:04Z</time>
      </trkpt>
      <trkpt lat="45.96035" lon="3.31243">
        <ele>323.2</ele>
        <time>2024-04-15T15:51:05Z</time>
      </trkpt>
      <trkpt lat="45.9604" lon="3.3124">
        <ele>323.2</ele>
        <time>2024-04-15T15:51:06Z</time>
      </trkpt>
      <trkpt lat="45.96045" lon="3.31237">
        <ele>323.2</ele>
        <time>2024-04-15T15:51:07Z</time>
      </trkpt>
      <trkpt lat="45.96051" lon="3.31234">
        <ele>323.2</ele>
        <time>2024-04-15T15:51:08Z</time>
      </trkpt>
      <trkpt lat="45.96056" lon="3.3123">
        <ele>323.2</ele>
        <time>2024-04-15T15:51:09Z</time>
      </trkpt>
      <trkpt lat="45.96061" lon="3.31227">
        <ele>323.2</ele>
        <time>2024-04-15T15:51:10Z</time>
      </trkpt>
      <trkpt lat="45.96067" lon="3.31224">
        <ele>323.2</ele>
        <time>2024-04-15T15:51:11Z</time>
      </trkpt>
      <trkpt lat="45.96073" lon="3.3122">
        <ele>323.2</ele>
        <time>2024-04-15T15:51:12Z</time>
      </trkpt>
      <trkpt lat="45.96078" lon="3.31217">
        <ele>323.2</ele>
        <time>2024-04-15T15:51:13Z</time>
      </trkpt>
      <trkpt lat="45.96084" lon="3.31213">
        <ele>323.2</ele>
        <time>2024-04-15T15:51:14Z</time>
      </trkpt>
      <trkpt lat="45.9609" lon="3.3121">
        <ele>323.2</ele>
        <time>2024-04-15T15:51:15Z</time>
      </trkpt>
      <trkpt lat="45.96096" lon="3.31206">
        <ele>323.2</ele>
        <time>2024-04-15T15:51:16Z</time>
      </trkpt>
      <trkpt lat="45.96101" lon="3.31203">
        <ele>323.2</ele>
        <time>2024-04-15T15:51:17Z</time>
      </trkpt>
      <trkpt lat="45.96107" lon="3.312">
        <ele>323.2</ele>
        <time>2024-04-15T15:51:18Z</time>
      </trkpt>
      <trkpt lat="45.96112" lon="3.31196">
        <ele>323.2</ele>
        <time>2024-04-15T15:51:19Z</time>
      </trkpt>
      <trkpt lat="45.96117" lon="3.31193">
        <ele>323.2</ele>
        <time>2024-04-15T15:51:20Z</time>
      </trkpt>
      <trkpt lat="45.96123" lon="3.3119">
        <ele>323.2</ele>
        <time>2024-04-15T15:51:21Z</time>
      </trkpt>
      <trkpt lat="45.96128" lon="3.31186">
        <ele>323.2</ele>
        <time>2024-04-15T15:51:22Z</time>
      </trkpt>
      <trkpt lat="45.96134" lon="3.31183">
        <ele>323.2</ele>
        <time>2024-04-15T15:51:23Z</time>
      </trkpt>
      <trkpt lat="45.9614" lon="3.3118">
        <ele>323.2</ele>
        <time>2024-04-15T15:51:24Z</time>
      </trkpt>
      <trkpt lat="45.96146" lon="3.31176">
        <ele>323.2</ele>
        <time>2024-04-15T15:51:25Z</time>
      </trkpt>
      <trkpt lat="45.96151" lon="3.31172">
        <ele>323.2</ele>
        <time>2024-04-15T15:51:26Z</time>
      </trkpt>
      <trkpt lat="45.96157" lon="3.31169">
        <ele>323.2</ele>
        <time>2024-04-15T15:51:27Z</time>
      </trkpt>
      <trkpt lat="45.96163" lon="3.31165">
        <ele>323.2</ele>
        <time>2024-04-15T15:51:28Z</time>
      </trkpt>
      <trkpt lat="45.96169" lon="3.31162">
        <ele>323.2</ele>
        <time>2024-04-15T15:51:29Z</time>
      </trkpt>
      <trkpt lat="45.96175" lon="3.31158">
        <ele>323.2</ele>
        <time>2024-04-15T15:51:30Z</time>
      </trkpt>
      <trkpt lat="45.9618" lon="3.31155">
        <ele>323.2</ele>
        <time>2024-04-15T15:51:31Z</time>
      </trkpt>
      <trkpt lat="45.96186" lon="3.31152">
        <ele>323.2</ele>
        <time>2024-04-15T15:51:32Z</time>
      </trkpt>
      <trkpt lat="45.96191" lon="3.31148">
        <ele>323</ele>
        <time>2024-04-15T15:51:33Z</time>
      </trkpt>
      <trkpt lat="45.96197" lon="3.31145">
        <ele>323</ele>
        <time>2024-04-15T15:51:34Z</time>
      </trkpt>
      <trkpt lat="45.96202" lon="3.31142">
        <ele>323</ele>
        <time>2024-04-15T15:51:35Z</time>
      </trkpt>
      <trkpt lat="45.96208" lon="3.31138">
        <ele>323</ele>
        <time>2024-04-15T15:51:36Z</time>
      </trkpt>
      <trkpt lat="45.96213" lon="3.31135">
        <ele>323</ele>
        <time>2024-04-15T15:51:37Z</time>
      </trkpt>
      <trkpt lat="45.96219" lon="3.31132">
        <ele>322.8</ele>
        <time>2024-04-15T15:51:38Z</time>
      </trkpt>
      <trkpt lat="45.96224" lon="3.31128">
        <ele>322.8</ele>
        <time>2024-04-15T15:51:39Z</time>
      </trkpt>
      <trkpt lat="45.9623" lon="3.31125">
        <ele>322.8</ele>
        <time>2024-04-15T15:51:40Z</time>
      </trkpt>
      <trkpt lat="45.96235" lon="3.31122">
        <ele>322.6</ele>
        <time>2024-04-15T15:51:41Z</time>
      </trkpt>
      <trkpt lat="45.96241" lon="3.3112">
        <ele>322.6</ele>
        <time>2024-04-15T15:51:42Z</time>
      </trkpt>
      <trkpt lat="45.96247" lon="3.31117">
        <ele>322.6</ele>
        <time>2024-04-15T15:51:43Z</time>
      </trkpt>
      <trkpt lat="45.96253" lon="3.31115">
        <ele>322.6</ele>
        <time>2024-04-15T15:51:44Z</time>
      </trkpt>
      <trkpt lat="45.96258" lon="3.31112">
        <ele>322.4</ele>
        <time>2024-04-15T15:51:45Z</time>
      </trkpt>
      <trkpt lat="45.96264" lon="3.31109">
        <ele>322.4</ele>
        <time>2024-04-15T15:51:46Z</time>
      </trkpt>
      <trkpt lat="45.9627" lon="3.31107">
        <ele>322.4</ele>
        <time>2024-04-15T15:51:47Z</time>
      </trkpt>
      <trkpt lat="45.96276" lon="3.31104">
        <ele>322.2</ele>
        <time>2024-04-15T15:51:48Z</time>
      </trkpt>
      <trkpt lat="45.96282" lon="3.31102">
        <ele>322.2</ele>
        <time>2024-04-15T15:51:49Z</time>
      </trkpt>
      <trkpt lat="45.96287" lon="3.31099">
        <ele>322.2</ele>
        <time>2024-04-15T15:51:50Z</time>
      </trkpt>
      <trkpt lat="45.96293" lon="3.31097">
        <ele>322.2</ele>
        <time>2024-04-15T15:51:51Z</time>
      </trkpt>
      <trkpt lat="45.96298" lon="3.31094">
        <ele>322.2</ele>
        <time>2024-04-15T15:51:52Z</time>
      </trkpt>
      <trkpt lat="45.96303" lon="3.31092">
        <ele>322.2</ele>
        <time>2024-04-15T15:51:53Z</time>
      </trkpt>
      <trkpt lat="45.96308" lon="3.3109">
        <ele>322</ele>
        <time>2024-04-15T15:51:54Z</time>
      </trkpt>
      <trkpt lat="45.96312" lon="3.31088">
        <ele>322</ele>
        <time>2024-04-15T15:51:55Z</time>
      </trkpt>
      <trkpt lat="45.96316" lon="3.31084">
        <ele>322</ele>
        <time>2024-04-15T15:51:56Z</time>
      </trkpt>
      <trkpt lat="45.9632" lon="3.31081">
        <ele>322</ele>
        <time>2024-04-15T15:51:57Z</time>
      </trkpt>
      <trkpt lat="45.96321" lon="3.31077">
        <ele>322</ele>
        <time>2024-04-15T15:51:58Z</time>
      </trkpt>
      <trkpt lat="45.96321" lon="3.31071">
        <ele>321.8</ele>
        <time>2024-04-15T15:51:59Z</time>
      </trkpt>
      <trkpt lat="45.96321" lon="3.31065">
        <ele>321.8</ele>
        <time>2024-04-15T15:52:00Z</time>
      </trkpt>
      <trkpt lat="45.9632" lon="3.31057">
        <ele>321.8</ele>
        <time>2024-04-15T15:52:01Z</time>
      </trkpt>
      <trkpt lat="45.9632" lon="3.3105">
        <ele>321.8</ele>
        <time>2024-04-15T15:52:02Z</time>
      </trkpt>
      <trkpt lat="45.9632" lon="3.31042">
        <ele>321.8</ele>
        <time>2024-04-15T15:52:03Z</time>
      </trkpt>
      <trkpt lat="45.96319" lon="3.31034">
        <ele>321.8</ele>
        <time>2024-04-15T15:52:04Z</time>
      </trkpt>
      <trkpt lat="45.96317" lon="3.31025">
        <ele>321.6</ele>
        <time>2024-04-15T15:52:05Z</time>
      </trkpt>
      <trkpt lat="45.96316" lon="3.31017">
        <ele>321.6</ele>
        <time>2024-04-15T15:52:06Z</time>
      </trkpt>
      <trkpt lat="45.96314" lon="3.31008">
        <ele>321.6</ele>
        <time>2024-04-15T15:52:07Z</time>
      </trkpt>
      <trkpt lat="45.96313" lon="3.30999">
        <ele>321.4</ele>
        <time>2024-04-15T15:52:08Z</time>
      </trkpt>
      <trkpt lat="45.96311" lon="3.30988">
        <ele>321.4</ele>
        <time>2024-04-15T15:52:09Z</time>
      </trkpt>
      <trkpt lat="45.96308" lon="3.30979">
        <ele>321.4</ele>
        <time>2024-04-15T15:52:10Z</time>
      </trkpt>
      <trkpt lat="45.96305" lon="3.30969">
        <ele>321.2</ele>
        <time>2024-04-15T15:52:11Z</time>
      </trkpt>
      <trkpt lat="45.96301" lon="3.3096">
        <ele>321.2</ele>
        <time>2024-04-15T15:52:12Z</time>
      </trkpt>
      <trkpt lat="45.96298" lon="3.30951">
        <ele>321.2</ele>
        <time>2024-04-15T15:52:13Z</time>
      </trkpt>
      <trkpt lat="45.96295" lon="3.30941">
        <ele>321</ele>
        <time>2024-04-15T15:52:14Z</time>
      </trkpt>
      <trkpt lat="45.96291" lon="3.3093">
        <ele>321</ele>
        <time>2024-04-15T15:52:15Z</time>
      </trkpt>
      <trkpt lat="45.96288" lon="3.3092">
        <ele>321</ele>
        <time>2024-04-15T15:52:16Z</time>
      </trkpt>
      <trkpt lat="45.96284" lon="3.3091">
        <ele>320.8</ele>
        <time>2024-04-15T15:52:17Z</time>
      </trkpt>
      <trkpt lat="45.96281" lon="3.309">
        <ele>320.8</ele>
        <time>2024-04-15T15:52:18Z</time>
      </trkpt>
      <trkpt lat="45.96277" lon="3.3089">
        <ele>320.6</ele>
        <time>2024-04-15T15:52:19Z</time>
      </trkpt>
      <trkpt lat="45.96274" lon="3.3088">
        <ele>320.6</ele>
        <time>2024-04-15T15:52:20Z</time>
      </trkpt>
      <trkpt lat="45.9627" lon="3.30869">
        <ele>320.4</ele>
        <time>2024-04-15T15:52:21Z</time>
      </trkpt>
      <trkpt lat="45.96266" lon="3.30859">
        <ele>320.2</ele>
        <time>2024-04-15T15:52:22Z</time>
      </trkpt>
      <trkpt lat="45.96263" lon="3.30849">
        <ele>320.2</ele>
        <time>2024-04-15T15:52:23Z</time>
      </trkpt>
      <trkpt lat="45.96259" lon="3.30839">
        <ele>320</ele>
        <time>2024-04-15T15:52:24Z</time>
      </trkpt>
      <trkpt lat="45.96256" lon="3.30828">
        <ele>320</ele>
        <time>2024-04-15T15:52:25Z</time>
      </trkpt>
      <trkpt lat="45.96252" lon="3.30818">
        <ele>319.8</ele>
        <time>2024-04-15T15:52:26Z</time>
      </trkpt>
      <trkpt lat="45.96249" lon="3.30808">
        <ele>319.6</ele>
        <time>2024-04-15T15:52:27Z</time>
      </trkpt>
      <trkpt lat="45.96244" lon="3.30798">
        <ele>319.4</ele>
        <time>2024-04-15T15:52:28Z</time>
      </trkpt>
      <trkpt lat="45.9624" lon="3.30789">
        <ele>319.4</ele>
        <time>2024-04-15T15:52:29Z</time>
      </trkpt>
      <trkpt lat="45.96236" lon="3.30779">
        <ele>319.2</ele>
        <time>2024-04-15T15:52:30Z</time>
      </trkpt>
      <trkpt lat="45.96232" lon="3.30769">
        <ele>319.2</ele>
        <time>2024-04-15T15:52:31Z</time>
      </trkpt>
      <trkpt lat="45.96228" lon="3.30761">
        <ele>319</ele>
        <time>2024-04-15T15:52:32Z</time>
      </trkpt>
      <trkpt lat="45.96224" lon="3.30753">
        <ele>319</ele>
        <time>2024-04-15T15:52:33Z</time>
      </trkpt>
      <trkpt lat="45.96221" lon="3.30746">
        <ele>319</ele>
        <time>2024-04-15T15:52:34Z</time>
      </trkpt>
      <trkpt lat="45.96219" lon="3.3074">
        <ele>318.8</ele>
        <time>2024-04-15T15:52:35Z</time>
      </trkpt>
      <trkpt lat="45.96217" lon="3.30735">
        <ele>318.8</ele>
        <time>2024-04-15T15:52:36Z</time>
      </trkpt>
      <trkpt lat="45.96215" lon="3.30732">
        <ele>318.6</ele>
        <time>2024-04-15T15:52:37Z</time>
      </trkpt>
      <trkpt lat="45.96213" lon="3.30731">
        <ele>318.6</ele>
        <time>2024-04-15T15:52:38Z</time>
      </trkpt>
      <trkpt lat="45.96215" lon="3.3073">
        <ele>318.4</ele>
        <time>2024-04-15T15:52:39Z</time>
      </trkpt>
      <trkpt lat="45.96216" lon="3.30733">
        <ele>318.4</ele>
        <time>2024-04-15T15:52:40Z</time>
      </trkpt>
      <trkpt lat="45.96217" lon="3.30736">
        <ele>318.4</ele>
        <time>2024-04-15T15:52:41Z</time>
      </trkpt>
      <trkpt lat="45.96219" lon="3.30741">
        <ele>318.2</ele>
        <time>2024-04-15T15:52:42Z</time>
      </trkpt>
      <trkpt lat="45.96222" lon="3.30746">
        <ele>318.2</ele>
        <time>2024-04-15T15:52:43Z</time>
      </trkpt>
      <trkpt lat="45.96224" lon="3.30751">
        <ele>318</ele>
        <time>2024-04-15T15:52:44Z</time>
      </trkpt>
      <trkpt lat="45.96227" lon="3.30758">
        <ele>318</ele>
        <time>2024-04-15T15:52:45Z</time>
      </trkpt>
      <trkpt lat="45.9623" lon="3.30764">
        <ele>318</ele>
        <time>2024-04-15T15:52:46Z</time>
      </trkpt>
      <trkpt lat="45.96232" lon="3.30771">
        <ele>317.8</ele>
        <time>2024-04-15T15:52:47Z</time>
      </trkpt>
      <trkpt lat="45.96235" lon="3.30778">
        <ele>317.8</ele>
        <time>2024-04-15T15:52:48Z</time>
      </trkpt>
      <trkpt lat="45.96238" lon="3.30785">
        <ele>317.6</ele>
        <time>2024-04-15T15:52:49Z</time>
      </trkpt>
      <trkpt lat="45.96241" lon="3.30791">
        <ele>317.6</ele>
        <time>2024-04-15T15:52:50Z</time>
      </trkpt>
      <trkpt lat="45.96244" lon="3.30799">
        <ele>317.6</ele>
        <time>2024-04-15T15:52:51Z</time>
      </trkpt>
      <trkpt lat="45.96247" lon="3.30806">
        <ele>317.4</ele>
        <time>2024-04-15T15:52:52Z</time>
      </trkpt>
      <trkpt lat="45.9625" lon="3.30813">
        <ele>317.4</ele>
        <time>2024-04-15T15:52:53Z</time>
      </trkpt>
      <trkpt lat="45.96256" lon="3.30813">
        <ele>317.4</ele>
        <time>2024-04-15T15:52:54Z</time>
      </trkpt>
      <trkpt lat="45.96262" lon="3.30814">
        <ele>317.4</ele>
        <time>2024-04-15T15:52:55Z</time>
      </trkpt>
      <trkpt lat="45.96268" lon="3.30814">
        <ele>317.2</ele>
        <time>2024-04-15T15:52:56Z</time>
      </trkpt>
      <trkpt lat="45.96273" lon="3.30815">
        <ele>317.2</ele>
        <time>2024-04-15T15:52:57Z</time>
      </trkpt>
      <trkpt lat="45.96279" lon="3.30815">
        <ele>317.2</ele>
        <time>2024-04-15T15:52:58Z</time>
      </trkpt>
      <trkpt lat="45.96285" lon="3.30816">
        <ele>317.2</ele>
        <time>2024-04-15T15:52:59Z</time>
      </trkpt>
      <trkpt lat="45.96291" lon="3.30816">
        <ele>317.2</ele>
        <time>2024-04-15T15:53:00Z</time>
      </trkpt>
      <trkpt lat="45.96297" lon="3.30817">
        <ele>317</ele>
        <time>2024-04-15T15:53:01Z</time>
      </trkpt>
      <trkpt lat="45.96303" lon="3.30817">
        <ele>317</ele>
        <time>2024-04-15T15:53:02Z</time>
      </trkpt>
      <trkpt lat="45.96309" lon="3.30818">
        <ele>317</ele>
        <time>2024-04-15T15:53:03Z</time>
      </trkpt>
      <trkpt lat="45.96315" lon="3.30818">
        <ele>317</ele>
        <time>2024-04-15T15:53:04Z</time>
      </trkpt>
      <trkpt lat="45.96321" lon="3.30818">
        <ele>317</ele>
        <time>2024-04-15T15:53:05Z</time>
      </trkpt>
      <trkpt lat="45.96326" lon="3.30819">
        <ele>316.8</ele>
        <time>2024-04-15T15:53:06Z</time>
      </trkpt>
      <trkpt lat="45.96332" lon="3.30819">
        <ele>316.8</ele>
        <time>2024-04-15T15:53:07Z</time>
      </trkpt>
      <trkpt lat="45.96338" lon="3.3082">
        <ele>316.8</ele>
        <time>2024-04-15T15:53:08Z</time>
      </trkpt>
      <trkpt lat="45.96344" lon="3.3082">
        <ele>316.8</ele>
        <time>2024-04-15T15:53:09Z</time>
      </trkpt>
      <trkpt lat="45.96349" lon="3.30821">
        <ele>316.8</ele>
        <time>2024-04-15T15:53:10Z</time>
      </trkpt>
      <trkpt lat="45.96355" lon="3.30821">
        <ele>316.8</ele>
        <time>2024-04-15T15:53:11Z</time>
      </trkpt>
      <trkpt lat="45.9636" lon="3.30822">
        <ele>316.6</ele>
        <time>2024-04-15T15:53:12Z</time>
      </trkpt>
      <trkpt lat="45.96366" lon="3.30822">
        <ele>316.6</ele>
        <time>2024-04-15T15:53:13Z</time>
      </trkpt>
      <trkpt lat="45.96372" lon="3.30823">
        <ele>316.6</ele>
        <time>2024-04-15T15:53:14Z</time>
      </trkpt>
      <trkpt lat="45.96377" lon="3.30823">
        <ele>316.6</ele>
        <time>2024-04-15T15:53:15Z</time>
      </trkpt>
      <trkpt lat="45.96383" lon="3.30823">
        <ele>316.6</ele>
        <time>2024-04-15T15:53:16Z</time>
      </trkpt>
      <trkpt lat="45.96389" lon="3.30825">
        <ele>316.6</ele>
        <time>2024-04-15T15:53:17Z</time>
      </trkpt>
      <trkpt lat="45.96394" lon="3.30827">
        <ele>316.6</ele>
        <time>2024-04-15T15:53:18Z</time>
      </trkpt>
      <trkpt lat="45.964" lon="3.3083">
        <ele>316.4</ele>
        <time>2024-04-15T15:53:19Z</time>
      </trkpt>
      <trkpt lat="45.96406" lon="3.30832">
        <ele>316.4</ele>
        <time>2024-04-15T15:53:20Z</time>
      </trkpt>
      <trkpt lat="45.96412" lon="3.30835">
        <ele>316.4</ele>
        <time>2024-04-15T15:53:21Z</time>
      </trkpt>
      <trkpt lat="45.96418" lon="3.30837">
        <ele>316.4</ele>
        <time>2024-04-15T15:53:22Z</time>
      </trkpt>
      <trkpt lat="45.96423" lon="3.3084">
        <ele>316.2</ele>
        <time>2024-04-15T15:53:23Z</time>
      </trkpt>
      <trkpt lat="45.96429" lon="3.30842">
        <ele>316.2</ele>
        <time>2024-04-15T15:53:24Z</time>
      </trkpt>
      <trkpt lat="45.96435" lon="3.30845">
        <ele>316.2</ele>
        <time>2024-04-15T15:53:25Z</time>
      </trkpt>
      <trkpt lat="45.96441" lon="3.30847">
        <ele>316.2</ele>
        <time>2024-04-15T15:53:26Z</time>
      </trkpt>
      <trkpt lat="45.96446" lon="3.30849">
        <ele>316</ele>
        <time>2024-04-15T15:53:27Z</time>
      </trkpt>
      <trkpt lat="45.96451" lon="3.30851">
        <ele>316</ele>
        <time>2024-04-15T15:53:28Z</time>
      </trkpt>
      <trkpt lat="45.96452" lon="3.30867">
        <ele>315.8</ele>
        <time>2024-04-15T15:53:29Z</time>
      </trkpt>
      <trkpt lat="45.96453" lon="3.30869">
        <ele>315.8</ele>
        <time>2024-04-15T15:53:30Z</time>
      </trkpt>
      <trkpt lat="45.96455" lon="3.30874">
        <ele>315.6</ele>
        <time>2024-04-15T15:53:31Z</time>
      </trkpt>
      <trkpt lat="45.96457" lon="3.30879">
        <ele>315.6</ele>
        <time>2024-04-15T15:53:32Z</time>
      </trkpt>
      <trkpt lat="45.9646" lon="3.30885">
        <ele>315.6</ele>
        <time>2024-04-15T15:53:33Z</time>
      </trkpt>
      <trkpt lat="45.96462" lon="3.30891">
        <ele>315.4</ele>
        <time>2024-04-15T15:53:34Z</time>
      </trkpt>
      <trkpt lat="45.96465" lon="3.30897">
        <ele>315.4</ele>
        <time>2024-04-15T15:53:35Z</time>
      </trkpt>
      <trkpt lat="45.96467" lon="3.30904">
        <ele>315.4</ele>
        <time>2024-04-15T15:53:36Z</time>
      </trkpt>
      <trkpt lat="45.9647" lon="3.30911">
        <ele>315.4</ele>
        <time>2024-04-15T15:53:37Z</time>
      </trkpt>
      <trkpt lat="45.96473" lon="3.30917">
        <ele>315.2</ele>
        <time>2024-04-15T15:53:38Z</time>
      </trkpt>
      <trkpt lat="45.96476" lon="3.30924">
        <ele>315.2</ele>
        <time>2024-04-15T15:53:39Z</time>
      </trkpt>
      <trkpt lat="45.96478" lon="3.30931">
        <ele>315.2</ele>
        <time>2024-04-15T15:53:40Z</time>
      </trkpt>
      <trkpt lat="45.96481" lon="3.30937">
        <ele>315.2</ele>
        <time>2024-04-15T15:53:41Z</time>
      </trkpt>
      <trkpt lat="45.96484" lon="3.30944">
        <ele>315</ele>
        <time>2024-04-15T15:53:42Z</time>
      </trkpt>
      <trkpt lat="45.96487" lon="3.30951">
        <ele>315</ele>
        <time>2024-04-15T15:53:43Z</time>
      </trkpt>
      <trkpt lat="45.96489" lon="3.30957">
        <ele>315</ele>
        <time>2024-04-15T15:53:44Z</time>
      </trkpt>
      <trkpt lat="45.96492" lon="3.30963">
        <ele>314.8</ele>
        <time>2024-04-15T15:53:45Z</time>
      </trkpt>
      <trkpt lat="45.96489" lon="3.30979">
        <ele>314.6</ele>
        <time>2024-04-15T15:53:46Z</time>
      </trkpt>
      <trkpt lat="45.96486" lon="3.30983">
        <ele>314.6</ele>
        <time>2024-04-15T15:53:47Z</time>
      </trkpt>
      <trkpt lat="45.96483" lon="3.30987">
        <ele>314.4</ele>
        <time>2024-04-15T15:53:48Z</time>
      </trkpt>
      <trkpt lat="45.96479" lon="3.30991">
        <ele>314.4</ele>
        <time>2024-04-15T15:53:49Z</time>
      </trkpt>
      <trkpt lat="45.96475" lon="3.30995">
        <ele>314.4</ele>
        <time>2024-04-15T15:53:50Z</time>
      </trkpt>
      <trkpt lat="45.96472" lon="3.31">
        <ele>314.2</ele>
        <time>2024-04-15T15:53:51Z</time>
      </trkpt>
      <trkpt lat="45.96468" lon="3.31004">
        <ele>314.2</ele>
        <time>2024-04-15T15:53:52Z</time>
      </trkpt>
      <trkpt lat="45.96465" lon="3.31008">
        <ele>314</ele>
        <time>2024-04-15T15:53:53Z</time>
      </trkpt>
      <trkpt lat="45.96462" lon="3.31012">
        <ele>314</ele>
        <time>2024-04-15T15:53:54Z</time>
      </trkpt>
      <trkpt lat="45.96459" lon="3.31016">
        <ele>314</ele>
        <time>2024-04-15T15:53:55Z</time>
      </trkpt>
      <trkpt lat="45.96455" lon="3.3102">
        <ele>313.8</ele>
        <time>2024-04-15T15:53:56Z</time>
      </trkpt>
      <trkpt lat="45.96449" lon="3.31024">
        <ele>313.8</ele>
        <time>2024-04-15T15:53:57Z</time>
      </trkpt>
      <trkpt lat="45.96445" lon="3.31026">
        <ele>313.6</ele>
        <time>2024-04-15T15:53:58Z</time>
      </trkpt>
      <trkpt lat="45.96442" lon="3.31027">
        <ele>313.8</ele>
        <time>2024-04-15T15:53:59Z</time>
      </trkpt>
      <trkpt lat="45.96438" lon="3.31028">
        <ele>313.8</ele>
        <time>2024-04-15T15:54:00Z</time>
      </trkpt>
      <trkpt lat="45.96433" lon="3.3103">
        <ele>313.8</ele>
        <time>2024-04-15T15:54:01Z</time>
      </trkpt>
      <trkpt lat="45.96428" lon="3.31032">
        <ele>313.8</ele>
        <time>2024-04-15T15:54:02Z</time>
      </trkpt>
      <trkpt lat="45.96422" lon="3.31034">
        <ele>313.8</ele>
        <time>2024-04-15T15:54:03Z</time>
      </trkpt>
      <trkpt lat="45.96416" lon="3.31036">
        <ele>313.6</ele>
        <time>2024-04-15T15:54:04Z</time>
      </trkpt>
      <trkpt lat="45.96414" lon="3.3104">
        <ele>313.6</ele>
        <time>2024-04-15T15:54:05Z</time>
      </trkpt>
      <trkpt lat="45.96412" lon="3.31045">
        <ele>313.6</ele>
        <time>2024-04-15T15:54:06Z</time>
      </trkpt>
      <trkpt lat="45.96409" lon="3.31051">
        <ele>313.6</ele>
        <time>2024-04-15T15:54:07Z</time>
      </trkpt>
      <trkpt lat="45.96407" lon="3.31056">
        <ele>313.6</ele>
        <time>2024-04-15T15:54:08Z</time>
      </trkpt>
      <trkpt lat="45.96404" lon="3.31062">
        <ele>313.6</ele>
        <time>2024-04-15T15:54:09Z</time>
      </trkpt>
      <trkpt lat="45.96402" lon="3.31067">
        <ele>313.6</ele>
        <time>2024-04-15T15:54:10Z</time>
      </trkpt>
      <trkpt lat="45.964" lon="3.31072">
        <ele>313.6</ele>
        <time>2024-04-15T15:54:11Z</time>
      </trkpt>
      <trkpt lat="45.96398" lon="3.31077">
        <ele>313.6</ele>
        <time>2024-04-15T15:54:12Z</time>
      </trkpt>
      <trkpt lat="45.96396" lon="3.31081">
        <ele>313.6</ele>
        <time>2024-04-15T15:54:13Z</time>
      </trkpt>
      <trkpt lat="45.96394" lon="3.31085">
        <ele>313.6</ele>
        <time>2024-04-15T15:54:14Z</time>
      </trkpt>
      <trkpt lat="45.96393" lon="3.31088">
        <ele>313.6</ele>
        <time>2024-04-15T15:54:15Z</time>
      </trkpt>
      <trkpt lat="45.96391" lon="3.31091">
        <ele>313.6</ele>
        <time>2024-04-15T15:54:16Z</time>
      </trkpt>
      <trkpt lat="45.9639" lon="3.31094">
        <ele>313.6</ele>
        <time>2024-04-15T15:54:17Z</time>
      </trkpt>
      <trkpt lat="45.96394" lon="3.31097">
        <ele>313.8</ele>
        <time>2024-04-15T15:54:18Z</time>
      </trkpt>
      <trkpt lat="45.96399" lon="3.31101">
        <ele>313.4</ele>
        <time>2024-04-15T15:54:19Z</time>
      </trkpt>
      <trkpt lat="45.96404" lon="3.31104">
        <ele>314</ele>
        <time>2024-04-15T15:54:20Z</time>
      </trkpt>
      <trkpt lat="45.96409" lon="3.31108">
        <ele>314</ele>
        <time>2024-04-15T15:54:21Z</time>
      </trkpt>
      <trkpt lat="45.96413" lon="3.31112">
        <ele>314</ele>
        <time>2024-04-15T15:54:22Z</time>
      </trkpt>
      <trkpt lat="45.96419" lon="3.31116">
        <ele>314.2</ele>
        <time>2024-04-15T15:54:23Z</time>
      </trkpt>
      <trkpt lat="45.96423" lon="3.31121">
        <ele>314.2</ele>
        <time>2024-04-15T15:54:24Z</time>
      </trkpt>
      <trkpt lat="45.96429" lon="3.31126">
        <ele>314.2</ele>
        <time>2024-04-15T15:54:25Z</time>
      </trkpt>
      <trkpt lat="45.96434" lon="3.31131">
        <ele>314.2</ele>
        <time>2024-04-15T15:54:26Z</time>
      </trkpt>
      <trkpt lat="45.96439" lon="3.31137">
        <ele>314.2</ele>
        <time>2024-04-15T15:54:27Z</time>
      </trkpt>
      <trkpt lat="45.96443" lon="3.31144">
        <ele>314.4</ele>
        <time>2024-04-15T15:54:28Z</time>
      </trkpt>
      <trkpt lat="45.96448" lon="3.3115">
        <ele>314.4</ele>
        <time>2024-04-15T15:54:29Z</time>
      </trkpt>
      <trkpt lat="45.96452" lon="3.31158">
        <ele>314.4</ele>
        <time>2024-04-15T15:54:30Z</time>
      </trkpt>
      <trkpt lat="45.96454" lon="3.31165">
        <ele>314.6</ele>
        <time>2024-04-15T15:54:31Z</time>
      </trkpt>
      <trkpt lat="45.96457" lon="3.31173">
        <ele>314.6</ele>
        <time>2024-04-15T15:54:32Z</time>
      </trkpt>
      <trkpt lat="45.96457" lon="3.31173">
        <ele>314.6</ele>
        <time>2024-04-15T15:54:33Z</time>
      </trkpt>
      <trkpt lat="45.96457" lon="3.31173">
        <ele>314.6</ele>
        <time>2024-04-15T15:54:34Z</time>
      </trkpt>
      <trkpt lat="45.96465" lon="3.31194">
        <ele>314.6</ele>
        <time>2024-04-15T15:54:35Z</time>
      </trkpt>
      <trkpt lat="45.96468" lon="3.312">
        <ele>314.6</ele>
        <time>2024-04-15T15:54:36Z</time>
      </trkpt>
      <trkpt lat="45.9647" lon="3.31207">
        <ele>314.8</ele>
        <time>2024-04-15T15:54:37Z</time>
      </trkpt>
      <trkpt lat="45.9647" lon="3.31207">
        <ele>314.8</ele>
        <time>2024-04-15T15:54:38Z</time>
      </trkpt>
      <trkpt lat="45.96475" lon="3.31219">
        <ele>314.8</ele>
        <time>2024-04-15T15:54:39Z</time>
      </trkpt>
      <trkpt lat="45.96478" lon="3.31226">
        <ele>315</ele>
        <time>2024-04-15T15:54:40Z</time>
      </trkpt>
      <trkpt lat="45.96478" lon="3.31226">
        <ele>315</ele>
        <time>2024-04-15T15:54:41Z</time>
      </trkpt>
      <trkpt lat="45.96483" lon="3.31239">
        <ele>315</ele>
        <time>2024-04-15T15:54:42Z</time>
      </trkpt>
      <trkpt lat="45.96483" lon="3.31239">
        <ele>315.2</ele>
        <time>2024-04-15T15:54:43Z</time>
      </trkpt>
      <trkpt lat="45.96488" lon="3.31253">
        <ele>315.2</ele>
        <time>2024-04-15T15:54:44Z</time>
      </trkpt>
      <trkpt lat="45.96488" lon="3.31253">
        <ele>315.2</ele>
        <time>2024-04-15T15:54:45Z</time>
      </trkpt>
      <trkpt lat="45.96493" lon="3.31266">
        <ele>315.4</ele>
        <time>2024-04-15T15:54:46Z</time>
      </trkpt>
      <trkpt lat="45.96493" lon="3.31266">
        <ele>315.4</ele>
        <time>2024-04-15T15:54:47Z</time>
      </trkpt>
      <trkpt lat="45.96498" lon="3.31279">
        <ele>315.6</ele>
        <time>2024-04-15T15:54:48Z</time>
      </trkpt>
      <trkpt lat="45.96498" lon="3.31279">
        <ele>315.6</ele>
        <time>2024-04-15T15:54:49Z</time>
      </trkpt>
      <trkpt lat="45.96503" lon="3.31293">
        <ele>315.6</ele>
        <time>2024-04-15T15:54:50Z</time>
      </trkpt>
      <trkpt lat="45.96506" lon="3.313">
        <ele>315.8</ele>
        <time>2024-04-15T15:54:51Z</time>
      </trkpt>
      <trkpt lat="45.96509" lon="3.31307">
        <ele>315.8</ele>
        <time>2024-04-15T15:54:52Z</time>
      </trkpt>
      <trkpt lat="45.96512" lon="3.31314">
        <ele>316</ele>
        <time>2024-04-15T15:54:53Z</time>
      </trkpt>
      <trkpt lat="45.96514" lon="3.31321">
        <ele>316</ele>
        <time>2024-04-15T15:54:54Z</time>
      </trkpt>
      <trkpt lat="45.96517" lon="3.31328">
        <ele>316.2</ele>
        <time>2024-04-15T15:54:55Z</time>
      </trkpt>
      <trkpt lat="45.9652" lon="3.31336">
        <ele>316.2</ele>
        <time>2024-04-15T15:54:56Z</time>
      </trkpt>
      <trkpt lat="45.96523" lon="3.31343">
        <ele>316.4</ele>
        <time>2024-04-15T15:54:57Z</time>
      </trkpt>
      <trkpt lat="45.96525" lon="3.3135">
        <ele>316.4</ele>
        <time>2024-04-15T15:54:58Z</time>
      </trkpt>
      <trkpt lat="45.96528" lon="3.31357">
        <ele>316.4</ele>
        <time>2024-04-15T15:54:59Z</time>
      </trkpt>
      <trkpt lat="45.96531" lon="3.31365">
        <ele>316.4</ele>
        <time>2024-04-15T15:55:00Z</time>
      </trkpt>
      <trkpt lat="45.96534" lon="3.31372">
        <ele>316.6</ele>
        <time>2024-04-15T15:55:01Z</time>
      </trkpt>
      <trkpt lat="45.96537" lon="3.3138">
        <ele>316.6</ele>
        <time>2024-04-15T15:55:02Z</time>
      </trkpt>
      <trkpt lat="45.96541" lon="3.31387">
        <ele>316.6</ele>
        <time>2024-04-15T15:55:03Z</time>
      </trkpt>
      <trkpt lat="45.96544" lon="3.31394">
        <ele>316.6</ele>
        <time>2024-04-15T15:55:04Z</time>
      </trkpt>
      <trkpt lat="45.96547" lon="3.31402">
        <ele>316.6</ele>
        <time>2024-04-15T15:55:05Z</time>
      </trkpt>
      <trkpt lat="45.96551" lon="3.31409">
        <ele>316.8</ele>
        <time>2024-04-15T15:55:06Z</time>
      </trkpt>
      <trkpt lat="45.96554" lon="3.31417">
        <ele>316.8</ele>
        <time>2024-04-15T15:55:07Z</time>
      </trkpt>
      <trkpt lat="45.96557" lon="3.31424">
        <ele>316.8</ele>
        <time>2024-04-15T15:55:08Z</time>
      </trkpt>
      <trkpt lat="45.96561" lon="3.31431">
        <ele>316.8</ele>
        <time>2024-04-15T15:55:09Z</time>
      </trkpt>
      <trkpt lat="45.96564" lon="3.31439">
        <ele>317</ele>
        <time>2024-04-15T15:55:10Z</time>
      </trkpt>
      <trkpt lat="45.96564" lon="3.31439">
        <ele>317</ele>
        <time>2024-04-15T15:55:11Z</time>
      </trkpt>
      <trkpt lat="45.96571" lon="3.31453">
        <ele>317</ele>
        <time>2024-04-15T15:55:12Z</time>
      </trkpt>
      <trkpt lat="45.96574" lon="3.31461">
        <ele>317</ele>
        <time>2024-04-15T15:55:13Z</time>
      </trkpt>
      <trkpt lat="45.96577" lon="3.31469">
        <ele>317.2</ele>
        <time>2024-04-15T15:55:14Z</time>
      </trkpt>
      <trkpt lat="45.96582" lon="3.31476">
        <ele>317.2</ele>
        <time>2024-04-15T15:55:15Z</time>
      </trkpt>
      <trkpt lat="45.96586" lon="3.31484">
        <ele>317.2</ele>
        <time>2024-04-15T15:55:16Z</time>
      </trkpt>
      <trkpt lat="45.9659" lon="3.31491">
        <ele>317.2</ele>
        <time>2024-04-15T15:55:17Z</time>
      </trkpt>
      <trkpt lat="45.96594" lon="3.31498">
        <ele>317.4</ele>
        <time>2024-04-15T15:55:18Z</time>
      </trkpt>
      <trkpt lat="45.96599" lon="3.31505">
        <ele>317.4</ele>
        <time>2024-04-15T15:55:19Z</time>
      </trkpt>
      <trkpt lat="45.96603" lon="3.31513">
        <ele>317.6</ele>
        <time>2024-04-15T15:55:20Z</time>
      </trkpt>
      <trkpt lat="45.96608" lon="3.3152">
        <ele>317.6</ele>
        <time>2024-04-15T15:55:21Z</time>
      </trkpt>
      <trkpt lat="45.96613" lon="3.31525">
        <ele>317.6</ele>
        <time>2024-04-15T15:55:22Z</time>
      </trkpt>
      <trkpt lat="45.96618" lon="3.31531">
        <ele>317.6</ele>
        <time>2024-04-15T15:55:23Z</time>
      </trkpt>
      <trkpt lat="45.96624" lon="3.31537">
        <ele>317.8</ele>
        <time>2024-04-15T15:55:24Z</time>
      </trkpt>
      <trkpt lat="45.96629" lon="3.31542">
        <ele>317.8</ele>
        <time>2024-04-15T15:55:25Z</time>
      </trkpt>
      <trkpt lat="45.96635" lon="3.31548">
        <ele>317.8</ele>
        <time>2024-04-15T15:55:26Z</time>
      </trkpt>
      <trkpt lat="45.9664" lon="3.31554">
        <ele>317.8</ele>
        <time>2024-04-15T15:55:27Z</time>
      </trkpt>
      <trkpt lat="45.96646" lon="3.31559">
        <ele>318</ele>
        <time>2024-04-15T15:55:28Z</time>
      </trkpt>
      <trkpt lat="45.96651" lon="3.31565">
        <ele>318</ele>
        <time>2024-04-15T15:55:29Z</time>
      </trkpt>
      <trkpt lat="45.96657" lon="3.31571">
        <ele>318</ele>
        <time>2024-04-15T15:55:30Z</time>
      </trkpt>
      <trkpt lat="45.96663" lon="3.31577">
        <ele>318.2</ele>
        <time>2024-04-15T15:55:31Z</time>
      </trkpt>
      <trkpt lat="45.96669" lon="3.31583">
        <ele>318.2</ele>
        <time>2024-04-15T15:55:32Z</time>
      </trkpt>
      <trkpt lat="45.96674" lon="3.31589">
        <ele>318.2</ele>
        <time>2024-04-15T15:55:33Z</time>
      </trkpt>
      <trkpt lat="45.9668" lon="3.31595">
        <ele>318.2</ele>
        <time>2024-04-15T15:55:34Z</time>
      </trkpt>
      <trkpt lat="45.96686" lon="3.31601">
        <ele>318.2</ele>
        <time>2024-04-15T15:55:35Z</time>
      </trkpt>
      <trkpt lat="45.96692" lon="3.31607">
        <ele>318.2</ele>
        <time>2024-04-15T15:55:36Z</time>
      </trkpt>
      <trkpt lat="45.96697" lon="3.31613">
        <ele>318.2</ele>
        <time>2024-04-15T15:55:37Z</time>
      </trkpt>
      <trkpt lat="45.96703" lon="3.31619">
        <ele>318.2</ele>
        <time>2024-04-15T15:55:38Z</time>
      </trkpt>
      <trkpt lat="45.96709" lon="3.31625">
        <ele>318.2</ele>
        <time>2024-04-15T15:55:39Z</time>
      </trkpt>
      <trkpt lat="45.96715" lon="3.31631">
        <ele>318.2</ele>
        <time>2024-04-15T15:55:40Z</time>
      </trkpt>
      <trkpt lat="45.96721" lon="3.31637">
        <ele>318.4</ele>
        <time>2024-04-15T15:55:41Z</time>
      </trkpt>
      <trkpt lat="45.96727" lon="3.31643">
        <ele>318.4</ele>
        <time>2024-04-15T15:55:42Z</time>
      </trkpt>
      <trkpt lat="45.96733" lon="3.31649">
        <ele>318.4</ele>
        <time>2024-04-15T15:55:43Z</time>
      </trkpt>
      <trkpt lat="45.96739" lon="3.31656">
        <ele>318.4</ele>
        <time>2024-04-15T15:55:44Z</time>
      </trkpt>
      <trkpt lat="45.96744" lon="3.31662">
        <ele>318.4</ele>
        <time>2024-04-15T15:55:45Z</time>
      </trkpt>
      <trkpt lat="45.9675" lon="3.31667">
        <ele>318.4</ele>
        <time>2024-04-15T15:55:46Z</time>
      </trkpt>
      <trkpt lat="45.96756" lon="3.31673">
        <ele>318.4</ele>
        <time>2024-04-15T15:55:47Z</time>
      </trkpt>
      <trkpt lat="45.96761" lon="3.31679">
        <ele>318.4</ele>
        <time>2024-04-15T15:55:48Z</time>
      </trkpt>
      <trkpt lat="45.96767" lon="3.31685">
        <ele>318.6</ele>
        <time>2024-04-15T15:55:49Z</time>
      </trkpt>
      <trkpt lat="45.96773" lon="3.31691">
        <ele>318.6</ele>
        <time>2024-04-15T15:55:50Z</time>
      </trkpt>
      <trkpt lat="45.96779" lon="3.31697">
        <ele>318.6</ele>
        <time>2024-04-15T15:55:51Z</time>
      </trkpt>
      <trkpt lat="45.96785" lon="3.31703">
        <ele>318.6</ele>
        <time>2024-04-15T15:55:52Z</time>
      </trkpt>
      <trkpt lat="45.96791" lon="3.31709">
        <ele>318.6</ele>
        <time>2024-04-15T15:55:53Z</time>
      </trkpt>
      <trkpt lat="45.96797" lon="3.31714">
        <ele>318.6</ele>
        <time>2024-04-15T15:55:54Z</time>
      </trkpt>
      <trkpt lat="45.96803" lon="3.3172">
        <ele>318.6</ele>
        <time>2024-04-15T15:55:55Z</time>
      </trkpt>
      <trkpt lat="45.96809" lon="3.31725">
        <ele>318.6</ele>
        <time>2024-04-15T15:55:56Z</time>
      </trkpt>
      <trkpt lat="45.96815" lon="3.31731">
        <ele>318.6</ele>
        <time>2024-04-15T15:55:57Z</time>
      </trkpt>
      <trkpt lat="45.96821" lon="3.31736">
        <ele>318.6</ele>
        <time>2024-04-15T15:55:58Z</time>
      </trkpt>
      <trkpt lat="45.96826" lon="3.31742">
        <ele>318.6</ele>
        <time>2024-04-15T15:55:59Z</time>
      </trkpt>
      <trkpt lat="45.96832" lon="3.31747">
        <ele>318.6</ele>
        <time>2024-04-15T15:56:00Z</time>
      </trkpt>
      <trkpt lat="45.96838" lon="3.31753">
        <ele>318.6</ele>
        <time>2024-04-15T15:56:01Z</time>
      </trkpt>
      <trkpt lat="45.96844" lon="3.31758">
        <ele>318.6</ele>
        <time>2024-04-15T15:56:02Z</time>
      </trkpt>
      <trkpt lat="45.9685" lon="3.31763">
        <ele>318.6</ele>
        <time>2024-04-15T15:56:03Z</time>
      </trkpt>
      <trkpt lat="45.96856" lon="3.31769">
        <ele>318.6</ele>
        <time>2024-04-15T15:56:04Z</time>
      </trkpt>
      <trkpt lat="45.96862" lon="3.31774">
        <ele>318.6</ele>
        <time>2024-04-15T15:56:05Z</time>
      </trkpt>
      <trkpt lat="45.96868" lon="3.3178">
        <ele>318.6</ele>
        <time>2024-04-15T15:56:06Z</time>
      </trkpt>
      <trkpt lat="45.96874" lon="3.31785">
        <ele>318.6</ele>
        <time>2024-04-15T15:56:07Z</time>
      </trkpt>
      <trkpt lat="45.9688" lon="3.31791">
        <ele>318.6</ele>
        <time>2024-04-15T15:56:08Z</time>
      </trkpt>
      <trkpt lat="45.96885" lon="3.31796">
        <ele>318.6</ele>
        <time>2024-04-15T15:56:09Z</time>
      </trkpt>
      <trkpt lat="45.96891" lon="3.31802">
        <ele>318.6</ele>
        <time>2024-04-15T15:56:10Z</time>
      </trkpt>
      <trkpt lat="45.96897" lon="3.31807">
        <ele>318.6</ele>
        <time>2024-04-15T15:56:11Z</time>
      </trkpt>
      <trkpt lat="45.96903" lon="3.31812">
        <ele>318.6</ele>
        <time>2024-04-15T15:56:12Z</time>
      </trkpt>
      <trkpt lat="45.96909" lon="3.31818">
        <ele>318.6</ele>
        <time>2024-04-15T15:56:13Z</time>
      </trkpt>
      <trkpt lat="45.96914" lon="3.31823">
        <ele>318.6</ele>
        <time>2024-04-15T15:56:14Z</time>
      </trkpt>
      <trkpt lat="45.9692" lon="3.31828">
        <ele>318.6</ele>
        <time>2024-04-15T15:56:15Z</time>
      </trkpt>
      <trkpt lat="45.96926" lon="3.31833">
        <ele>318.8</ele>
        <time>2024-04-15T15:56:16Z</time>
      </trkpt>
      <trkpt lat="45.96932" lon="3.31839">
        <ele>318.8</ele>
        <time>2024-04-15T15:56:17Z</time>
      </trkpt>
      <trkpt lat="45.96937" lon="3.31844">
        <ele>318.8</ele>
        <time>2024-04-15T15:56:18Z</time>
      </trkpt>
      <trkpt lat="45.96943" lon="3.31849">
        <ele>318.8</ele>
        <time>2024-04-15T15:56:19Z</time>
      </trkpt>
      <trkpt lat="45.96949" lon="3.31855">
        <ele>318.8</ele>
        <time>2024-04-15T15:56:20Z</time>
      </trkpt>
      <trkpt lat="45.96954" lon="3.3186">
        <ele>318.8</ele>
        <time>2024-04-15T15:56:21Z</time>
      </trkpt>
      <trkpt lat="45.9696" lon="3.31865">
        <ele>318.8</ele>
        <time>2024-04-15T15:56:22Z</time>
      </trkpt>
      <trkpt lat="45.96966" lon="3.3187">
        <ele>318.8</ele>
        <time>2024-04-15T15:56:23Z</time>
      </trkpt>
      <trkpt lat="45.96972" lon="3.31876">
        <ele>318.8</ele>
        <time>2024-04-15T15:56:24Z</time>
      </trkpt>
      <trkpt lat="45.96977" lon="3.31881">
        <ele>318.8</ele>
        <time>2024-04-15T15:56:25Z</time>
      </trkpt>
      <trkpt lat="45.96983" lon="3.31887">
        <ele>318.8</ele>
        <time>2024-04-15T15:56:26Z</time>
      </trkpt>
      <trkpt lat="45.96989" lon="3.31892">
        <ele>318.8</ele>
        <time>2024-04-15T15:56:27Z</time>
      </trkpt>
      <trkpt lat="45.96995" lon="3.31898">
        <ele>318.8</ele>
        <time>2024-04-15T15:56:28Z</time>
      </trkpt>
      <trkpt lat="45.97001" lon="3.31903">
        <ele>318.8</ele>
        <time>2024-04-15T15:56:29Z</time>
      </trkpt>
      <trkpt lat="45.97007" lon="3.31909">
        <ele>318.8</ele>
        <time>2024-04-15T15:56:30Z</time>
      </trkpt>
      <trkpt lat="45.97013" lon="3.31914">
        <ele>318.8</ele>
        <time>2024-04-15T15:56:31Z</time>
      </trkpt>
      <trkpt lat="45.97019" lon="3.31919">
        <ele>318.8</ele>
        <time>2024-04-15T15:56:32Z</time>
      </trkpt>
      <trkpt lat="45.97024" lon="3.31924">
        <ele>318.8</ele>
        <time>2024-04-15T15:56:33Z</time>
      </trkpt>
      <trkpt lat="45.9703" lon="3.3193">
        <ele>318.8</ele>
        <time>2024-04-15T15:56:34Z</time>
      </trkpt>
      <trkpt lat="45.97035" lon="3.31934">
        <ele>318.8</ele>
        <time>2024-04-15T15:56:35Z</time>
      </trkpt>
      <trkpt lat="45.9704" lon="3.31941">
        <ele>318.8</ele>
        <time>2024-04-15T15:56:36Z</time>
      </trkpt>
      <trkpt lat="45.97045" lon="3.31947">
        <ele>318.8</ele>
        <time>2024-04-15T15:56:37Z</time>
      </trkpt>
      <trkpt lat="45.97051" lon="3.31952">
        <ele>318.8</ele>
        <time>2024-04-15T15:56:38Z</time>
      </trkpt>
      <trkpt lat="45.97057" lon="3.31957">
        <ele>319</ele>
        <time>2024-04-15T15:56:39Z</time>
      </trkpt>
      <trkpt lat="45.97062" lon="3.31962">
        <ele>319</ele>
        <time>2024-04-15T15:56:40Z</time>
      </trkpt>
      <trkpt lat="45.97068" lon="3.31968">
        <ele>319</ele>
        <time>2024-04-15T15:56:41Z</time>
      </trkpt>
      <trkpt lat="45.97073" lon="3.31973">
        <ele>319</ele>
        <time>2024-04-15T15:56:42Z</time>
      </trkpt>
      <trkpt lat="45.97079" lon="3.31978">
        <ele>319</ele>
        <time>2024-04-15T15:56:43Z</time>
      </trkpt>
      <trkpt lat="45.97084" lon="3.31984">
        <ele>319</ele>
        <time>2024-04-15T15:56:44Z</time>
      </trkpt>
      <trkpt lat="45.97088" lon="3.31991">
        <ele>319</ele>
        <time>2024-04-15T15:56:45Z</time>
      </trkpt>
      <trkpt lat="45.97093" lon="3.31999">
        <ele>319</ele>
        <time>2024-04-15T15:56:46Z</time>
      </trkpt>
      <trkpt lat="45.97097" lon="3.32006">
        <ele>319</ele>
        <time>2024-04-15T15:56:47Z</time>
      </trkpt>
      <trkpt lat="45.97101" lon="3.32013">
        <ele>319</ele>
        <time>2024-04-15T15:56:48Z</time>
      </trkpt>
      <trkpt lat="45.97105" lon="3.3202">
        <ele>319</ele>
        <time>2024-04-15T15:56:49Z</time>
      </trkpt>
      <trkpt lat="45.97108" lon="3.32028">
        <ele>319.2</ele>
        <time>2024-04-15T15:56:50Z</time>
      </trkpt>
      <trkpt lat="45.97112" lon="3.32036">
        <ele>319.2</ele>
        <time>2024-04-15T15:56:51Z</time>
      </trkpt>
      <trkpt lat="45.97115" lon="3.32044">
        <ele>319.2</ele>
        <time>2024-04-15T15:56:52Z</time>
      </trkpt>
      <trkpt lat="45.97118" lon="3.32052">
        <ele>319.2</ele>
        <time>2024-04-15T15:56:53Z</time>
      </trkpt>
      <trkpt lat="45.97122" lon="3.3206">
        <ele>319.2</ele>
        <time>2024-04-15T15:56:54Z</time>
      </trkpt>
      <trkpt lat="45.97125" lon="3.32068">
        <ele>319.2</ele>
        <time>2024-04-15T15:56:55Z</time>
      </trkpt>
      <trkpt lat="45.97128" lon="3.32076">
        <ele>319.2</ele>
        <time>2024-04-15T15:56:56Z</time>
      </trkpt>
      <trkpt lat="45.97132" lon="3.32084">
        <ele>319.2</ele>
        <time>2024-04-15T15:56:57Z</time>
      </trkpt>
      <trkpt lat="45.97135" lon="3.32092">
        <ele>319.2</ele>
        <time>2024-04-15T15:56:58Z</time>
      </trkpt>
      <trkpt lat="45.97138" lon="3.321">
        <ele>319.4</ele>
        <time>2024-04-15T15:56:59Z</time>
      </trkpt>
      <trkpt lat="45.97141" lon="3.32107">
        <ele>319.4</ele>
        <time>2024-04-15T15:57:00Z</time>
      </trkpt>
      <trkpt lat="45.97144" lon="3.32115">
        <ele>319.4</ele>
        <time>2024-04-15T15:57:01Z</time>
      </trkpt>
      <trkpt lat="45.97148" lon="3.32123">
        <ele>319.4</ele>
        <time>2024-04-15T15:57:02Z</time>
      </trkpt>
      <trkpt lat="45.97151" lon="3.3213">
        <ele>319.4</ele>
        <time>2024-04-15T15:57:03Z</time>
      </trkpt>
      <trkpt lat="45.97154" lon="3.32138">
        <ele>319.4</ele>
        <time>2024-04-15T15:57:04Z</time>
      </trkpt>
      <trkpt lat="45.97157" lon="3.32146">
        <ele>319.6</ele>
        <time>2024-04-15T15:57:05Z</time>
      </trkpt>
      <trkpt lat="45.9716" lon="3.32153">
        <ele>319.6</ele>
        <time>2024-04-15T15:57:06Z</time>
      </trkpt>
      <trkpt lat="45.97164" lon="3.32161">
        <ele>319.6</ele>
        <time>2024-04-15T15:57:07Z</time>
      </trkpt>
      <trkpt lat="45.97167" lon="3.3217">
        <ele>319.6</ele>
        <time>2024-04-15T15:57:08Z</time>
      </trkpt>
      <trkpt lat="45.97171" lon="3.32178">
        <ele>319.6</ele>
        <time>2024-04-15T15:57:09Z</time>
      </trkpt>
      <trkpt lat="45.97174" lon="3.32185">
        <ele>319.6</ele>
        <time>2024-04-15T15:57:10Z</time>
      </trkpt>
      <trkpt lat="45.9718" lon="3.3219">
        <ele>319.6</ele>
        <time>2024-04-15T15:57:11Z</time>
      </trkpt>
      <trkpt lat="45.97186" lon="3.32194">
        <ele>319.6</ele>
        <time>2024-04-15T15:57:12Z</time>
      </trkpt>
      <trkpt lat="45.97192" lon="3.32199">
        <ele>319.6</ele>
        <time>2024-04-15T15:57:13Z</time>
      </trkpt>
      <trkpt lat="45.97197" lon="3.32204">
        <ele>319.6</ele>
        <time>2024-04-15T15:57:14Z</time>
      </trkpt>
      <trkpt lat="45.97203" lon="3.32209">
        <ele>319.6</ele>
        <time>2024-04-15T15:57:15Z</time>
      </trkpt>
      <trkpt lat="45.97209" lon="3.32214">
        <ele>319.6</ele>
        <time>2024-04-15T15:57:16Z</time>
      </trkpt>
      <trkpt lat="45.97215" lon="3.32216">
        <ele>319.6</ele>
        <time>2024-04-15T15:57:17Z</time>
      </trkpt>
      <trkpt lat="45.97221" lon="3.32219">
        <ele>319.4</ele>
        <time>2024-04-15T15:57:18Z</time>
      </trkpt>
      <trkpt lat="45.97228" lon="3.32222">
        <ele>319.6</ele>
        <time>2024-04-15T15:57:19Z</time>
      </trkpt>
      <trkpt lat="45.97234" lon="3.32222">
        <ele>319.6</ele>
        <time>2024-04-15T15:57:20Z</time>
      </trkpt>
      <trkpt lat="45.9724" lon="3.32221">
        <ele>319.2</ele>
        <time>2024-04-15T15:57:21Z</time>
      </trkpt>
      <trkpt lat="45.97247" lon="3.32219">
        <ele>319.2</ele>
        <time>2024-04-15T15:57:22Z</time>
      </trkpt>
      <trkpt lat="45.97254" lon="3.32218">
        <ele>319.2</ele>
        <time>2024-04-15T15:57:23Z</time>
      </trkpt>
      <trkpt lat="45.9726" lon="3.32216">
        <ele>319.2</ele>
        <time>2024-04-15T15:57:24Z</time>
      </trkpt>
      <trkpt lat="45.97267" lon="3.32215">
        <ele>319.2</ele>
        <time>2024-04-15T15:57:25Z</time>
      </trkpt>
      <trkpt lat="45.97274" lon="3.32213">
        <ele>319.2</ele>
        <time>2024-04-15T15:57:26Z</time>
      </trkpt>
      <trkpt lat="45.9728" lon="3.32212">
        <ele>319.2</ele>
        <time>2024-04-15T15:57:27Z</time>
      </trkpt>
      <trkpt lat="45.97287" lon="3.32211">
        <ele>319.2</ele>
        <time>2024-04-15T15:57:28Z</time>
      </trkpt>
      <trkpt lat="45.97293" lon="3.3221">
        <ele>319.2</ele>
        <time>2024-04-15T15:57:29Z</time>
      </trkpt>
      <trkpt lat="45.97299" lon="3.3221">
        <ele>319.2</ele>
        <time>2024-04-15T15:57:30Z</time>
      </trkpt>
      <trkpt lat="45.97306" lon="3.32209">
        <ele>319.2</ele>
        <time>2024-04-15T15:57:31Z</time>
      </trkpt>
      <trkpt lat="45.97313" lon="3.32208">
        <ele>319</ele>
        <time>2024-04-15T15:57:32Z</time>
      </trkpt>
      <trkpt lat="45.97319" lon="3.32207">
        <ele>319</ele>
        <time>2024-04-15T15:57:33Z</time>
      </trkpt>
      <trkpt lat="45.97326" lon="3.32207">
        <ele>318.8</ele>
        <time>2024-04-15T15:57:34Z</time>
      </trkpt>
      <trkpt lat="45.97333" lon="3.32206">
        <ele>318.8</ele>
        <time>2024-04-15T15:57:35Z</time>
      </trkpt>
      <trkpt lat="45.9734" lon="3.32205">
        <ele>318.6</ele>
        <time>2024-04-15T15:57:36Z</time>
      </trkpt>
      <trkpt lat="45.97348" lon="3.32204">
        <ele>318.6</ele>
        <time>2024-04-15T15:57:37Z</time>
      </trkpt>
      <trkpt lat="45.97355" lon="3.32204">
        <ele>318.4</ele>
        <time>2024-04-15T15:57:38Z</time>
      </trkpt>
      <trkpt lat="45.97363" lon="3.32203">
        <ele>318.4</ele>
        <time>2024-04-15T15:57:39Z</time>
      </trkpt>
      <trkpt lat="45.97371" lon="3.32203">
        <ele>318.2</ele>
        <time>2024-04-15T15:57:40Z</time>
      </trkpt>
      <trkpt lat="45.97378" lon="3.32202">
        <ele>318.2</ele>
        <time>2024-04-15T15:57:41Z</time>
      </trkpt>
      <trkpt lat="45.97385" lon="3.32202">
        <ele>318.2</ele>
        <time>2024-04-15T15:57:42Z</time>
      </trkpt>
      <trkpt lat="45.97393" lon="3.32201">
        <ele>318</ele>
        <time>2024-04-15T15:57:43Z</time>
      </trkpt>
      <trkpt lat="45.974" lon="3.322">
        <ele>318</ele>
        <time>2024-04-15T15:57:44Z</time>
      </trkpt>
      <trkpt lat="45.97407" lon="3.32198">
        <ele>318</ele>
        <time>2024-04-15T15:57:45Z</time>
      </trkpt>
      <trkpt lat="45.97414" lon="3.32197">
        <ele>317.8</ele>
        <time>2024-04-15T15:57:46Z</time>
      </trkpt>
      <trkpt lat="45.97421" lon="3.32196">
        <ele>317.8</ele>
        <time>2024-04-15T15:57:47Z</time>
      </trkpt>
      <trkpt lat="45.97428" lon="3.32195">
        <ele>317.8</ele>
        <time>2024-04-15T15:57:48Z</time>
      </trkpt>
      <trkpt lat="45.97435" lon="3.32193">
        <ele>317.6</ele>
        <time>2024-04-15T15:57:49Z</time>
      </trkpt>
      <trkpt lat="45.97442" lon="3.32191">
        <ele>317.6</ele>
        <time>2024-04-15T15:57:50Z</time>
      </trkpt>
      <trkpt lat="45.97448" lon="3.32187">
        <ele>317.6</ele>
        <time>2024-04-15T15:57:51Z</time>
      </trkpt>
      <trkpt lat="45.97454" lon="3.32182">
        <ele>317.4</ele>
        <time>2024-04-15T15:57:52Z</time>
      </trkpt>
      <trkpt lat="45.9746" lon="3.32177">
        <ele>317.4</ele>
        <time>2024-04-15T15:57:53Z</time>
      </trkpt>
      <trkpt lat="45.97465" lon="3.32172">
        <ele>317.4</ele>
        <time>2024-04-15T15:57:54Z</time>
      </trkpt>
      <trkpt lat="45.97471" lon="3.32167">
        <ele>317.2</ele>
        <time>2024-04-15T15:57:55Z</time>
      </trkpt>
      <trkpt lat="45.97477" lon="3.32162">
        <ele>317.2</ele>
        <time>2024-04-15T15:57:56Z</time>
      </trkpt>
      <trkpt lat="45.97483" lon="3.32158">
        <ele>317.2</ele>
        <time>2024-04-15T15:57:57Z</time>
      </trkpt>
      <trkpt lat="45.97488" lon="3.32152">
        <ele>317.2</ele>
        <time>2024-04-15T15:57:58Z</time>
      </trkpt>
      <trkpt lat="45.97492" lon="3.32145">
        <ele>317.2</ele>
        <time>2024-04-15T15:57:59Z</time>
      </trkpt>
      <trkpt lat="45.97497" lon="3.32139">
        <ele>317</ele>
        <time>2024-04-15T15:58:00Z</time>
      </trkpt>
      <trkpt lat="45.97502" lon="3.32133">
        <ele>317</ele>
        <time>2024-04-15T15:58:01Z</time>
      </trkpt>
      <trkpt lat="45.97507" lon="3.32127">
        <ele>317</ele>
        <time>2024-04-15T15:58:02Z</time>
      </trkpt>
      <trkpt lat="45.97511" lon="3.3212">
        <ele>316.8</ele>
        <time>2024-04-15T15:58:03Z</time>
      </trkpt>
      <trkpt lat="45.97516" lon="3.32114">
        <ele>316.8</ele>
        <time>2024-04-15T15:58:04Z</time>
      </trkpt>
      <trkpt lat="45.97521" lon="3.32107">
        <ele>316.6</ele>
        <time>2024-04-15T15:58:05Z</time>
      </trkpt>
      <trkpt lat="45.97526" lon="3.32101">
        <ele>316.6</ele>
        <time>2024-04-15T15:58:06Z</time>
      </trkpt>
      <trkpt lat="45.97531" lon="3.32095">
        <ele>316.4</ele>
        <time>2024-04-15T15:58:07Z</time>
      </trkpt>
      <trkpt lat="45.97535" lon="3.32088">
        <ele>316.4</ele>
        <time>2024-04-15T15:58:08Z</time>
      </trkpt>
      <trkpt lat="45.9754" lon="3.32082">
        <ele>316.4</ele>
        <time>2024-04-15T15:58:09Z</time>
      </trkpt>
      <trkpt lat="45.97545" lon="3.32076">
        <ele>316.2</ele>
        <time>2024-04-15T15:58:10Z</time>
      </trkpt>
      <trkpt lat="45.9755" lon="3.32069">
        <ele>316.2</ele>
        <time>2024-04-15T15:58:11Z</time>
      </trkpt>
      <trkpt lat="45.97554" lon="3.32063">
        <ele>316.2</ele>
        <time>2024-04-15T15:58:12Z</time>
      </trkpt>
      <trkpt lat="45.97559" lon="3.32057">
        <ele>316</ele>
        <time>2024-04-15T15:58:13Z</time>
      </trkpt>
      <trkpt lat="45.97564" lon="3.32051">
        <ele>316</ele>
        <time>2024-04-15T15:58:14Z</time>
      </trkpt>
      <trkpt lat="45.97568" lon="3.32045">
        <ele>315.8</ele>
        <time>2024-04-15T15:58:15Z</time>
      </trkpt>
      <trkpt lat="45.97573" lon="3.32038">
        <ele>315.8</ele>
        <time>2024-04-15T15:58:16Z</time>
      </trkpt>
      <trkpt lat="45.97578" lon="3.32032">
        <ele>315.6</ele>
        <time>2024-04-15T15:58:17Z</time>
      </trkpt>
      <trkpt lat="45.97583" lon="3.32025">
        <ele>315.6</ele>
        <time>2024-04-15T15:58:18Z</time>
      </trkpt>
      <trkpt lat="45.97588" lon="3.32018">
        <ele>315.6</ele>
        <time>2024-04-15T15:58:19Z</time>
      </trkpt>
      <trkpt lat="45.97592" lon="3.32012">
        <ele>315.6</ele>
        <time>2024-04-15T15:58:20Z</time>
      </trkpt>
      <trkpt lat="45.97597" lon="3.32005">
        <ele>315.8</ele>
        <time>2024-04-15T15:58:21Z</time>
      </trkpt>
      <trkpt lat="45.97602" lon="3.31999">
        <ele>315.6</ele>
        <time>2024-04-15T15:58:22Z</time>
      </trkpt>
      <trkpt lat="45.97607" lon="3.31992">
        <ele>315.6</ele>
        <time>2024-04-15T15:58:23Z</time>
      </trkpt>
      <trkpt lat="45.97612" lon="3.31986">
        <ele>315.6</ele>
        <time>2024-04-15T15:58:24Z</time>
      </trkpt>
      <trkpt lat="45.97617" lon="3.31979">
        <ele>315.4</ele>
        <time>2024-04-15T15:58:25Z</time>
      </trkpt>
      <trkpt lat="45.97622" lon="3.31972">
        <ele>315.4</ele>
        <time>2024-04-15T15:58:26Z</time>
      </trkpt>
      <trkpt lat="45.97627" lon="3.31966">
        <ele>315.4</ele>
        <time>2024-04-15T15:58:27Z</time>
      </trkpt>
      <trkpt lat="45.97632" lon="3.31959">
        <ele>315.4</ele>
        <time>2024-04-15T15:58:28Z</time>
      </trkpt>
      <trkpt lat="45.97637" lon="3.31952">
        <ele>315.4</ele>
        <time>2024-04-15T15:58:29Z</time>
      </trkpt>
      <trkpt lat="45.97642" lon="3.31946">
        <ele>315.2</ele>
        <time>2024-04-15T15:58:30Z</time>
      </trkpt>
      <trkpt lat="45.97647" lon="3.31939">
        <ele>315.2</ele>
        <time>2024-04-15T15:58:31Z</time>
      </trkpt>
      <trkpt lat="45.97652" lon="3.31933">
        <ele>315.2</ele>
        <time>2024-04-15T15:58:32Z</time>
      </trkpt>
      <trkpt lat="45.97657" lon="3.31926">
        <ele>315</ele>
        <time>2024-04-15T15:58:33Z</time>
      </trkpt>
      <trkpt lat="45.97662" lon="3.3192">
        <ele>315</ele>
        <time>2024-04-15T15:58:34Z</time>
      </trkpt>
      <trkpt lat="45.97666" lon="3.31914">
        <ele>315</ele>
        <time>2024-04-15T15:58:35Z</time>
      </trkpt>
      <trkpt lat="45.97671" lon="3.31907">
        <ele>315</ele>
        <time>2024-04-15T15:58:36Z</time>
      </trkpt>
      <trkpt lat="45.97676" lon="3.31901">
        <ele>314.8</ele>
        <time>2024-04-15T15:58:37Z</time>
      </trkpt>
      <trkpt lat="45.9768" lon="3.31895">
        <ele>314.8</ele>
        <time>2024-04-15T15:58:38Z</time>
      </trkpt>
      <trkpt lat="45.97685" lon="3.31888">
        <ele>314.8</ele>
        <time>2024-04-15T15:58:39Z</time>
      </trkpt>
      <trkpt lat="45.9769" lon="3.31882">
        <ele>314.6</ele>
        <time>2024-04-15T15:58:40Z</time>
      </trkpt>
      <trkpt lat="45.97694" lon="3.31876">
        <ele>314.6</ele>
        <time>2024-04-15T15:58:41Z</time>
      </trkpt>
      <trkpt lat="45.97699" lon="3.3187">
        <ele>314.6</ele>
        <time>2024-04-15T15:58:42Z</time>
      </trkpt>
      <trkpt lat="45.97704" lon="3.31864">
        <ele>314.6</ele>
        <time>2024-04-15T15:58:43Z</time>
      </trkpt>
      <trkpt lat="45.97708" lon="3.31858">
        <ele>314.4</ele>
        <time>2024-04-15T15:58:44Z</time>
      </trkpt>
      <trkpt lat="45.97713" lon="3.31852">
        <ele>314.4</ele>
        <time>2024-04-15T15:58:45Z</time>
      </trkpt>
      <trkpt lat="45.97717" lon="3.31846">
        <ele>314.4</ele>
        <time>2024-04-15T15:58:46Z</time>
      </trkpt>
      <trkpt lat="45.97722" lon="3.3184">
        <ele>314.4</ele>
        <time>2024-04-15T15:58:47Z</time>
      </trkpt>
      <trkpt lat="45.97726" lon="3.31833">
        <ele>314.2</ele>
        <time>2024-04-15T15:58:48Z</time>
      </trkpt>
      <trkpt lat="45.97731" lon="3.31827">
        <ele>314.2</ele>
        <time>2024-04-15T15:58:49Z</time>
      </trkpt>
      <trkpt lat="45.97735" lon="3.31821">
        <ele>314.2</ele>
        <time>2024-04-15T15:58:50Z</time>
      </trkpt>
      <trkpt lat="45.9774" lon="3.31815">
        <ele>314.2</ele>
        <time>2024-04-15T15:58:51Z</time>
      </trkpt>
      <trkpt lat="45.97744" lon="3.3181">
        <ele>314.2</ele>
        <time>2024-04-15T15:58:52Z</time>
      </trkpt>
      <trkpt lat="45.97749" lon="3.31804">
        <ele>314</ele>
        <time>2024-04-15T15:58:53Z</time>
      </trkpt>
      <trkpt lat="45.97753" lon="3.31797">
        <ele>314</ele>
        <time>2024-04-15T15:58:54Z</time>
      </trkpt>
      <trkpt lat="45.97758" lon="3.31791">
        <ele>314</ele>
        <time>2024-04-15T15:58:55Z</time>
      </trkpt>
      <trkpt lat="45.97762" lon="3.31785">
        <ele>314</ele>
        <time>2024-04-15T15:58:56Z</time>
      </trkpt>
      <trkpt lat="45.97767" lon="3.31779">
        <ele>314</ele>
        <time>2024-04-15T15:58:57Z</time>
      </trkpt>
      <trkpt lat="45.97772" lon="3.31773">
        <ele>313.8</ele>
        <time>2024-04-15T15:58:58Z</time>
      </trkpt>
      <trkpt lat="45.97776" lon="3.31767">
        <ele>313.8</ele>
        <time>2024-04-15T15:58:59Z</time>
      </trkpt>
      <trkpt lat="45.97781" lon="3.31761">
        <ele>313.8</ele>
        <time>2024-04-15T15:59:00Z</time>
      </trkpt>
      <trkpt lat="45.97785" lon="3.31755">
        <ele>313.8</ele>
        <time>2024-04-15T15:59:01Z</time>
      </trkpt>
      <trkpt lat="45.9779" lon="3.31749">
        <ele>313.6</ele>
        <time>2024-04-15T15:59:02Z</time>
      </trkpt>
      <trkpt lat="45.97795" lon="3.31743">
        <ele>313.6</ele>
        <time>2024-04-15T15:59:03Z</time>
      </trkpt>
      <trkpt lat="45.97799" lon="3.31736">
        <ele>313.6</ele>
        <time>2024-04-15T15:59:04Z</time>
      </trkpt>
      <trkpt lat="45.97804" lon="3.3173">
        <ele>313.6</ele>
        <time>2024-04-15T15:59:05Z</time>
      </trkpt>
      <trkpt lat="45.97809" lon="3.31724">
        <ele>313.4</ele>
        <time>2024-04-15T15:59:06Z</time>
      </trkpt>
      <trkpt lat="45.97813" lon="3.31718">
        <ele>313.4</ele>
        <time>2024-04-15T15:59:07Z</time>
      </trkpt>
      <trkpt lat="45.97818" lon="3.31712">
        <ele>313.2</ele>
        <time>2024-04-15T15:59:08Z</time>
      </trkpt>
      <trkpt lat="45.97822" lon="3.31705">
        <ele>313.2</ele>
        <time>2024-04-15T15:59:09Z</time>
      </trkpt>
      <trkpt lat="45.97827" lon="3.31699">
        <ele>313.2</ele>
        <time>2024-04-15T15:59:10Z</time>
      </trkpt>
      <trkpt lat="45.97832" lon="3.31693">
        <ele>313</ele>
        <time>2024-04-15T15:59:11Z</time>
      </trkpt>
      <trkpt lat="45.97836" lon="3.31687">
        <ele>313</ele>
        <time>2024-04-15T15:59:12Z</time>
      </trkpt>
      <trkpt lat="45.97841" lon="3.31681">
        <ele>313</ele>
        <time>2024-04-15T15:59:13Z</time>
      </trkpt>
      <trkpt lat="45.97846" lon="3.31675">
        <ele>312.8</ele>
        <time>2024-04-15T15:59:14Z</time>
      </trkpt>
      <trkpt lat="45.9785" lon="3.31669">
        <ele>312.8</ele>
        <time>2024-04-15T15:59:15Z</time>
      </trkpt>
      <trkpt lat="45.97854" lon="3.31663">
        <ele>312.8</ele>
        <time>2024-04-15T15:59:16Z</time>
      </trkpt>
      <trkpt lat="45.97859" lon="3.31657">
        <ele>312.8</ele>
        <time>2024-04-15T15:59:17Z</time>
      </trkpt>
      <trkpt lat="45.97863" lon="3.31651">
        <ele>312.6</ele>
        <time>2024-04-15T15:59:18Z</time>
      </trkpt>
      <trkpt lat="45.97868" lon="3.31645">
        <ele>312.6</ele>
        <time>2024-04-15T15:59:19Z</time>
      </trkpt>
      <trkpt lat="45.97872" lon="3.3164">
        <ele>312.6</ele>
        <time>2024-04-15T15:59:20Z</time>
      </trkpt>
      <trkpt lat="45.97876" lon="3.31634">
        <ele>312.6</ele>
        <time>2024-04-15T15:59:21Z</time>
      </trkpt>
      <trkpt lat="45.97881" lon="3.31628">
        <ele>312.4</ele>
        <time>2024-04-15T15:59:22Z</time>
      </trkpt>
      <trkpt lat="45.97885" lon="3.31622">
        <ele>312.4</ele>
        <time>2024-04-15T15:59:23Z</time>
      </trkpt>
      <trkpt lat="45.9789" lon="3.31617">
        <ele>312.4</ele>
        <time>2024-04-15T15:59:24Z</time>
      </trkpt>
      <trkpt lat="45.97894" lon="3.31612">
        <ele>312.4</ele>
        <time>2024-04-15T15:59:25Z</time>
      </trkpt>
      <trkpt lat="45.97899" lon="3.31606">
        <ele>312.4</ele>
        <time>2024-04-15T15:59:26Z</time>
      </trkpt>
      <trkpt lat="45.97904" lon="3.31601">
        <ele>312.2</ele>
        <time>2024-04-15T15:59:27Z</time>
      </trkpt>
      <trkpt lat="45.97908" lon="3.31595">
        <ele>312.2</ele>
        <time>2024-04-15T15:59:28Z</time>
      </trkpt>
      <trkpt lat="45.97914" lon="3.3159">
        <ele>312.2</ele>
        <time>2024-04-15T15:59:29Z</time>
      </trkpt>
      <trkpt lat="45.97919" lon="3.31585">
        <ele>312.2</ele>
        <time>2024-04-15T15:59:30Z</time>
      </trkpt>
      <trkpt lat="45.97925" lon="3.3158">
        <ele>312.2</ele>
        <time>2024-04-15T15:59:31Z</time>
      </trkpt>
      <trkpt lat="45.9793" lon="3.31575">
        <ele>312</ele>
        <time>2024-04-15T15:59:32Z</time>
      </trkpt>
      <trkpt lat="45.97936" lon="3.3157">
        <ele>312</ele>
        <time>2024-04-15T15:59:33Z</time>
      </trkpt>
      <trkpt lat="45.97941" lon="3.31566">
        <ele>312</ele>
        <time>2024-04-15T15:59:34Z</time>
      </trkpt>
      <trkpt lat="45.97947" lon="3.31561">
        <ele>311.8</ele>
        <time>2024-04-15T15:59:35Z</time>
      </trkpt>
      <trkpt lat="45.97953" lon="3.31557">
        <ele>311.8</ele>
        <time>2024-04-15T15:59:36Z</time>
      </trkpt>
      <trkpt lat="45.97959" lon="3.31553">
        <ele>311.8</ele>
        <time>2024-04-15T15:59:37Z</time>
      </trkpt>
      <trkpt lat="45.97964" lon="3.3155">
        <ele>311.8</ele>
        <time>2024-04-15T15:59:38Z</time>
      </trkpt>
      <trkpt lat="45.97971" lon="3.31546">
        <ele>311.6</ele>
        <time>2024-04-15T15:59:39Z</time>
      </trkpt>
      <trkpt lat="45.97977" lon="3.31542">
        <ele>311.6</ele>
        <time>2024-04-15T15:59:40Z</time>
      </trkpt>
      <trkpt lat="45.97982" lon="3.31539">
        <ele>311.6</ele>
        <time>2024-04-15T15:59:41Z</time>
      </trkpt>
      <trkpt lat="45.97988" lon="3.31535">
        <ele>311.4</ele>
        <time>2024-04-15T15:59:42Z</time>
      </trkpt>
      <trkpt lat="45.97994" lon="3.31531">
        <ele>311.4</ele>
        <time>2024-04-15T15:59:43Z</time>
      </trkpt>
      <trkpt lat="45.98" lon="3.31528">
        <ele>311.4</ele>
        <time>2024-04-15T15:59:44Z</time>
      </trkpt>
      <trkpt lat="45.98006" lon="3.31524">
        <ele>311.4</ele>
        <time>2024-04-15T15:59:45Z</time>
      </trkpt>
      <trkpt lat="45.98012" lon="3.31521">
        <ele>311.2</ele>
        <time>2024-04-15T15:59:46Z</time>
      </trkpt>
      <trkpt lat="45.98018" lon="3.31517">
        <ele>311.2</ele>
        <time>2024-04-15T15:59:47Z</time>
      </trkpt>
      <trkpt lat="45.98024" lon="3.31513">
        <ele>311.2</ele>
        <time>2024-04-15T15:59:48Z</time>
      </trkpt>
      <trkpt lat="45.9803" lon="3.3151">
        <ele>311</ele>
        <time>2024-04-15T15:59:49Z</time>
      </trkpt>
      <trkpt lat="45.98036" lon="3.31506">
        <ele>311</ele>
        <time>2024-04-15T15:59:50Z</time>
      </trkpt>
      <trkpt lat="45.98042" lon="3.31502">
        <ele>311</ele>
        <time>2024-04-15T15:59:51Z</time>
      </trkpt>
      <trkpt lat="45.98048" lon="3.31499">
        <ele>311</ele>
        <time>2024-04-15T15:59:52Z</time>
      </trkpt>
      <trkpt lat="45.98054" lon="3.31495">
        <ele>311</ele>
        <time>2024-04-15T15:59:53Z</time>
      </trkpt>
      <trkpt lat="45.9806" lon="3.31491">
        <ele>310.8</ele>
        <time>2024-04-15T15:59:54Z</time>
      </trkpt>
      <trkpt lat="45.98066" lon="3.31488">
        <ele>310.8</ele>
        <time>2024-04-15T15:59:55Z</time>
      </trkpt>
      <trkpt lat="45.98072" lon="3.31484">
        <ele>310.8</ele>
        <time>2024-04-15T15:59:56Z</time>
      </trkpt>
      <trkpt lat="45.98077" lon="3.31481">
        <ele>310.8</ele>
        <time>2024-04-15T15:59:57Z</time>
      </trkpt>
      <trkpt lat="45.98083" lon="3.31477">
        <ele>310.8</ele>
        <time>2024-04-15T15:59:58Z</time>
      </trkpt>
      <trkpt lat="45.98089" lon="3.31474">
        <ele>310.6</ele>
        <time>2024-04-15T15:59:59Z</time>
      </trkpt>
      <trkpt lat="45.98094" lon="3.3147">
        <ele>310.6</ele>
        <time>2024-04-15T16:00:00Z</time>
      </trkpt>
      <trkpt lat="45.98099" lon="3.31467">
        <ele>310.6</ele>
        <time>2024-04-15T16:00:01Z</time>
      </trkpt>
      <trkpt lat="45.98105" lon="3.31464">
        <ele>310.6</ele>
        <time>2024-04-15T16:00:02Z</time>
      </trkpt>
      <trkpt lat="45.9811" lon="3.31461">
        <ele>310.6</ele>
        <time>2024-04-15T16:00:03Z</time>
      </trkpt>
      <trkpt lat="45.98116" lon="3.31457">
        <ele>310.4</ele>
        <time>2024-04-15T16:00:04Z</time>
      </trkpt>
      <trkpt lat="45.98121" lon="3.31454">
        <ele>310.4</ele>
        <time>2024-04-15T16:00:05Z</time>
      </trkpt>
      <trkpt lat="45.98127" lon="3.31451">
        <ele>310.4</ele>
        <time>2024-04-15T16:00:06Z</time>
      </trkpt>
      <trkpt lat="45.98132" lon="3.31448">
        <ele>310.4</ele>
        <time>2024-04-15T16:00:07Z</time>
      </trkpt>
      <trkpt lat="45.98137" lon="3.31444">
        <ele>310.6</ele>
        <time>2024-04-15T16:00:08Z</time>
      </trkpt>
      <trkpt lat="45.98143" lon="3.31441">
        <ele>310.6</ele>
        <time>2024-04-15T16:00:09Z</time>
      </trkpt>
      <trkpt lat="45.98148" lon="3.31438">
        <ele>310.6</ele>
        <time>2024-04-15T16:00:10Z</time>
      </trkpt>
      <trkpt lat="45.98153" lon="3.31435">
        <ele>310.6</ele>
        <time>2024-04-15T16:00:11Z</time>
      </trkpt>
      <trkpt lat="45.98158" lon="3.31431">
        <ele>310.4</ele>
        <time>2024-04-15T16:00:12Z</time>
      </trkpt>
      <trkpt lat="45.98164" lon="3.31428">
        <ele>310.6</ele>
        <time>2024-04-15T16:00:13Z</time>
      </trkpt>
      <trkpt lat="45.98169" lon="3.31425">
        <ele>310.6</ele>
        <time>2024-04-15T16:00:14Z</time>
      </trkpt>
      <trkpt lat="45.98174" lon="3.31422">
        <ele>310.6</ele>
        <time>2024-04-15T16:00:15Z</time>
      </trkpt>
      <trkpt lat="45.98179" lon="3.31419">
        <ele>310.6</ele>
        <time>2024-04-15T16:00:16Z</time>
      </trkpt>
      <trkpt lat="45.98184" lon="3.31416">
        <ele>310.6</ele>
        <time>2024-04-15T16:00:17Z</time>
      </trkpt>
      <trkpt lat="45.98189" lon="3.31413">
        <ele>310.4</ele>
        <time>2024-04-15T16:00:18Z</time>
      </trkpt>
      <trkpt lat="45.98194" lon="3.3141">
        <ele>310.6</ele>
        <time>2024-04-15T16:00:19Z</time>
      </trkpt>
      <trkpt lat="45.98199" lon="3.31407">
        <ele>310.6</ele>
        <time>2024-04-15T16:00:20Z</time>
      </trkpt>
      <trkpt lat="45.98204" lon="3.31404">
        <ele>310.6</ele>
        <time>2024-04-15T16:00:21Z</time>
      </trkpt>
      <trkpt lat="45.98209" lon="3.31401">
        <ele>310.6</ele>
        <time>2024-04-15T16:00:22Z</time>
      </trkpt>
      <trkpt lat="45.98214" lon="3.31398">
        <ele>310.6</ele>
        <time>2024-04-15T16:00:23Z</time>
      </trkpt>
      <trkpt lat="45.98219" lon="3.31395">
        <ele>310.6</ele>
        <time>2024-04-15T16:00:24Z</time>
      </trkpt>
      <trkpt lat="45.98224" lon="3.31391">
        <ele>310.4</ele>
        <time>2024-04-15T16:00:25Z</time>
      </trkpt>
      <trkpt lat="45.9823" lon="3.31388">
        <ele>310.6</ele>
        <time>2024-04-15T16:00:26Z</time>
      </trkpt>
      <trkpt lat="45.98235" lon="3.31385">
        <ele>310.6</ele>
        <time>2024-04-15T16:00:27Z</time>
      </trkpt>
      <trkpt lat="45.9824" lon="3.31382">
        <ele>310.6</ele>
        <time>2024-04-15T16:00:28Z</time>
      </trkpt>
      <trkpt lat="45.98245" lon="3.31379">
        <ele>310.6</ele>
        <time>2024-04-15T16:00:29Z</time>
      </trkpt>
      <trkpt lat="45.9825" lon="3.31376">
        <ele>310.6</ele>
        <time>2024-04-15T16:00:30Z</time>
      </trkpt>
      <trkpt lat="45.98255" lon="3.31373">
        <ele>310.6</ele>
        <time>2024-04-15T16:00:31Z</time>
      </trkpt>
      <trkpt lat="45.9826" lon="3.3137">
        <ele>310.6</ele>
        <time>2024-04-15T16:00:32Z</time>
      </trkpt>
      <trkpt lat="45.98264" lon="3.31367">
        <ele>310.6</ele>
        <time>2024-04-15T16:00:33Z</time>
      </trkpt>
      <trkpt lat="45.98269" lon="3.31364">
        <ele>310.6</ele>
        <time>2024-04-15T16:00:34Z</time>
      </trkpt>
      <trkpt lat="45.98274" lon="3.31361">
        <ele>310.6</ele>
        <time>2024-04-15T16:00:35Z</time>
      </trkpt>
      <trkpt lat="45.98279" lon="3.31358">
        <ele>310.6</ele>
        <time>2024-04-15T16:00:36Z</time>
      </trkpt>
      <trkpt lat="45.98284" lon="3.31355">
        <ele>310.6</ele>
        <time>2024-04-15T16:00:37Z</time>
      </trkpt>
      <trkpt lat="45.98289" lon="3.31352">
        <ele>310.6</ele>
        <time>2024-04-15T16:00:38Z</time>
      </trkpt>
      <trkpt lat="45.98294" lon="3.31349">
        <ele>310.6</ele>
        <time>2024-04-15T16:00:39Z</time>
      </trkpt>
      <trkpt lat="45.98299" lon="3.31346">
        <ele>310.6</ele>
        <time>2024-04-15T16:00:40Z</time>
      </trkpt>
      <trkpt lat="45.98304" lon="3.31343">
        <ele>310.6</ele>
        <time>2024-04-15T16:00:41Z</time>
      </trkpt>
      <trkpt lat="45.98308" lon="3.3134">
        <ele>310.6</ele>
        <time>2024-04-15T16:00:42Z</time>
      </trkpt>
      <trkpt lat="45.98313" lon="3.31338">
        <ele>310.6</ele>
        <time>2024-04-15T16:00:43Z</time>
      </trkpt>
      <trkpt lat="45.98318" lon="3.31335">
        <ele>310.8</ele>
        <time>2024-04-15T16:00:44Z</time>
      </trkpt>
      <trkpt lat="45.98322" lon="3.31332">
        <ele>310.8</ele>
        <time>2024-04-15T16:00:45Z</time>
      </trkpt>
      <trkpt lat="45.98327" lon="3.31329">
        <ele>310.8</ele>
        <time>2024-04-15T16:00:46Z</time>
      </trkpt>
      <trkpt lat="45.98332" lon="3.31326">
        <ele>310.8</ele>
        <time>2024-04-15T16:00:47Z</time>
      </trkpt>
      <trkpt lat="45.98336" lon="3.31324">
        <ele>310.8</ele>
        <time>2024-04-15T16:00:48Z</time>
      </trkpt>
      <trkpt lat="45.98341" lon="3.31321">
        <ele>310.8</ele>
        <time>2024-04-15T16:00:49Z</time>
      </trkpt>
      <trkpt lat="45.98345" lon="3.31318">
        <ele>311</ele>
        <time>2024-04-15T16:00:50Z</time>
      </trkpt>
      <trkpt lat="45.9835" lon="3.31315">
        <ele>311</ele>
        <time>2024-04-15T16:00:51Z</time>
      </trkpt>
      <trkpt lat="45.98355" lon="3.31312">
        <ele>311</ele>
        <time>2024-04-15T16:00:52Z</time>
      </trkpt>
      <trkpt lat="45.98359" lon="3.3131">
        <ele>311</ele>
        <time>2024-04-15T16:00:53Z</time>
      </trkpt>
      <trkpt lat="45.98364" lon="3.31307">
        <ele>311</ele>
        <time>2024-04-15T16:00:54Z</time>
      </trkpt>
      <trkpt lat="45.98368" lon="3.31304">
        <ele>311</ele>
        <time>2024-04-15T16:00:55Z</time>
      </trkpt>
      <trkpt lat="45.98373" lon="3.31301">
        <ele>311.2</ele>
        <time>2024-04-15T16:00:56Z</time>
      </trkpt>
      <trkpt lat="45.98377" lon="3.31298">
        <ele>311.2</ele>
        <time>2024-04-15T16:00:57Z</time>
      </trkpt>
      <trkpt lat="45.98382" lon="3.31296">
        <ele>311.2</ele>
        <time>2024-04-15T16:00:58Z</time>
      </trkpt>
      <trkpt lat="45.98387" lon="3.31293">
        <ele>311.2</ele>
        <time>2024-04-15T16:00:59Z</time>
      </trkpt>
      <trkpt lat="45.98391" lon="3.3129">
        <ele>311.2</ele>
        <time>2024-04-15T16:01:00Z</time>
      </trkpt>
      <trkpt lat="45.98395" lon="3.31288">
        <ele>311.2</ele>
        <time>2024-04-15T16:01:01Z</time>
      </trkpt>
      <trkpt lat="45.984" lon="3.31285">
        <ele>311.4</ele>
        <time>2024-04-15T16:01:02Z</time>
      </trkpt>
      <trkpt lat="45.98404" lon="3.31282">
        <ele>311.4</ele>
        <time>2024-04-15T16:01:03Z</time>
      </trkpt>
      <trkpt lat="45.98409" lon="3.3128">
        <ele>311.4</ele>
        <time>2024-04-15T16:01:04Z</time>
      </trkpt>
      <trkpt lat="45.98413" lon="3.31277">
        <ele>311.4</ele>
        <time>2024-04-15T16:01:05Z</time>
      </trkpt>
      <trkpt lat="45.98417" lon="3.31274">
        <ele>311.4</ele>
        <time>2024-04-15T16:01:06Z</time>
      </trkpt>
      <trkpt lat="45.98422" lon="3.31272">
        <ele>311.4</ele>
        <time>2024-04-15T16:01:07Z</time>
      </trkpt>
      <trkpt lat="45.98426" lon="3.31269">
        <ele>311.4</ele>
        <time>2024-04-15T16:01:08Z</time>
      </trkpt>
      <trkpt lat="45.9843" lon="3.31267">
        <ele>311.4</ele>
        <time>2024-04-15T16:01:09Z</time>
      </trkpt>
      <trkpt lat="45.98434" lon="3.31264">
        <ele>311.4</ele>
        <time>2024-04-15T16:01:10Z</time>
      </trkpt>
      <trkpt lat="45.98438" lon="3.31261">
        <ele>311.6</ele>
        <time>2024-04-15T16:01:11Z</time>
      </trkpt>
      <trkpt lat="45.98442" lon="3.31259">
        <ele>311.6</ele>
        <time>2024-04-15T16:01:12Z</time>
      </trkpt>
      <trkpt lat="45.98446" lon="3.31257">
        <ele>311.6</ele>
        <time>2024-04-15T16:01:13Z</time>
      </trkpt>
      <trkpt lat="45.9845" lon="3.31254">
        <ele>311.6</ele>
        <time>2024-04-15T16:01:14Z</time>
      </trkpt>
      <trkpt lat="45.98454" lon="3.31252">
        <ele>311.6</ele>
        <time>2024-04-15T16:01:15Z</time>
      </trkpt>
      <trkpt lat="45.98458" lon="3.3125">
        <ele>311.6</ele>
        <time>2024-04-15T16:01:16Z</time>
      </trkpt>
      <trkpt lat="45.98462" lon="3.31247">
        <ele>311.8</ele>
        <time>2024-04-15T16:01:17Z</time>
      </trkpt>
      <trkpt lat="45.98465" lon="3.31245">
        <ele>311.8</ele>
        <time>2024-04-15T16:01:18Z</time>
      </trkpt>
      <trkpt lat="45.98469" lon="3.31243">
        <ele>311.8</ele>
        <time>2024-04-15T16:01:19Z</time>
      </trkpt>
      <trkpt lat="45.98473" lon="3.3124">
        <ele>311.8</ele>
        <time>2024-04-15T16:01:20Z</time>
      </trkpt>
      <trkpt lat="45.98477" lon="3.31238">
        <ele>312</ele>
        <time>2024-04-15T16:01:21Z</time>
      </trkpt>
      <trkpt lat="45.98481" lon="3.31236">
        <ele>312</ele>
        <time>2024-04-15T16:01:22Z</time>
      </trkpt>
      <trkpt lat="45.98485" lon="3.31233">
        <ele>312</ele>
        <time>2024-04-15T16:01:23Z</time>
      </trkpt>
      <trkpt lat="45.98488" lon="3.31231">
        <ele>312</ele>
        <time>2024-04-15T16:01:24Z</time>
      </trkpt>
      <trkpt lat="45.98492" lon="3.31229">
        <ele>312</ele>
        <time>2024-04-15T16:01:25Z</time>
      </trkpt>
      <trkpt lat="45.98495" lon="3.31227">
        <ele>312.2</ele>
        <time>2024-04-15T16:01:26Z</time>
      </trkpt>
      <trkpt lat="45.98498" lon="3.31225">
        <ele>312.2</ele>
        <time>2024-04-15T16:01:27Z</time>
      </trkpt>
      <trkpt lat="45.98502" lon="3.31223">
        <ele>312.2</ele>
        <time>2024-04-15T16:01:28Z</time>
      </trkpt>
      <trkpt lat="45.98505" lon="3.3122">
        <ele>312.2</ele>
        <time>2024-04-15T16:01:29Z</time>
      </trkpt>
      <trkpt lat="45.98509" lon="3.31218">
        <ele>312.4</ele>
        <time>2024-04-15T16:01:30Z</time>
      </trkpt>
      <trkpt lat="45.98513" lon="3.31215">
        <ele>312.4</ele>
        <time>2024-04-15T16:01:31Z</time>
      </trkpt>
      <trkpt lat="45.98517" lon="3.31213">
        <ele>312.4</ele>
        <time>2024-04-15T16:01:32Z</time>
      </trkpt>
      <trkpt lat="45.98522" lon="3.3121">
        <ele>312.4</ele>
        <time>2024-04-15T16:01:33Z</time>
      </trkpt>
      <trkpt lat="45.98526" lon="3.31207">
        <ele>312.4</ele>
        <time>2024-04-15T16:01:34Z</time>
      </trkpt>
      <trkpt lat="45.98531" lon="3.31204">
        <ele>312.4</ele>
        <time>2024-04-15T16:01:35Z</time>
      </trkpt>
      <trkpt lat="45.98535" lon="3.31201">
        <ele>312.4</ele>
        <time>2024-04-15T16:01:36Z</time>
      </trkpt>
      <trkpt lat="45.9854" lon="3.31198">
        <ele>312.4</ele>
        <time>2024-04-15T16:01:37Z</time>
      </trkpt>
      <trkpt lat="45.98544" lon="3.31195">
        <ele>312.6</ele>
        <time>2024-04-15T16:01:38Z</time>
      </trkpt>
      <trkpt lat="45.98549" lon="3.31193">
        <ele>312.6</ele>
        <time>2024-04-15T16:01:39Z</time>
      </trkpt>
      <trkpt lat="45.98553" lon="3.3119">
        <ele>312.6</ele>
        <time>2024-04-15T16:01:40Z</time>
      </trkpt>
      <trkpt lat="45.98557" lon="3.31187">
        <ele>312.6</ele>
        <time>2024-04-15T16:01:41Z</time>
      </trkpt>
      <trkpt lat="45.98561" lon="3.31185">
        <ele>312.8</ele>
        <time>2024-04-15T16:01:42Z</time>
      </trkpt>
      <trkpt lat="45.98565" lon="3.31182">
        <ele>312.8</ele>
        <time>2024-04-15T16:01:43Z</time>
      </trkpt>
      <trkpt lat="45.98569" lon="3.3118">
        <ele>312.8</ele>
        <time>2024-04-15T16:01:44Z</time>
      </trkpt>
      <trkpt lat="45.98573" lon="3.31177">
        <ele>312.8</ele>
        <time>2024-04-15T16:01:45Z</time>
      </trkpt>
      <trkpt lat="45.98578" lon="3.31174">
        <ele>313</ele>
        <time>2024-04-15T16:01:46Z</time>
      </trkpt>
      <trkpt lat="45.98582" lon="3.31172">
        <ele>313</ele>
        <time>2024-04-15T16:01:47Z</time>
      </trkpt>
      <trkpt lat="45.98586" lon="3.31169">
        <ele>313.2</ele>
        <time>2024-04-15T16:01:48Z</time>
      </trkpt>
      <trkpt lat="45.9859" lon="3.31166">
        <ele>313.2</ele>
        <time>2024-04-15T16:01:49Z</time>
      </trkpt>
      <trkpt lat="45.98595" lon="3.31164">
        <ele>313.4</ele>
        <time>2024-04-15T16:01:50Z</time>
      </trkpt>
      <trkpt lat="45.98599" lon="3.31161">
        <ele>313.4</ele>
        <time>2024-04-15T16:01:51Z</time>
      </trkpt>
      <trkpt lat="45.98603" lon="3.31159">
        <ele>313.6</ele>
        <time>2024-04-15T16:01:52Z</time>
      </trkpt>
      <trkpt lat="45.98607" lon="3.31156">
        <ele>313.6</ele>
        <time>2024-04-15T16:01:53Z</time>
      </trkpt>
      <trkpt lat="45.98611" lon="3.31153">
        <ele>313.8</ele>
        <time>2024-04-15T16:01:54Z</time>
      </trkpt>
      <trkpt lat="45.98615" lon="3.31151">
        <ele>314</ele>
        <time>2024-04-15T16:01:55Z</time>
      </trkpt>
      <trkpt lat="45.98619" lon="3.31148">
        <ele>314</ele>
        <time>2024-04-15T16:01:56Z</time>
      </trkpt>
      <trkpt lat="45.98623" lon="3.31146">
        <ele>314</ele>
        <time>2024-04-15T16:01:57Z</time>
      </trkpt>
      <trkpt lat="45.98627" lon="3.31144">
        <ele>314.2</ele>
        <time>2024-04-15T16:01:58Z</time>
      </trkpt>
      <trkpt lat="45.9863" lon="3.31141">
        <ele>314.2</ele>
        <time>2024-04-15T16:01:59Z</time>
      </trkpt>
      <trkpt lat="45.98634" lon="3.31139">
        <ele>314.4</ele>
        <time>2024-04-15T16:02:00Z</time>
      </trkpt>
      <trkpt lat="45.98638" lon="3.31137">
        <ele>314.4</ele>
        <time>2024-04-15T16:02:01Z</time>
      </trkpt>
      <trkpt lat="45.98642" lon="3.31134">
        <ele>314.6</ele>
        <time>2024-04-15T16:02:02Z</time>
      </trkpt>
      <trkpt lat="45.98645" lon="3.31132">
        <ele>314.6</ele>
        <time>2024-04-15T16:02:03Z</time>
      </trkpt>
      <trkpt lat="45.98649" lon="3.31129">
        <ele>314.6</ele>
        <time>2024-04-15T16:02:04Z</time>
      </trkpt>
      <trkpt lat="45.98652" lon="3.31127">
        <ele>314.8</ele>
        <time>2024-04-15T16:02:05Z</time>
      </trkpt>
      <trkpt lat="45.98656" lon="3.31124">
        <ele>314.8</ele>
        <time>2024-04-15T16:02:06Z</time>
      </trkpt>
      <trkpt lat="45.98659" lon="3.31122">
        <ele>315</ele>
        <time>2024-04-15T16:02:07Z</time>
      </trkpt>
      <trkpt lat="45.98663" lon="3.3112">
        <ele>315</ele>
        <time>2024-04-15T16:02:08Z</time>
      </trkpt>
      <trkpt lat="45.98666" lon="3.31117">
        <ele>315.2</ele>
        <time>2024-04-15T16:02:09Z</time>
      </trkpt>
      <trkpt lat="45.9867" lon="3.31115">
        <ele>315.2</ele>
        <time>2024-04-15T16:02:10Z</time>
      </trkpt>
      <trkpt lat="45.98673" lon="3.31113">
        <ele>315.4</ele>
        <time>2024-04-15T16:02:11Z</time>
      </trkpt>
      <trkpt lat="45.98677" lon="3.3111">
        <ele>315.4</ele>
        <time>2024-04-15T16:02:12Z</time>
      </trkpt>
      <trkpt lat="45.9868" lon="3.31108">
        <ele>315.6</ele>
        <time>2024-04-15T16:02:13Z</time>
      </trkpt>
      <trkpt lat="45.98684" lon="3.31106">
        <ele>315.6</ele>
        <time>2024-04-15T16:02:14Z</time>
      </trkpt>
      <trkpt lat="45.98687" lon="3.31103">
        <ele>315.8</ele>
        <time>2024-04-15T16:02:15Z</time>
      </trkpt>
      <trkpt lat="45.9869" lon="3.31101">
        <ele>315.8</ele>
        <time>2024-04-15T16:02:16Z</time>
      </trkpt>
      <trkpt lat="45.98694" lon="3.31099">
        <ele>316</ele>
        <time>2024-04-15T16:02:17Z</time>
      </trkpt>
      <trkpt lat="45.98697" lon="3.31096">
        <ele>316</ele>
        <time>2024-04-15T16:02:18Z</time>
      </trkpt>
      <trkpt lat="45.987" lon="3.31094">
        <ele>316.2</ele>
        <time>2024-04-15T16:02:19Z</time>
      </trkpt>
      <trkpt lat="45.98703" lon="3.31092">
        <ele>316.2</ele>
        <time>2024-04-15T16:02:20Z</time>
      </trkpt>
      <trkpt lat="45.98707" lon="3.3109">
        <ele>316.4</ele>
        <time>2024-04-15T16:02:21Z</time>
      </trkpt>
      <trkpt lat="45.9871" lon="3.31087">
        <ele>316.6</ele>
        <time>2024-04-15T16:02:22Z</time>
      </trkpt>
      <trkpt lat="45.98713" lon="3.31085">
        <ele>316.6</ele>
        <time>2024-04-15T16:02:23Z</time>
      </trkpt>
      <trkpt lat="45.98717" lon="3.31083">
        <ele>316.8</ele>
        <time>2024-04-15T16:02:24Z</time>
      </trkpt>
      <trkpt lat="45.9872" lon="3.31079">
        <ele>317</ele>
        <time>2024-04-15T16:02:25Z</time>
      </trkpt>
      <trkpt lat="45.98723" lon="3.31076">
        <ele>317</ele>
        <time>2024-04-15T16:02:26Z</time>
      </trkpt>
      <trkpt lat="45.98725" lon="3.31074">
        <ele>317.2</ele>
        <time>2024-04-15T16:02:27Z</time>
      </trkpt>
      <trkpt lat="45.98728" lon="3.3107">
        <ele>317.4</ele>
        <time>2024-04-15T16:02:28Z</time>
      </trkpt>
      <trkpt lat="45.98731" lon="3.31067">
        <ele>317.4</ele>
        <time>2024-04-15T16:02:29Z</time>
      </trkpt>
      <trkpt lat="45.98734" lon="3.31065">
        <ele>317.6</ele>
        <time>2024-04-15T16:02:30Z</time>
      </trkpt>
      <trkpt lat="45.98737" lon="3.31062">
        <ele>317.6</ele>
        <time>2024-04-15T16:02:31Z</time>
      </trkpt>
      <trkpt lat="45.9874" lon="3.31059">
        <ele>317.8</ele>
        <time>2024-04-15T16:02:32Z</time>
      </trkpt>
      <trkpt lat="45.98742" lon="3.31056">
        <ele>317.8</ele>
        <time>2024-04-15T16:02:33Z</time>
      </trkpt>
      <trkpt lat="45.98745" lon="3.31052">
        <ele>318</ele>
        <time>2024-04-15T16:02:34Z</time>
      </trkpt>
      <trkpt lat="45.98748" lon="3.31049">
        <ele>318.2</ele>
        <time>2024-04-15T16:02:35Z</time>
      </trkpt>
      <trkpt lat="45.98751" lon="3.31046">
        <ele>318.2</ele>
        <time>2024-04-15T16:02:36Z</time>
      </trkpt>
      <trkpt lat="45.98754" lon="3.31043">
        <ele>318.2</ele>
        <time>2024-04-15T16:02:37Z</time>
      </trkpt>
      <trkpt lat="45.98757" lon="3.3104">
        <ele>318.6</ele>
        <time>2024-04-15T16:02:38Z</time>
      </trkpt>
      <trkpt lat="45.98759" lon="3.31037">
        <ele>318.6</ele>
        <time>2024-04-15T16:02:39Z</time>
      </trkpt>
      <trkpt lat="45.98761" lon="3.31033">
        <ele>318.8</ele>
        <time>2024-04-15T16:02:40Z</time>
      </trkpt>
      <trkpt lat="45.98764" lon="3.3103">
        <ele>319</ele>
        <time>2024-04-15T16:02:41Z</time>
      </trkpt>
      <trkpt lat="45.98766" lon="3.31026">
        <ele>319.2</ele>
        <time>2024-04-15T16:02:42Z</time>
      </trkpt>
      <trkpt lat="45.98769" lon="3.31022">
        <ele>319.2</ele>
        <time>2024-04-15T16:02:43Z</time>
      </trkpt>
      <trkpt lat="45.98771" lon="3.31019">
        <ele>319.4</ele>
        <time>2024-04-15T16:02:44Z</time>
      </trkpt>
      <trkpt lat="45.98773" lon="3.31015">
        <ele>319.6</ele>
        <time>2024-04-15T16:02:45Z</time>
      </trkpt>
      <trkpt lat="45.98775" lon="3.31012">
        <ele>319.8</ele>
        <time>2024-04-15T16:02:46Z</time>
      </trkpt>
      <trkpt lat="45.98778" lon="3.31008">
        <ele>319.8</ele>
        <time>2024-04-15T16:02:47Z</time>
      </trkpt>
      <trkpt lat="45.9878" lon="3.31004">
        <ele>320</ele>
        <time>2024-04-15T16:02:48Z</time>
      </trkpt>
      <trkpt lat="45.98782" lon="3.31001">
        <ele>320.2</ele>
        <time>2024-04-15T16:02:49Z</time>
      </trkpt>
      <trkpt lat="45.98785" lon="3.30997">
        <ele>320.2</ele>
        <time>2024-04-15T16:02:50Z</time>
      </trkpt>
      <trkpt lat="45.98787" lon="3.30993">
        <ele>320.4</ele>
        <time>2024-04-15T16:02:51Z</time>
      </trkpt>
      <trkpt lat="45.98789" lon="3.3099">
        <ele>320.6</ele>
        <time>2024-04-15T16:02:52Z</time>
      </trkpt>
      <trkpt lat="45.98792" lon="3.30986">
        <ele>320.8</ele>
        <time>2024-04-15T16:02:53Z</time>
      </trkpt>
      <trkpt lat="45.98794" lon="3.30982">
        <ele>320.8</ele>
        <time>2024-04-15T16:02:54Z</time>
      </trkpt>
      <trkpt lat="45.98797" lon="3.30978">
        <ele>321</ele>
        <time>2024-04-15T16:02:55Z</time>
      </trkpt>
      <trkpt lat="45.98799" lon="3.30973">
        <ele>321</ele>
        <time>2024-04-15T16:02:56Z</time>
      </trkpt>
      <trkpt lat="45.98801" lon="3.30968">
        <ele>321.2</ele>
        <time>2024-04-15T16:02:57Z</time>
      </trkpt>
      <trkpt lat="45.98804" lon="3.30963">
        <ele>321.2</ele>
        <time>2024-04-15T16:02:58Z</time>
      </trkpt>
      <trkpt lat="45.98806" lon="3.30958">
        <ele>321.4</ele>
        <time>2024-04-15T16:02:59Z</time>
      </trkpt>
      <trkpt lat="45.98808" lon="3.30953">
        <ele>321.4</ele>
        <time>2024-04-15T16:03:00Z</time>
      </trkpt>
      <trkpt lat="45.9881" lon="3.30948">
        <ele>321.6</ele>
        <time>2024-04-15T16:03:01Z</time>
      </trkpt>
      <trkpt lat="45.98813" lon="3.30943">
        <ele>321.8</ele>
        <time>2024-04-15T16:03:02Z</time>
      </trkpt>
      <trkpt lat="45.98815" lon="3.30938">
        <ele>321.8</ele>
        <time>2024-04-15T16:03:03Z</time>
      </trkpt>
      <trkpt lat="45.98817" lon="3.30933">
        <ele>321.8</ele>
        <time>2024-04-15T16:03:04Z</time>
      </trkpt>
      <trkpt lat="45.98819" lon="3.30928">
        <ele>322</ele>
        <time>2024-04-15T16:03:05Z</time>
      </trkpt>
      <trkpt lat="45.98821" lon="3.30924">
        <ele>322</ele>
        <time>2024-04-15T16:03:06Z</time>
      </trkpt>
      <trkpt lat="45.98823" lon="3.30919">
        <ele>322.2</ele>
        <time>2024-04-15T16:03:07Z</time>
      </trkpt>
      <trkpt lat="45.98825" lon="3.30915">
        <ele>322.2</ele>
        <time>2024-04-15T16:03:08Z</time>
      </trkpt>
      <trkpt lat="45.98827" lon="3.30911">
        <ele>322.4</ele>
        <time>2024-04-15T16:03:09Z</time>
      </trkpt>
      <trkpt lat="45.98829" lon="3.30907">
        <ele>322.6</ele>
        <time>2024-04-15T16:03:10Z</time>
      </trkpt>
      <trkpt lat="45.98831" lon="3.30902">
        <ele>322.6</ele>
        <time>2024-04-15T16:03:11Z</time>
      </trkpt>
      <trkpt lat="45.98834" lon="3.30898">
        <ele>322.6</ele>
        <time>2024-04-15T16:03:12Z</time>
      </trkpt>
      <trkpt lat="45.98836" lon="3.30893">
        <ele>322.8</ele>
        <time>2024-04-15T16:03:13Z</time>
      </trkpt>
      <trkpt lat="45.98838" lon="3.30888">
        <ele>323</ele>
        <time>2024-04-15T16:03:14Z</time>
      </trkpt>
      <trkpt lat="45.9884" lon="3.30883">
        <ele>323</ele>
        <time>2024-04-15T16:03:15Z</time>
      </trkpt>
      <trkpt lat="45.98843" lon="3.30878">
        <ele>323.2</ele>
        <time>2024-04-15T16:03:16Z</time>
      </trkpt>
      <trkpt lat="45.98845" lon="3.30873">
        <ele>323.2</ele>
        <time>2024-04-15T16:03:17Z</time>
      </trkpt>
      <trkpt lat="45.98847" lon="3.30869">
        <ele>323.4</ele>
        <time>2024-04-15T16:03:18Z</time>
      </trkpt>
      <trkpt lat="45.98849" lon="3.30864">
        <ele>323.4</ele>
        <time>2024-04-15T16:03:19Z</time>
      </trkpt>
      <trkpt lat="45.98852" lon="3.30859">
        <ele>323.6</ele>
        <time>2024-04-15T16:03:20Z</time>
      </trkpt>
      <trkpt lat="45.98854" lon="3.30854">
        <ele>323.6</ele>
        <time>2024-04-15T16:03:21Z</time>
      </trkpt>
      <trkpt lat="45.98856" lon="3.30849">
        <ele>323.8</ele>
        <time>2024-04-15T16:03:22Z</time>
      </trkpt>
      <trkpt lat="45.98858" lon="3.30844">
        <ele>323.8</ele>
        <time>2024-04-15T16:03:23Z</time>
      </trkpt>
      <trkpt lat="45.98861" lon="3.30839">
        <ele>323.8</ele>
        <time>2024-04-15T16:03:24Z</time>
      </trkpt>
      <trkpt lat="45.98865" lon="3.30835">
        <ele>323.8</ele>
        <time>2024-04-15T16:03:25Z</time>
      </trkpt>
      <trkpt lat="45.98869" lon="3.30831">
        <ele>324</ele>
        <time>2024-04-15T16:03:26Z</time>
      </trkpt>
      <trkpt lat="45.98872" lon="3.30827">
        <ele>324</ele>
        <time>2024-04-15T16:03:27Z</time>
      </trkpt>
      <trkpt lat="45.98876" lon="3.30823">
        <ele>324.2</ele>
        <time>2024-04-15T16:03:28Z</time>
      </trkpt>
      <trkpt lat="45.98879" lon="3.30819">
        <ele>324.2</ele>
        <time>2024-04-15T16:03:29Z</time>
      </trkpt>
      <trkpt lat="45.98884" lon="3.30816">
        <ele>324.4</ele>
        <time>2024-04-15T16:03:30Z</time>
      </trkpt>
      <trkpt lat="45.98888" lon="3.30812">
        <ele>324.4</ele>
        <time>2024-04-15T16:03:31Z</time>
      </trkpt>
      <trkpt lat="45.98893" lon="3.30809">
        <ele>324.4</ele>
        <time>2024-04-15T16:03:32Z</time>
      </trkpt>
      <trkpt lat="45.98897" lon="3.30805">
        <ele>324.6</ele>
        <time>2024-04-15T16:03:33Z</time>
      </trkpt>
      <trkpt lat="45.98902" lon="3.30801">
        <ele>324.6</ele>
        <time>2024-04-15T16:03:34Z</time>
      </trkpt>
      <trkpt lat="45.98906" lon="3.30798">
        <ele>324.8</ele>
        <time>2024-04-15T16:03:35Z</time>
      </trkpt>
      <trkpt lat="45.98911" lon="3.30794">
        <ele>324.8</ele>
        <time>2024-04-15T16:03:36Z</time>
      </trkpt>
      <trkpt lat="45.98916" lon="3.3079">
        <ele>325</ele>
        <time>2024-04-15T16:03:37Z</time>
      </trkpt>
      <trkpt lat="45.9892" lon="3.30787">
        <ele>325</ele>
        <time>2024-04-15T16:03:38Z</time>
      </trkpt>
      <trkpt lat="45.98925" lon="3.30783">
        <ele>325.2</ele>
        <time>2024-04-15T16:03:39Z</time>
      </trkpt>
      <trkpt lat="45.98929" lon="3.30779">
        <ele>325.2</ele>
        <time>2024-04-15T16:03:40Z</time>
      </trkpt>
      <trkpt lat="45.98934" lon="3.30775">
        <ele>325.4</ele>
        <time>2024-04-15T16:03:41Z</time>
      </trkpt>
      <trkpt lat="45.98939" lon="3.30772">
        <ele>325.4</ele>
        <time>2024-04-15T16:03:42Z</time>
      </trkpt>
      <trkpt lat="45.98943" lon="3.30768">
        <ele>325.6</ele>
        <time>2024-04-15T16:03:43Z</time>
      </trkpt>
      <trkpt lat="45.98948" lon="3.30764">
        <ele>325.6</ele>
        <time>2024-04-15T16:03:44Z</time>
      </trkpt>
      <trkpt lat="45.98952" lon="3.30761">
        <ele>325.8</ele>
        <time>2024-04-15T16:03:45Z</time>
      </trkpt>
      <trkpt lat="45.98957" lon="3.30757">
        <ele>325.8</ele>
        <time>2024-04-15T16:03:46Z</time>
      </trkpt>
      <trkpt lat="45.98961" lon="3.30753">
        <ele>326</ele>
        <time>2024-04-15T16:03:47Z</time>
      </trkpt>
      <trkpt lat="45.98966" lon="3.3075">
        <ele>326</ele>
        <time>2024-04-15T16:03:48Z</time>
      </trkpt>
      <trkpt lat="45.98971" lon="3.30746">
        <ele>326.2</ele>
        <time>2024-04-15T16:03:49Z</time>
      </trkpt>
      <trkpt lat="45.98975" lon="3.30743">
        <ele>326.2</ele>
        <time>2024-04-15T16:03:50Z</time>
      </trkpt>
      <trkpt lat="45.9898" lon="3.30739">
        <ele>326.4</ele>
        <time>2024-04-15T16:03:51Z</time>
      </trkpt>
      <trkpt lat="45.98985" lon="3.30736">
        <ele>326.4</ele>
        <time>2024-04-15T16:03:52Z</time>
      </trkpt>
      <trkpt lat="45.98989" lon="3.30732">
        <ele>326.6</ele>
        <time>2024-04-15T16:03:53Z</time>
      </trkpt>
      <trkpt lat="45.98994" lon="3.30729">
        <ele>326.6</ele>
        <time>2024-04-15T16:03:54Z</time>
      </trkpt>
      <trkpt lat="45.98998" lon="3.30725">
        <ele>326.8</ele>
        <time>2024-04-15T16:03:55Z</time>
      </trkpt>
      <trkpt lat="45.99003" lon="3.30722">
        <ele>326.8</ele>
        <time>2024-04-15T16:03:56Z</time>
      </trkpt>
      <trkpt lat="45.99008" lon="3.30718">
        <ele>327</ele>
        <time>2024-04-15T16:03:57Z</time>
      </trkpt>
      <trkpt lat="45.99012" lon="3.30715">
        <ele>327.2</ele>
        <time>2024-04-15T16:03:58Z</time>
      </trkpt>
      <trkpt lat="45.99017" lon="3.30712">
        <ele>327.2</ele>
        <time>2024-04-15T16:03:59Z</time>
      </trkpt>
      <trkpt lat="45.99021" lon="3.30708">
        <ele>327.4</ele>
        <time>2024-04-15T16:04:00Z</time>
      </trkpt>
      <trkpt lat="45.99025" lon="3.30704">
        <ele>327.4</ele>
        <time>2024-04-15T16:04:01Z</time>
      </trkpt>
      <trkpt lat="45.99029" lon="3.30699">
        <ele>327.6</ele>
        <time>2024-04-15T16:04:02Z</time>
      </trkpt>
      <trkpt lat="45.99034" lon="3.30695">
        <ele>327.6</ele>
        <time>2024-04-15T16:04:03Z</time>
      </trkpt>
      <trkpt lat="45.99038" lon="3.30691">
        <ele>327.8</ele>
        <time>2024-04-15T16:04:04Z</time>
      </trkpt>
      <trkpt lat="45.99042" lon="3.30687">
        <ele>327.8</ele>
        <time>2024-04-15T16:04:05Z</time>
      </trkpt>
      <trkpt lat="45.99046" lon="3.30683">
        <ele>328</ele>
        <time>2024-04-15T16:04:06Z</time>
      </trkpt>
      <trkpt lat="45.99051" lon="3.30679">
        <ele>328</ele>
        <time>2024-04-15T16:04:07Z</time>
      </trkpt>
      <trkpt lat="45.99055" lon="3.30674">
        <ele>328.2</ele>
        <time>2024-04-15T16:04:08Z</time>
      </trkpt>
      <trkpt lat="45.9906" lon="3.3067">
        <ele>328.2</ele>
        <time>2024-04-15T16:04:09Z</time>
      </trkpt>
      <trkpt lat="45.99065" lon="3.30665">
        <ele>328.4</ele>
        <time>2024-04-15T16:04:10Z</time>
      </trkpt>
      <trkpt lat="45.99069" lon="3.30661">
        <ele>328.4</ele>
        <time>2024-04-15T16:04:11Z</time>
      </trkpt>
      <trkpt lat="45.99074" lon="3.30657">
        <ele>328.6</ele>
        <time>2024-04-15T16:04:12Z</time>
      </trkpt>
      <trkpt lat="45.99078" lon="3.30652">
        <ele>328.6</ele>
        <time>2024-04-15T16:04:13Z</time>
      </trkpt>
      <trkpt lat="45.99083" lon="3.30648">
        <ele>328.8</ele>
        <time>2024-04-15T16:04:14Z</time>
      </trkpt>
      <trkpt lat="45.99087" lon="3.30644">
        <ele>328.8</ele>
        <time>2024-04-15T16:04:15Z</time>
      </trkpt>
      <trkpt lat="45.99091" lon="3.3064">
        <ele>329</ele>
        <time>2024-04-15T16:04:16Z</time>
      </trkpt>
      <trkpt lat="45.99095" lon="3.30635">
        <ele>329</ele>
        <time>2024-04-15T16:04:17Z</time>
      </trkpt>
      <trkpt lat="45.99099" lon="3.30631">
        <ele>329.2</ele>
        <time>2024-04-15T16:04:18Z</time>
      </trkpt>
      <trkpt lat="45.99103" lon="3.30627">
        <ele>329.2</ele>
        <time>2024-04-15T16:04:19Z</time>
      </trkpt>
      <trkpt lat="45.99107" lon="3.30623">
        <ele>329.4</ele>
        <time>2024-04-15T16:04:20Z</time>
      </trkpt>
      <trkpt lat="45.99111" lon="3.30619">
        <ele>329.4</ele>
        <time>2024-04-15T16:04:21Z</time>
      </trkpt>
      <trkpt lat="45.99115" lon="3.30615">
        <ele>329.6</ele>
        <time>2024-04-15T16:04:22Z</time>
      </trkpt>
      <trkpt lat="45.99119" lon="3.30611">
        <ele>329.6</ele>
        <time>2024-04-15T16:04:23Z</time>
      </trkpt>
      <trkpt lat="45.99122" lon="3.30607">
        <ele>329.8</ele>
        <time>2024-04-15T16:04:24Z</time>
      </trkpt>
      <trkpt lat="45.99126" lon="3.30603">
        <ele>329.8</ele>
        <time>2024-04-15T16:04:25Z</time>
      </trkpt>
      <trkpt lat="45.9913" lon="3.30598">
        <ele>330</ele>
        <time>2024-04-15T16:04:26Z</time>
      </trkpt>
      <trkpt lat="45.99134" lon="3.30594">
        <ele>330</ele>
        <time>2024-04-15T16:04:27Z</time>
      </trkpt>
      <trkpt lat="45.99138" lon="3.3059">
        <ele>330</ele>
        <time>2024-04-15T16:04:28Z</time>
      </trkpt>
      <trkpt lat="45.99142" lon="3.30586">
        <ele>330.2</ele>
        <time>2024-04-15T16:04:29Z</time>
      </trkpt>
      <trkpt lat="45.99146" lon="3.30582">
        <ele>330.2</ele>
        <time>2024-04-15T16:04:30Z</time>
      </trkpt>
      <trkpt lat="45.9915" lon="3.30577">
        <ele>330.2</ele>
        <time>2024-04-15T16:04:31Z</time>
      </trkpt>
      <trkpt lat="45.99154" lon="3.30573">
        <ele>330.4</ele>
        <time>2024-04-15T16:04:32Z</time>
      </trkpt>
      <trkpt lat="45.99159" lon="3.30568">
        <ele>330.4</ele>
        <time>2024-04-15T16:04:33Z</time>
      </trkpt>
      <trkpt lat="45.99163" lon="3.30564">
        <ele>330.6</ele>
        <time>2024-04-15T16:04:34Z</time>
      </trkpt>
      <trkpt lat="45.99167" lon="3.3056">
        <ele>330.6</ele>
        <time>2024-04-15T16:04:35Z</time>
      </trkpt>
      <trkpt lat="45.99171" lon="3.30556">
        <ele>330.8</ele>
        <time>2024-04-15T16:04:36Z</time>
      </trkpt>
      <trkpt lat="45.99174" lon="3.3055">
        <ele>330.8</ele>
        <time>2024-04-15T16:04:37Z</time>
      </trkpt>
      <trkpt lat="45.99178" lon="3.30545">
        <ele>330.8</ele>
        <time>2024-04-15T16:04:38Z</time>
      </trkpt>
      <trkpt lat="45.99182" lon="3.3054">
        <ele>331</ele>
        <time>2024-04-15T16:04:39Z</time>
      </trkpt>
      <trkpt lat="45.99185" lon="3.30535">
        <ele>331</ele>
        <time>2024-04-15T16:04:40Z</time>
      </trkpt>
      <trkpt lat="45.99189" lon="3.3053">
        <ele>331</ele>
        <time>2024-04-15T16:04:41Z</time>
      </trkpt>
      <trkpt lat="45.99192" lon="3.30525">
        <ele>331.2</ele>
        <time>2024-04-15T16:04:42Z</time>
      </trkpt>
      <trkpt lat="45.99196" lon="3.3052">
        <ele>331.2</ele>
        <time>2024-04-15T16:04:43Z</time>
      </trkpt>
      <trkpt lat="45.99199" lon="3.30515">
        <ele>331.2</ele>
        <time>2024-04-15T16:04:44Z</time>
      </trkpt>
      <trkpt lat="45.99202" lon="3.30508">
        <ele>331.4</ele>
        <time>2024-04-15T16:04:45Z</time>
      </trkpt>
      <trkpt lat="45.99205" lon="3.30502">
        <ele>331.4</ele>
        <time>2024-04-15T16:04:46Z</time>
      </trkpt>
      <trkpt lat="45.99207" lon="3.30495">
        <ele>331.4</ele>
        <time>2024-04-15T16:04:47Z</time>
      </trkpt>
      <trkpt lat="45.99209" lon="3.30489">
        <ele>331.4</ele>
        <time>2024-04-15T16:04:48Z</time>
      </trkpt>
      <trkpt lat="45.99211" lon="3.30482">
        <ele>331.6</ele>
        <time>2024-04-15T16:04:49Z</time>
      </trkpt>
      <trkpt lat="45.99214" lon="3.30476">
        <ele>331.6</ele>
        <time>2024-04-15T16:04:50Z</time>
      </trkpt>
      <trkpt lat="45.99216" lon="3.3047">
        <ele>331.6</ele>
        <time>2024-04-15T16:04:51Z</time>
      </trkpt>
      <trkpt lat="45.99218" lon="3.30463">
        <ele>331.6</ele>
        <time>2024-04-15T16:04:52Z</time>
      </trkpt>
      <trkpt lat="45.9922" lon="3.30456">
        <ele>331.6</ele>
        <time>2024-04-15T16:04:53Z</time>
      </trkpt>
      <trkpt lat="45.99222" lon="3.30449">
        <ele>331.8</ele>
        <time>2024-04-15T16:04:54Z</time>
      </trkpt>
      <trkpt lat="45.99223" lon="3.30443">
        <ele>332</ele>
        <time>2024-04-15T16:04:55Z</time>
      </trkpt>
      <trkpt lat="45.99225" lon="3.30436">
        <ele>332</ele>
        <time>2024-04-15T16:04:56Z</time>
      </trkpt>
      <trkpt lat="45.99227" lon="3.30429">
        <ele>332.2</ele>
        <time>2024-04-15T16:04:57Z</time>
      </trkpt>
      <trkpt lat="45.99228" lon="3.30423">
        <ele>332.2</ele>
        <time>2024-04-15T16:04:58Z</time>
      </trkpt>
      <trkpt lat="45.9923" lon="3.30416">
        <ele>332.2</ele>
        <time>2024-04-15T16:04:59Z</time>
      </trkpt>
      <trkpt lat="45.99232" lon="3.30409">
        <ele>332.2</ele>
        <time>2024-04-15T16:05:00Z</time>
      </trkpt>
      <trkpt lat="45.99233" lon="3.30403">
        <ele>332.2</ele>
        <time>2024-04-15T16:05:01Z</time>
      </trkpt>
      <trkpt lat="45.99235" lon="3.30397">
        <ele>332.4</ele>
        <time>2024-04-15T16:05:02Z</time>
      </trkpt>
      <trkpt lat="45.99236" lon="3.3039">
        <ele>332.4</ele>
        <time>2024-04-15T16:05:03Z</time>
      </trkpt>
      <trkpt lat="45.99238" lon="3.30383">
        <ele>332.4</ele>
        <time>2024-04-15T16:05:04Z</time>
      </trkpt>
      <trkpt lat="45.9924" lon="3.30377">
        <ele>332.6</ele>
        <time>2024-04-15T16:05:05Z</time>
      </trkpt>
      <trkpt lat="45.99241" lon="3.3037">
        <ele>332.6</ele>
        <time>2024-04-15T16:05:06Z</time>
      </trkpt>
      <trkpt lat="45.99243" lon="3.30364">
        <ele>332.6</ele>
        <time>2024-04-15T16:05:07Z</time>
      </trkpt>
      <trkpt lat="45.99245" lon="3.30357">
        <ele>332.8</ele>
        <time>2024-04-15T16:05:08Z</time>
      </trkpt>
      <trkpt lat="45.99246" lon="3.3035">
        <ele>332.8</ele>
        <time>2024-04-15T16:05:09Z</time>
      </trkpt>
      <trkpt lat="45.99248" lon="3.30343">
        <ele>332.8</ele>
        <time>2024-04-15T16:05:10Z</time>
      </trkpt>
      <trkpt lat="45.9925" lon="3.30337">
        <ele>332.8</ele>
        <time>2024-04-15T16:05:11Z</time>
      </trkpt>
      <trkpt lat="45.99251" lon="3.3033">
        <ele>333</ele>
        <time>2024-04-15T16:05:12Z</time>
      </trkpt>
      <trkpt lat="45.99253" lon="3.30323">
        <ele>333</ele>
        <time>2024-04-15T16:05:13Z</time>
      </trkpt>
      <trkpt lat="45.99255" lon="3.30316">
        <ele>333</ele>
        <time>2024-04-15T16:05:14Z</time>
      </trkpt>
      <trkpt lat="45.99257" lon="3.30309">
        <ele>333.2</ele>
        <time>2024-04-15T16:05:15Z</time>
      </trkpt>
      <trkpt lat="45.99258" lon="3.30302">
        <ele>333.2</ele>
        <time>2024-04-15T16:05:16Z</time>
      </trkpt>
      <trkpt lat="45.9926" lon="3.30296">
        <ele>333.2</ele>
        <time>2024-04-15T16:05:17Z</time>
      </trkpt>
      <trkpt lat="45.99262" lon="3.30288">
        <ele>333.2</ele>
        <time>2024-04-15T16:05:18Z</time>
      </trkpt>
      <trkpt lat="45.99264" lon="3.30281">
        <ele>333.4</ele>
        <time>2024-04-15T16:05:19Z</time>
      </trkpt>
      <trkpt lat="45.99265" lon="3.30274">
        <ele>333.4</ele>
        <time>2024-04-15T16:05:20Z</time>
      </trkpt>
      <trkpt lat="45.99267" lon="3.30267">
        <ele>333.4</ele>
        <time>2024-04-15T16:05:21Z</time>
      </trkpt>
      <trkpt lat="45.99269" lon="3.3026">
        <ele>333.4</ele>
        <time>2024-04-15T16:05:22Z</time>
      </trkpt>
      <trkpt lat="45.99272" lon="3.30252">
        <ele>333.6</ele>
        <time>2024-04-15T16:05:23Z</time>
      </trkpt>
      <trkpt lat="45.99275" lon="3.30246">
        <ele>333.6</ele>
        <time>2024-04-15T16:05:24Z</time>
      </trkpt>
      <trkpt lat="45.99278" lon="3.3024">
        <ele>333.6</ele>
        <time>2024-04-15T16:05:25Z</time>
      </trkpt>
      <trkpt lat="45.99283" lon="3.30233">
        <ele>333.6</ele>
        <time>2024-04-15T16:05:26Z</time>
      </trkpt>
      <trkpt lat="45.99287" lon="3.30228">
        <ele>333.6</ele>
        <time>2024-04-15T16:05:27Z</time>
      </trkpt>
      <trkpt lat="45.99291" lon="3.30223">
        <ele>333.6</ele>
        <time>2024-04-15T16:05:28Z</time>
      </trkpt>
      <trkpt lat="45.99296" lon="3.30218">
        <ele>333.8</ele>
        <time>2024-04-15T16:05:29Z</time>
      </trkpt>
      <trkpt lat="45.99301" lon="3.30215">
        <ele>333.8</ele>
        <time>2024-04-15T16:05:30Z</time>
      </trkpt>
      <trkpt lat="45.99306" lon="3.30212">
        <ele>333.8</ele>
        <time>2024-04-15T16:05:31Z</time>
      </trkpt>
      <trkpt lat="45.99312" lon="3.30208">
        <ele>333.8</ele>
        <time>2024-04-15T16:05:32Z</time>
      </trkpt>
      <trkpt lat="45.99317" lon="3.30205">
        <ele>333.8</ele>
        <time>2024-04-15T16:05:33Z</time>
      </trkpt>
      <trkpt lat="45.99323" lon="3.30201">
        <ele>333.8</ele>
        <time>2024-04-15T16:05:34Z</time>
      </trkpt>
      <trkpt lat="45.99328" lon="3.30197">
        <ele>333.8</ele>
        <time>2024-04-15T16:05:35Z</time>
      </trkpt>
      <trkpt lat="45.99334" lon="3.30194">
        <ele>333.8</ele>
        <time>2024-04-15T16:05:36Z</time>
      </trkpt>
      <trkpt lat="45.99339" lon="3.30191">
        <ele>333.8</ele>
        <time>2024-04-15T16:05:37Z</time>
      </trkpt>
      <trkpt lat="45.99344" lon="3.30187">
        <ele>333.8</ele>
        <time>2024-04-15T16:05:38Z</time>
      </trkpt>
      <trkpt lat="45.9935" lon="3.30184">
        <ele>333.8</ele>
        <time>2024-04-15T16:05:39Z</time>
      </trkpt>
      <trkpt lat="45.99355" lon="3.3018">
        <ele>333.8</ele>
        <time>2024-04-15T16:05:40Z</time>
      </trkpt>
      <trkpt lat="45.9936" lon="3.30177">
        <ele>333.8</ele>
        <time>2024-04-15T16:05:41Z</time>
      </trkpt>
      <trkpt lat="45.99366" lon="3.30173">
        <ele>333.8</ele>
        <time>2024-04-15T16:05:42Z</time>
      </trkpt>
      <trkpt lat="45.99372" lon="3.3017">
        <ele>333.8</ele>
        <time>2024-04-15T16:05:43Z</time>
      </trkpt>
      <trkpt lat="45.99377" lon="3.30166">
        <ele>333.8</ele>
        <time>2024-04-15T16:05:44Z</time>
      </trkpt>
      <trkpt lat="45.99383" lon="3.30162">
        <ele>333.6</ele>
        <time>2024-04-15T16:05:45Z</time>
      </trkpt>
      <trkpt lat="45.99389" lon="3.30157">
        <ele>333.6</ele>
        <time>2024-04-15T16:05:46Z</time>
      </trkpt>
      <trkpt lat="45.99394" lon="3.3015">
        <ele>333.8</ele>
        <time>2024-04-15T16:05:47Z</time>
      </trkpt>
      <trkpt lat="45.99399" lon="3.30144">
        <ele>333.6</ele>
        <time>2024-04-15T16:05:48Z</time>
      </trkpt>
      <trkpt lat="45.99404" lon="3.30138">
        <ele>333.6</ele>
        <time>2024-04-15T16:05:49Z</time>
      </trkpt>
      <trkpt lat="45.99408" lon="3.30132">
        <ele>333.4</ele>
        <time>2024-04-15T16:05:50Z</time>
      </trkpt>
      <trkpt lat="45.99413" lon="3.30126">
        <ele>333.4</ele>
        <time>2024-04-15T16:05:51Z</time>
      </trkpt>
      <trkpt lat="45.99418" lon="3.3012">
        <ele>333.4</ele>
        <time>2024-04-15T16:05:52Z</time>
      </trkpt>
      <trkpt lat="45.99423" lon="3.30114">
        <ele>333.4</ele>
        <time>2024-04-15T16:05:53Z</time>
      </trkpt>
      <trkpt lat="45.99428" lon="3.30108">
        <ele>333.2</ele>
        <time>2024-04-15T16:05:54Z</time>
      </trkpt>
      <trkpt lat="45.99433" lon="3.30101">
        <ele>333.2</ele>
        <time>2024-04-15T16:05:55Z</time>
      </trkpt>
      <trkpt lat="45.99438" lon="3.30095">
        <ele>333.2</ele>
        <time>2024-04-15T16:05:56Z</time>
      </trkpt>
      <trkpt lat="45.99443" lon="3.30089">
        <ele>333</ele>
        <time>2024-04-15T16:05:57Z</time>
      </trkpt>
      <trkpt lat="45.99448" lon="3.30083">
        <ele>333</ele>
        <time>2024-04-15T16:05:58Z</time>
      </trkpt>
      <trkpt lat="45.99453" lon="3.30077">
        <ele>333</ele>
        <time>2024-04-15T16:05:59Z</time>
      </trkpt>
      <trkpt lat="45.99458" lon="3.3007">
        <ele>332.8</ele>
        <time>2024-04-15T16:06:00Z</time>
      </trkpt>
      <trkpt lat="45.99463" lon="3.30064">
        <ele>332.8</ele>
        <time>2024-04-15T16:06:01Z</time>
      </trkpt>
      <trkpt lat="45.99468" lon="3.30058">
        <ele>332.8</ele>
        <time>2024-04-15T16:06:02Z</time>
      </trkpt>
      <trkpt lat="45.99473" lon="3.30051">
        <ele>332.6</ele>
        <time>2024-04-15T16:06:03Z</time>
      </trkpt>
      <trkpt lat="45.99478" lon="3.30045">
        <ele>332.6</ele>
        <time>2024-04-15T16:06:04Z</time>
      </trkpt>
      <trkpt lat="45.99483" lon="3.30038">
        <ele>332.4</ele>
        <time>2024-04-15T16:06:05Z</time>
      </trkpt>
      <trkpt lat="45.99489" lon="3.30032">
        <ele>332.4</ele>
        <time>2024-04-15T16:06:06Z</time>
      </trkpt>
      <trkpt lat="45.99494" lon="3.30026">
        <ele>332.4</ele>
        <time>2024-04-15T16:06:07Z</time>
      </trkpt>
      <trkpt lat="45.99499" lon="3.30019">
        <ele>332.2</ele>
        <time>2024-04-15T16:06:08Z</time>
      </trkpt>
      <trkpt lat="45.99504" lon="3.30013">
        <ele>332.2</ele>
        <time>2024-04-15T16:06:09Z</time>
      </trkpt>
      <trkpt lat="45.99509" lon="3.30007">
        <ele>332</ele>
        <time>2024-04-15T16:06:10Z</time>
      </trkpt>
      <trkpt lat="45.99514" lon="3.30002">
        <ele>332</ele>
        <time>2024-04-15T16:06:11Z</time>
      </trkpt>
      <trkpt lat="45.9952" lon="3.29996">
        <ele>332</ele>
        <time>2024-04-15T16:06:12Z</time>
      </trkpt>
      <trkpt lat="45.99525" lon="3.29991">
        <ele>331.8</ele>
        <time>2024-04-15T16:06:13Z</time>
      </trkpt>
      <trkpt lat="45.9953" lon="3.29986">
        <ele>331.8</ele>
        <time>2024-04-15T16:06:14Z</time>
      </trkpt>
      <trkpt lat="45.99535" lon="3.29983">
        <ele>331.6</ele>
        <time>2024-04-15T16:06:15Z</time>
      </trkpt>
      <trkpt lat="45.9954" lon="3.29979">
        <ele>331.6</ele>
        <time>2024-04-15T16:06:16Z</time>
      </trkpt>
      <trkpt lat="45.99546" lon="3.29975">
        <ele>331.6</ele>
        <time>2024-04-15T16:06:17Z</time>
      </trkpt>
      <trkpt lat="45.99551" lon="3.29971">
        <ele>331.6</ele>
        <time>2024-04-15T16:06:18Z</time>
      </trkpt>
      <trkpt lat="45.99556" lon="3.29968">
        <ele>331.4</ele>
        <time>2024-04-15T16:06:19Z</time>
      </trkpt>
      <trkpt lat="45.99561" lon="3.29964">
        <ele>331.4</ele>
        <time>2024-04-15T16:06:20Z</time>
      </trkpt>
      <trkpt lat="45.99565" lon="3.29961">
        <ele>331.4</ele>
        <time>2024-04-15T16:06:21Z</time>
      </trkpt>
      <trkpt lat="45.9957" lon="3.29957">
        <ele>331.2</ele>
        <time>2024-04-15T16:06:22Z</time>
      </trkpt>
      <trkpt lat="45.99575" lon="3.29954">
        <ele>331.2</ele>
        <time>2024-04-15T16:06:23Z</time>
      </trkpt>
      <trkpt lat="45.99579" lon="3.2995">
        <ele>331.2</ele>
        <time>2024-04-15T16:06:24Z</time>
      </trkpt>
      <trkpt lat="45.99584" lon="3.29947">
        <ele>331.2</ele>
        <time>2024-04-15T16:06:25Z</time>
      </trkpt>
      <trkpt lat="45.99589" lon="3.29944">
        <ele>331.2</ele>
        <time>2024-04-15T16:06:26Z</time>
      </trkpt>
      <trkpt lat="45.99593" lon="3.2994">
        <ele>331.2</ele>
        <time>2024-04-15T16:06:27Z</time>
      </trkpt>
      <trkpt lat="45.99598" lon="3.29937">
        <ele>331.2</ele>
        <time>2024-04-15T16:06:28Z</time>
      </trkpt>
      <trkpt lat="45.99602" lon="3.29934">
        <ele>331.2</ele>
        <time>2024-04-15T16:06:29Z</time>
      </trkpt>
      <trkpt lat="45.99606" lon="3.29931">
        <ele>331.2</ele>
        <time>2024-04-15T16:06:30Z</time>
      </trkpt>
      <trkpt lat="45.9961" lon="3.29928">
        <ele>331.2</ele>
        <time>2024-04-15T16:06:31Z</time>
      </trkpt>
      <trkpt lat="45.99614" lon="3.29925">
        <ele>331.2</ele>
        <time>2024-04-15T16:06:32Z</time>
      </trkpt>
      <trkpt lat="45.99618" lon="3.29922">
        <ele>331.2</ele>
        <time>2024-04-15T16:06:33Z</time>
      </trkpt>
      <trkpt lat="45.99622" lon="3.29919">
        <ele>331.2</ele>
        <time>2024-04-15T16:06:34Z</time>
      </trkpt>
      <trkpt lat="45.99625" lon="3.29917">
        <ele>331.2</ele>
        <time>2024-04-15T16:06:35Z</time>
      </trkpt>
      <trkpt lat="45.99628" lon="3.29915">
        <ele>331.2</ele>
        <time>2024-04-15T16:06:36Z</time>
      </trkpt>
      <trkpt lat="45.99631" lon="3.29913">
        <ele>331.2</ele>
        <time>2024-04-15T16:06:37Z</time>
      </trkpt>
      <trkpt lat="45.99633" lon="3.29911">
        <ele>331.2</ele>
        <time>2024-04-15T16:06:38Z</time>
      </trkpt>
      <trkpt lat="45.99635" lon="3.2991">
        <ele>331.2</ele>
        <time>2024-04-15T16:06:39Z</time>
      </trkpt>
      <trkpt lat="45.99637" lon="3.29908">
        <ele>331.2</ele>
        <time>2024-04-15T16:06:40Z</time>
      </trkpt>
      <trkpt lat="45.99639" lon="3.29907">
        <ele>331.2</ele>
        <time>2024-04-15T16:06:41Z</time>
      </trkpt>
      <trkpt lat="45.9964" lon="3.29906">
        <ele>331</ele>
        <time>2024-04-15T16:06:42Z</time>
      </trkpt>
      <trkpt lat="45.99641" lon="3.29905">
        <ele>331</ele>
        <time>2024-04-15T16:06:43Z</time>
      </trkpt>
      <trkpt lat="45.99641" lon="3.29905">
        <ele>331</ele>
        <time>2024-04-15T16:06:44Z</time>
      </trkpt>
      <trkpt lat="45.99641" lon="3.29905">
        <ele>331</ele>
        <time>2024-04-15T16:06:45Z</time>
      </trkpt>
      <trkpt lat="45.99649" lon="3.29899">
        <ele>330.6</ele>
        <time>2024-04-15T16:06:56Z</time>
      </trkpt>
      <trkpt lat="45.99652" lon="3.29898">
        <ele>330.6</ele>
        <time>2024-04-15T16:06:57Z</time>
      </trkpt>
      <trkpt lat="45.99655" lon="3.2989">
        <ele>330.6</ele>
        <time>2024-04-15T16:06:58Z</time>
      </trkpt>
      <trkpt lat="45.99655" lon="3.29885">
        <ele>330.6</ele>
        <time>2024-04-15T16:06:59Z</time>
      </trkpt>
      <trkpt lat="45.99654" lon="3.29878">
        <ele>330.4</ele>
        <time>2024-04-15T16:07:00Z</time>
      </trkpt>
      <trkpt lat="45.99653" lon="3.29872">
        <ele>330.4</ele>
        <time>2024-04-15T16:07:01Z</time>
      </trkpt>
      <trkpt lat="45.99652" lon="3.29865">
        <ele>330.4</ele>
        <time>2024-04-15T16:07:02Z</time>
      </trkpt>
      <trkpt lat="45.99652" lon="3.2986">
        <ele>330.4</ele>
        <time>2024-04-15T16:07:03Z</time>
      </trkpt>
      <trkpt lat="45.99651" lon="3.29853">
        <ele>330.4</ele>
        <time>2024-04-15T16:07:04Z</time>
      </trkpt>
      <trkpt lat="45.9965" lon="3.29847">
        <ele>330.4</ele>
        <time>2024-04-15T16:07:05Z</time>
      </trkpt>
      <trkpt lat="45.9965" lon="3.2984">
        <ele>330.2</ele>
        <time>2024-04-15T16:07:06Z</time>
      </trkpt>
      <trkpt lat="45.99649" lon="3.29833">
        <ele>330.2</ele>
        <time>2024-04-15T16:07:07Z</time>
      </trkpt>
      <trkpt lat="45.99648" lon="3.29823">
        <ele>330.2</ele>
        <time>2024-04-15T16:07:08Z</time>
      </trkpt>
      <trkpt lat="45.99647" lon="3.29815">
        <ele>330.2</ele>
        <time>2024-04-15T16:07:09Z</time>
      </trkpt>
      <trkpt lat="45.99646" lon="3.29809">
        <ele>330.2</ele>
        <time>2024-04-15T16:07:10Z</time>
      </trkpt>
      <trkpt lat="45.99645" lon="3.29803">
        <ele>330.2</ele>
        <time>2024-04-15T16:07:11Z</time>
      </trkpt>
      <trkpt lat="45.99645" lon="3.29797">
        <ele>330.2</ele>
        <time>2024-04-15T16:07:12Z</time>
      </trkpt>
      <trkpt lat="45.99644" lon="3.2979">
        <ele>330.2</ele>
        <time>2024-04-15T16:07:13Z</time>
      </trkpt>
      <trkpt lat="45.99643" lon="3.29784">
        <ele>330.2</ele>
        <time>2024-04-15T16:07:14Z</time>
      </trkpt>
      <trkpt lat="45.99642" lon="3.29777">
        <ele>330.2</ele>
        <time>2024-04-15T16:07:15Z</time>
      </trkpt>
      <trkpt lat="45.99642" lon="3.29771">
        <ele>330.2</ele>
        <time>2024-04-15T16:07:16Z</time>
      </trkpt>
      <trkpt lat="45.99641" lon="3.29764">
        <ele>330.2</ele>
        <time>2024-04-15T16:07:17Z</time>
      </trkpt>
      <trkpt lat="45.9964" lon="3.29757">
        <ele>330.2</ele>
        <time>2024-04-15T16:07:18Z</time>
      </trkpt>
      <trkpt lat="45.99639" lon="3.2975">
        <ele>330.2</ele>
        <time>2024-04-15T16:07:19Z</time>
      </trkpt>
      <trkpt lat="45.99638" lon="3.29744">
        <ele>330.4</ele>
        <time>2024-04-15T16:07:20Z</time>
      </trkpt>
      <trkpt lat="45.99638" lon="3.29737">
        <ele>330.4</ele>
        <time>2024-04-15T16:07:21Z</time>
      </trkpt>
      <trkpt lat="45.99637" lon="3.2973">
        <ele>330.2</ele>
        <time>2024-04-15T16:07:22Z</time>
      </trkpt>
      <trkpt lat="45.99636" lon="3.29723">
        <ele>330.6</ele>
        <time>2024-04-15T16:07:23Z</time>
      </trkpt>
      <trkpt lat="45.99635" lon="3.29716">
        <ele>330.4</ele>
        <time>2024-04-15T16:07:24Z</time>
      </trkpt>
      <trkpt lat="45.99634" lon="3.29709">
        <ele>330.6</ele>
        <time>2024-04-15T16:07:25Z</time>
      </trkpt>
      <trkpt lat="45.99633" lon="3.29701">
        <ele>330.4</ele>
        <time>2024-04-15T16:07:26Z</time>
      </trkpt>
      <trkpt lat="45.99633" lon="3.29694">
        <ele>330.6</ele>
        <time>2024-04-15T16:07:27Z</time>
      </trkpt>
      <trkpt lat="45.99632" lon="3.29686">
        <ele>330.6</ele>
        <time>2024-04-15T16:07:28Z</time>
      </trkpt>
      <trkpt lat="45.99631" lon="3.29679">
        <ele>330.6</ele>
        <time>2024-04-15T16:07:29Z</time>
      </trkpt>
      <trkpt lat="45.9963" lon="3.29671">
        <ele>330.6</ele>
        <time>2024-04-15T16:07:30Z</time>
      </trkpt>
      <trkpt lat="45.99629" lon="3.29664">
        <ele>330.8</ele>
        <time>2024-04-15T16:07:31Z</time>
      </trkpt>
      <trkpt lat="45.99628" lon="3.29656">
        <ele>330.8</ele>
        <time>2024-04-15T16:07:32Z</time>
      </trkpt>
      <trkpt lat="45.99627" lon="3.29649">
        <ele>330.8</ele>
        <time>2024-04-15T16:07:33Z</time>
      </trkpt>
      <trkpt lat="45.99627" lon="3.29642">
        <ele>330.8</ele>
        <time>2024-04-15T16:07:34Z</time>
      </trkpt>
      <trkpt lat="45.99626" lon="3.29634">
        <ele>331</ele>
        <time>2024-04-15T16:07:35Z</time>
      </trkpt>
      <trkpt lat="45.99625" lon="3.29627">
        <ele>331</ele>
        <time>2024-04-15T16:07:36Z</time>
      </trkpt>
      <trkpt lat="45.99624" lon="3.2962">
        <ele>331</ele>
        <time>2024-04-15T16:07:37Z</time>
      </trkpt>
      <trkpt lat="45.99623" lon="3.29613">
        <ele>331</ele>
        <time>2024-04-15T16:07:38Z</time>
      </trkpt>
      <trkpt lat="45.99622" lon="3.29605">
        <ele>331.2</ele>
        <time>2024-04-15T16:07:39Z</time>
      </trkpt>
      <trkpt lat="45.99621" lon="3.29598">
        <ele>331.2</ele>
        <time>2024-04-15T16:07:40Z</time>
      </trkpt>
      <trkpt lat="45.9962" lon="3.29591">
        <ele>331.2</ele>
        <time>2024-04-15T16:07:41Z</time>
      </trkpt>
      <trkpt lat="45.99618" lon="3.29583">
        <ele>331.2</ele>
        <time>2024-04-15T16:07:42Z</time>
      </trkpt>
      <trkpt lat="45.99617" lon="3.29576">
        <ele>331.2</ele>
        <time>2024-04-15T16:07:43Z</time>
      </trkpt>
      <trkpt lat="45.99616" lon="3.29569">
        <ele>331.2</ele>
        <time>2024-04-15T16:07:44Z</time>
      </trkpt>
      <trkpt lat="45.99614" lon="3.29562">
        <ele>331.2</ele>
        <time>2024-04-15T16:07:45Z</time>
      </trkpt>
      <trkpt lat="45.99613" lon="3.29555">
        <ele>331.2</ele>
        <time>2024-04-15T16:07:46Z</time>
      </trkpt>
      <trkpt lat="45.99611" lon="3.29548">
        <ele>331.2</ele>
        <time>2024-04-15T16:07:47Z</time>
      </trkpt>
      <trkpt lat="45.9961" lon="3.2954">
        <ele>331.4</ele>
        <time>2024-04-15T16:07:48Z</time>
      </trkpt>
      <trkpt lat="45.99608" lon="3.29533">
        <ele>331.4</ele>
        <time>2024-04-15T16:07:49Z</time>
      </trkpt>
      <trkpt lat="45.99607" lon="3.29526">
        <ele>331.4</ele>
        <time>2024-04-15T16:07:50Z</time>
      </trkpt>
      <trkpt lat="45.99606" lon="3.29519">
        <ele>331.4</ele>
        <time>2024-04-15T16:07:51Z</time>
      </trkpt>
      <trkpt lat="45.99604" lon="3.29511">
        <ele>331.4</ele>
        <time>2024-04-15T16:07:52Z</time>
      </trkpt>
      <trkpt lat="45.99603" lon="3.29504">
        <ele>331.6</ele>
        <time>2024-04-15T16:07:53Z</time>
      </trkpt>
      <trkpt lat="45.99601" lon="3.29497">
        <ele>331.6</ele>
        <time>2024-04-15T16:07:54Z</time>
      </trkpt>
      <trkpt lat="45.996" lon="3.29489">
        <ele>331.6</ele>
        <time>2024-04-15T16:07:55Z</time>
      </trkpt>
      <trkpt lat="45.99598" lon="3.29481">
        <ele>331.6</ele>
        <time>2024-04-15T16:07:56Z</time>
      </trkpt>
      <trkpt lat="45.99597" lon="3.29474">
        <ele>331.6</ele>
        <time>2024-04-15T16:07:57Z</time>
      </trkpt>
      <trkpt lat="45.99595" lon="3.29466">
        <ele>331.6</ele>
        <time>2024-04-15T16:07:58Z</time>
      </trkpt>
      <trkpt lat="45.99593" lon="3.29458">
        <ele>331.6</ele>
        <time>2024-04-15T16:07:59Z</time>
      </trkpt>
      <trkpt lat="45.99592" lon="3.2945">
        <ele>331.6</ele>
        <time>2024-04-15T16:08:00Z</time>
      </trkpt>
      <trkpt lat="45.9959" lon="3.29442">
        <ele>331.6</ele>
        <time>2024-04-15T16:08:01Z</time>
      </trkpt>
      <trkpt lat="45.99589" lon="3.29434">
        <ele>331.6</ele>
        <time>2024-04-15T16:08:02Z</time>
      </trkpt>
      <trkpt lat="45.99587" lon="3.29426">
        <ele>331.6</ele>
        <time>2024-04-15T16:08:03Z</time>
      </trkpt>
      <trkpt lat="45.99586" lon="3.29418">
        <ele>331.6</ele>
        <time>2024-04-15T16:08:04Z</time>
      </trkpt>
      <trkpt lat="45.99584" lon="3.29411">
        <ele>331.6</ele>
        <time>2024-04-15T16:08:05Z</time>
      </trkpt>
      <trkpt lat="45.99583" lon="3.29403">
        <ele>331.6</ele>
        <time>2024-04-15T16:08:06Z</time>
      </trkpt>
      <trkpt lat="45.99581" lon="3.29396">
        <ele>331.6</ele>
        <time>2024-04-15T16:08:07Z</time>
      </trkpt>
      <trkpt lat="45.9958" lon="3.29388">
        <ele>331.8</ele>
        <time>2024-04-15T16:08:08Z</time>
      </trkpt>
      <trkpt lat="45.99578" lon="3.29381">
        <ele>331.8</ele>
        <time>2024-04-15T16:08:09Z</time>
      </trkpt>
      <trkpt lat="45.99577" lon="3.29373">
        <ele>331.8</ele>
        <time>2024-04-15T16:08:10Z</time>
      </trkpt>
      <trkpt lat="45.99576" lon="3.29365">
        <ele>331.8</ele>
        <time>2024-04-15T16:08:11Z</time>
      </trkpt>
      <trkpt lat="45.99574" lon="3.29358">
        <ele>331.8</ele>
        <time>2024-04-15T16:08:12Z</time>
      </trkpt>
      <trkpt lat="45.99573" lon="3.2935">
        <ele>331.8</ele>
        <time>2024-04-15T16:08:13Z</time>
      </trkpt>
      <trkpt lat="45.99571" lon="3.29343">
        <ele>332</ele>
        <time>2024-04-15T16:08:14Z</time>
      </trkpt>
      <trkpt lat="45.9957" lon="3.29335">
        <ele>332</ele>
        <time>2024-04-15T16:08:15Z</time>
      </trkpt>
      <trkpt lat="45.99569" lon="3.29328">
        <ele>332</ele>
        <time>2024-04-15T16:08:16Z</time>
      </trkpt>
      <trkpt lat="45.99567" lon="3.2932">
        <ele>332</ele>
        <time>2024-04-15T16:08:17Z</time>
      </trkpt>
      <trkpt lat="45.99566" lon="3.29312">
        <ele>332</ele>
        <time>2024-04-15T16:08:18Z</time>
      </trkpt>
      <trkpt lat="45.99564" lon="3.29304">
        <ele>332</ele>
        <time>2024-04-15T16:08:19Z</time>
      </trkpt>
      <trkpt lat="45.99563" lon="3.29296">
        <ele>332</ele>
        <time>2024-04-15T16:08:20Z</time>
      </trkpt>
      <trkpt lat="45.99561" lon="3.29288">
        <ele>332</ele>
        <time>2024-04-15T16:08:21Z</time>
      </trkpt>
      <trkpt lat="45.9956" lon="3.29281">
        <ele>332.2</ele>
        <time>2024-04-15T16:08:22Z</time>
      </trkpt>
      <trkpt lat="45.99558" lon="3.29273">
        <ele>332.2</ele>
        <time>2024-04-15T16:08:23Z</time>
      </trkpt>
      <trkpt lat="45.99557" lon="3.29265">
        <ele>332.2</ele>
        <time>2024-04-15T16:08:24Z</time>
      </trkpt>
      <trkpt lat="45.99555" lon="3.29257">
        <ele>332.2</ele>
        <time>2024-04-15T16:08:25Z</time>
      </trkpt>
      <trkpt lat="45.99554" lon="3.2925">
        <ele>332.2</ele>
        <time>2024-04-15T16:08:26Z</time>
      </trkpt>
      <trkpt lat="45.99552" lon="3.29242">
        <ele>332.2</ele>
        <time>2024-04-15T16:08:27Z</time>
      </trkpt>
      <trkpt lat="45.99551" lon="3.29235">
        <ele>332.2</ele>
        <time>2024-04-15T16:08:28Z</time>
      </trkpt>
      <trkpt lat="45.99549" lon="3.29227">
        <ele>332</ele>
        <time>2024-04-15T16:08:29Z</time>
      </trkpt>
      <trkpt lat="45.99548" lon="3.29218">
        <ele>332</ele>
        <time>2024-04-15T16:08:30Z</time>
      </trkpt>
      <trkpt lat="45.99546" lon="3.29211">
        <ele>332</ele>
        <time>2024-04-15T16:08:31Z</time>
      </trkpt>
      <trkpt lat="45.99545" lon="3.29204">
        <ele>332</ele>
        <time>2024-04-15T16:08:32Z</time>
      </trkpt>
      <trkpt lat="45.99544" lon="3.29199">
        <ele>332</ele>
        <time>2024-04-15T16:08:33Z</time>
      </trkpt>
      <trkpt lat="45.99544" lon="3.29199">
        <ele>332</ele>
        <time>2024-04-15T16:08:34Z</time>
      </trkpt>
      <trkpt lat="45.99542" lon="3.29181">
        <ele>332</ele>
        <time>2024-04-15T16:08:35Z</time>
      </trkpt>
      <trkpt lat="45.99541" lon="3.29174">
        <ele>332.4</ele>
        <time>2024-04-15T16:08:36Z</time>
      </trkpt>
      <trkpt lat="45.99539" lon="3.29166">
        <ele>332.2</ele>
        <time>2024-04-15T16:08:37Z</time>
      </trkpt>
      <trkpt lat="45.99538" lon="3.29158">
        <ele>332</ele>
        <time>2024-04-15T16:08:38Z</time>
      </trkpt>
      <trkpt lat="45.99537" lon="3.2915">
        <ele>332.2</ele>
        <time>2024-04-15T16:08:39Z</time>
      </trkpt>
      <trkpt lat="45.99535" lon="3.29142">
        <ele>332.2</ele>
        <time>2024-04-15T16:08:40Z</time>
      </trkpt>
      <trkpt lat="45.99534" lon="3.29133">
        <ele>332.2</ele>
        <time>2024-04-15T16:08:41Z</time>
      </trkpt>
      <trkpt lat="45.99532" lon="3.29124">
        <ele>332</ele>
        <time>2024-04-15T16:08:42Z</time>
      </trkpt>
      <trkpt lat="45.99531" lon="3.29117">
        <ele>332</ele>
        <time>2024-04-15T16:08:43Z</time>
      </trkpt>
      <trkpt lat="45.9953" lon="3.29109">
        <ele>332.2</ele>
        <time>2024-04-15T16:08:44Z</time>
      </trkpt>
      <trkpt lat="45.99529" lon="3.29102">
        <ele>332.2</ele>
        <time>2024-04-15T16:08:45Z</time>
      </trkpt>
      <trkpt lat="45.99527" lon="3.29094">
        <ele>332.2</ele>
        <time>2024-04-15T16:08:46Z</time>
      </trkpt>
      <trkpt lat="45.99526" lon="3.29086">
        <ele>332.2</ele>
        <time>2024-04-15T16:08:47Z</time>
      </trkpt>
      <trkpt lat="45.99525" lon="3.29078">
        <ele>332.2</ele>
        <time>2024-04-15T16:08:48Z</time>
      </trkpt>
      <trkpt lat="45.99524" lon="3.29071">
        <ele>332.2</ele>
        <time>2024-04-15T16:08:49Z</time>
      </trkpt>
      <trkpt lat="45.99523" lon="3.29064">
        <ele>332.2</ele>
        <time>2024-04-15T16:08:50Z</time>
      </trkpt>
      <trkpt lat="45.99521" lon="3.29057">
        <ele>332</ele>
        <time>2024-04-15T16:08:51Z</time>
      </trkpt>
      <trkpt lat="45.9952" lon="3.2905">
        <ele>332</ele>
        <time>2024-04-15T16:08:52Z</time>
      </trkpt>
      <trkpt lat="45.99519" lon="3.29042">
        <ele>332</ele>
        <time>2024-04-15T16:08:53Z</time>
      </trkpt>
      <trkpt lat="45.99517" lon="3.29034">
        <ele>332</ele>
        <time>2024-04-15T16:08:54Z</time>
      </trkpt>
      <trkpt lat="45.99516" lon="3.29027">
        <ele>331.8</ele>
        <time>2024-04-15T16:08:55Z</time>
      </trkpt>
      <trkpt lat="45.99515" lon="3.29019">
        <ele>331.8</ele>
        <time>2024-04-15T16:08:56Z</time>
      </trkpt>
      <trkpt lat="45.99514" lon="3.29011">
        <ele>331.8</ele>
        <time>2024-04-15T16:08:57Z</time>
      </trkpt>
      <trkpt lat="45.99512" lon="3.29004">
        <ele>332</ele>
        <time>2024-04-15T16:08:58Z</time>
      </trkpt>
      <trkpt lat="45.99511" lon="3.28996">
        <ele>332</ele>
        <time>2024-04-15T16:08:59Z</time>
      </trkpt>
      <trkpt lat="45.9951" lon="3.28988">
        <ele>332</ele>
        <time>2024-04-15T16:09:00Z</time>
      </trkpt>
      <trkpt lat="45.99508" lon="3.2898">
        <ele>332</ele>
        <time>2024-04-15T16:09:01Z</time>
      </trkpt>
      <trkpt lat="45.99507" lon="3.28972">
        <ele>332</ele>
        <time>2024-04-15T16:09:02Z</time>
      </trkpt>
      <trkpt lat="45.99506" lon="3.28964">
        <ele>332</ele>
        <time>2024-04-15T16:09:03Z</time>
      </trkpt>
      <trkpt lat="45.99504" lon="3.28956">
        <ele>332</ele>
        <time>2024-04-15T16:09:04Z</time>
      </trkpt>
      <trkpt lat="45.99503" lon="3.28948">
        <ele>332</ele>
        <time>2024-04-15T16:09:05Z</time>
      </trkpt>
      <trkpt lat="45.99502" lon="3.2894">
        <ele>332</ele>
        <time>2024-04-15T16:09:06Z</time>
      </trkpt>
      <trkpt lat="45.995" lon="3.28932">
        <ele>332</ele>
        <time>2024-04-15T16:09:07Z</time>
      </trkpt>
      <trkpt lat="45.99499" lon="3.28924">
        <ele>332</ele>
        <time>2024-04-15T16:09:08Z</time>
      </trkpt>
      <trkpt lat="45.99498" lon="3.28917">
        <ele>332</ele>
        <time>2024-04-15T16:09:09Z</time>
      </trkpt>
      <trkpt lat="45.99497" lon="3.28909">
        <ele>332</ele>
        <time>2024-04-15T16:09:10Z</time>
      </trkpt>
      <trkpt lat="45.99495" lon="3.28901">
        <ele>332</ele>
        <time>2024-04-15T16:09:11Z</time>
      </trkpt>
      <trkpt lat="45.99494" lon="3.28893">
        <ele>332</ele>
        <time>2024-04-15T16:09:12Z</time>
      </trkpt>
      <trkpt lat="45.99493" lon="3.28885">
        <ele>332</ele>
        <time>2024-04-15T16:09:13Z</time>
      </trkpt>
      <trkpt lat="45.99491" lon="3.28877">
        <ele>332</ele>
        <time>2024-04-15T16:09:14Z</time>
      </trkpt>
      <trkpt lat="45.9949" lon="3.28869">
        <ele>332</ele>
        <time>2024-04-15T16:09:15Z</time>
      </trkpt>
      <trkpt lat="45.99489" lon="3.28861">
        <ele>332</ele>
        <time>2024-04-15T16:09:16Z</time>
      </trkpt>
      <trkpt lat="45.99487" lon="3.28853">
        <ele>332</ele>
        <time>2024-04-15T16:09:17Z</time>
      </trkpt>
      <trkpt lat="45.99486" lon="3.28844">
        <ele>332</ele>
        <time>2024-04-15T16:09:18Z</time>
      </trkpt>
      <trkpt lat="45.99485" lon="3.28835">
        <ele>332</ele>
        <time>2024-04-15T16:09:19Z</time>
      </trkpt>
      <trkpt lat="45.99483" lon="3.28827">
        <ele>332</ele>
        <time>2024-04-15T16:09:20Z</time>
      </trkpt>
      <trkpt lat="45.99482" lon="3.28818">
        <ele>332</ele>
        <time>2024-04-15T16:09:21Z</time>
      </trkpt>
      <trkpt lat="45.9948" lon="3.2881">
        <ele>332</ele>
        <time>2024-04-15T16:09:22Z</time>
      </trkpt>
      <trkpt lat="45.99479" lon="3.28801">
        <ele>332.2</ele>
        <time>2024-04-15T16:09:23Z</time>
      </trkpt>
      <trkpt lat="45.99478" lon="3.28793">
        <ele>332</ele>
        <time>2024-04-15T16:09:24Z</time>
      </trkpt>
      <trkpt lat="45.99476" lon="3.28784">
        <ele>332</ele>
        <time>2024-04-15T16:09:25Z</time>
      </trkpt>
      <trkpt lat="45.99475" lon="3.28775">
        <ele>332</ele>
        <time>2024-04-15T16:09:26Z</time>
      </trkpt>
      <trkpt lat="45.99473" lon="3.28767">
        <ele>332</ele>
        <time>2024-04-15T16:09:27Z</time>
      </trkpt>
      <trkpt lat="45.99472" lon="3.28758">
        <ele>332</ele>
        <time>2024-04-15T16:09:28Z</time>
      </trkpt>
      <trkpt lat="45.9947" lon="3.28749">
        <ele>332</ele>
        <time>2024-04-15T16:09:29Z</time>
      </trkpt>
      <trkpt lat="45.99469" lon="3.28741">
        <ele>332.2</ele>
        <time>2024-04-15T16:09:30Z</time>
      </trkpt>
      <trkpt lat="45.99468" lon="3.28732">
        <ele>332.2</ele>
        <time>2024-04-15T16:09:31Z</time>
      </trkpt>
      <trkpt lat="45.99466" lon="3.28724">
        <ele>332.2</ele>
        <time>2024-04-15T16:09:32Z</time>
      </trkpt>
      <trkpt lat="45.99465" lon="3.28716">
        <ele>332.2</ele>
        <time>2024-04-15T16:09:33Z</time>
      </trkpt>
      <trkpt lat="45.99464" lon="3.28707">
        <ele>332.2</ele>
        <time>2024-04-15T16:09:34Z</time>
      </trkpt>
      <trkpt lat="45.99462" lon="3.28699">
        <ele>332.2</ele>
        <time>2024-04-15T16:09:35Z</time>
      </trkpt>
      <trkpt lat="45.99461" lon="3.28691">
        <ele>332.2</ele>
        <time>2024-04-15T16:09:36Z</time>
      </trkpt>
      <trkpt lat="45.9946" lon="3.28683">
        <ele>332.2</ele>
        <time>2024-04-15T16:09:37Z</time>
      </trkpt>
      <trkpt lat="45.99458" lon="3.28675">
        <ele>332.2</ele>
        <time>2024-04-15T16:09:38Z</time>
      </trkpt>
      <trkpt lat="45.99457" lon="3.28666">
        <ele>332.2</ele>
        <time>2024-04-15T16:09:39Z</time>
      </trkpt>
      <trkpt lat="45.99456" lon="3.28658">
        <ele>332.2</ele>
        <time>2024-04-15T16:09:40Z</time>
      </trkpt>
      <trkpt lat="45.99454" lon="3.2865">
        <ele>332.2</ele>
        <time>2024-04-15T16:09:41Z</time>
      </trkpt>
      <trkpt lat="45.99453" lon="3.28642">
        <ele>332.4</ele>
        <time>2024-04-15T16:09:42Z</time>
      </trkpt>
      <trkpt lat="45.99452" lon="3.28634">
        <ele>332.4</ele>
        <time>2024-04-15T16:09:43Z</time>
      </trkpt>
      <trkpt lat="45.9945" lon="3.28626">
        <ele>332.4</ele>
        <time>2024-04-15T16:09:44Z</time>
      </trkpt>
      <trkpt lat="45.99449" lon="3.28617">
        <ele>332.4</ele>
        <time>2024-04-15T16:09:45Z</time>
      </trkpt>
      <trkpt lat="45.99447" lon="3.28609">
        <ele>332.4</ele>
        <time>2024-04-15T16:09:46Z</time>
      </trkpt>
      <trkpt lat="45.99446" lon="3.286">
        <ele>332.4</ele>
        <time>2024-04-15T16:09:47Z</time>
      </trkpt>
      <trkpt lat="45.99445" lon="3.28593">
        <ele>332.4</ele>
        <time>2024-04-15T16:09:48Z</time>
      </trkpt>
      <trkpt lat="45.99443" lon="3.28585">
        <ele>332.4</ele>
        <time>2024-04-15T16:09:49Z</time>
      </trkpt>
      <trkpt lat="45.99442" lon="3.28577">
        <ele>332.4</ele>
        <time>2024-04-15T16:09:50Z</time>
      </trkpt>
      <trkpt lat="45.99441" lon="3.28569">
        <ele>332.4</ele>
        <time>2024-04-15T16:09:51Z</time>
      </trkpt>
      <trkpt lat="45.9944" lon="3.28561">
        <ele>332.4</ele>
        <time>2024-04-15T16:09:52Z</time>
      </trkpt>
      <trkpt lat="45.99438" lon="3.28553">
        <ele>332.6</ele>
        <time>2024-04-15T16:09:53Z</time>
      </trkpt>
      <trkpt lat="45.99437" lon="3.28545">
        <ele>332.4</ele>
        <time>2024-04-15T16:09:54Z</time>
      </trkpt>
      <trkpt lat="45.99436" lon="3.28537">
        <ele>332.6</ele>
        <time>2024-04-15T16:09:55Z</time>
      </trkpt>
      <trkpt lat="45.99434" lon="3.28529">
        <ele>332.6</ele>
        <time>2024-04-15T16:09:56Z</time>
      </trkpt>
      <trkpt lat="45.99433" lon="3.28521">
        <ele>332.6</ele>
        <time>2024-04-15T16:09:57Z</time>
      </trkpt>
      <trkpt lat="45.99432" lon="3.28514">
        <ele>332.6</ele>
        <time>2024-04-15T16:09:58Z</time>
      </trkpt>
      <trkpt lat="45.99431" lon="3.28506">
        <ele>332.6</ele>
        <time>2024-04-15T16:09:59Z</time>
      </trkpt>
      <trkpt lat="45.99429" lon="3.28498">
        <ele>332.6</ele>
        <time>2024-04-15T16:10:00Z</time>
      </trkpt>
      <trkpt lat="45.99428" lon="3.2849">
        <ele>332.6</ele>
        <time>2024-04-15T16:10:01Z</time>
      </trkpt>
      <trkpt lat="45.99427" lon="3.28482">
        <ele>332.6</ele>
        <time>2024-04-15T16:10:02Z</time>
      </trkpt>
      <trkpt lat="45.99425" lon="3.28474">
        <ele>332.6</ele>
        <time>2024-04-15T16:10:03Z</time>
      </trkpt>
      <trkpt lat="45.99424" lon="3.28466">
        <ele>332.6</ele>
        <time>2024-04-15T16:10:04Z</time>
      </trkpt>
      <trkpt lat="45.99423" lon="3.28458">
        <ele>332.6</ele>
        <time>2024-04-15T16:10:05Z</time>
      </trkpt>
      <trkpt lat="45.99421" lon="3.28449">
        <ele>332.6</ele>
        <time>2024-04-15T16:10:06Z</time>
      </trkpt>
      <trkpt lat="45.9942" lon="3.28441">
        <ele>332.6</ele>
        <time>2024-04-15T16:10:07Z</time>
      </trkpt>
      <trkpt lat="45.99419" lon="3.28433">
        <ele>332.6</ele>
        <time>2024-04-15T16:10:08Z</time>
      </trkpt>
      <trkpt lat="45.99417" lon="3.28425">
        <ele>332.6</ele>
        <time>2024-04-15T16:10:09Z</time>
      </trkpt>
      <trkpt lat="45.99416" lon="3.28417">
        <ele>332.6</ele>
        <time>2024-04-15T16:10:10Z</time>
      </trkpt>
      <trkpt lat="45.99415" lon="3.28409">
        <ele>332.6</ele>
        <time>2024-04-15T16:10:11Z</time>
      </trkpt>
      <trkpt lat="45.99413" lon="3.28401">
        <ele>332.6</ele>
        <time>2024-04-15T16:10:12Z</time>
      </trkpt>
      <trkpt lat="45.99412" lon="3.28393">
        <ele>332.6</ele>
        <time>2024-04-15T16:10:13Z</time>
      </trkpt>
      <trkpt lat="45.99411" lon="3.28386">
        <ele>332.6</ele>
        <time>2024-04-15T16:10:14Z</time>
      </trkpt>
      <trkpt lat="45.9941" lon="3.28379">
        <ele>332.6</ele>
        <time>2024-04-15T16:10:15Z</time>
      </trkpt>
      <trkpt lat="45.99409" lon="3.28371">
        <ele>332.6</ele>
        <time>2024-04-15T16:10:16Z</time>
      </trkpt>
      <trkpt lat="45.99407" lon="3.28364">
        <ele>332.6</ele>
        <time>2024-04-15T16:10:17Z</time>
      </trkpt>
      <trkpt lat="45.99406" lon="3.28356">
        <ele>332.6</ele>
        <time>2024-04-15T16:10:18Z</time>
      </trkpt>
      <trkpt lat="45.99405" lon="3.28349">
        <ele>332.8</ele>
        <time>2024-04-15T16:10:19Z</time>
      </trkpt>
      <trkpt lat="45.99404" lon="3.28341">
        <ele>332.8</ele>
        <time>2024-04-15T16:10:20Z</time>
      </trkpt>
      <trkpt lat="45.99402" lon="3.28333">
        <ele>332.8</ele>
        <time>2024-04-15T16:10:21Z</time>
      </trkpt>
      <trkpt lat="45.99401" lon="3.28326">
        <ele>332.8</ele>
        <time>2024-04-15T16:10:22Z</time>
      </trkpt>
      <trkpt lat="45.994" lon="3.28318">
        <ele>332.8</ele>
        <time>2024-04-15T16:10:23Z</time>
      </trkpt>
      <trkpt lat="45.99399" lon="3.2831">
        <ele>332.8</ele>
        <time>2024-04-15T16:10:24Z</time>
      </trkpt>
      <trkpt lat="45.99397" lon="3.28302">
        <ele>333</ele>
        <time>2024-04-15T16:10:25Z</time>
      </trkpt>
      <trkpt lat="45.99396" lon="3.28294">
        <ele>333</ele>
        <time>2024-04-15T16:10:26Z</time>
      </trkpt>
      <trkpt lat="45.99395" lon="3.28286">
        <ele>333</ele>
        <time>2024-04-15T16:10:27Z</time>
      </trkpt>
      <trkpt lat="45.99394" lon="3.28278">
        <ele>333</ele>
        <time>2024-04-15T16:10:28Z</time>
      </trkpt>
      <trkpt lat="45.99392" lon="3.2827">
        <ele>333</ele>
        <time>2024-04-15T16:10:29Z</time>
      </trkpt>
      <trkpt lat="45.99391" lon="3.28262">
        <ele>333</ele>
        <time>2024-04-15T16:10:30Z</time>
      </trkpt>
      <trkpt lat="45.9939" lon="3.28254">
        <ele>333.2</ele>
        <time>2024-04-15T16:10:31Z</time>
      </trkpt>
      <trkpt lat="45.99388" lon="3.28246">
        <ele>333.2</ele>
        <time>2024-04-15T16:10:32Z</time>
      </trkpt>
      <trkpt lat="45.99387" lon="3.28238">
        <ele>333.2</ele>
        <time>2024-04-15T16:10:33Z</time>
      </trkpt>
      <trkpt lat="45.99386" lon="3.2823">
        <ele>333.2</ele>
        <time>2024-04-15T16:10:34Z</time>
      </trkpt>
      <trkpt lat="45.99384" lon="3.28222">
        <ele>333.2</ele>
        <time>2024-04-15T16:10:35Z</time>
      </trkpt>
      <trkpt lat="45.99383" lon="3.28214">
        <ele>333.2</ele>
        <time>2024-04-15T16:10:36Z</time>
      </trkpt>
      <trkpt lat="45.99382" lon="3.28206">
        <ele>333.2</ele>
        <time>2024-04-15T16:10:37Z</time>
      </trkpt>
      <trkpt lat="45.99381" lon="3.28198">
        <ele>333.2</ele>
        <time>2024-04-15T16:10:38Z</time>
      </trkpt>
      <trkpt lat="45.99379" lon="3.28191">
        <ele>333.2</ele>
        <time>2024-04-15T16:10:39Z</time>
      </trkpt>
      <trkpt lat="45.99378" lon="3.28183">
        <ele>333.2</ele>
        <time>2024-04-15T16:10:40Z</time>
      </trkpt>
      <trkpt lat="45.99377" lon="3.28175">
        <ele>333.4</ele>
        <time>2024-04-15T16:10:41Z</time>
      </trkpt>
      <trkpt lat="45.99376" lon="3.28168">
        <ele>333.4</ele>
        <time>2024-04-15T16:10:42Z</time>
      </trkpt>
      <trkpt lat="45.99375" lon="3.2816">
        <ele>333.4</ele>
        <time>2024-04-15T16:10:43Z</time>
      </trkpt>
      <trkpt lat="45.99373" lon="3.28153">
        <ele>333.4</ele>
        <time>2024-04-15T16:10:44Z</time>
      </trkpt>
      <trkpt lat="45.99372" lon="3.28145">
        <ele>333.4</ele>
        <time>2024-04-15T16:10:45Z</time>
      </trkpt>
      <trkpt lat="45.99371" lon="3.28137">
        <ele>333.2</ele>
        <time>2024-04-15T16:10:46Z</time>
      </trkpt>
      <trkpt lat="45.99369" lon="3.28128">
        <ele>333.2</ele>
        <time>2024-04-15T16:10:47Z</time>
      </trkpt>
      <trkpt lat="45.99368" lon="3.2812">
        <ele>333.2</ele>
        <time>2024-04-15T16:10:48Z</time>
      </trkpt>
      <trkpt lat="45.99367" lon="3.28112">
        <ele>333.2</ele>
        <time>2024-04-15T16:10:49Z</time>
      </trkpt>
      <trkpt lat="45.99365" lon="3.28104">
        <ele>333.2</ele>
        <time>2024-04-15T16:10:50Z</time>
      </trkpt>
      <trkpt lat="45.99364" lon="3.28096">
        <ele>333.2</ele>
        <time>2024-04-15T16:10:51Z</time>
      </trkpt>
      <trkpt lat="45.99363" lon="3.28088">
        <ele>333.2</ele>
        <time>2024-04-15T16:10:52Z</time>
      </trkpt>
      <trkpt lat="45.99361" lon="3.28079">
        <ele>333.4</ele>
        <time>2024-04-15T16:10:53Z</time>
      </trkpt>
      <trkpt lat="45.9936" lon="3.28071">
        <ele>333.4</ele>
        <time>2024-04-15T16:10:54Z</time>
      </trkpt>
      <trkpt lat="45.99359" lon="3.28063">
        <ele>333.4</ele>
        <time>2024-04-15T16:10:55Z</time>
      </trkpt>
      <trkpt lat="45.99357" lon="3.28054">
        <ele>333.4</ele>
        <time>2024-04-15T16:10:56Z</time>
      </trkpt>
      <trkpt lat="45.99356" lon="3.28046">
        <ele>333.2</ele>
        <time>2024-04-15T16:10:57Z</time>
      </trkpt>
      <trkpt lat="45.99355" lon="3.28038">
        <ele>333.4</ele>
        <time>2024-04-15T16:10:58Z</time>
      </trkpt>
      <trkpt lat="45.99353" lon="3.2803">
        <ele>333.4</ele>
        <time>2024-04-15T16:10:59Z</time>
      </trkpt>
      <trkpt lat="45.99352" lon="3.28022">
        <ele>333.4</ele>
        <time>2024-04-15T16:11:00Z</time>
      </trkpt>
      <trkpt lat="45.99351" lon="3.28013">
        <ele>333.4</ele>
        <time>2024-04-15T16:11:01Z</time>
      </trkpt>
      <trkpt lat="45.99349" lon="3.28005">
        <ele>333.4</ele>
        <time>2024-04-15T16:11:02Z</time>
      </trkpt>
      <trkpt lat="45.99348" lon="3.27997">
        <ele>333.4</ele>
        <time>2024-04-15T16:11:03Z</time>
      </trkpt>
      <trkpt lat="45.99347" lon="3.27989">
        <ele>333.4</ele>
        <time>2024-04-15T16:11:04Z</time>
      </trkpt>
      <trkpt lat="45.99345" lon="3.27981">
        <ele>333.4</ele>
        <time>2024-04-15T16:11:05Z</time>
      </trkpt>
      <trkpt lat="45.99344" lon="3.27972">
        <ele>333.4</ele>
        <time>2024-04-15T16:11:06Z</time>
      </trkpt>
      <trkpt lat="45.99343" lon="3.27964">
        <ele>333.6</ele>
        <time>2024-04-15T16:11:07Z</time>
      </trkpt>
      <trkpt lat="45.99341" lon="3.27956">
        <ele>333.6</ele>
        <time>2024-04-15T16:11:08Z</time>
      </trkpt>
      <trkpt lat="45.9934" lon="3.27947">
        <ele>333.6</ele>
        <time>2024-04-15T16:11:09Z</time>
      </trkpt>
      <trkpt lat="45.99339" lon="3.27938">
        <ele>333.6</ele>
        <time>2024-04-15T16:11:10Z</time>
      </trkpt>
      <trkpt lat="45.99337" lon="3.2793">
        <ele>333.6</ele>
        <time>2024-04-15T16:11:11Z</time>
      </trkpt>
      <trkpt lat="45.99336" lon="3.27921">
        <ele>333.6</ele>
        <time>2024-04-15T16:11:12Z</time>
      </trkpt>
      <trkpt lat="45.99335" lon="3.27913">
        <ele>333.6</ele>
        <time>2024-04-15T16:11:13Z</time>
      </trkpt>
      <trkpt lat="45.99332" lon="3.27904">
        <ele>333.6</ele>
        <time>2024-04-15T16:11:14Z</time>
      </trkpt>
      <trkpt lat="45.9933" lon="3.27896">
        <ele>333.8</ele>
        <time>2024-04-15T16:11:15Z</time>
      </trkpt>
      <trkpt lat="45.99328" lon="3.27887">
        <ele>333.8</ele>
        <time>2024-04-15T16:11:16Z</time>
      </trkpt>
      <trkpt lat="45.99325" lon="3.27879">
        <ele>333.8</ele>
        <time>2024-04-15T16:11:17Z</time>
      </trkpt>
      <trkpt lat="45.99323" lon="3.2787">
        <ele>333.6</ele>
        <time>2024-04-15T16:11:18Z</time>
      </trkpt>
      <trkpt lat="45.99319" lon="3.27863">
        <ele>333.8</ele>
        <time>2024-04-15T16:11:19Z</time>
      </trkpt>
      <trkpt lat="45.99316" lon="3.27856">
        <ele>333.6</ele>
        <time>2024-04-15T16:11:20Z</time>
      </trkpt>
      <trkpt lat="45.99312" lon="3.27849">
        <ele>333.8</ele>
        <time>2024-04-15T16:11:21Z</time>
      </trkpt>
      <trkpt lat="45.99308" lon="3.27842">
        <ele>333.8</ele>
        <time>2024-04-15T16:11:22Z</time>
      </trkpt>
      <trkpt lat="45.99305" lon="3.27835">
        <ele>333.8</ele>
        <time>2024-04-15T16:11:23Z</time>
      </trkpt>
      <trkpt lat="45.99301" lon="3.27828">
        <ele>333.8</ele>
        <time>2024-04-15T16:11:24Z</time>
      </trkpt>
      <trkpt lat="45.99298" lon="3.27822">
        <ele>333.8</ele>
        <time>2024-04-15T16:11:25Z</time>
      </trkpt>
      <trkpt lat="45.99295" lon="3.27815">
        <ele>333.8</ele>
        <time>2024-04-15T16:11:26Z</time>
      </trkpt>
      <trkpt lat="45.99291" lon="3.27808">
        <ele>333.8</ele>
        <time>2024-04-15T16:11:27Z</time>
      </trkpt>
      <trkpt lat="45.99287" lon="3.27801">
        <ele>334</ele>
        <time>2024-04-15T16:11:28Z</time>
      </trkpt>
      <trkpt lat="45.99283" lon="3.27794">
        <ele>334</ele>
        <time>2024-04-15T16:11:29Z</time>
      </trkpt>
      <trkpt lat="45.99279" lon="3.27786">
        <ele>334</ele>
        <time>2024-04-15T16:11:30Z</time>
      </trkpt>
      <trkpt lat="45.99275" lon="3.27779">
        <ele>334</ele>
        <time>2024-04-15T16:11:31Z</time>
      </trkpt>
      <trkpt lat="45.99271" lon="3.27772">
        <ele>334</ele>
        <time>2024-04-15T16:11:32Z</time>
      </trkpt>
      <trkpt lat="45.99267" lon="3.27766">
        <ele>334.2</ele>
        <time>2024-04-15T16:11:33Z</time>
      </trkpt>
      <trkpt lat="45.99263" lon="3.27759">
        <ele>334.2</ele>
        <time>2024-04-15T16:11:34Z</time>
      </trkpt>
      <trkpt lat="45.99258" lon="3.27751">
        <ele>334.2</ele>
        <time>2024-04-15T16:11:35Z</time>
      </trkpt>
      <trkpt lat="45.99254" lon="3.27744">
        <ele>334.2</ele>
        <time>2024-04-15T16:11:36Z</time>
      </trkpt>
      <trkpt lat="45.9925" lon="3.27737">
        <ele>334.2</ele>
        <time>2024-04-15T16:11:37Z</time>
      </trkpt>
      <trkpt lat="45.99245" lon="3.2773">
        <ele>334.4</ele>
        <time>2024-04-15T16:11:38Z</time>
      </trkpt>
      <trkpt lat="45.99241" lon="3.27723">
        <ele>334.4</ele>
        <time>2024-04-15T16:11:39Z</time>
      </trkpt>
      <trkpt lat="45.99237" lon="3.27715">
        <ele>334.4</ele>
        <time>2024-04-15T16:11:40Z</time>
      </trkpt>
      <trkpt lat="45.99233" lon="3.27708">
        <ele>334.4</ele>
        <time>2024-04-15T16:11:41Z</time>
      </trkpt>
      <trkpt lat="45.99229" lon="3.27701">
        <ele>334.4</ele>
        <time>2024-04-15T16:11:42Z</time>
      </trkpt>
      <trkpt lat="45.99224" lon="3.27694">
        <ele>334.4</ele>
        <time>2024-04-15T16:11:43Z</time>
      </trkpt>
      <trkpt lat="45.9922" lon="3.27686">
        <ele>334.4</ele>
        <time>2024-04-15T16:11:44Z</time>
      </trkpt>
      <trkpt lat="45.99216" lon="3.27679">
        <ele>334.4</ele>
        <time>2024-04-15T16:11:45Z</time>
      </trkpt>
      <trkpt lat="45.99211" lon="3.27672">
        <ele>334.4</ele>
        <time>2024-04-15T16:11:46Z</time>
      </trkpt>
      <trkpt lat="45.99207" lon="3.27664">
        <ele>334.4</ele>
        <time>2024-04-15T16:11:47Z</time>
      </trkpt>
      <trkpt lat="45.99202" lon="3.27656">
        <ele>334.4</ele>
        <time>2024-04-15T16:11:48Z</time>
      </trkpt>
      <trkpt lat="45.99198" lon="3.2765">
        <ele>334.4</ele>
        <time>2024-04-15T16:11:49Z</time>
      </trkpt>
      <trkpt lat="45.99193" lon="3.27643">
        <ele>334.4</ele>
        <time>2024-04-15T16:11:50Z</time>
      </trkpt>
      <trkpt lat="45.99188" lon="3.27636">
        <ele>334.6</ele>
        <time>2024-04-15T16:11:51Z</time>
      </trkpt>
      <trkpt lat="45.99183" lon="3.27629">
        <ele>334.6</ele>
        <time>2024-04-15T16:11:52Z</time>
      </trkpt>
      <trkpt lat="45.99179" lon="3.27622">
        <ele>334.6</ele>
        <time>2024-04-15T16:11:53Z</time>
      </trkpt>
      <trkpt lat="45.99174" lon="3.27614">
        <ele>334.6</ele>
        <time>2024-04-15T16:11:54Z</time>
      </trkpt>
      <trkpt lat="45.99169" lon="3.27607">
        <ele>334.6</ele>
        <time>2024-04-15T16:11:55Z</time>
      </trkpt>
      <trkpt lat="45.99164" lon="3.27599">
        <ele>334.6</ele>
        <time>2024-04-15T16:11:56Z</time>
      </trkpt>
      <trkpt lat="45.99159" lon="3.27592">
        <ele>334.6</ele>
        <time>2024-04-15T16:11:57Z</time>
      </trkpt>
      <trkpt lat="45.99154" lon="3.27585">
        <ele>334.6</ele>
        <time>2024-04-15T16:11:58Z</time>
      </trkpt>
      <trkpt lat="45.9915" lon="3.27578">
        <ele>334.6</ele>
        <time>2024-04-15T16:11:59Z</time>
      </trkpt>
      <trkpt lat="45.99145" lon="3.27571">
        <ele>334.8</ele>
        <time>2024-04-15T16:12:00Z</time>
      </trkpt>
      <trkpt lat="45.9914" lon="3.27563">
        <ele>334.8</ele>
        <time>2024-04-15T16:12:01Z</time>
      </trkpt>
      <trkpt lat="45.99135" lon="3.27556">
        <ele>334.8</ele>
        <time>2024-04-15T16:12:02Z</time>
      </trkpt>
      <trkpt lat="45.99131" lon="3.27549">
        <ele>334.8</ele>
        <time>2024-04-15T16:12:03Z</time>
      </trkpt>
      <trkpt lat="45.99126" lon="3.27542">
        <ele>334.8</ele>
        <time>2024-04-15T16:12:04Z</time>
      </trkpt>
      <trkpt lat="45.99121" lon="3.27535">
        <ele>334.8</ele>
        <time>2024-04-15T16:12:05Z</time>
      </trkpt>
      <trkpt lat="45.99117" lon="3.27528">
        <ele>334.8</ele>
        <time>2024-04-15T16:12:06Z</time>
      </trkpt>
      <trkpt lat="45.99112" lon="3.27521">
        <ele>334.8</ele>
        <time>2024-04-15T16:12:07Z</time>
      </trkpt>
      <trkpt lat="45.99107" lon="3.27513">
        <ele>334.8</ele>
        <time>2024-04-15T16:12:08Z</time>
      </trkpt>
      <trkpt lat="45.99102" lon="3.27506">
        <ele>334.8</ele>
        <time>2024-04-15T16:12:09Z</time>
      </trkpt>
      <trkpt lat="45.99097" lon="3.27498">
        <ele>334.8</ele>
        <time>2024-04-15T16:12:10Z</time>
      </trkpt>
      <trkpt lat="45.99092" lon="3.27491">
        <ele>334.8</ele>
        <time>2024-04-15T16:12:11Z</time>
      </trkpt>
      <trkpt lat="45.99087" lon="3.27483">
        <ele>335</ele>
        <time>2024-04-15T16:12:12Z</time>
      </trkpt>
      <trkpt lat="45.99083" lon="3.27476">
        <ele>335</ele>
        <time>2024-04-15T16:12:13Z</time>
      </trkpt>
      <trkpt lat="45.99078" lon="3.27469">
        <ele>335</ele>
        <time>2024-04-15T16:12:14Z</time>
      </trkpt>
      <trkpt lat="45.99073" lon="3.27462">
        <ele>335</ele>
        <time>2024-04-15T16:12:15Z</time>
      </trkpt>
      <trkpt lat="45.99068" lon="3.27455">
        <ele>335</ele>
        <time>2024-04-15T16:12:16Z</time>
      </trkpt>
      <trkpt lat="45.99064" lon="3.27448">
        <ele>335</ele>
        <time>2024-04-15T16:12:17Z</time>
      </trkpt>
      <trkpt lat="45.99058" lon="3.27441">
        <ele>335</ele>
        <time>2024-04-15T16:12:18Z</time>
      </trkpt>
      <trkpt lat="45.99053" lon="3.27435">
        <ele>334.8</ele>
        <time>2024-04-15T16:12:19Z</time>
      </trkpt>
      <trkpt lat="45.99048" lon="3.27428">
        <ele>334.8</ele>
        <time>2024-04-15T16:12:20Z</time>
      </trkpt>
      <trkpt lat="45.99043" lon="3.27422">
        <ele>334.8</ele>
        <time>2024-04-15T16:12:21Z</time>
      </trkpt>
      <trkpt lat="45.99038" lon="3.27416">
        <ele>334.6</ele>
        <time>2024-04-15T16:12:22Z</time>
      </trkpt>
      <trkpt lat="45.99033" lon="3.27409">
        <ele>334.4</ele>
        <time>2024-04-15T16:12:23Z</time>
      </trkpt>
      <trkpt lat="45.99028" lon="3.27403">
        <ele>334.6</ele>
        <time>2024-04-15T16:12:24Z</time>
      </trkpt>
      <trkpt lat="45.99023" lon="3.27396">
        <ele>334.6</ele>
        <time>2024-04-15T16:12:25Z</time>
      </trkpt>
      <trkpt lat="45.99018" lon="3.2739">
        <ele>334.4</ele>
        <time>2024-04-15T16:12:26Z</time>
      </trkpt>
      <trkpt lat="45.99013" lon="3.27384">
        <ele>334.4</ele>
        <time>2024-04-15T16:12:27Z</time>
      </trkpt>
      <trkpt lat="45.99008" lon="3.27377">
        <ele>334.4</ele>
        <time>2024-04-15T16:12:28Z</time>
      </trkpt>
      <trkpt lat="45.99003" lon="3.27371">
        <ele>334.4</ele>
        <time>2024-04-15T16:12:29Z</time>
      </trkpt>
      <trkpt lat="45.98997" lon="3.27365">
        <ele>334.4</ele>
        <time>2024-04-15T16:12:30Z</time>
      </trkpt>
      <trkpt lat="45.98993" lon="3.27358">
        <ele>334.4</ele>
        <time>2024-04-15T16:12:31Z</time>
      </trkpt>
      <trkpt lat="45.98988" lon="3.27352">
        <ele>334.4</ele>
        <time>2024-04-15T16:12:32Z</time>
      </trkpt>
      <trkpt lat="45.98982" lon="3.27346">
        <ele>334.4</ele>
        <time>2024-04-15T16:12:33Z</time>
      </trkpt>
      <trkpt lat="45.98978" lon="3.2734">
        <ele>334.2</ele>
        <time>2024-04-15T16:12:34Z</time>
      </trkpt>
      <trkpt lat="45.98973" lon="3.27333">
        <ele>334.2</ele>
        <time>2024-04-15T16:12:35Z</time>
      </trkpt>
      <trkpt lat="45.98968" lon="3.27327">
        <ele>334.2</ele>
        <time>2024-04-15T16:12:36Z</time>
      </trkpt>
      <trkpt lat="45.98963" lon="3.27321">
        <ele>334</ele>
        <time>2024-04-15T16:12:37Z</time>
      </trkpt>
      <trkpt lat="45.98958" lon="3.27315">
        <ele>334</ele>
        <time>2024-04-15T16:12:38Z</time>
      </trkpt>
      <trkpt lat="45.98954" lon="3.27309">
        <ele>333.8</ele>
        <time>2024-04-15T16:12:39Z</time>
      </trkpt>
      <trkpt lat="45.98949" lon="3.27303">
        <ele>333.8</ele>
        <time>2024-04-15T16:12:40Z</time>
      </trkpt>
      <trkpt lat="45.98944" lon="3.27298">
        <ele>333.8</ele>
        <time>2024-04-15T16:12:41Z</time>
      </trkpt>
      <trkpt lat="45.98939" lon="3.27292">
        <ele>333.8</ele>
        <time>2024-04-15T16:12:42Z</time>
      </trkpt>
      <trkpt lat="45.98935" lon="3.27286">
        <ele>333.8</ele>
        <time>2024-04-15T16:12:43Z</time>
      </trkpt>
      <trkpt lat="45.9893" lon="3.2728">
        <ele>333.8</ele>
        <time>2024-04-15T16:12:44Z</time>
      </trkpt>
      <trkpt lat="45.98925" lon="3.27274">
        <ele>333.8</ele>
        <time>2024-04-15T16:12:45Z</time>
      </trkpt>
      <trkpt lat="45.9892" lon="3.27268">
        <ele>333.6</ele>
        <time>2024-04-15T16:12:46Z</time>
      </trkpt>
      <trkpt lat="45.98916" lon="3.27262">
        <ele>333.6</ele>
        <time>2024-04-15T16:12:47Z</time>
      </trkpt>
      <trkpt lat="45.98911" lon="3.27255">
        <ele>333.6</ele>
        <time>2024-04-15T16:12:48Z</time>
      </trkpt>
      <trkpt lat="45.98906" lon="3.27249">
        <ele>333.8</ele>
        <time>2024-04-15T16:12:49Z</time>
      </trkpt>
      <trkpt lat="45.98901" lon="3.27243">
        <ele>333.8</ele>
        <time>2024-04-15T16:12:50Z</time>
      </trkpt>
      <trkpt lat="45.98896" lon="3.27237">
        <ele>333.8</ele>
        <time>2024-04-15T16:12:51Z</time>
      </trkpt>
      <trkpt lat="45.98891" lon="3.27231">
        <ele>333.8</ele>
        <time>2024-04-15T16:12:52Z</time>
      </trkpt>
      <trkpt lat="45.98886" lon="3.27225">
        <ele>333.8</ele>
        <time>2024-04-15T16:12:53Z</time>
      </trkpt>
      <trkpt lat="45.98881" lon="3.27219">
        <ele>333.8</ele>
        <time>2024-04-15T16:12:54Z</time>
      </trkpt>
      <trkpt lat="45.98877" lon="3.27213">
        <ele>333.8</ele>
        <time>2024-04-15T16:12:55Z</time>
      </trkpt>
      <trkpt lat="45.98872" lon="3.27206">
        <ele>333.8</ele>
        <time>2024-04-15T16:12:56Z</time>
      </trkpt>
      <trkpt lat="45.98867" lon="3.272">
        <ele>333.8</ele>
        <time>2024-04-15T16:12:57Z</time>
      </trkpt>
      <trkpt lat="45.98862" lon="3.27194">
        <ele>333.8</ele>
        <time>2024-04-15T16:12:58Z</time>
      </trkpt>
      <trkpt lat="45.98857" lon="3.27188">
        <ele>333.8</ele>
        <time>2024-04-15T16:12:59Z</time>
      </trkpt>
      <trkpt lat="45.98852" lon="3.27182">
        <ele>333.8</ele>
        <time>2024-04-15T16:13:00Z</time>
      </trkpt>
      <trkpt lat="45.98847" lon="3.27176">
        <ele>333.8</ele>
        <time>2024-04-15T16:13:01Z</time>
      </trkpt>
      <trkpt lat="45.98843" lon="3.2717">
        <ele>333.6</ele>
        <time>2024-04-15T16:13:02Z</time>
      </trkpt>
      <trkpt lat="45.98838" lon="3.27164">
        <ele>333.6</ele>
        <time>2024-04-15T16:13:03Z</time>
      </trkpt>
      <trkpt lat="45.98833" lon="3.27158">
        <ele>333.8</ele>
        <time>2024-04-15T16:13:04Z</time>
      </trkpt>
      <trkpt lat="45.98829" lon="3.27152">
        <ele>333.8</ele>
        <time>2024-04-15T16:13:05Z</time>
      </trkpt>
      <trkpt lat="45.98824" lon="3.27146">
        <ele>334.2</ele>
        <time>2024-04-15T16:13:06Z</time>
      </trkpt>
      <trkpt lat="45.9882" lon="3.27141">
        <ele>334</ele>
        <time>2024-04-15T16:13:07Z</time>
      </trkpt>
      <trkpt lat="45.98815" lon="3.27135">
        <ele>334</ele>
        <time>2024-04-15T16:13:08Z</time>
      </trkpt>
      <trkpt lat="45.9881" lon="3.27129">
        <ele>334</ele>
        <time>2024-04-15T16:13:09Z</time>
      </trkpt>
      <trkpt lat="45.98806" lon="3.27124">
        <ele>334.2</ele>
        <time>2024-04-15T16:13:10Z</time>
      </trkpt>
      <trkpt lat="45.98801" lon="3.27118">
        <ele>334.2</ele>
        <time>2024-04-15T16:13:11Z</time>
      </trkpt>
      <trkpt lat="45.98796" lon="3.27112">
        <ele>334.2</ele>
        <time>2024-04-15T16:13:12Z</time>
      </trkpt>
      <trkpt lat="45.98791" lon="3.27106">
        <ele>334.2</ele>
        <time>2024-04-15T16:13:13Z</time>
      </trkpt>
      <trkpt lat="45.98787" lon="3.27101">
        <ele>334.2</ele>
        <time>2024-04-15T16:13:14Z</time>
      </trkpt>
      <trkpt lat="45.98782" lon="3.27095">
        <ele>334.4</ele>
        <time>2024-04-15T16:13:15Z</time>
      </trkpt>
      <trkpt lat="45.98778" lon="3.2709">
        <ele>334.4</ele>
        <time>2024-04-15T16:13:16Z</time>
      </trkpt>
      <trkpt lat="45.98773" lon="3.27084">
        <ele>334.4</ele>
        <time>2024-04-15T16:13:17Z</time>
      </trkpt>
      <trkpt lat="45.98769" lon="3.27079">
        <ele>334.4</ele>
        <time>2024-04-15T16:13:18Z</time>
      </trkpt>
      <trkpt lat="45.98764" lon="3.27073">
        <ele>334.6</ele>
        <time>2024-04-15T16:13:19Z</time>
      </trkpt>
      <trkpt lat="45.98759" lon="3.27068">
        <ele>334.6</ele>
        <time>2024-04-15T16:13:20Z</time>
      </trkpt>
      <trkpt lat="45.98755" lon="3.27063">
        <ele>334.6</ele>
        <time>2024-04-15T16:13:21Z</time>
      </trkpt>
      <trkpt lat="45.98751" lon="3.27057">
        <ele>334.8</ele>
        <time>2024-04-15T16:13:22Z</time>
      </trkpt>
      <trkpt lat="45.98746" lon="3.27052">
        <ele>334.8</ele>
        <time>2024-04-15T16:13:23Z</time>
      </trkpt>
      <trkpt lat="45.98742" lon="3.27047">
        <ele>334.8</ele>
        <time>2024-04-15T16:13:24Z</time>
      </trkpt>
      <trkpt lat="45.98737" lon="3.27041">
        <ele>334.8</ele>
        <time>2024-04-15T16:13:25Z</time>
      </trkpt>
      <trkpt lat="45.98733" lon="3.27036">
        <ele>334.8</ele>
        <time>2024-04-15T16:13:26Z</time>
      </trkpt>
      <trkpt lat="45.98729" lon="3.27031">
        <ele>335</ele>
        <time>2024-04-15T16:13:27Z</time>
      </trkpt>
      <trkpt lat="45.98725" lon="3.27026">
        <ele>335</ele>
        <time>2024-04-15T16:13:28Z</time>
      </trkpt>
      <trkpt lat="45.98721" lon="3.2702">
        <ele>335</ele>
        <time>2024-04-15T16:13:29Z</time>
      </trkpt>
      <trkpt lat="45.98717" lon="3.27014">
        <ele>335</ele>
        <time>2024-04-15T16:13:30Z</time>
      </trkpt>
      <trkpt lat="45.98714" lon="3.27009">
        <ele>335.2</ele>
        <time>2024-04-15T16:13:31Z</time>
      </trkpt>
      <trkpt lat="45.9871" lon="3.27004">
        <ele>335.2</ele>
        <time>2024-04-15T16:13:32Z</time>
      </trkpt>
      <trkpt lat="45.98706" lon="3.26999">
        <ele>335.2</ele>
        <time>2024-04-15T16:13:33Z</time>
      </trkpt>
      <trkpt lat="45.98702" lon="3.26993">
        <ele>335.4</ele>
        <time>2024-04-15T16:13:34Z</time>
      </trkpt>
      <trkpt lat="45.98699" lon="3.26988">
        <ele>335.4</ele>
        <time>2024-04-15T16:13:35Z</time>
      </trkpt>
      <trkpt lat="45.98695" lon="3.26983">
        <ele>335.4</ele>
        <time>2024-04-15T16:13:36Z</time>
      </trkpt>
      <trkpt lat="45.98691" lon="3.26977">
        <ele>335.6</ele>
        <time>2024-04-15T16:13:37Z</time>
      </trkpt>
      <trkpt lat="45.98687" lon="3.26972">
        <ele>335.6</ele>
        <time>2024-04-15T16:13:38Z</time>
      </trkpt>
      <trkpt lat="45.98683" lon="3.26966">
        <ele>335.6</ele>
        <time>2024-04-15T16:13:39Z</time>
      </trkpt>
      <trkpt lat="45.98679" lon="3.26961">
        <ele>335.8</ele>
        <time>2024-04-15T16:13:40Z</time>
      </trkpt>
      <trkpt lat="45.98675" lon="3.26955">
        <ele>335.8</ele>
        <time>2024-04-15T16:13:41Z</time>
      </trkpt>
      <trkpt lat="45.98671" lon="3.2695">
        <ele>335.8</ele>
        <time>2024-04-15T16:13:42Z</time>
      </trkpt>
      <trkpt lat="45.98667" lon="3.26944">
        <ele>336</ele>
        <time>2024-04-15T16:13:43Z</time>
      </trkpt>
      <trkpt lat="45.98664" lon="3.26939">
        <ele>336</ele>
        <time>2024-04-15T16:13:44Z</time>
      </trkpt>
      <trkpt lat="45.9866" lon="3.26934">
        <ele>336</ele>
        <time>2024-04-15T16:13:45Z</time>
      </trkpt>
      <trkpt lat="45.98656" lon="3.26928">
        <ele>336</ele>
        <time>2024-04-15T16:13:46Z</time>
      </trkpt>
      <trkpt lat="45.98652" lon="3.26923">
        <ele>336.2</ele>
        <time>2024-04-15T16:13:47Z</time>
      </trkpt>
      <trkpt lat="45.98649" lon="3.26918">
        <ele>336.2</ele>
        <time>2024-04-15T16:13:48Z</time>
      </trkpt>
      <trkpt lat="45.98645" lon="3.26913">
        <ele>336.4</ele>
        <time>2024-04-15T16:13:49Z</time>
      </trkpt>
      <trkpt lat="45.98641" lon="3.26907">
        <ele>336.4</ele>
        <time>2024-04-15T16:13:50Z</time>
      </trkpt>
      <trkpt lat="45.98637" lon="3.26902">
        <ele>336.4</ele>
        <time>2024-04-15T16:13:51Z</time>
      </trkpt>
      <trkpt lat="45.98633" lon="3.26897">
        <ele>336.4</ele>
        <time>2024-04-15T16:13:52Z</time>
      </trkpt>
      <trkpt lat="45.98629" lon="3.26892">
        <ele>336.6</ele>
        <time>2024-04-15T16:13:53Z</time>
      </trkpt>
      <trkpt lat="45.98626" lon="3.26887">
        <ele>336.6</ele>
        <time>2024-04-15T16:13:54Z</time>
      </trkpt>
      <trkpt lat="45.98622" lon="3.26882">
        <ele>336.6</ele>
        <time>2024-04-15T16:13:55Z</time>
      </trkpt>
      <trkpt lat="45.98618" lon="3.26877">
        <ele>336.6</ele>
        <time>2024-04-15T16:13:56Z</time>
      </trkpt>
      <trkpt lat="45.98614" lon="3.26872">
        <ele>336.8</ele>
        <time>2024-04-15T16:13:57Z</time>
      </trkpt>
      <trkpt lat="45.9861" lon="3.26867">
        <ele>336.8</ele>
        <time>2024-04-15T16:13:58Z</time>
      </trkpt>
      <trkpt lat="45.98606" lon="3.26862">
        <ele>336.8</ele>
        <time>2024-04-15T16:13:59Z</time>
      </trkpt>
      <trkpt lat="45.98602" lon="3.26856">
        <ele>337</ele>
        <time>2024-04-15T16:14:00Z</time>
      </trkpt>
      <trkpt lat="45.98598" lon="3.26851">
        <ele>337</ele>
        <time>2024-04-15T16:14:01Z</time>
      </trkpt>
      <trkpt lat="45.98593" lon="3.26845">
        <ele>337</ele>
        <time>2024-04-15T16:14:02Z</time>
      </trkpt>
      <trkpt lat="45.98589" lon="3.2684">
        <ele>337.2</ele>
        <time>2024-04-15T16:14:03Z</time>
      </trkpt>
      <trkpt lat="45.98585" lon="3.26834">
        <ele>337.2</ele>
        <time>2024-04-15T16:14:04Z</time>
      </trkpt>
      <trkpt lat="45.98581" lon="3.26829">
        <ele>337.2</ele>
        <time>2024-04-15T16:14:05Z</time>
      </trkpt>
      <trkpt lat="45.98576" lon="3.26823">
        <ele>337.4</ele>
        <time>2024-04-15T16:14:06Z</time>
      </trkpt>
      <trkpt lat="45.98572" lon="3.26818">
        <ele>337.4</ele>
        <time>2024-04-15T16:14:07Z</time>
      </trkpt>
      <trkpt lat="45.98568" lon="3.26812">
        <ele>337.4</ele>
        <time>2024-04-15T16:14:08Z</time>
      </trkpt>
      <trkpt lat="45.98564" lon="3.26807">
        <ele>337.6</ele>
        <time>2024-04-15T16:14:09Z</time>
      </trkpt>
      <trkpt lat="45.98559" lon="3.26802">
        <ele>337.6</ele>
        <time>2024-04-15T16:14:10Z</time>
      </trkpt>
      <trkpt lat="45.98554" lon="3.26798">
        <ele>337.6</ele>
        <time>2024-04-15T16:14:11Z</time>
      </trkpt>
      <trkpt lat="45.98549" lon="3.26793">
        <ele>337.6</ele>
        <time>2024-04-15T16:14:12Z</time>
      </trkpt>
      <trkpt lat="45.98544" lon="3.26789">
        <ele>337.6</ele>
        <time>2024-04-15T16:14:13Z</time>
      </trkpt>
      <trkpt lat="45.98538" lon="3.26784">
        <ele>337.8</ele>
        <time>2024-04-15T16:14:14Z</time>
      </trkpt>
      <trkpt lat="45.98533" lon="3.26779">
        <ele>337.8</ele>
        <time>2024-04-15T16:14:15Z</time>
      </trkpt>
      <trkpt lat="45.98527" lon="3.26774">
        <ele>337.8</ele>
        <time>2024-04-15T16:14:16Z</time>
      </trkpt>
      <trkpt lat="45.98523" lon="3.2677">
        <ele>338</ele>
        <time>2024-04-15T16:14:17Z</time>
      </trkpt>
      <trkpt lat="45.98517" lon="3.26765">
        <ele>338</ele>
        <time>2024-04-15T16:14:18Z</time>
      </trkpt>
      <trkpt lat="45.98512" lon="3.26761">
        <ele>338</ele>
        <time>2024-04-15T16:14:19Z</time>
      </trkpt>
      <trkpt lat="45.98507" lon="3.26756">
        <ele>338</ele>
        <time>2024-04-15T16:14:20Z</time>
      </trkpt>
      <trkpt lat="45.98501" lon="3.26751">
        <ele>338</ele>
        <time>2024-04-15T16:14:21Z</time>
      </trkpt>
      <trkpt lat="45.98496" lon="3.26746">
        <ele>338</ele>
        <time>2024-04-15T16:14:22Z</time>
      </trkpt>
      <trkpt lat="45.9849" lon="3.26741">
        <ele>338.2</ele>
        <time>2024-04-15T16:14:23Z</time>
      </trkpt>
      <trkpt lat="45.98485" lon="3.26736">
        <ele>338.2</ele>
        <time>2024-04-15T16:14:24Z</time>
      </trkpt>
      <trkpt lat="45.98479" lon="3.26731">
        <ele>338.2</ele>
        <time>2024-04-15T16:14:25Z</time>
      </trkpt>
      <trkpt lat="45.98474" lon="3.26727">
        <ele>338.4</ele>
        <time>2024-04-15T16:14:26Z</time>
      </trkpt>
      <trkpt lat="45.98469" lon="3.26722">
        <ele>338.4</ele>
        <time>2024-04-15T16:14:27Z</time>
      </trkpt>
      <trkpt lat="45.98463" lon="3.26717">
        <ele>338.4</ele>
        <time>2024-04-15T16:14:28Z</time>
      </trkpt>
      <trkpt lat="45.98457" lon="3.26711">
        <ele>338.4</ele>
        <time>2024-04-15T16:14:29Z</time>
      </trkpt>
      <trkpt lat="45.98451" lon="3.26706">
        <ele>338.6</ele>
        <time>2024-04-15T16:14:30Z</time>
      </trkpt>
      <trkpt lat="45.98446" lon="3.26701">
        <ele>338.6</ele>
        <time>2024-04-15T16:14:31Z</time>
      </trkpt>
      <trkpt lat="45.9844" lon="3.26696">
        <ele>338.6</ele>
        <time>2024-04-15T16:14:32Z</time>
      </trkpt>
      <trkpt lat="45.98435" lon="3.26692">
        <ele>338.6</ele>
        <time>2024-04-15T16:14:33Z</time>
      </trkpt>
      <trkpt lat="45.9843" lon="3.26687">
        <ele>338.6</ele>
        <time>2024-04-15T16:14:34Z</time>
      </trkpt>
      <trkpt lat="45.98424" lon="3.26682">
        <ele>338.8</ele>
        <time>2024-04-15T16:14:35Z</time>
      </trkpt>
      <trkpt lat="45.98419" lon="3.26677">
        <ele>338.8</ele>
        <time>2024-04-15T16:14:36Z</time>
      </trkpt>
      <trkpt lat="45.98414" lon="3.26673">
        <ele>338.8</ele>
        <time>2024-04-15T16:14:37Z</time>
      </trkpt>
      <trkpt lat="45.98408" lon="3.26668">
        <ele>338.8</ele>
        <time>2024-04-15T16:14:38Z</time>
      </trkpt>
      <trkpt lat="45.98403" lon="3.26663">
        <ele>339</ele>
        <time>2024-04-15T16:14:39Z</time>
      </trkpt>
      <trkpt lat="45.98397" lon="3.26658">
        <ele>339</ele>
        <time>2024-04-15T16:14:40Z</time>
      </trkpt>
      <trkpt lat="45.98392" lon="3.26652">
        <ele>339</ele>
        <time>2024-04-15T16:14:41Z</time>
      </trkpt>
      <trkpt lat="45.98387" lon="3.26646">
        <ele>339</ele>
        <time>2024-04-15T16:14:42Z</time>
      </trkpt>
      <trkpt lat="45.98382" lon="3.26641">
        <ele>339</ele>
        <time>2024-04-15T16:14:43Z</time>
      </trkpt>
      <trkpt lat="45.98377" lon="3.26635">
        <ele>339.2</ele>
        <time>2024-04-15T16:14:44Z</time>
      </trkpt>
      <trkpt lat="45.98372" lon="3.26629">
        <ele>339.2</ele>
        <time>2024-04-15T16:14:45Z</time>
      </trkpt>
      <trkpt lat="45.98367" lon="3.26624">
        <ele>339.2</ele>
        <time>2024-04-15T16:14:46Z</time>
      </trkpt>
      <trkpt lat="45.98361" lon="3.26618">
        <ele>339.2</ele>
        <time>2024-04-15T16:14:47Z</time>
      </trkpt>
      <trkpt lat="45.98356" lon="3.26613">
        <ele>339.2</ele>
        <time>2024-04-15T16:14:48Z</time>
      </trkpt>
      <trkpt lat="45.98351" lon="3.26607">
        <ele>339.2</ele>
        <time>2024-04-15T16:14:49Z</time>
      </trkpt>
      <trkpt lat="45.98347" lon="3.266">
        <ele>339.2</ele>
        <time>2024-04-15T16:14:50Z</time>
      </trkpt>
      <trkpt lat="45.98342" lon="3.26594">
        <ele>339.4</ele>
        <time>2024-04-15T16:14:51Z</time>
      </trkpt>
      <trkpt lat="45.98338" lon="3.26588">
        <ele>339.4</ele>
        <time>2024-04-15T16:14:52Z</time>
      </trkpt>
      <trkpt lat="45.98333" lon="3.26582">
        <ele>339.4</ele>
        <time>2024-04-15T16:14:53Z</time>
      </trkpt>
      <trkpt lat="45.98329" lon="3.26576">
        <ele>339.6</ele>
        <time>2024-04-15T16:14:54Z</time>
      </trkpt>
      <trkpt lat="45.98324" lon="3.2657">
        <ele>339.6</ele>
        <time>2024-04-15T16:14:55Z</time>
      </trkpt>
      <trkpt lat="45.98319" lon="3.26564">
        <ele>339.6</ele>
        <time>2024-04-15T16:14:56Z</time>
      </trkpt>
      <trkpt lat="45.98315" lon="3.26557">
        <ele>339.6</ele>
        <time>2024-04-15T16:14:57Z</time>
      </trkpt>
      <trkpt lat="45.9831" lon="3.26551">
        <ele>339.6</ele>
        <time>2024-04-15T16:14:58Z</time>
      </trkpt>
      <trkpt lat="45.98305" lon="3.26545">
        <ele>339.6</ele>
        <time>2024-04-15T16:14:59Z</time>
      </trkpt>
      <trkpt lat="45.98301" lon="3.26538">
        <ele>339.6</ele>
        <time>2024-04-15T16:15:00Z</time>
      </trkpt>
      <trkpt lat="45.98296" lon="3.26532">
        <ele>339.6</ele>
        <time>2024-04-15T16:15:01Z</time>
      </trkpt>
      <trkpt lat="45.98291" lon="3.26526">
        <ele>339.8</ele>
        <time>2024-04-15T16:15:02Z</time>
      </trkpt>
      <trkpt lat="45.98287" lon="3.26519">
        <ele>339.8</ele>
        <time>2024-04-15T16:15:03Z</time>
      </trkpt>
      <trkpt lat="45.98283" lon="3.26512">
        <ele>339.8</ele>
        <time>2024-04-15T16:15:04Z</time>
      </trkpt>
      <trkpt lat="45.98278" lon="3.26504">
        <ele>339.8</ele>
        <time>2024-04-15T16:15:05Z</time>
      </trkpt>
      <trkpt lat="45.98274" lon="3.26498">
        <ele>339.8</ele>
        <time>2024-04-15T16:15:06Z</time>
      </trkpt>
      <trkpt lat="45.9827" lon="3.26491">
        <ele>339.8</ele>
        <time>2024-04-15T16:15:07Z</time>
      </trkpt>
      <trkpt lat="45.98266" lon="3.26484">
        <ele>339.8</ele>
        <time>2024-04-15T16:15:08Z</time>
      </trkpt>
      <trkpt lat="45.98261" lon="3.26477">
        <ele>340</ele>
        <time>2024-04-15T16:15:09Z</time>
      </trkpt>
      <trkpt lat="45.98257" lon="3.2647">
        <ele>340</ele>
        <time>2024-04-15T16:15:10Z</time>
      </trkpt>
      <trkpt lat="45.98253" lon="3.26463">
        <ele>340</ele>
        <time>2024-04-15T16:15:11Z</time>
      </trkpt>
      <trkpt lat="45.98249" lon="3.26457">
        <ele>340</ele>
        <time>2024-04-15T16:15:12Z</time>
      </trkpt>
      <trkpt lat="45.98246" lon="3.26451">
        <ele>340.2</ele>
        <time>2024-04-15T16:15:13Z</time>
      </trkpt>
      <trkpt lat="45.98242" lon="3.26445">
        <ele>340.2</ele>
        <time>2024-04-15T16:15:14Z</time>
      </trkpt>
      <trkpt lat="45.98238" lon="3.26439">
        <ele>340.2</ele>
        <time>2024-04-15T16:15:15Z</time>
      </trkpt>
      <trkpt lat="45.98234" lon="3.26432">
        <ele>340.2</ele>
        <time>2024-04-15T16:15:16Z</time>
      </trkpt>
      <trkpt lat="45.98231" lon="3.26426">
        <ele>340.2</ele>
        <time>2024-04-15T16:15:17Z</time>
      </trkpt>
      <trkpt lat="45.98227" lon="3.2642">
        <ele>340.2</ele>
        <time>2024-04-15T16:15:18Z</time>
      </trkpt>
      <trkpt lat="45.98223" lon="3.26414">
        <ele>340.2</ele>
        <time>2024-04-15T16:15:19Z</time>
      </trkpt>
      <trkpt lat="45.98219" lon="3.26408">
        <ele>340.4</ele>
        <time>2024-04-15T16:15:20Z</time>
      </trkpt>
      <trkpt lat="45.98216" lon="3.26402">
        <ele>340.4</ele>
        <time>2024-04-15T16:15:21Z</time>
      </trkpt>
      <trkpt lat="45.98212" lon="3.26396">
        <ele>340.4</ele>
        <time>2024-04-15T16:15:22Z</time>
      </trkpt>
      <trkpt lat="45.98208" lon="3.26389">
        <ele>340.4</ele>
        <time>2024-04-15T16:15:23Z</time>
      </trkpt>
      <trkpt lat="45.98205" lon="3.26383">
        <ele>340.4</ele>
        <time>2024-04-15T16:15:24Z</time>
      </trkpt>
      <trkpt lat="45.98201" lon="3.26376">
        <ele>340.6</ele>
        <time>2024-04-15T16:15:25Z</time>
      </trkpt>
      <trkpt lat="45.98197" lon="3.2637">
        <ele>340.6</ele>
        <time>2024-04-15T16:15:26Z</time>
      </trkpt>
      <trkpt lat="45.98194" lon="3.26363">
        <ele>340.6</ele>
        <time>2024-04-15T16:15:27Z</time>
      </trkpt>
      <trkpt lat="45.9819" lon="3.26357">
        <ele>340.6</ele>
        <time>2024-04-15T16:15:28Z</time>
      </trkpt>
      <trkpt lat="45.98186" lon="3.2635">
        <ele>340.8</ele>
        <time>2024-04-15T16:15:29Z</time>
      </trkpt>
      <trkpt lat="45.98183" lon="3.26344">
        <ele>340.8</ele>
        <time>2024-04-15T16:15:30Z</time>
      </trkpt>
      <trkpt lat="45.98179" lon="3.26338">
        <ele>340.8</ele>
        <time>2024-04-15T16:15:31Z</time>
      </trkpt>
      <trkpt lat="45.98176" lon="3.26332">
        <ele>340.8</ele>
        <time>2024-04-15T16:15:32Z</time>
      </trkpt>
      <trkpt lat="45.98172" lon="3.26325">
        <ele>340.8</ele>
        <time>2024-04-15T16:15:33Z</time>
      </trkpt>
      <trkpt lat="45.98168" lon="3.26318">
        <ele>341</ele>
        <time>2024-04-15T16:15:34Z</time>
      </trkpt>
      <trkpt lat="45.98165" lon="3.26312">
        <ele>341</ele>
        <time>2024-04-15T16:15:35Z</time>
      </trkpt>
      <trkpt lat="45.98161" lon="3.26305">
        <ele>341</ele>
        <time>2024-04-15T16:15:36Z</time>
      </trkpt>
      <trkpt lat="45.98157" lon="3.26299">
        <ele>341</ele>
        <time>2024-04-15T16:15:37Z</time>
      </trkpt>
      <trkpt lat="45.98153" lon="3.26292">
        <ele>341</ele>
        <time>2024-04-15T16:15:38Z</time>
      </trkpt>
      <trkpt lat="45.98149" lon="3.26285">
        <ele>341.2</ele>
        <time>2024-04-15T16:15:39Z</time>
      </trkpt>
      <trkpt lat="45.98146" lon="3.26278">
        <ele>341.2</ele>
        <time>2024-04-15T16:15:40Z</time>
      </trkpt>
      <trkpt lat="45.98142" lon="3.26271">
        <ele>341.2</ele>
        <time>2024-04-15T16:15:41Z</time>
      </trkpt>
      <trkpt lat="45.98138" lon="3.26265">
        <ele>341.2</ele>
        <time>2024-04-15T16:15:42Z</time>
      </trkpt>
      <trkpt lat="45.98134" lon="3.26259">
        <ele>341.2</ele>
        <time>2024-04-15T16:15:43Z</time>
      </trkpt>
      <trkpt lat="45.98131" lon="3.26252">
        <ele>341.4</ele>
        <time>2024-04-15T16:15:44Z</time>
      </trkpt>
      <trkpt lat="45.98127" lon="3.26245">
        <ele>341.4</ele>
        <time>2024-04-15T16:15:45Z</time>
      </trkpt>
      <trkpt lat="45.98123" lon="3.26238">
        <ele>341.4</ele>
        <time>2024-04-15T16:15:46Z</time>
      </trkpt>
      <trkpt lat="45.98119" lon="3.26231">
        <ele>341.4</ele>
        <time>2024-04-15T16:15:47Z</time>
      </trkpt>
      <trkpt lat="45.98115" lon="3.26225">
        <ele>341.4</ele>
        <time>2024-04-15T16:15:48Z</time>
      </trkpt>
      <trkpt lat="45.98111" lon="3.26218">
        <ele>341.6</ele>
        <time>2024-04-15T16:15:49Z</time>
      </trkpt>
      <trkpt lat="45.98107" lon="3.26211">
        <ele>341.6</ele>
        <time>2024-04-15T16:15:50Z</time>
      </trkpt>
      <trkpt lat="45.98103" lon="3.26204">
        <ele>341.6</ele>
        <time>2024-04-15T16:15:51Z</time>
      </trkpt>
      <trkpt lat="45.98099" lon="3.26197">
        <ele>341.6</ele>
        <time>2024-04-15T16:15:52Z</time>
      </trkpt>
      <trkpt lat="45.98095" lon="3.2619">
        <ele>341.6</ele>
        <time>2024-04-15T16:15:53Z</time>
      </trkpt>
      <trkpt lat="45.98091" lon="3.26182">
        <ele>341.6</ele>
        <time>2024-04-15T16:15:54Z</time>
      </trkpt>
      <trkpt lat="45.98089" lon="3.26174">
        <ele>341.6</ele>
        <time>2024-04-15T16:15:55Z</time>
      </trkpt>
      <trkpt lat="45.98086" lon="3.26166">
        <ele>341.6</ele>
        <time>2024-04-15T16:15:56Z</time>
      </trkpt>
      <trkpt lat="45.98083" lon="3.26159">
        <ele>341.6</ele>
        <time>2024-04-15T16:15:57Z</time>
      </trkpt>
      <trkpt lat="45.9808" lon="3.26152">
        <ele>341.6</ele>
        <time>2024-04-15T16:15:58Z</time>
      </trkpt>
      <trkpt lat="45.98078" lon="3.26144">
        <ele>341.6</ele>
        <time>2024-04-15T16:15:59Z</time>
      </trkpt>
      <trkpt lat="45.98075" lon="3.26137">
        <ele>341.8</ele>
        <time>2024-04-15T16:16:00Z</time>
      </trkpt>
      <trkpt lat="45.98073" lon="3.26129">
        <ele>341.8</ele>
        <time>2024-04-15T16:16:01Z</time>
      </trkpt>
      <trkpt lat="45.9807" lon="3.26122">
        <ele>341.8</ele>
        <time>2024-04-15T16:16:02Z</time>
      </trkpt>
      <trkpt lat="45.98067" lon="3.26115">
        <ele>341.8</ele>
        <time>2024-04-15T16:16:03Z</time>
      </trkpt>
      <trkpt lat="45.98065" lon="3.26108">
        <ele>341.8</ele>
        <time>2024-04-15T16:16:04Z</time>
      </trkpt>
      <trkpt lat="45.98062" lon="3.261">
        <ele>341.8</ele>
        <time>2024-04-15T16:16:05Z</time>
      </trkpt>
      <trkpt lat="45.98059" lon="3.26092">
        <ele>342</ele>
        <time>2024-04-15T16:16:06Z</time>
      </trkpt>
      <trkpt lat="45.98057" lon="3.26085">
        <ele>342</ele>
        <time>2024-04-15T16:16:07Z</time>
      </trkpt>
      <trkpt lat="45.98054" lon="3.26077">
        <ele>342</ele>
        <time>2024-04-15T16:16:08Z</time>
      </trkpt>
      <trkpt lat="45.98051" lon="3.26068">
        <ele>342</ele>
        <time>2024-04-15T16:16:09Z</time>
      </trkpt>
      <trkpt lat="45.98048" lon="3.26061">
        <ele>342</ele>
        <time>2024-04-15T16:16:10Z</time>
      </trkpt>
      <trkpt lat="45.98045" lon="3.26052">
        <ele>342</ele>
        <time>2024-04-15T16:16:11Z</time>
      </trkpt>
      <trkpt lat="45.98043" lon="3.26044">
        <ele>342</ele>
        <time>2024-04-15T16:16:12Z</time>
      </trkpt>
      <trkpt lat="45.9804" lon="3.26037">
        <ele>342</ele>
        <time>2024-04-15T16:16:13Z</time>
      </trkpt>
      <trkpt lat="45.98037" lon="3.26028">
        <ele>342.2</ele>
        <time>2024-04-15T16:16:14Z</time>
      </trkpt>
      <trkpt lat="45.98035" lon="3.26021">
        <ele>342.2</ele>
        <time>2024-04-15T16:16:15Z</time>
      </trkpt>
      <trkpt lat="45.98032" lon="3.26014">
        <ele>342.2</ele>
        <time>2024-04-15T16:16:16Z</time>
      </trkpt>
      <trkpt lat="45.9803" lon="3.26006">
        <ele>342.2</ele>
        <time>2024-04-15T16:16:17Z</time>
      </trkpt>
      <trkpt lat="45.98027" lon="3.25999">
        <ele>342.2</ele>
        <time>2024-04-15T16:16:18Z</time>
      </trkpt>
      <trkpt lat="45.98025" lon="3.25991">
        <ele>342.2</ele>
        <time>2024-04-15T16:16:19Z</time>
      </trkpt>
      <trkpt lat="45.98022" lon="3.25984">
        <ele>342.2</ele>
        <time>2024-04-15T16:16:20Z</time>
      </trkpt>
      <trkpt lat="45.98019" lon="3.25976">
        <ele>342.2</ele>
        <time>2024-04-15T16:16:21Z</time>
      </trkpt>
      <trkpt lat="45.98017" lon="3.25969">
        <ele>342.2</ele>
        <time>2024-04-15T16:16:22Z</time>
      </trkpt>
      <trkpt lat="45.98014" lon="3.25961">
        <ele>342.2</ele>
        <time>2024-04-15T16:16:23Z</time>
      </trkpt>
      <trkpt lat="45.98011" lon="3.25954">
        <ele>342.2</ele>
        <time>2024-04-15T16:16:24Z</time>
      </trkpt>
      <trkpt lat="45.98009" lon="3.25946">
        <ele>342.2</ele>
        <time>2024-04-15T16:16:25Z</time>
      </trkpt>
      <trkpt lat="45.98006" lon="3.25939">
        <ele>342.2</ele>
        <time>2024-04-15T16:16:26Z</time>
      </trkpt>
      <trkpt lat="45.98003" lon="3.25931">
        <ele>342.2</ele>
        <time>2024-04-15T16:16:27Z</time>
      </trkpt>
      <trkpt lat="45.98001" lon="3.25923">
        <ele>342.2</ele>
        <time>2024-04-15T16:16:28Z</time>
      </trkpt>
      <trkpt lat="45.97998" lon="3.25916">
        <ele>342.4</ele>
        <time>2024-04-15T16:16:29Z</time>
      </trkpt>
      <trkpt lat="45.97995" lon="3.25908">
        <ele>342.4</ele>
        <time>2024-04-15T16:16:30Z</time>
      </trkpt>
      <trkpt lat="45.97993" lon="3.259">
        <ele>342.4</ele>
        <time>2024-04-15T16:16:31Z</time>
      </trkpt>
      <trkpt lat="45.9799" lon="3.25892">
        <ele>342.4</ele>
        <time>2024-04-15T16:16:32Z</time>
      </trkpt>
      <trkpt lat="45.97987" lon="3.25885">
        <ele>342.4</ele>
        <time>2024-04-15T16:16:33Z</time>
      </trkpt>
      <trkpt lat="45.97984" lon="3.25877">
        <ele>342.4</ele>
        <time>2024-04-15T16:16:34Z</time>
      </trkpt>
      <trkpt lat="45.97982" lon="3.25869">
        <ele>342.4</ele>
        <time>2024-04-15T16:16:35Z</time>
      </trkpt>
      <trkpt lat="45.97979" lon="3.25861">
        <ele>342.4</ele>
        <time>2024-04-15T16:16:36Z</time>
      </trkpt>
      <trkpt lat="45.97976" lon="3.25853">
        <ele>342.6</ele>
        <time>2024-04-15T16:16:37Z</time>
      </trkpt>
      <trkpt lat="45.97973" lon="3.25844">
        <ele>342.6</ele>
        <time>2024-04-15T16:16:38Z</time>
      </trkpt>
      <trkpt lat="45.9797" lon="3.25836">
        <ele>342.6</ele>
        <time>2024-04-15T16:16:39Z</time>
      </trkpt>
      <trkpt lat="45.97967" lon="3.25828">
        <ele>342.6</ele>
        <time>2024-04-15T16:16:40Z</time>
      </trkpt>
      <trkpt lat="45.97964" lon="3.2582">
        <ele>342.6</ele>
        <time>2024-04-15T16:16:41Z</time>
      </trkpt>
      <trkpt lat="45.97961" lon="3.25809">
        <ele>342.6</ele>
        <time>2024-04-15T16:16:42Z</time>
      </trkpt>
      <trkpt lat="45.97959" lon="3.25803">
        <ele>342.8</ele>
        <time>2024-04-15T16:16:43Z</time>
      </trkpt>
      <trkpt lat="45.97956" lon="3.25795">
        <ele>342.8</ele>
        <time>2024-04-15T16:16:44Z</time>
      </trkpt>
      <trkpt lat="45.97954" lon="3.25787">
        <ele>342.8</ele>
        <time>2024-04-15T16:16:45Z</time>
      </trkpt>
      <trkpt lat="45.97951" lon="3.25779">
        <ele>342.8</ele>
        <time>2024-04-15T16:16:46Z</time>
      </trkpt>
      <trkpt lat="45.97948" lon="3.25771">
        <ele>342.8</ele>
        <time>2024-04-15T16:16:47Z</time>
      </trkpt>
      <trkpt lat="45.97946" lon="3.25763">
        <ele>342.8</ele>
        <time>2024-04-15T16:16:48Z</time>
      </trkpt>
      <trkpt lat="45.97943" lon="3.25755">
        <ele>342.8</ele>
        <time>2024-04-15T16:16:49Z</time>
      </trkpt>
      <trkpt lat="45.9794" lon="3.25746">
        <ele>343</ele>
        <time>2024-04-15T16:16:50Z</time>
      </trkpt>
      <trkpt lat="45.97937" lon="3.25739">
        <ele>343</ele>
        <time>2024-04-15T16:16:51Z</time>
      </trkpt>
      <trkpt lat="45.97933" lon="3.25732">
        <ele>343</ele>
        <time>2024-04-15T16:16:52Z</time>
      </trkpt>
      <trkpt lat="45.97929" lon="3.25725">
        <ele>343</ele>
        <time>2024-04-15T16:16:53Z</time>
      </trkpt>
      <trkpt lat="45.97926" lon="3.25718">
        <ele>343</ele>
        <time>2024-04-15T16:16:54Z</time>
      </trkpt>
      <trkpt lat="45.97922" lon="3.25711">
        <ele>343</ele>
        <time>2024-04-15T16:16:55Z</time>
      </trkpt>
      <trkpt lat="45.97918" lon="3.25704">
        <ele>343.2</ele>
        <time>2024-04-15T16:16:56Z</time>
      </trkpt>
      <trkpt lat="45.97913" lon="3.25699">
        <ele>343.2</ele>
        <time>2024-04-15T16:16:57Z</time>
      </trkpt>
      <trkpt lat="45.97908" lon="3.25694">
        <ele>343.2</ele>
        <time>2024-04-15T16:16:58Z</time>
      </trkpt>
      <trkpt lat="45.97903" lon="3.25689">
        <ele>343.2</ele>
        <time>2024-04-15T16:16:59Z</time>
      </trkpt>
      <trkpt lat="45.97898" lon="3.25684">
        <ele>343.2</ele>
        <time>2024-04-15T16:17:00Z</time>
      </trkpt>
      <trkpt lat="45.97893" lon="3.25679">
        <ele>343.2</ele>
        <time>2024-04-15T16:17:01Z</time>
      </trkpt>
      <trkpt lat="45.97888" lon="3.25674">
        <ele>343.2</ele>
        <time>2024-04-15T16:17:02Z</time>
      </trkpt>
      <trkpt lat="45.97883" lon="3.25671">
        <ele>343.2</ele>
        <time>2024-04-15T16:17:03Z</time>
      </trkpt>
      <trkpt lat="45.97878" lon="3.25668">
        <ele>343.4</ele>
        <time>2024-04-15T16:17:04Z</time>
      </trkpt>
      <trkpt lat="45.97873" lon="3.25665">
        <ele>343.4</ele>
        <time>2024-04-15T16:17:05Z</time>
      </trkpt>
      <trkpt lat="45.97867" lon="3.25661">
        <ele>343.4</ele>
        <time>2024-04-15T16:17:06Z</time>
      </trkpt>
      <trkpt lat="45.97862" lon="3.25658">
        <ele>343.4</ele>
        <time>2024-04-15T16:17:07Z</time>
      </trkpt>
      <trkpt lat="45.97856" lon="3.25655">
        <ele>343.4</ele>
        <time>2024-04-15T16:17:08Z</time>
      </trkpt>
      <trkpt lat="45.97851" lon="3.25651">
        <ele>343.4</ele>
        <time>2024-04-15T16:17:09Z</time>
      </trkpt>
      <trkpt lat="45.97845" lon="3.25649">
        <ele>343.6</ele>
        <time>2024-04-15T16:17:10Z</time>
      </trkpt>
      <trkpt lat="45.9784" lon="3.25648">
        <ele>343.6</ele>
        <time>2024-04-15T16:17:11Z</time>
      </trkpt>
      <trkpt lat="45.97834" lon="3.25647">
        <ele>343.6</ele>
        <time>2024-04-15T16:17:12Z</time>
      </trkpt>
      <trkpt lat="45.97828" lon="3.25645">
        <ele>343.6</ele>
        <time>2024-04-15T16:17:13Z</time>
      </trkpt>
      <trkpt lat="45.97822" lon="3.25644">
        <ele>343.8</ele>
        <time>2024-04-15T16:17:14Z</time>
      </trkpt>
      <trkpt lat="45.97816" lon="3.25644">
        <ele>343.8</ele>
        <time>2024-04-15T16:17:15Z</time>
      </trkpt>
      <trkpt lat="45.9781" lon="3.25644">
        <ele>343.8</ele>
        <time>2024-04-15T16:17:16Z</time>
      </trkpt>
      <trkpt lat="45.97803" lon="3.25645">
        <ele>343.8</ele>
        <time>2024-04-15T16:17:17Z</time>
      </trkpt>
      <trkpt lat="45.97797" lon="3.25645">
        <ele>343.8</ele>
        <time>2024-04-15T16:17:18Z</time>
      </trkpt>
      <trkpt lat="45.97791" lon="3.25646">
        <ele>343.8</ele>
        <time>2024-04-15T16:17:19Z</time>
      </trkpt>
      <trkpt lat="45.97785" lon="3.25646">
        <ele>343.8</ele>
        <time>2024-04-15T16:17:20Z</time>
      </trkpt>
      <trkpt lat="45.97778" lon="3.25646">
        <ele>343.8</ele>
        <time>2024-04-15T16:17:21Z</time>
      </trkpt>
      <trkpt lat="45.97772" lon="3.25646">
        <ele>343.8</ele>
        <time>2024-04-15T16:17:22Z</time>
      </trkpt>
      <trkpt lat="45.97766" lon="3.25646">
        <ele>343.8</ele>
        <time>2024-04-15T16:17:23Z</time>
      </trkpt>
      <trkpt lat="45.97759" lon="3.25647">
        <ele>343.8</ele>
        <time>2024-04-15T16:17:24Z</time>
      </trkpt>
      <trkpt lat="45.97753" lon="3.25647">
        <ele>344</ele>
        <time>2024-04-15T16:17:25Z</time>
      </trkpt>
      <trkpt lat="45.97746" lon="3.25647">
        <ele>344</ele>
        <time>2024-04-15T16:17:26Z</time>
      </trkpt>
      <trkpt lat="45.97739" lon="3.25647">
        <ele>344</ele>
        <time>2024-04-15T16:17:27Z</time>
      </trkpt>
      <trkpt lat="45.97732" lon="3.25647">
        <ele>344</ele>
        <time>2024-04-15T16:17:28Z</time>
      </trkpt>
      <trkpt lat="45.97725" lon="3.25648">
        <ele>343.8</ele>
        <time>2024-04-15T16:17:29Z</time>
      </trkpt>
      <trkpt lat="45.97718" lon="3.25648">
        <ele>343.8</ele>
        <time>2024-04-15T16:17:30Z</time>
      </trkpt>
      <trkpt lat="45.97711" lon="3.25648">
        <ele>343.8</ele>
        <time>2024-04-15T16:17:31Z</time>
      </trkpt>
      <trkpt lat="45.97703" lon="3.25648">
        <ele>343.8</ele>
        <time>2024-04-15T16:17:32Z</time>
      </trkpt>
      <trkpt lat="45.97696" lon="3.25648">
        <ele>343.8</ele>
        <time>2024-04-15T16:17:33Z</time>
      </trkpt>
      <trkpt lat="45.97688" lon="3.25649">
        <ele>343.8</ele>
        <time>2024-04-15T16:17:34Z</time>
      </trkpt>
      <trkpt lat="45.97681" lon="3.25649">
        <ele>343.8</ele>
        <time>2024-04-15T16:17:35Z</time>
      </trkpt>
      <trkpt lat="45.97673" lon="3.25649">
        <ele>343.6</ele>
        <time>2024-04-15T16:17:36Z</time>
      </trkpt>
      <trkpt lat="45.97665" lon="3.25649">
        <ele>343.4</ele>
        <time>2024-04-15T16:17:37Z</time>
      </trkpt>
      <trkpt lat="45.97657" lon="3.25649">
        <ele>343.4</ele>
        <time>2024-04-15T16:17:38Z</time>
      </trkpt>
      <trkpt lat="45.97649" lon="3.25649">
        <ele>343.4</ele>
        <time>2024-04-15T16:17:39Z</time>
      </trkpt>
      <trkpt lat="45.97641" lon="3.2565">
        <ele>343.4</ele>
        <time>2024-04-15T16:17:40Z</time>
      </trkpt>
      <trkpt lat="45.97633" lon="3.2565">
        <ele>343.4</ele>
        <time>2024-04-15T16:17:41Z</time>
      </trkpt>
      <trkpt lat="45.97625" lon="3.2565">
        <ele>343.2</ele>
        <time>2024-04-15T16:17:42Z</time>
      </trkpt>
      <trkpt lat="45.97617" lon="3.2565">
        <ele>343</ele>
        <time>2024-04-15T16:17:43Z</time>
      </trkpt>
      <trkpt lat="45.97608" lon="3.2565">
        <ele>343</ele>
        <time>2024-04-15T16:17:44Z</time>
      </trkpt>
      <trkpt lat="45.976" lon="3.2565">
        <ele>342.8</ele>
        <time>2024-04-15T16:17:45Z</time>
      </trkpt>
      <trkpt lat="45.97591" lon="3.2565">
        <ele>342.8</ele>
        <time>2024-04-15T16:17:46Z</time>
      </trkpt>
      <trkpt lat="45.97583" lon="3.2565">
        <ele>342.6</ele>
        <time>2024-04-15T16:17:47Z</time>
      </trkpt>
      <trkpt lat="45.97574" lon="3.2565">
        <ele>342.6</ele>
        <time>2024-04-15T16:17:48Z</time>
      </trkpt>
      <trkpt lat="45.97565" lon="3.2565">
        <ele>342.4</ele>
        <time>2024-04-15T16:17:49Z</time>
      </trkpt>
      <trkpt lat="45.97556" lon="3.25651">
        <ele>342.2</ele>
        <time>2024-04-15T16:17:50Z</time>
      </trkpt>
      <trkpt lat="45.97547" lon="3.25651">
        <ele>342</ele>
        <time>2024-04-15T16:17:51Z</time>
      </trkpt>
      <trkpt lat="45.97537" lon="3.25651">
        <ele>341.8</ele>
        <time>2024-04-15T16:17:52Z</time>
      </trkpt>
      <trkpt lat="45.97528" lon="3.25652">
        <ele>341.8</ele>
        <time>2024-04-15T16:17:53Z</time>
      </trkpt>
      <trkpt lat="45.97518" lon="3.25652">
        <ele>341.6</ele>
        <time>2024-04-15T16:17:54Z</time>
      </trkpt>
      <trkpt lat="45.97508" lon="3.25652">
        <ele>341.4</ele>
        <time>2024-04-15T16:17:55Z</time>
      </trkpt>
      <trkpt lat="45.97497" lon="3.25652">
        <ele>341.4</ele>
        <time>2024-04-15T16:17:56Z</time>
      </trkpt>
      <trkpt lat="45.97487" lon="3.25652">
        <ele>341.2</ele>
        <time>2024-04-15T16:17:57Z</time>
      </trkpt>
      <trkpt lat="45.97476" lon="3.25652">
        <ele>341</ele>
        <time>2024-04-15T16:17:58Z</time>
      </trkpt>
      <trkpt lat="45.97465" lon="3.25652">
        <ele>340.8</ele>
        <time>2024-04-15T16:17:59Z</time>
      </trkpt>
      <trkpt lat="45.97454" lon="3.25653">
        <ele>340.6</ele>
        <time>2024-04-15T16:18:00Z</time>
      </trkpt>
      <trkpt lat="45.97442" lon="3.25653">
        <ele>340.4</ele>
        <time>2024-04-15T16:18:01Z</time>
      </trkpt>
      <trkpt lat="45.97431" lon="3.25653">
        <ele>340.2</ele>
        <time>2024-04-15T16:18:02Z</time>
      </trkpt>
      <trkpt lat="45.97419" lon="3.25653">
        <ele>339.8</ele>
        <time>2024-04-15T16:18:03Z</time>
      </trkpt>
      <trkpt lat="45.97407" lon="3.25654">
        <ele>339.6</ele>
        <time>2024-04-15T16:18:04Z</time>
      </trkpt>
      <trkpt lat="45.97396" lon="3.25654">
        <ele>339.4</ele>
        <time>2024-04-15T16:18:05Z</time>
      </trkpt>
      <trkpt lat="45.97384" lon="3.25654">
        <ele>339</ele>
        <time>2024-04-15T16:18:06Z</time>
      </trkpt>
      <trkpt lat="45.97372" lon="3.25655">
        <ele>338.8</ele>
        <time>2024-04-15T16:18:07Z</time>
      </trkpt>
      <trkpt lat="45.9736" lon="3.25655">
        <ele>338.4</ele>
        <time>2024-04-15T16:18:08Z</time>
      </trkpt>
      <trkpt lat="45.97347" lon="3.25656">
        <ele>338.2</ele>
        <time>2024-04-15T16:18:09Z</time>
      </trkpt>
      <trkpt lat="45.97335" lon="3.25656">
        <ele>337.8</ele>
        <time>2024-04-15T16:18:10Z</time>
      </trkpt>
      <trkpt lat="45.97323" lon="3.25656">
        <ele>337.6</ele>
        <time>2024-04-15T16:18:11Z</time>
      </trkpt>
      <trkpt lat="45.97311" lon="3.25657">
        <ele>337.4</ele>
        <time>2024-04-15T16:18:12Z</time>
      </trkpt>
      <trkpt lat="45.97299" lon="3.25657">
        <ele>337</ele>
        <time>2024-04-15T16:18:13Z</time>
      </trkpt>
      <trkpt lat="45.97287" lon="3.25658">
        <ele>336.8</ele>
        <time>2024-04-15T16:18:14Z</time>
      </trkpt>
      <trkpt lat="45.97275" lon="3.25659">
        <ele>336.4</ele>
        <time>2024-04-15T16:18:15Z</time>
      </trkpt>
      <trkpt lat="45.97263" lon="3.2566">
        <ele>336.2</ele>
        <time>2024-04-15T16:18:16Z</time>
      </trkpt>
      <trkpt lat="45.97251" lon="3.25661">
        <ele>335.8</ele>
        <time>2024-04-15T16:18:17Z</time>
      </trkpt>
      <trkpt lat="45.97239" lon="3.25662">
        <ele>335.6</ele>
        <time>2024-04-15T16:18:18Z</time>
      </trkpt>
      <trkpt lat="45.97227" lon="3.25663">
        <ele>335.2</ele>
        <time>2024-04-15T16:18:19Z</time>
      </trkpt>
      <trkpt lat="45.97216" lon="3.25665">
        <ele>335</ele>
        <time>2024-04-15T16:18:20Z</time>
      </trkpt>
      <trkpt lat="45.97205" lon="3.25671">
        <ele>334.6</ele>
        <time>2024-04-15T16:18:21Z</time>
      </trkpt>
      <trkpt lat="45.97193" lon="3.25676">
        <ele>334.4</ele>
        <time>2024-04-15T16:18:22Z</time>
      </trkpt>
      <trkpt lat="45.97182" lon="3.25682">
        <ele>334</ele>
        <time>2024-04-15T16:18:23Z</time>
      </trkpt>
      <trkpt lat="45.97171" lon="3.25687">
        <ele>333.8</ele>
        <time>2024-04-15T16:18:24Z</time>
      </trkpt>
      <trkpt lat="45.9716" lon="3.25692">
        <ele>333.4</ele>
        <time>2024-04-15T16:18:25Z</time>
      </trkpt>
      <trkpt lat="45.97149" lon="3.25698">
        <ele>333.2</ele>
        <time>2024-04-15T16:18:26Z</time>
      </trkpt>
      <trkpt lat="45.97139" lon="3.25704">
        <ele>332.8</ele>
        <time>2024-04-15T16:18:27Z</time>
      </trkpt>
      <trkpt lat="45.97129" lon="3.25713">
        <ele>332.6</ele>
        <time>2024-04-15T16:18:28Z</time>
      </trkpt>
      <trkpt lat="45.9712" lon="3.25721">
        <ele>332.2</ele>
        <time>2024-04-15T16:18:29Z</time>
      </trkpt>
      <trkpt lat="45.97111" lon="3.25729">
        <ele>331.8</ele>
        <time>2024-04-15T16:18:30Z</time>
      </trkpt>
      <trkpt lat="45.97102" lon="3.25737">
        <ele>331.6</ele>
        <time>2024-04-15T16:18:31Z</time>
      </trkpt>
      <trkpt lat="45.97094" lon="3.25744">
        <ele>331.2</ele>
        <time>2024-04-15T16:18:32Z</time>
      </trkpt>
      <trkpt lat="45.97086" lon="3.25751">
        <ele>331</ele>
        <time>2024-04-15T16:18:33Z</time>
      </trkpt>
      <trkpt lat="45.97078" lon="3.25758">
        <ele>330.8</ele>
        <time>2024-04-15T16:18:34Z</time>
      </trkpt>
      <trkpt lat="45.9707" lon="3.25763">
        <ele>330.8</ele>
        <time>2024-04-15T16:18:35Z</time>
      </trkpt>
      <trkpt lat="45.97062" lon="3.25768">
        <ele>330.6</ele>
        <time>2024-04-15T16:18:36Z</time>
      </trkpt>
      <trkpt lat="45.97055" lon="3.25773">
        <ele>330.4</ele>
        <time>2024-04-15T16:18:37Z</time>
      </trkpt>
      <trkpt lat="45.97047" lon="3.25777">
        <ele>330.2</ele>
        <time>2024-04-15T16:18:38Z</time>
      </trkpt>
      <trkpt lat="45.97039" lon="3.25782">
        <ele>330</ele>
        <time>2024-04-15T16:18:39Z</time>
      </trkpt>
      <trkpt lat="45.97031" lon="3.25787">
        <ele>329.8</ele>
        <time>2024-04-15T16:18:40Z</time>
      </trkpt>
      <trkpt lat="45.97024" lon="3.25791">
        <ele>329.6</ele>
        <time>2024-04-15T16:18:41Z</time>
      </trkpt>
      <trkpt lat="45.97016" lon="3.25794">
        <ele>329.6</ele>
        <time>2024-04-15T16:18:42Z</time>
      </trkpt>
      <trkpt lat="45.97009" lon="3.25798">
        <ele>329.4</ele>
        <time>2024-04-15T16:18:43Z</time>
      </trkpt>
      <trkpt lat="45.97002" lon="3.25801">
        <ele>329.4</ele>
        <time>2024-04-15T16:18:44Z</time>
      </trkpt>
      <trkpt lat="45.96994" lon="3.25805">
        <ele>329.4</ele>
        <time>2024-04-15T16:18:45Z</time>
      </trkpt>
      <trkpt lat="45.96987" lon="3.25812">
        <ele>329.2</ele>
        <time>2024-04-15T16:18:46Z</time>
      </trkpt>
      <trkpt lat="45.96983" lon="3.2582">
        <ele>329.2</ele>
        <time>2024-04-15T16:18:47Z</time>
      </trkpt>
      <trkpt lat="45.96978" lon="3.25828">
        <ele>329</ele>
        <time>2024-04-15T16:18:48Z</time>
      </trkpt>
      <trkpt lat="45.96973" lon="3.25835">
        <ele>328.8</ele>
        <time>2024-04-15T16:18:49Z</time>
      </trkpt>
      <trkpt lat="45.96968" lon="3.25843">
        <ele>328.8</ele>
        <time>2024-04-15T16:18:50Z</time>
      </trkpt>
      <trkpt lat="45.96964" lon="3.25852">
        <ele>328.8</ele>
        <time>2024-04-15T16:18:51Z</time>
      </trkpt>
      <trkpt lat="45.96958" lon="3.25861">
        <ele>328.6</ele>
        <time>2024-04-15T16:18:52Z</time>
      </trkpt>
      <trkpt lat="45.96953" lon="3.25871">
        <ele>328.6</ele>
        <time>2024-04-15T16:18:53Z</time>
      </trkpt>
      <trkpt lat="45.96948" lon="3.25881">
        <ele>328.4</ele>
        <time>2024-04-15T16:18:54Z</time>
      </trkpt>
      <trkpt lat="45.96943" lon="3.25891">
        <ele>328.4</ele>
        <time>2024-04-15T16:18:55Z</time>
      </trkpt>
      <trkpt lat="45.96938" lon="3.25901">
        <ele>328.2</ele>
        <time>2024-04-15T16:18:56Z</time>
      </trkpt>
      <trkpt lat="45.96933" lon="3.25911">
        <ele>328.2</ele>
        <time>2024-04-15T16:18:57Z</time>
      </trkpt>
      <trkpt lat="45.96928" lon="3.25921">
        <ele>328</ele>
        <time>2024-04-15T16:18:58Z</time>
      </trkpt>
      <trkpt lat="45.96923" lon="3.25931">
        <ele>328</ele>
        <time>2024-04-15T16:18:59Z</time>
      </trkpt>
      <trkpt lat="45.96918" lon="3.25941">
        <ele>327.8</ele>
        <time>2024-04-15T16:19:00Z</time>
      </trkpt>
      <trkpt lat="45.96913" lon="3.25951">
        <ele>327.6</ele>
        <time>2024-04-15T16:19:01Z</time>
      </trkpt>
      <trkpt lat="45.96908" lon="3.25961">
        <ele>327.4</ele>
        <time>2024-04-15T16:19:02Z</time>
      </trkpt>
      <trkpt lat="45.96903" lon="3.2597">
        <ele>327.2</ele>
        <time>2024-04-15T16:19:03Z</time>
      </trkpt>
      <trkpt lat="45.96898" lon="3.2598">
        <ele>327.2</ele>
        <time>2024-04-15T16:19:04Z</time>
      </trkpt>
      <trkpt lat="45.96893" lon="3.2599">
        <ele>326.8</ele>
        <time>2024-04-15T16:19:05Z</time>
      </trkpt>
      <trkpt lat="45.96888" lon="3.25999">
        <ele>326.8</ele>
        <time>2024-04-15T16:19:06Z</time>
      </trkpt>
      <trkpt lat="45.96883" lon="3.26009">
        <ele>326.6</ele>
        <time>2024-04-15T16:19:07Z</time>
      </trkpt>
      <trkpt lat="45.96878" lon="3.26018">
        <ele>326.4</ele>
        <time>2024-04-15T16:19:08Z</time>
      </trkpt>
      <trkpt lat="45.96874" lon="3.26027">
        <ele>326.2</ele>
        <time>2024-04-15T16:19:09Z</time>
      </trkpt>
      <trkpt lat="45.96869" lon="3.26037">
        <ele>326</ele>
        <time>2024-04-15T16:19:10Z</time>
      </trkpt>
      <trkpt lat="45.96864" lon="3.26046">
        <ele>325.8</ele>
        <time>2024-04-15T16:19:11Z</time>
      </trkpt>
      <trkpt lat="45.9686" lon="3.26056">
        <ele>325.6</ele>
        <time>2024-04-15T16:19:12Z</time>
      </trkpt>
      <trkpt lat="45.96856" lon="3.26067">
        <ele>325.4</ele>
        <time>2024-04-15T16:19:13Z</time>
      </trkpt>
      <trkpt lat="45.96853" lon="3.26077">
        <ele>325.2</ele>
        <time>2024-04-15T16:19:14Z</time>
      </trkpt>
      <trkpt lat="45.96849" lon="3.26088">
        <ele>325</ele>
        <time>2024-04-15T16:19:15Z</time>
      </trkpt>
      <trkpt lat="45.96848" lon="3.26099">
        <ele>324.8</ele>
        <time>2024-04-15T16:19:16Z</time>
      </trkpt>
      <trkpt lat="45.96846" lon="3.26111">
        <ele>324.6</ele>
        <time>2024-04-15T16:19:17Z</time>
      </trkpt>
      <trkpt lat="45.96845" lon="3.26124">
        <ele>324.2</ele>
        <time>2024-04-15T16:19:18Z</time>
      </trkpt>
      <trkpt lat="45.96845" lon="3.26136">
        <ele>324</ele>
        <time>2024-04-15T16:19:19Z</time>
      </trkpt>
      <trkpt lat="45.96846" lon="3.26148">
        <ele>323.8</ele>
        <time>2024-04-15T16:19:20Z</time>
      </trkpt>
      <trkpt lat="45.96846" lon="3.2616">
        <ele>323.6</ele>
        <time>2024-04-15T16:19:21Z</time>
      </trkpt>
      <trkpt lat="45.96846" lon="3.26172">
        <ele>323.4</ele>
        <time>2024-04-15T16:19:22Z</time>
      </trkpt>
      <trkpt lat="45.96847" lon="3.26185">
        <ele>323.4</ele>
        <time>2024-04-15T16:19:23Z</time>
      </trkpt>
      <trkpt lat="45.96847" lon="3.26197">
        <ele>323.2</ele>
        <time>2024-04-15T16:19:24Z</time>
      </trkpt>
      <trkpt lat="45.96847" lon="3.2621">
        <ele>323</ele>
        <time>2024-04-15T16:19:25Z</time>
      </trkpt>
      <trkpt lat="45.96848" lon="3.26223">
        <ele>322.8</ele>
        <time>2024-04-15T16:19:26Z</time>
      </trkpt>
      <trkpt lat="45.96848" lon="3.26236">
        <ele>322.8</ele>
        <time>2024-04-15T16:19:27Z</time>
      </trkpt>
      <trkpt lat="45.96848" lon="3.26249">
        <ele>322.6</ele>
        <time>2024-04-15T16:19:28Z</time>
      </trkpt>
      <trkpt lat="45.96849" lon="3.26262">
        <ele>322.4</ele>
        <time>2024-04-15T16:19:29Z</time>
      </trkpt>
      <trkpt lat="45.96849" lon="3.26274">
        <ele>322.2</ele>
        <time>2024-04-15T16:19:30Z</time>
      </trkpt>
      <trkpt lat="45.96849" lon="3.26287">
        <ele>322</ele>
        <time>2024-04-15T16:19:31Z</time>
      </trkpt>
      <trkpt lat="45.96847" lon="3.263">
        <ele>321.8</ele>
        <time>2024-04-15T16:19:32Z</time>
      </trkpt>
      <trkpt lat="45.96844" lon="3.26313">
        <ele>321.6</ele>
        <time>2024-04-15T16:19:33Z</time>
      </trkpt>
      <trkpt lat="45.96842" lon="3.26325">
        <ele>321.4</ele>
        <time>2024-04-15T16:19:34Z</time>
      </trkpt>
      <trkpt lat="45.96839" lon="3.26338">
        <ele>321.4</ele>
        <time>2024-04-15T16:19:35Z</time>
      </trkpt>
      <trkpt lat="45.96837" lon="3.26351">
        <ele>321.2</ele>
        <time>2024-04-15T16:19:36Z</time>
      </trkpt>
      <trkpt lat="45.96834" lon="3.26363">
        <ele>321</ele>
        <time>2024-04-15T16:19:37Z</time>
      </trkpt>
      <trkpt lat="45.96832" lon="3.26376">
        <ele>320.8</ele>
        <time>2024-04-15T16:19:38Z</time>
      </trkpt>
      <trkpt lat="45.96829" lon="3.26389">
        <ele>320.6</ele>
        <time>2024-04-15T16:19:39Z</time>
      </trkpt>
      <trkpt lat="45.96826" lon="3.26401">
        <ele>320.6</ele>
        <time>2024-04-15T16:19:40Z</time>
      </trkpt>
      <trkpt lat="45.96823" lon="3.26413">
        <ele>320.6</ele>
        <time>2024-04-15T16:19:41Z</time>
      </trkpt>
      <trkpt lat="45.96821" lon="3.26424">
        <ele>320.4</ele>
        <time>2024-04-15T16:19:42Z</time>
      </trkpt>
      <trkpt lat="45.96818" lon="3.26435">
        <ele>320.4</ele>
        <time>2024-04-15T16:19:43Z</time>
      </trkpt>
      <trkpt lat="45.96815" lon="3.26446">
        <ele>320.4</ele>
        <time>2024-04-15T16:19:44Z</time>
      </trkpt>
      <trkpt lat="45.96813" lon="3.26457">
        <ele>320.4</ele>
        <time>2024-04-15T16:19:45Z</time>
      </trkpt>
      <trkpt lat="45.9681" lon="3.26467">
        <ele>320.2</ele>
        <time>2024-04-15T16:19:46Z</time>
      </trkpt>
      <trkpt lat="45.96808" lon="3.26479">
        <ele>320.2</ele>
        <time>2024-04-15T16:19:47Z</time>
      </trkpt>
      <trkpt lat="45.96805" lon="3.2649">
        <ele>320</ele>
        <time>2024-04-15T16:19:48Z</time>
      </trkpt>
      <trkpt lat="45.96802" lon="3.26502">
        <ele>319.8</ele>
        <time>2024-04-15T16:19:49Z</time>
      </trkpt>
      <trkpt lat="45.96799" lon="3.26514">
        <ele>319.6</ele>
        <time>2024-04-15T16:19:50Z</time>
      </trkpt>
      <trkpt lat="45.96796" lon="3.26526">
        <ele>319.4</ele>
        <time>2024-04-15T16:19:51Z</time>
      </trkpt>
      <trkpt lat="45.96793" lon="3.26539">
        <ele>319.2</ele>
        <time>2024-04-15T16:19:52Z</time>
      </trkpt>
      <trkpt lat="45.9679" lon="3.26552">
        <ele>319</ele>
        <time>2024-04-15T16:19:53Z</time>
      </trkpt>
      <trkpt lat="45.96787" lon="3.26566">
        <ele>318.8</ele>
        <time>2024-04-15T16:19:54Z</time>
      </trkpt>
      <trkpt lat="45.96784" lon="3.2658">
        <ele>318.6</ele>
        <time>2024-04-15T16:19:55Z</time>
      </trkpt>
      <trkpt lat="45.96781" lon="3.26594">
        <ele>318.4</ele>
        <time>2024-04-15T16:19:56Z</time>
      </trkpt>
      <trkpt lat="45.96777" lon="3.26608">
        <ele>318.2</ele>
        <time>2024-04-15T16:19:57Z</time>
      </trkpt>
      <trkpt lat="45.96774" lon="3.26622">
        <ele>318</ele>
        <time>2024-04-15T16:19:58Z</time>
      </trkpt>
      <trkpt lat="45.96771" lon="3.26636">
        <ele>317.8</ele>
        <time>2024-04-15T16:19:59Z</time>
      </trkpt>
      <trkpt lat="45.96768" lon="3.2665">
        <ele>317.6</ele>
        <time>2024-04-15T16:20:00Z</time>
      </trkpt>
      <trkpt lat="45.96765" lon="3.26663">
        <ele>317.6</ele>
        <time>2024-04-15T16:20:01Z</time>
      </trkpt>
      <trkpt lat="45.96762" lon="3.26676">
        <ele>317.4</ele>
        <time>2024-04-15T16:20:02Z</time>
      </trkpt>
      <trkpt lat="45.96759" lon="3.26689">
        <ele>317.2</ele>
        <time>2024-04-15T16:20:03Z</time>
      </trkpt>
      <trkpt lat="45.96756" lon="3.26701">
        <ele>317</ele>
        <time>2024-04-15T16:20:04Z</time>
      </trkpt>
      <trkpt lat="45.96754" lon="3.26713">
        <ele>316.8</ele>
        <time>2024-04-15T16:20:05Z</time>
      </trkpt>
      <trkpt lat="45.96751" lon="3.26725">
        <ele>316.8</ele>
        <time>2024-04-15T16:20:06Z</time>
      </trkpt>
      <trkpt lat="45.96748" lon="3.26737">
        <ele>316.6</ele>
        <time>2024-04-15T16:20:07Z</time>
      </trkpt>
      <trkpt lat="45.96746" lon="3.26749">
        <ele>316.4</ele>
        <time>2024-04-15T16:20:08Z</time>
      </trkpt>
      <trkpt lat="45.96743" lon="3.26761">
        <ele>316.4</ele>
        <time>2024-04-15T16:20:09Z</time>
      </trkpt>
      <trkpt lat="45.9674" lon="3.26773">
        <ele>316.2</ele>
        <time>2024-04-15T16:20:10Z</time>
      </trkpt>
      <trkpt lat="45.96737" lon="3.26785">
        <ele>316</ele>
        <time>2024-04-15T16:20:11Z</time>
      </trkpt>
      <trkpt lat="45.96735" lon="3.26797">
        <ele>315.8</ele>
        <time>2024-04-15T16:20:12Z</time>
      </trkpt>
      <trkpt lat="45.96732" lon="3.26809">
        <ele>315.8</ele>
        <time>2024-04-15T16:20:13Z</time>
      </trkpt>
      <trkpt lat="45.9673" lon="3.2682">
        <ele>315.6</ele>
        <time>2024-04-15T16:20:14Z</time>
      </trkpt>
      <trkpt lat="45.96727" lon="3.26831">
        <ele>315.4</ele>
        <time>2024-04-15T16:20:15Z</time>
      </trkpt>
      <trkpt lat="45.96725" lon="3.26843">
        <ele>315.2</ele>
        <time>2024-04-15T16:20:16Z</time>
      </trkpt>
      <trkpt lat="45.96722" lon="3.26854">
        <ele>315</ele>
        <time>2024-04-15T16:20:17Z</time>
      </trkpt>
      <trkpt lat="45.96719" lon="3.26865">
        <ele>315</ele>
        <time>2024-04-15T16:20:18Z</time>
      </trkpt>
      <trkpt lat="45.96717" lon="3.26877">
        <ele>314.8</ele>
        <time>2024-04-15T16:20:19Z</time>
      </trkpt>
      <trkpt lat="45.96713" lon="3.26888">
        <ele>314.6</ele>
        <time>2024-04-15T16:20:20Z</time>
      </trkpt>
      <trkpt lat="45.96708" lon="3.26898">
        <ele>314.4</ele>
        <time>2024-04-15T16:20:21Z</time>
      </trkpt>
      <trkpt lat="45.96703" lon="3.26909">
        <ele>314.2</ele>
        <time>2024-04-15T16:20:22Z</time>
      </trkpt>
      <trkpt lat="45.96699" lon="3.26919">
        <ele>314.2</ele>
        <time>2024-04-15T16:20:23Z</time>
      </trkpt>
      <trkpt lat="45.96694" lon="3.2693">
        <ele>314</ele>
        <time>2024-04-15T16:20:24Z</time>
      </trkpt>
      <trkpt lat="45.96689" lon="3.2694">
        <ele>314</ele>
        <time>2024-04-15T16:20:25Z</time>
      </trkpt>
      <trkpt lat="45.96683" lon="3.26949">
        <ele>313.8</ele>
        <time>2024-04-15T16:20:26Z</time>
      </trkpt>
      <trkpt lat="45.96676" lon="3.26957">
        <ele>313.8</ele>
        <time>2024-04-15T16:20:27Z</time>
      </trkpt>
      <trkpt lat="45.9667" lon="3.26965">
        <ele>313.6</ele>
        <time>2024-04-15T16:20:28Z</time>
      </trkpt>
      <trkpt lat="45.96663" lon="3.26974">
        <ele>313.6</ele>
        <time>2024-04-15T16:20:29Z</time>
      </trkpt>
      <trkpt lat="45.96657" lon="3.26982">
        <ele>313.6</ele>
        <time>2024-04-15T16:20:30Z</time>
      </trkpt>
      <trkpt lat="45.9665" lon="3.2699">
        <ele>313.4</ele>
        <time>2024-04-15T16:20:31Z</time>
      </trkpt>
      <trkpt lat="45.96643" lon="3.26998">
        <ele>313.4</ele>
        <time>2024-04-15T16:20:32Z</time>
      </trkpt>
      <trkpt lat="45.96637" lon="3.27006">
        <ele>313.2</ele>
        <time>2024-04-15T16:20:33Z</time>
      </trkpt>
      <trkpt lat="45.96631" lon="3.27014">
        <ele>313.2</ele>
        <time>2024-04-15T16:20:34Z</time>
      </trkpt>
      <trkpt lat="45.96624" lon="3.27022">
        <ele>313</ele>
        <time>2024-04-15T16:20:35Z</time>
      </trkpt>
      <trkpt lat="45.96618" lon="3.2703">
        <ele>313</ele>
        <time>2024-04-15T16:20:36Z</time>
      </trkpt>
      <trkpt lat="45.96611" lon="3.27038">
        <ele>313</ele>
        <time>2024-04-15T16:20:37Z</time>
      </trkpt>
      <trkpt lat="45.96605" lon="3.27047">
        <ele>313</ele>
        <time>2024-04-15T16:20:38Z</time>
      </trkpt>
      <trkpt lat="45.96598" lon="3.27055">
        <ele>312.8</ele>
        <time>2024-04-15T16:20:39Z</time>
      </trkpt>
      <trkpt lat="45.96592" lon="3.27063">
        <ele>312.8</ele>
        <time>2024-04-15T16:20:40Z</time>
      </trkpt>
      <trkpt lat="45.96585" lon="3.27071">
        <ele>312.6</ele>
        <time>2024-04-15T16:20:41Z</time>
      </trkpt>
      <trkpt lat="45.96579" lon="3.27079">
        <ele>312.6</ele>
        <time>2024-04-15T16:20:42Z</time>
      </trkpt>
      <trkpt lat="45.96573" lon="3.27087">
        <ele>312.4</ele>
        <time>2024-04-15T16:20:43Z</time>
      </trkpt>
      <trkpt lat="45.96566" lon="3.27095">
        <ele>312.4</ele>
        <time>2024-04-15T16:20:44Z</time>
      </trkpt>
      <trkpt lat="45.9656" lon="3.27102">
        <ele>312.4</ele>
        <time>2024-04-15T16:20:45Z</time>
      </trkpt>
      <trkpt lat="45.96554" lon="3.2711">
        <ele>312.2</ele>
        <time>2024-04-15T16:20:46Z</time>
      </trkpt>
      <trkpt lat="45.96547" lon="3.27118">
        <ele>312.2</ele>
        <time>2024-04-15T16:20:47Z</time>
      </trkpt>
      <trkpt lat="45.96541" lon="3.27126">
        <ele>312.2</ele>
        <time>2024-04-15T16:20:48Z</time>
      </trkpt>
      <trkpt lat="45.96535" lon="3.27134">
        <ele>312.2</ele>
        <time>2024-04-15T16:20:49Z</time>
      </trkpt>
      <trkpt lat="45.96528" lon="3.27142">
        <ele>312</ele>
        <time>2024-04-15T16:20:50Z</time>
      </trkpt>
      <trkpt lat="45.96522" lon="3.2715">
        <ele>312</ele>
        <time>2024-04-15T16:20:51Z</time>
      </trkpt>
      <trkpt lat="45.96516" lon="3.27158">
        <ele>312</ele>
        <time>2024-04-15T16:20:52Z</time>
      </trkpt>
      <trkpt lat="45.9651" lon="3.27166">
        <ele>311.8</ele>
        <time>2024-04-15T16:20:53Z</time>
      </trkpt>
      <trkpt lat="45.96503" lon="3.27174">
        <ele>311.8</ele>
        <time>2024-04-15T16:20:54Z</time>
      </trkpt>
      <trkpt lat="45.96497" lon="3.27183">
        <ele>311.8</ele>
        <time>2024-04-15T16:20:55Z</time>
      </trkpt>
      <trkpt lat="45.96492" lon="3.27193">
        <ele>311.8</ele>
        <time>2024-04-15T16:20:56Z</time>
      </trkpt>
      <trkpt lat="45.96486" lon="3.27202">
        <ele>311.6</ele>
        <time>2024-04-15T16:20:57Z</time>
      </trkpt>
      <trkpt lat="45.96481" lon="3.27211">
        <ele>311.6</ele>
        <time>2024-04-15T16:20:58Z</time>
      </trkpt>
      <trkpt lat="45.96475" lon="3.27221">
        <ele>311.6</ele>
        <time>2024-04-15T16:20:59Z</time>
      </trkpt>
      <trkpt lat="45.9647" lon="3.27232">
        <ele>311.6</ele>
        <time>2024-04-15T16:21:00Z</time>
      </trkpt>
      <trkpt lat="45.96465" lon="3.27243">
        <ele>311.6</ele>
        <time>2024-04-15T16:21:01Z</time>
      </trkpt>
      <trkpt lat="45.96461" lon="3.27254">
        <ele>311.4</ele>
        <time>2024-04-15T16:21:02Z</time>
      </trkpt>
      <trkpt lat="45.96456" lon="3.27265">
        <ele>311.4</ele>
        <time>2024-04-15T16:21:03Z</time>
      </trkpt>
      <trkpt lat="45.96452" lon="3.27277">
        <ele>311.2</ele>
        <time>2024-04-15T16:21:04Z</time>
      </trkpt>
      <trkpt lat="45.96447" lon="3.27288">
        <ele>311.2</ele>
        <time>2024-04-15T16:21:05Z</time>
      </trkpt>
      <trkpt lat="45.96442" lon="3.27299">
        <ele>311.2</ele>
        <time>2024-04-15T16:21:06Z</time>
      </trkpt>
      <trkpt lat="45.96438" lon="3.2731">
        <ele>311.2</ele>
        <time>2024-04-15T16:21:07Z</time>
      </trkpt>
      <trkpt lat="45.96433" lon="3.27321">
        <ele>311.2</ele>
        <time>2024-04-15T16:21:08Z</time>
      </trkpt>
      <trkpt lat="45.96429" lon="3.27332">
        <ele>311</ele>
        <time>2024-04-15T16:21:09Z</time>
      </trkpt>
      <trkpt lat="45.96424" lon="3.27343">
        <ele>311</ele>
        <time>2024-04-15T16:21:10Z</time>
      </trkpt>
      <trkpt lat="45.9642" lon="3.27354">
        <ele>310.8</ele>
        <time>2024-04-15T16:21:11Z</time>
      </trkpt>
      <trkpt lat="45.96416" lon="3.27365">
        <ele>310.8</ele>
        <time>2024-04-15T16:21:12Z</time>
      </trkpt>
      <trkpt lat="45.96411" lon="3.27376">
        <ele>310.8</ele>
        <time>2024-04-15T16:21:13Z</time>
      </trkpt>
      <trkpt lat="45.96406" lon="3.27387">
        <ele>310.8</ele>
        <time>2024-04-15T16:21:14Z</time>
      </trkpt>
      <trkpt lat="45.96402" lon="3.27398">
        <ele>310.6</ele>
        <time>2024-04-15T16:21:15Z</time>
      </trkpt>
      <trkpt lat="45.96397" lon="3.27409">
        <ele>310.6</ele>
        <time>2024-04-15T16:21:16Z</time>
      </trkpt>
      <trkpt lat="45.96393" lon="3.2742">
        <ele>310.6</ele>
        <time>2024-04-15T16:21:17Z</time>
      </trkpt>
      <trkpt lat="45.96389" lon="3.27431">
        <ele>310.6</ele>
        <time>2024-04-15T16:21:18Z</time>
      </trkpt>
      <trkpt lat="45.96384" lon="3.27441">
        <ele>310.6</ele>
        <time>2024-04-15T16:21:19Z</time>
      </trkpt>
      <trkpt lat="45.9638" lon="3.27452">
        <ele>310.4</ele>
        <time>2024-04-15T16:21:20Z</time>
      </trkpt>
      <trkpt lat="45.96376" lon="3.27462">
        <ele>310.4</ele>
        <time>2024-04-15T16:21:21Z</time>
      </trkpt>
      <trkpt lat="45.96371" lon="3.27473">
        <ele>310.4</ele>
        <time>2024-04-15T16:21:22Z</time>
      </trkpt>
      <trkpt lat="45.96365" lon="3.27481">
        <ele>310.4</ele>
        <time>2024-04-15T16:21:23Z</time>
      </trkpt>
      <trkpt lat="45.96359" lon="3.2749">
        <ele>310.2</ele>
        <time>2024-04-15T16:21:24Z</time>
      </trkpt>
      <trkpt lat="45.96352" lon="3.27498">
        <ele>310.2</ele>
        <time>2024-04-15T16:21:25Z</time>
      </trkpt>
      <trkpt lat="45.96346" lon="3.27506">
        <ele>310.2</ele>
        <time>2024-04-15T16:21:26Z</time>
      </trkpt>
      <trkpt lat="45.96339" lon="3.27514">
        <ele>310.2</ele>
        <time>2024-04-15T16:21:27Z</time>
      </trkpt>
      <trkpt lat="45.96333" lon="3.27522">
        <ele>310.2</ele>
        <time>2024-04-15T16:21:28Z</time>
      </trkpt>
      <trkpt lat="45.96326" lon="3.27531">
        <ele>310</ele>
        <time>2024-04-15T16:21:29Z</time>
      </trkpt>
      <trkpt lat="45.9632" lon="3.27539">
        <ele>310</ele>
        <time>2024-04-15T16:21:30Z</time>
      </trkpt>
      <trkpt lat="45.96314" lon="3.27547">
        <ele>310</ele>
        <time>2024-04-15T16:21:31Z</time>
      </trkpt>
      <trkpt lat="45.96308" lon="3.27554">
        <ele>309.8</ele>
        <time>2024-04-15T16:21:32Z</time>
      </trkpt>
      <trkpt lat="45.96301" lon="3.27562">
        <ele>309.8</ele>
        <time>2024-04-15T16:21:33Z</time>
      </trkpt>
      <trkpt lat="45.96295" lon="3.2757">
        <ele>309.8</ele>
        <time>2024-04-15T16:21:34Z</time>
      </trkpt>
      <trkpt lat="45.96289" lon="3.27578">
        <ele>309.8</ele>
        <time>2024-04-15T16:21:35Z</time>
      </trkpt>
      <trkpt lat="45.96282" lon="3.27587">
        <ele>309.6</ele>
        <time>2024-04-15T16:21:36Z</time>
      </trkpt>
      <trkpt lat="45.96276" lon="3.27595">
        <ele>309.6</ele>
        <time>2024-04-15T16:21:37Z</time>
      </trkpt>
      <trkpt lat="45.9627" lon="3.27603">
        <ele>309.6</ele>
        <time>2024-04-15T16:21:38Z</time>
      </trkpt>
      <trkpt lat="45.96263" lon="3.27611">
        <ele>309.6</ele>
        <time>2024-04-15T16:21:39Z</time>
      </trkpt>
      <trkpt lat="45.96257" lon="3.27619">
        <ele>309.6</ele>
        <time>2024-04-15T16:21:40Z</time>
      </trkpt>
      <trkpt lat="45.96251" lon="3.27627">
        <ele>309.6</ele>
        <time>2024-04-15T16:21:41Z</time>
      </trkpt>
      <trkpt lat="45.96245" lon="3.27634">
        <ele>309.4</ele>
        <time>2024-04-15T16:21:42Z</time>
      </trkpt>
      <trkpt lat="45.96239" lon="3.27642">
        <ele>309.4</ele>
        <time>2024-04-15T16:21:43Z</time>
      </trkpt>
      <trkpt lat="45.96233" lon="3.2765">
        <ele>309.4</ele>
        <time>2024-04-15T16:21:44Z</time>
      </trkpt>
      <trkpt lat="45.96226" lon="3.27658">
        <ele>309.4</ele>
        <time>2024-04-15T16:21:45Z</time>
      </trkpt>
      <trkpt lat="45.9622" lon="3.27666">
        <ele>309.2</ele>
        <time>2024-04-15T16:21:46Z</time>
      </trkpt>
      <trkpt lat="45.96214" lon="3.27673">
        <ele>309.2</ele>
        <time>2024-04-15T16:21:47Z</time>
      </trkpt>
      <trkpt lat="45.96208" lon="3.27681">
        <ele>309.2</ele>
        <time>2024-04-15T16:21:48Z</time>
      </trkpt>
      <trkpt lat="45.96202" lon="3.27689">
        <ele>309.2</ele>
        <time>2024-04-15T16:21:49Z</time>
      </trkpt>
      <trkpt lat="45.96196" lon="3.27697">
        <ele>309.2</ele>
        <time>2024-04-15T16:21:50Z</time>
      </trkpt>
      <trkpt lat="45.96189" lon="3.27705">
        <ele>309.2</ele>
        <time>2024-04-15T16:21:51Z</time>
      </trkpt>
      <trkpt lat="45.96183" lon="3.27713">
        <ele>309.2</ele>
        <time>2024-04-15T16:21:52Z</time>
      </trkpt>
      <trkpt lat="45.96178" lon="3.27722">
        <ele>309.2</ele>
        <time>2024-04-15T16:21:53Z</time>
      </trkpt>
      <trkpt lat="45.96172" lon="3.27731">
        <ele>309</ele>
        <time>2024-04-15T16:21:54Z</time>
      </trkpt>
      <trkpt lat="45.96167" lon="3.2774">
        <ele>309</ele>
        <time>2024-04-15T16:21:55Z</time>
      </trkpt>
      <trkpt lat="45.96161" lon="3.27749">
        <ele>309</ele>
        <time>2024-04-15T16:21:56Z</time>
      </trkpt>
      <trkpt lat="45.96156" lon="3.27758">
        <ele>309</ele>
        <time>2024-04-15T16:21:57Z</time>
      </trkpt>
      <trkpt lat="45.96154" lon="3.27769">
        <ele>309</ele>
        <time>2024-04-15T16:21:58Z</time>
      </trkpt>
      <trkpt lat="45.96151" lon="3.27781">
        <ele>309</ele>
        <time>2024-04-15T16:21:59Z</time>
      </trkpt>
      <trkpt lat="45.96149" lon="3.27792">
        <ele>309</ele>
        <time>2024-04-15T16:22:00Z</time>
      </trkpt>
      <trkpt lat="45.96146" lon="3.27805">
        <ele>309</ele>
        <time>2024-04-15T16:22:01Z</time>
      </trkpt>
      <trkpt lat="45.96144" lon="3.27817">
        <ele>308.8</ele>
        <time>2024-04-15T16:22:02Z</time>
      </trkpt>
      <trkpt lat="45.96142" lon="3.27829">
        <ele>308.8</ele>
        <time>2024-04-15T16:22:03Z</time>
      </trkpt>
      <trkpt lat="45.96139" lon="3.27841">
        <ele>308.8</ele>
        <time>2024-04-15T16:22:04Z</time>
      </trkpt>
      <trkpt lat="45.96136" lon="3.27854">
        <ele>308.8</ele>
        <time>2024-04-15T16:22:05Z</time>
      </trkpt>
      <trkpt lat="45.96134" lon="3.27866">
        <ele>308.8</ele>
        <time>2024-04-15T16:22:06Z</time>
      </trkpt>
      <trkpt lat="45.96131" lon="3.27878">
        <ele>308.8</ele>
        <time>2024-04-15T16:22:07Z</time>
      </trkpt>
      <trkpt lat="45.96129" lon="3.27891">
        <ele>308.8</ele>
        <time>2024-04-15T16:22:08Z</time>
      </trkpt>
      <trkpt lat="45.96126" lon="3.27904">
        <ele>308.6</ele>
        <time>2024-04-15T16:22:09Z</time>
      </trkpt>
      <trkpt lat="45.96124" lon="3.27916">
        <ele>308.6</ele>
        <time>2024-04-15T16:22:10Z</time>
      </trkpt>
      <trkpt lat="45.96121" lon="3.27929">
        <ele>308.6</ele>
        <time>2024-04-15T16:22:11Z</time>
      </trkpt>
      <trkpt lat="45.96118" lon="3.27942">
        <ele>308.6</ele>
        <time>2024-04-15T16:22:12Z</time>
      </trkpt>
      <trkpt lat="45.96116" lon="3.27954">
        <ele>308.6</ele>
        <time>2024-04-15T16:22:13Z</time>
      </trkpt>
      <trkpt lat="45.96112" lon="3.27966">
        <ele>308.6</ele>
        <time>2024-04-15T16:22:14Z</time>
      </trkpt>
      <trkpt lat="45.96107" lon="3.27978">
        <ele>308.4</ele>
        <time>2024-04-15T16:22:15Z</time>
      </trkpt>
      <trkpt lat="45.96103" lon="3.2799">
        <ele>308.4</ele>
        <time>2024-04-15T16:22:16Z</time>
      </trkpt>
      <trkpt lat="45.96098" lon="3.28001">
        <ele>308.4</ele>
        <time>2024-04-15T16:22:17Z</time>
      </trkpt>
      <trkpt lat="45.96094" lon="3.28013">
        <ele>308.4</ele>
        <time>2024-04-15T16:22:18Z</time>
      </trkpt>
      <trkpt lat="45.96089" lon="3.28025">
        <ele>308.4</ele>
        <time>2024-04-15T16:22:19Z</time>
      </trkpt>
      <trkpt lat="45.96085" lon="3.28037">
        <ele>308.4</ele>
        <time>2024-04-15T16:22:20Z</time>
      </trkpt>
      <trkpt lat="45.9608" lon="3.28048">
        <ele>308.4</ele>
        <time>2024-04-15T16:22:21Z</time>
      </trkpt>
      <trkpt lat="45.96076" lon="3.2806">
        <ele>308.4</ele>
        <time>2024-04-15T16:22:22Z</time>
      </trkpt>
      <trkpt lat="45.96072" lon="3.28072">
        <ele>308.4</ele>
        <time>2024-04-15T16:22:23Z</time>
      </trkpt>
      <trkpt lat="45.96069" lon="3.28084">
        <ele>308.4</ele>
        <time>2024-04-15T16:22:24Z</time>
      </trkpt>
      <trkpt lat="45.96065" lon="3.28096">
        <ele>308.4</ele>
        <time>2024-04-15T16:22:25Z</time>
      </trkpt>
      <trkpt lat="45.96061" lon="3.28108">
        <ele>308.2</ele>
        <time>2024-04-15T16:22:26Z</time>
      </trkpt>
      <trkpt lat="45.96057" lon="3.28121">
        <ele>308.2</ele>
        <time>2024-04-15T16:22:27Z</time>
      </trkpt>
      <trkpt lat="45.96054" lon="3.28133">
        <ele>308.2</ele>
        <time>2024-04-15T16:22:28Z</time>
      </trkpt>
      <trkpt lat="45.96054" lon="3.28133">
        <ele>308.2</ele>
        <time>2024-04-15T16:22:29Z</time>
      </trkpt>
      <trkpt lat="45.96054" lon="3.28133">
        <ele>308.2</ele>
        <time>2024-04-15T16:22:30Z</time>
      </trkpt>
      <trkpt lat="45.96054" lon="3.28133">
        <ele>308</ele>
        <time>2024-04-15T16:22:31Z</time>
      </trkpt>
      <trkpt lat="45.96039" lon="3.28181">
        <ele>308</ele>
        <time>2024-04-15T16:22:32Z</time>
      </trkpt>
      <trkpt lat="45.96035" lon="3.28193">
        <ele>308</ele>
        <time>2024-04-15T16:22:33Z</time>
      </trkpt>
      <trkpt lat="45.96032" lon="3.28205">
        <ele>308</ele>
        <time>2024-04-15T16:22:34Z</time>
      </trkpt>
      <trkpt lat="45.96028" lon="3.28217">
        <ele>308</ele>
        <time>2024-04-15T16:22:35Z</time>
      </trkpt>
      <trkpt lat="45.96024" lon="3.28228">
        <ele>308</ele>
        <time>2024-04-15T16:22:36Z</time>
      </trkpt>
      <trkpt lat="45.96021" lon="3.2824">
        <ele>308</ele>
        <time>2024-04-15T16:22:37Z</time>
      </trkpt>
      <trkpt lat="45.96017" lon="3.28252">
        <ele>308</ele>
        <time>2024-04-15T16:22:38Z</time>
      </trkpt>
      <trkpt lat="45.96013" lon="3.28264">
        <ele>308</ele>
        <time>2024-04-15T16:22:39Z</time>
      </trkpt>
      <trkpt lat="45.9601" lon="3.28277">
        <ele>307.8</ele>
        <time>2024-04-15T16:22:40Z</time>
      </trkpt>
      <trkpt lat="45.96006" lon="3.28289">
        <ele>307.8</ele>
        <time>2024-04-15T16:22:41Z</time>
      </trkpt>
      <trkpt lat="45.96003" lon="3.28301">
        <ele>307.8</ele>
        <time>2024-04-15T16:22:42Z</time>
      </trkpt>
      <trkpt lat="45.95999" lon="3.28313">
        <ele>307.8</ele>
        <time>2024-04-15T16:22:43Z</time>
      </trkpt>
      <trkpt lat="45.95996" lon="3.28325">
        <ele>307.8</ele>
        <time>2024-04-15T16:22:44Z</time>
      </trkpt>
      <trkpt lat="45.95993" lon="3.28337">
        <ele>307.8</ele>
        <time>2024-04-15T16:22:45Z</time>
      </trkpt>
      <trkpt lat="45.95988" lon="3.28349">
        <ele>307.8</ele>
        <time>2024-04-15T16:22:46Z</time>
      </trkpt>
      <trkpt lat="45.95982" lon="3.28359">
        <ele>307.8</ele>
        <time>2024-04-15T16:22:47Z</time>
      </trkpt>
      <trkpt lat="45.95977" lon="3.28369">
        <ele>307.8</ele>
        <time>2024-04-15T16:22:48Z</time>
      </trkpt>
      <trkpt lat="45.95971" lon="3.28379">
        <ele>307.8</ele>
        <time>2024-04-15T16:22:49Z</time>
      </trkpt>
      <trkpt lat="45.95965" lon="3.2839">
        <ele>307.6</ele>
        <time>2024-04-15T16:22:50Z</time>
      </trkpt>
      <trkpt lat="45.95958" lon="3.28398">
        <ele>307.6</ele>
        <time>2024-04-15T16:22:51Z</time>
      </trkpt>
      <trkpt lat="45.95951" lon="3.28406">
        <ele>307.6</ele>
        <time>2024-04-15T16:22:52Z</time>
      </trkpt>
      <trkpt lat="45.95944" lon="3.28414">
        <ele>307.6</ele>
        <time>2024-04-15T16:22:53Z</time>
      </trkpt>
      <trkpt lat="45.95937" lon="3.28422">
        <ele>307.6</ele>
        <time>2024-04-15T16:22:54Z</time>
      </trkpt>
      <trkpt lat="45.9593" lon="3.2843">
        <ele>307.4</ele>
        <time>2024-04-15T16:22:55Z</time>
      </trkpt>
      <trkpt lat="45.95923" lon="3.28438">
        <ele>307.4</ele>
        <time>2024-04-15T16:22:56Z</time>
      </trkpt>
      <trkpt lat="45.95915" lon="3.28446">
        <ele>307.4</ele>
        <time>2024-04-15T16:22:57Z</time>
      </trkpt>
      <trkpt lat="45.95908" lon="3.28454">
        <ele>307.4</ele>
        <time>2024-04-15T16:22:58Z</time>
      </trkpt>
      <trkpt lat="45.95901" lon="3.28461">
        <ele>307.4</ele>
        <time>2024-04-15T16:22:59Z</time>
      </trkpt>
      <trkpt lat="45.95894" lon="3.2847">
        <ele>307.4</ele>
        <time>2024-04-15T16:23:00Z</time>
      </trkpt>
      <trkpt lat="45.95887" lon="3.28477">
        <ele>307.4</ele>
        <time>2024-04-15T16:23:01Z</time>
      </trkpt>
      <trkpt lat="45.9588" lon="3.28485">
        <ele>307.4</ele>
        <time>2024-04-15T16:23:02Z</time>
      </trkpt>
      <trkpt lat="45.95873" lon="3.28493">
        <ele>307.4</ele>
        <time>2024-04-15T16:23:03Z</time>
      </trkpt>
      <trkpt lat="45.95866" lon="3.28501">
        <ele>307.2</ele>
        <time>2024-04-15T16:23:04Z</time>
      </trkpt>
      <trkpt lat="45.95859" lon="3.28509">
        <ele>307.2</ele>
        <time>2024-04-15T16:23:05Z</time>
      </trkpt>
      <trkpt lat="45.95852" lon="3.28516">
        <ele>307.2</ele>
        <time>2024-04-15T16:23:06Z</time>
      </trkpt>
      <trkpt lat="45.95845" lon="3.28524">
        <ele>307.2</ele>
        <time>2024-04-15T16:23:07Z</time>
      </trkpt>
      <trkpt lat="45.95838" lon="3.28532">
        <ele>307.2</ele>
        <time>2024-04-15T16:23:08Z</time>
      </trkpt>
      <trkpt lat="45.95831" lon="3.2854">
        <ele>307</ele>
        <time>2024-04-15T16:23:09Z</time>
      </trkpt>
      <trkpt lat="45.95823" lon="3.28547">
        <ele>307.2</ele>
        <time>2024-04-15T16:23:10Z</time>
      </trkpt>
      <trkpt lat="45.95816" lon="3.28554">
        <ele>307.2</ele>
        <time>2024-04-15T16:23:11Z</time>
      </trkpt>
      <trkpt lat="45.95808" lon="3.28561">
        <ele>307</ele>
        <time>2024-04-15T16:23:12Z</time>
      </trkpt>
      <trkpt lat="45.95801" lon="3.28568">
        <ele>307</ele>
        <time>2024-04-15T16:23:13Z</time>
      </trkpt>
      <trkpt lat="45.95793" lon="3.28574">
        <ele>307</ele>
        <time>2024-04-15T16:23:14Z</time>
      </trkpt>
      <trkpt lat="45.95786" lon="3.28581">
        <ele>307</ele>
        <time>2024-04-15T16:23:15Z</time>
      </trkpt>
      <trkpt lat="45.95779" lon="3.28588">
        <ele>307</ele>
        <time>2024-04-15T16:23:16Z</time>
      </trkpt>
      <trkpt lat="45.95771" lon="3.28595">
        <ele>307</ele>
        <time>2024-04-15T16:23:17Z</time>
      </trkpt>
      <trkpt lat="45.95764" lon="3.28602">
        <ele>307</ele>
        <time>2024-04-15T16:23:18Z</time>
      </trkpt>
      <trkpt lat="45.95757" lon="3.28608">
        <ele>307</ele>
        <time>2024-04-15T16:23:19Z</time>
      </trkpt>
      <trkpt lat="45.9575" lon="3.28615">
        <ele>306.8</ele>
        <time>2024-04-15T16:23:20Z</time>
      </trkpt>
      <trkpt lat="45.95742" lon="3.28622">
        <ele>306.8</ele>
        <time>2024-04-15T16:23:21Z</time>
      </trkpt>
      <trkpt lat="45.95735" lon="3.28628">
        <ele>306.8</ele>
        <time>2024-04-15T16:23:22Z</time>
      </trkpt>
      <trkpt lat="45.95728" lon="3.28635">
        <ele>306.8</ele>
        <time>2024-04-15T16:23:23Z</time>
      </trkpt>
      <trkpt lat="45.95721" lon="3.28642">
        <ele>306.8</ele>
        <time>2024-04-15T16:23:24Z</time>
      </trkpt>
      <trkpt lat="45.95714" lon="3.28648">
        <ele>306.6</ele>
        <time>2024-04-15T16:23:25Z</time>
      </trkpt>
      <trkpt lat="45.95707" lon="3.28655">
        <ele>306.6</ele>
        <time>2024-04-15T16:23:26Z</time>
      </trkpt>
      <trkpt lat="45.95701" lon="3.28661">
        <ele>306.6</ele>
        <time>2024-04-15T16:23:27Z</time>
      </trkpt>
      <trkpt lat="45.95694" lon="3.28668">
        <ele>306.6</ele>
        <time>2024-04-15T16:23:28Z</time>
      </trkpt>
      <trkpt lat="45.95687" lon="3.28674">
        <ele>306.6</ele>
        <time>2024-04-15T16:23:29Z</time>
      </trkpt>
      <trkpt lat="45.9568" lon="3.28681">
        <ele>306.6</ele>
        <time>2024-04-15T16:23:30Z</time>
      </trkpt>
      <trkpt lat="45.95672" lon="3.28688">
        <ele>306.4</ele>
        <time>2024-04-15T16:23:31Z</time>
      </trkpt>
      <trkpt lat="45.95666" lon="3.28695">
        <ele>306.4</ele>
        <time>2024-04-15T16:23:32Z</time>
      </trkpt>
      <trkpt lat="45.9566" lon="3.28703">
        <ele>306.6</ele>
        <time>2024-04-15T16:23:33Z</time>
      </trkpt>
      <trkpt lat="45.95653" lon="3.28712">
        <ele>306.4</ele>
        <time>2024-04-15T16:23:34Z</time>
      </trkpt>
      <trkpt lat="45.95647" lon="3.28721">
        <ele>306.4</ele>
        <time>2024-04-15T16:23:35Z</time>
      </trkpt>
      <trkpt lat="45.95641" lon="3.2873">
        <ele>306.2</ele>
        <time>2024-04-15T16:23:36Z</time>
      </trkpt>
      <trkpt lat="45.95634" lon="3.28739">
        <ele>306.4</ele>
        <time>2024-04-15T16:23:37Z</time>
      </trkpt>
      <trkpt lat="45.95629" lon="3.28749">
        <ele>306.2</ele>
        <time>2024-04-15T16:23:38Z</time>
      </trkpt>
      <trkpt lat="45.95624" lon="3.2876">
        <ele>306.2</ele>
        <time>2024-04-15T16:23:39Z</time>
      </trkpt>
      <trkpt lat="45.9562" lon="3.28772">
        <ele>306.2</ele>
        <time>2024-04-15T16:23:40Z</time>
      </trkpt>
      <trkpt lat="45.95616" lon="3.28783">
        <ele>306.2</ele>
        <time>2024-04-15T16:23:41Z</time>
      </trkpt>
      <trkpt lat="45.95611" lon="3.28795">
        <ele>306.2</ele>
        <time>2024-04-15T16:23:42Z</time>
      </trkpt>
      <trkpt lat="45.95607" lon="3.28806">
        <ele>306.2</ele>
        <time>2024-04-15T16:23:43Z</time>
      </trkpt>
      <trkpt lat="45.95603" lon="3.28818">
        <ele>306.2</ele>
        <time>2024-04-15T16:23:44Z</time>
      </trkpt>
      <trkpt lat="45.95598" lon="3.28829">
        <ele>306.2</ele>
        <time>2024-04-15T16:23:45Z</time>
      </trkpt>
      <trkpt lat="45.95594" lon="3.28841">
        <ele>306.2</ele>
        <time>2024-04-15T16:23:46Z</time>
      </trkpt>
      <trkpt lat="45.9559" lon="3.28852">
        <ele>306.2</ele>
        <time>2024-04-15T16:23:47Z</time>
      </trkpt>
      <trkpt lat="45.95585" lon="3.28864">
        <ele>306</ele>
        <time>2024-04-15T16:23:48Z</time>
      </trkpt>
      <trkpt lat="45.95581" lon="3.28876">
        <ele>306</ele>
        <time>2024-04-15T16:23:49Z</time>
      </trkpt>
      <trkpt lat="45.95577" lon="3.28887">
        <ele>306</ele>
        <time>2024-04-15T16:23:50Z</time>
      </trkpt>
      <trkpt lat="45.95572" lon="3.28899">
        <ele>306</ele>
        <time>2024-04-15T16:23:51Z</time>
      </trkpt>
      <trkpt lat="45.95567" lon="3.2891">
        <ele>306</ele>
        <time>2024-04-15T16:23:52Z</time>
      </trkpt>
      <trkpt lat="45.95562" lon="3.28921">
        <ele>305.8</ele>
        <time>2024-04-15T16:23:53Z</time>
      </trkpt>
      <trkpt lat="45.95557" lon="3.28933">
        <ele>305.8</ele>
        <time>2024-04-15T16:23:54Z</time>
      </trkpt>
      <trkpt lat="45.95552" lon="3.28944">
        <ele>305.8</ele>
        <time>2024-04-15T16:23:55Z</time>
      </trkpt>
      <trkpt lat="45.95547" lon="3.28955">
        <ele>305.8</ele>
        <time>2024-04-15T16:23:56Z</time>
      </trkpt>
      <trkpt lat="45.95542" lon="3.28966">
        <ele>305.8</ele>
        <time>2024-04-15T16:23:57Z</time>
      </trkpt>
      <trkpt lat="45.95537" lon="3.28977">
        <ele>305.8</ele>
        <time>2024-04-15T16:23:58Z</time>
      </trkpt>
      <trkpt lat="45.95532" lon="3.28988">
        <ele>305.8</ele>
        <time>2024-04-15T16:23:59Z</time>
      </trkpt>
      <trkpt lat="45.95528" lon="3.28998">
        <ele>305.8</ele>
        <time>2024-04-15T16:24:00Z</time>
      </trkpt>
      <trkpt lat="45.95523" lon="3.29009">
        <ele>305.8</ele>
        <time>2024-04-15T16:24:01Z</time>
      </trkpt>
      <trkpt lat="45.95518" lon="3.2902">
        <ele>305.8</ele>
        <time>2024-04-15T16:24:02Z</time>
      </trkpt>
      <trkpt lat="45.95513" lon="3.2903">
        <ele>305.8</ele>
        <time>2024-04-15T16:24:03Z</time>
      </trkpt>
      <trkpt lat="45.95509" lon="3.29041">
        <ele>305.8</ele>
        <time>2024-04-15T16:24:04Z</time>
      </trkpt>
      <trkpt lat="45.95504" lon="3.29052">
        <ele>305.8</ele>
        <time>2024-04-15T16:24:05Z</time>
      </trkpt>
      <trkpt lat="45.95499" lon="3.29062">
        <ele>305.6</ele>
        <time>2024-04-15T16:24:06Z</time>
      </trkpt>
      <trkpt lat="45.95495" lon="3.29072">
        <ele>305.6</ele>
        <time>2024-04-15T16:24:07Z</time>
      </trkpt>
      <trkpt lat="45.9549" lon="3.29083">
        <ele>305.6</ele>
        <time>2024-04-15T16:24:08Z</time>
      </trkpt>
      <trkpt lat="45.95486" lon="3.29093">
        <ele>305.6</ele>
        <time>2024-04-15T16:24:09Z</time>
      </trkpt>
      <trkpt lat="45.95481" lon="3.29103">
        <ele>305.6</ele>
        <time>2024-04-15T16:24:10Z</time>
      </trkpt>
      <trkpt lat="45.95477" lon="3.29113">
        <ele>305.6</ele>
        <time>2024-04-15T16:24:11Z</time>
      </trkpt>
      <trkpt lat="45.95472" lon="3.29123">
        <ele>305.6</ele>
        <time>2024-04-15T16:24:12Z</time>
      </trkpt>
      <trkpt lat="45.95468" lon="3.29133">
        <ele>305.6</ele>
        <time>2024-04-15T16:24:13Z</time>
      </trkpt>
      <trkpt lat="45.95463" lon="3.29143">
        <ele>305.6</ele>
        <time>2024-04-15T16:24:14Z</time>
      </trkpt>
      <trkpt lat="45.95459" lon="3.29153">
        <ele>305.6</ele>
        <time>2024-04-15T16:24:15Z</time>
      </trkpt>
      <trkpt lat="45.95454" lon="3.29164">
        <ele>305.6</ele>
        <time>2024-04-15T16:24:16Z</time>
      </trkpt>
      <trkpt lat="45.9545" lon="3.29174">
        <ele>305.6</ele>
        <time>2024-04-15T16:24:17Z</time>
      </trkpt>
      <trkpt lat="45.95445" lon="3.29184">
        <ele>305.6</ele>
        <time>2024-04-15T16:24:18Z</time>
      </trkpt>
      <trkpt lat="45.95441" lon="3.29194">
        <ele>305.6</ele>
        <time>2024-04-15T16:24:19Z</time>
      </trkpt>
      <trkpt lat="45.95436" lon="3.29205">
        <ele>305.6</ele>
        <time>2024-04-15T16:24:20Z</time>
      </trkpt>
      <trkpt lat="45.95431" lon="3.29215">
        <ele>305.6</ele>
        <time>2024-04-15T16:24:21Z</time>
      </trkpt>
      <trkpt lat="45.95427" lon="3.29226">
        <ele>305.4</ele>
        <time>2024-04-15T16:24:22Z</time>
      </trkpt>
      <trkpt lat="45.95422" lon="3.29236">
        <ele>305.4</ele>
        <time>2024-04-15T16:24:23Z</time>
      </trkpt>
      <trkpt lat="45.95417" lon="3.29246">
        <ele>305.4</ele>
        <time>2024-04-15T16:24:24Z</time>
      </trkpt>
      <trkpt lat="45.95413" lon="3.29257">
        <ele>305.4</ele>
        <time>2024-04-15T16:24:25Z</time>
      </trkpt>
      <trkpt lat="45.95408" lon="3.29267">
        <ele>305.4</ele>
        <time>2024-04-15T16:24:26Z</time>
      </trkpt>
      <trkpt lat="45.95404" lon="3.29278">
        <ele>305.4</ele>
        <time>2024-04-15T16:24:27Z</time>
      </trkpt>
      <trkpt lat="45.95399" lon="3.29288">
        <ele>305.4</ele>
        <time>2024-04-15T16:24:28Z</time>
      </trkpt>
      <trkpt lat="45.95394" lon="3.29299">
        <ele>305.4</ele>
        <time>2024-04-15T16:24:29Z</time>
      </trkpt>
      <trkpt lat="45.9539" lon="3.29309">
        <ele>305.4</ele>
        <time>2024-04-15T16:24:30Z</time>
      </trkpt>
      <trkpt lat="45.95385" lon="3.29319">
        <ele>305.2</ele>
        <time>2024-04-15T16:24:31Z</time>
      </trkpt>
      <trkpt lat="45.9538" lon="3.2933">
        <ele>305.2</ele>
        <time>2024-04-15T16:24:32Z</time>
      </trkpt>
      <trkpt lat="45.95376" lon="3.2934">
        <ele>305.2</ele>
        <time>2024-04-15T16:24:33Z</time>
      </trkpt>
      <trkpt lat="45.95371" lon="3.29351">
        <ele>305.2</ele>
        <time>2024-04-15T16:24:34Z</time>
      </trkpt>
      <trkpt lat="45.95367" lon="3.29361">
        <ele>305.4</ele>
        <time>2024-04-15T16:24:35Z</time>
      </trkpt>
      <trkpt lat="45.95362" lon="3.29371">
        <ele>305.2</ele>
        <time>2024-04-15T16:24:36Z</time>
      </trkpt>
      <trkpt lat="45.95357" lon="3.29382">
        <ele>305.4</ele>
        <time>2024-04-15T16:24:37Z</time>
      </trkpt>
      <trkpt lat="45.95353" lon="3.29392">
        <ele>305.2</ele>
        <time>2024-04-15T16:24:38Z</time>
      </trkpt>
      <trkpt lat="45.95348" lon="3.29403">
        <ele>305.2</ele>
        <time>2024-04-15T16:24:39Z</time>
      </trkpt>
      <trkpt lat="45.95343" lon="3.29413">
        <ele>305.2</ele>
        <time>2024-04-15T16:24:40Z</time>
      </trkpt>
      <trkpt lat="45.95339" lon="3.29423">
        <ele>305.2</ele>
        <time>2024-04-15T16:24:41Z</time>
      </trkpt>
      <trkpt lat="45.95334" lon="3.29434">
        <ele>305.2</ele>
        <time>2024-04-15T16:24:42Z</time>
      </trkpt>
      <trkpt lat="45.9533" lon="3.29444">
        <ele>305.2</ele>
        <time>2024-04-15T16:24:43Z</time>
      </trkpt>
      <trkpt lat="45.95325" lon="3.29454">
        <ele>305.2</ele>
        <time>2024-04-15T16:24:44Z</time>
      </trkpt>
      <trkpt lat="45.95321" lon="3.29465">
        <ele>305.2</ele>
        <time>2024-04-15T16:24:45Z</time>
      </trkpt>
      <trkpt lat="45.95316" lon="3.29475">
        <ele>305.2</ele>
        <time>2024-04-15T16:24:46Z</time>
      </trkpt>
      <trkpt lat="45.95311" lon="3.29485">
        <ele>305.2</ele>
        <time>2024-04-15T16:24:47Z</time>
      </trkpt>
      <trkpt lat="45.95307" lon="3.29496">
        <ele>305.2</ele>
        <time>2024-04-15T16:24:48Z</time>
      </trkpt>
      <trkpt lat="45.95302" lon="3.29506">
        <ele>305.2</ele>
        <time>2024-04-15T16:24:49Z</time>
      </trkpt>
      <trkpt lat="45.95299" lon="3.29517">
        <ele>305.2</ele>
        <time>2024-04-15T16:24:50Z</time>
      </trkpt>
      <trkpt lat="45.95296" lon="3.29528">
        <ele>305.2</ele>
        <time>2024-04-15T16:24:51Z</time>
      </trkpt>
      <trkpt lat="45.95293" lon="3.29539">
        <ele>305.2</ele>
        <time>2024-04-15T16:24:52Z</time>
      </trkpt>
      <trkpt lat="45.9529" lon="3.29551">
        <ele>305.2</ele>
        <time>2024-04-15T16:24:53Z</time>
      </trkpt>
      <trkpt lat="45.95287" lon="3.29562">
        <ele>305.2</ele>
        <time>2024-04-15T16:24:54Z</time>
      </trkpt>
      <trkpt lat="45.95284" lon="3.29574">
        <ele>305.2</ele>
        <time>2024-04-15T16:24:55Z</time>
      </trkpt>
      <trkpt lat="45.95281" lon="3.29585">
        <ele>305.2</ele>
        <time>2024-04-15T16:24:56Z</time>
      </trkpt>
      <trkpt lat="45.95278" lon="3.29597">
        <ele>305.2</ele>
        <time>2024-04-15T16:24:57Z</time>
      </trkpt>
      <trkpt lat="45.95275" lon="3.29609">
        <ele>305.2</ele>
        <time>2024-04-15T16:24:58Z</time>
      </trkpt>
      <trkpt lat="45.95272" lon="3.2962">
        <ele>305.2</ele>
        <time>2024-04-15T16:24:59Z</time>
      </trkpt>
      <trkpt lat="45.95269" lon="3.29631">
        <ele>305</ele>
        <time>2024-04-15T16:25:00Z</time>
      </trkpt>
      <trkpt lat="45.95266" lon="3.29642">
        <ele>305</ele>
        <time>2024-04-15T16:25:01Z</time>
      </trkpt>
      <trkpt lat="45.95263" lon="3.29654">
        <ele>305</ele>
        <time>2024-04-15T16:25:02Z</time>
      </trkpt>
      <trkpt lat="45.9526" lon="3.29666">
        <ele>305</ele>
        <time>2024-04-15T16:25:03Z</time>
      </trkpt>
      <trkpt lat="45.95257" lon="3.29678">
        <ele>305</ele>
        <time>2024-04-15T16:25:04Z</time>
      </trkpt>
      <trkpt lat="45.95254" lon="3.29689">
        <ele>305</ele>
        <time>2024-04-15T16:25:05Z</time>
      </trkpt>
      <trkpt lat="45.95251" lon="3.297">
        <ele>305</ele>
        <time>2024-04-15T16:25:06Z</time>
      </trkpt>
      <trkpt lat="45.95248" lon="3.29712">
        <ele>305</ele>
        <time>2024-04-15T16:25:07Z</time>
      </trkpt>
      <trkpt lat="45.95245" lon="3.29723">
        <ele>305</ele>
        <time>2024-04-15T16:25:08Z</time>
      </trkpt>
      <trkpt lat="45.95242" lon="3.29735">
        <ele>305</ele>
        <time>2024-04-15T16:25:09Z</time>
      </trkpt>
      <trkpt lat="45.95239" lon="3.29746">
        <ele>305</ele>
        <time>2024-04-15T16:25:10Z</time>
      </trkpt>
      <trkpt lat="45.95236" lon="3.29758">
        <ele>305</ele>
        <time>2024-04-15T16:25:11Z</time>
      </trkpt>
      <trkpt lat="45.95233" lon="3.29769">
        <ele>305</ele>
        <time>2024-04-15T16:25:12Z</time>
      </trkpt>
      <trkpt lat="45.9523" lon="3.2978">
        <ele>305</ele>
        <time>2024-04-15T16:25:13Z</time>
      </trkpt>
      <trkpt lat="45.95228" lon="3.29791">
        <ele>305</ele>
        <time>2024-04-15T16:25:14Z</time>
      </trkpt>
      <trkpt lat="45.95225" lon="3.29802">
        <ele>305</ele>
        <time>2024-04-15T16:25:15Z</time>
      </trkpt>
      <trkpt lat="45.95222" lon="3.29813">
        <ele>305</ele>
        <time>2024-04-15T16:25:16Z</time>
      </trkpt>
      <trkpt lat="45.95219" lon="3.29825">
        <ele>305</ele>
        <time>2024-04-15T16:25:17Z</time>
      </trkpt>
      <trkpt lat="45.95216" lon="3.29836">
        <ele>305</ele>
        <time>2024-04-15T16:25:18Z</time>
      </trkpt>
      <trkpt lat="45.95214" lon="3.29848">
        <ele>305</ele>
        <time>2024-04-15T16:25:19Z</time>
      </trkpt>
      <trkpt lat="45.95211" lon="3.2986">
        <ele>305</ele>
        <time>2024-04-15T16:25:20Z</time>
      </trkpt>
      <trkpt lat="45.95209" lon="3.29872">
        <ele>305.2</ele>
        <time>2024-04-15T16:25:21Z</time>
      </trkpt>
      <trkpt lat="45.95206" lon="3.29884">
        <ele>305.2</ele>
        <time>2024-04-15T16:25:22Z</time>
      </trkpt>
      <trkpt lat="45.95204" lon="3.29896">
        <ele>305.2</ele>
        <time>2024-04-15T16:25:23Z</time>
      </trkpt>
      <trkpt lat="45.95202" lon="3.29908">
        <ele>305.2</ele>
        <time>2024-04-15T16:25:24Z</time>
      </trkpt>
      <trkpt lat="45.95199" lon="3.2992">
        <ele>305.2</ele>
        <time>2024-04-15T16:25:25Z</time>
      </trkpt>
      <trkpt lat="45.95197" lon="3.29932">
        <ele>305</ele>
        <time>2024-04-15T16:25:26Z</time>
      </trkpt>
      <trkpt lat="45.95194" lon="3.29944">
        <ele>305.2</ele>
        <time>2024-04-15T16:25:27Z</time>
      </trkpt>
      <trkpt lat="45.95192" lon="3.29955">
        <ele>305.2</ele>
        <time>2024-04-15T16:25:28Z</time>
      </trkpt>
      <trkpt lat="45.9519" lon="3.29967">
        <ele>305</ele>
        <time>2024-04-15T16:25:29Z</time>
      </trkpt>
      <trkpt lat="45.95188" lon="3.29979">
        <ele>305.2</ele>
        <time>2024-04-15T16:25:30Z</time>
      </trkpt>
      <trkpt lat="45.95187" lon="3.29992">
        <ele>305.2</ele>
        <time>2024-04-15T16:25:31Z</time>
      </trkpt>
      <trkpt lat="45.95186" lon="3.30005">
        <ele>305.2</ele>
        <time>2024-04-15T16:25:32Z</time>
      </trkpt>
      <trkpt lat="45.95185" lon="3.30018">
        <ele>305.2</ele>
        <time>2024-04-15T16:25:33Z</time>
      </trkpt>
      <trkpt lat="45.95184" lon="3.3003">
        <ele>305</ele>
        <time>2024-04-15T16:25:34Z</time>
      </trkpt>
      <trkpt lat="45.95184" lon="3.30044">
        <ele>305</ele>
        <time>2024-04-15T16:25:35Z</time>
      </trkpt>
      <trkpt lat="45.95183" lon="3.30057">
        <ele>305</ele>
        <time>2024-04-15T16:25:36Z</time>
      </trkpt>
      <trkpt lat="45.95182" lon="3.30069">
        <ele>305</ele>
        <time>2024-04-15T16:25:37Z</time>
      </trkpt>
      <trkpt lat="45.95182" lon="3.30083">
        <ele>305</ele>
        <time>2024-04-15T16:25:38Z</time>
      </trkpt>
      <trkpt lat="45.95181" lon="3.30095">
        <ele>305.2</ele>
        <time>2024-04-15T16:25:39Z</time>
      </trkpt>
      <trkpt lat="45.9518" lon="3.30108">
        <ele>305.2</ele>
        <time>2024-04-15T16:25:40Z</time>
      </trkpt>
      <trkpt lat="45.95179" lon="3.30121">
        <ele>305.2</ele>
        <time>2024-04-15T16:25:41Z</time>
      </trkpt>
      <trkpt lat="45.95179" lon="3.30134">
        <ele>305.2</ele>
        <time>2024-04-15T16:25:42Z</time>
      </trkpt>
      <trkpt lat="45.95178" lon="3.30147">
        <ele>305.2</ele>
        <time>2024-04-15T16:25:43Z</time>
      </trkpt>
      <trkpt lat="45.95177" lon="3.3016">
        <ele>305.2</ele>
        <time>2024-04-15T16:25:44Z</time>
      </trkpt>
      <trkpt lat="45.95177" lon="3.30173">
        <ele>305.2</ele>
        <time>2024-04-15T16:25:45Z</time>
      </trkpt>
      <trkpt lat="45.95176" lon="3.30186">
        <ele>305.2</ele>
        <time>2024-04-15T16:25:46Z</time>
      </trkpt>
      <trkpt lat="45.95175" lon="3.30198">
        <ele>305.2</ele>
        <time>2024-04-15T16:25:47Z</time>
      </trkpt>
      <trkpt lat="45.95175" lon="3.30211">
        <ele>305.2</ele>
        <time>2024-04-15T16:25:48Z</time>
      </trkpt>
      <trkpt lat="45.95174" lon="3.30224">
        <ele>305.2</ele>
        <time>2024-04-15T16:25:49Z</time>
      </trkpt>
      <trkpt lat="45.95174" lon="3.30237">
        <ele>305.2</ele>
        <time>2024-04-15T16:25:50Z</time>
      </trkpt>
      <trkpt lat="45.95178" lon="3.30248">
        <ele>305.2</ele>
        <time>2024-04-15T16:25:51Z</time>
      </trkpt>
      <trkpt lat="45.95181" lon="3.30259">
        <ele>305.2</ele>
        <time>2024-04-15T16:25:52Z</time>
      </trkpt>
      <trkpt lat="45.95185" lon="3.30271">
        <ele>305.2</ele>
        <time>2024-04-15T16:25:53Z</time>
      </trkpt>
      <trkpt lat="45.95188" lon="3.30282">
        <ele>305.2</ele>
        <time>2024-04-15T16:25:54Z</time>
      </trkpt>
      <trkpt lat="45.95191" lon="3.30293">
        <ele>305.2</ele>
        <time>2024-04-15T16:25:55Z</time>
      </trkpt>
      <trkpt lat="45.95195" lon="3.30305">
        <ele>305.2</ele>
        <time>2024-04-15T16:25:56Z</time>
      </trkpt>
      <trkpt lat="45.95198" lon="3.30317">
        <ele>305.2</ele>
        <time>2024-04-15T16:25:57Z</time>
      </trkpt>
      <trkpt lat="45.95202" lon="3.30328">
        <ele>305.2</ele>
        <time>2024-04-15T16:25:58Z</time>
      </trkpt>
      <trkpt lat="45.95205" lon="3.3034">
        <ele>305.2</ele>
        <time>2024-04-15T16:25:59Z</time>
      </trkpt>
      <trkpt lat="45.95209" lon="3.30351">
        <ele>305.2</ele>
        <time>2024-04-15T16:26:00Z</time>
      </trkpt>
      <trkpt lat="45.95212" lon="3.30362">
        <ele>305.2</ele>
        <time>2024-04-15T16:26:01Z</time>
      </trkpt>
      <trkpt lat="45.95215" lon="3.30373">
        <ele>305.2</ele>
        <time>2024-04-15T16:26:02Z</time>
      </trkpt>
      <trkpt lat="45.95218" lon="3.30383">
        <ele>305.2</ele>
        <time>2024-04-15T16:26:03Z</time>
      </trkpt>
      <trkpt lat="45.95222" lon="3.30394">
        <ele>305.4</ele>
        <time>2024-04-15T16:26:04Z</time>
      </trkpt>
      <trkpt lat="45.95225" lon="3.30405">
        <ele>305.4</ele>
        <time>2024-04-15T16:26:05Z</time>
      </trkpt>
      <trkpt lat="45.95228" lon="3.30415">
        <ele>305.4</ele>
        <time>2024-04-15T16:26:06Z</time>
      </trkpt>
      <trkpt lat="45.95231" lon="3.30426">
        <ele>305.2</ele>
        <time>2024-04-15T16:26:07Z</time>
      </trkpt>
      <trkpt lat="45.95235" lon="3.30437">
        <ele>305.4</ele>
        <time>2024-04-15T16:26:08Z</time>
      </trkpt>
      <trkpt lat="45.95239" lon="3.30447">
        <ele>305.4</ele>
        <time>2024-04-15T16:26:09Z</time>
      </trkpt>
      <trkpt lat="45.95243" lon="3.30457">
        <ele>305.4</ele>
        <time>2024-04-15T16:26:10Z</time>
      </trkpt>
      <trkpt lat="45.95248" lon="3.30468">
        <ele>305.4</ele>
        <time>2024-04-15T16:26:11Z</time>
      </trkpt>
      <trkpt lat="45.95252" lon="3.30477">
        <ele>305.4</ele>
        <time>2024-04-15T16:26:12Z</time>
      </trkpt>
      <trkpt lat="45.95256" lon="3.30487">
        <ele>305.4</ele>
        <time>2024-04-15T16:26:13Z</time>
      </trkpt>
      <trkpt lat="45.9526" lon="3.30498">
        <ele>305.4</ele>
        <time>2024-04-15T16:26:14Z</time>
      </trkpt>
      <trkpt lat="45.95264" lon="3.30507">
        <ele>305.4</ele>
        <time>2024-04-15T16:26:15Z</time>
      </trkpt>
      <trkpt lat="45.95268" lon="3.30517">
        <ele>305.4</ele>
        <time>2024-04-15T16:26:16Z</time>
      </trkpt>
      <trkpt lat="45.95272" lon="3.30527">
        <ele>305.4</ele>
        <time>2024-04-15T16:26:17Z</time>
      </trkpt>
      <trkpt lat="45.95276" lon="3.30536">
        <ele>305.4</ele>
        <time>2024-04-15T16:26:18Z</time>
      </trkpt>
      <trkpt lat="45.95279" lon="3.30547">
        <ele>305.4</ele>
        <time>2024-04-15T16:26:19Z</time>
      </trkpt>
      <trkpt lat="45.9528" lon="3.30559">
        <ele>305.4</ele>
        <time>2024-04-15T16:26:20Z</time>
      </trkpt>
      <trkpt lat="45.95281" lon="3.3057">
        <ele>305.4</ele>
        <time>2024-04-15T16:26:21Z</time>
      </trkpt>
      <trkpt lat="45.95282" lon="3.30582">
        <ele>305.4</ele>
        <time>2024-04-15T16:26:22Z</time>
      </trkpt>
      <trkpt lat="45.95282" lon="3.30593">
        <ele>305.4</ele>
        <time>2024-04-15T16:26:23Z</time>
      </trkpt>
      <trkpt lat="45.95283" lon="3.30604">
        <ele>305.4</ele>
        <time>2024-04-15T16:26:24Z</time>
      </trkpt>
      <trkpt lat="45.95284" lon="3.30616">
        <ele>305.4</ele>
        <time>2024-04-15T16:26:25Z</time>
      </trkpt>
      <trkpt lat="45.95285" lon="3.30627">
        <ele>305.6</ele>
        <time>2024-04-15T16:26:26Z</time>
      </trkpt>
      <trkpt lat="45.95286" lon="3.30638">
        <ele>305.6</ele>
        <time>2024-04-15T16:26:27Z</time>
      </trkpt>
      <trkpt lat="45.95287" lon="3.3065">
        <ele>305.6</ele>
        <time>2024-04-15T16:26:28Z</time>
      </trkpt>
      <trkpt lat="45.95288" lon="3.30661">
        <ele>305.6</ele>
        <time>2024-04-15T16:26:29Z</time>
      </trkpt>
      <trkpt lat="45.95289" lon="3.30672">
        <ele>305.6</ele>
        <time>2024-04-15T16:26:30Z</time>
      </trkpt>
      <trkpt lat="45.95289" lon="3.30683">
        <ele>305.8</ele>
        <time>2024-04-15T16:26:31Z</time>
      </trkpt>
      <trkpt lat="45.9529" lon="3.30694">
        <ele>305.8</ele>
        <time>2024-04-15T16:26:32Z</time>
      </trkpt>
      <trkpt lat="45.95291" lon="3.30705">
        <ele>305.8</ele>
        <time>2024-04-15T16:26:33Z</time>
      </trkpt>
      <trkpt lat="45.95292" lon="3.30716">
        <ele>305.8</ele>
        <time>2024-04-15T16:26:34Z</time>
      </trkpt>
      <trkpt lat="45.95293" lon="3.30726">
        <ele>305.8</ele>
        <time>2024-04-15T16:26:35Z</time>
      </trkpt>
      <trkpt lat="45.95294" lon="3.30737">
        <ele>305.8</ele>
        <time>2024-04-15T16:26:36Z</time>
      </trkpt>
      <trkpt lat="45.95294" lon="3.30748">
        <ele>305.8</ele>
        <time>2024-04-15T16:26:37Z</time>
      </trkpt>
      <trkpt lat="45.95295" lon="3.30759">
        <ele>305.8</ele>
        <time>2024-04-15T16:26:38Z</time>
      </trkpt>
      <trkpt lat="45.95296" lon="3.3077">
        <ele>305.8</ele>
        <time>2024-04-15T16:26:39Z</time>
      </trkpt>
      <trkpt lat="45.95296" lon="3.30781">
        <ele>306</ele>
        <time>2024-04-15T16:26:40Z</time>
      </trkpt>
      <trkpt lat="45.95297" lon="3.30792">
        <ele>306</ele>
        <time>2024-04-15T16:26:41Z</time>
      </trkpt>
      <trkpt lat="45.95297" lon="3.30803">
        <ele>306</ele>
        <time>2024-04-15T16:26:42Z</time>
      </trkpt>
      <trkpt lat="45.95298" lon="3.30814">
        <ele>306</ele>
        <time>2024-04-15T16:26:43Z</time>
      </trkpt>
      <trkpt lat="45.95298" lon="3.30824">
        <ele>306</ele>
        <time>2024-04-15T16:26:44Z</time>
      </trkpt>
      <trkpt lat="45.95299" lon="3.30834">
        <ele>306.2</ele>
        <time>2024-04-15T16:26:45Z</time>
      </trkpt>
      <trkpt lat="45.95299" lon="3.30844">
        <ele>306.2</ele>
        <time>2024-04-15T16:26:46Z</time>
      </trkpt>
      <trkpt lat="45.95299" lon="3.30854">
        <ele>306.2</ele>
        <time>2024-04-15T16:26:47Z</time>
      </trkpt>
      <trkpt lat="45.953" lon="3.30864">
        <ele>306.2</ele>
        <time>2024-04-15T16:26:48Z</time>
      </trkpt>
      <trkpt lat="45.953" lon="3.30875">
        <ele>306.2</ele>
        <time>2024-04-15T16:26:49Z</time>
      </trkpt>
      <trkpt lat="45.95301" lon="3.30884">
        <ele>306.4</ele>
        <time>2024-04-15T16:26:50Z</time>
      </trkpt>
      <trkpt lat="45.95301" lon="3.30895">
        <ele>306.4</ele>
        <time>2024-04-15T16:26:51Z</time>
      </trkpt>
      <trkpt lat="45.95302" lon="3.30905">
        <ele>306.4</ele>
        <time>2024-04-15T16:26:52Z</time>
      </trkpt>
      <trkpt lat="45.95302" lon="3.30915">
        <ele>306.4</ele>
        <time>2024-04-15T16:26:53Z</time>
      </trkpt>
      <trkpt lat="45.95302" lon="3.30925">
        <ele>306.6</ele>
        <time>2024-04-15T16:26:54Z</time>
      </trkpt>
      <trkpt lat="45.95303" lon="3.30934">
        <ele>306.6</ele>
        <time>2024-04-15T16:26:55Z</time>
      </trkpt>
      <trkpt lat="45.95303" lon="3.30944">
        <ele>306.6</ele>
        <time>2024-04-15T16:26:56Z</time>
      </trkpt>
      <trkpt lat="45.95304" lon="3.30954">
        <ele>306.8</ele>
        <time>2024-04-15T16:26:57Z</time>
      </trkpt>
      <trkpt lat="45.95304" lon="3.30965">
        <ele>306.8</ele>
        <time>2024-04-15T16:26:58Z</time>
      </trkpt>
      <trkpt lat="45.95304" lon="3.30975">
        <ele>306.8</ele>
        <time>2024-04-15T16:26:59Z</time>
      </trkpt>
      <trkpt lat="45.95305" lon="3.30984">
        <ele>307</ele>
        <time>2024-04-15T16:27:00Z</time>
      </trkpt>
      <trkpt lat="45.95305" lon="3.30994">
        <ele>307</ele>
        <time>2024-04-15T16:27:01Z</time>
      </trkpt>
      <trkpt lat="45.95306" lon="3.31004">
        <ele>307</ele>
        <time>2024-04-15T16:27:02Z</time>
      </trkpt>
      <trkpt lat="45.95306" lon="3.31014">
        <ele>307.2</ele>
        <time>2024-04-15T16:27:03Z</time>
      </trkpt>
      <trkpt lat="45.95306" lon="3.31024">
        <ele>307.2</ele>
        <time>2024-04-15T16:27:04Z</time>
      </trkpt>
      <trkpt lat="45.95306" lon="3.31034">
        <ele>307.2</ele>
        <time>2024-04-15T16:27:05Z</time>
      </trkpt>
      <trkpt lat="45.95306" lon="3.31043">
        <ele>307.2</ele>
        <time>2024-04-15T16:27:06Z</time>
      </trkpt>
      <trkpt lat="45.95306" lon="3.31053">
        <ele>307.2</ele>
        <time>2024-04-15T16:27:07Z</time>
      </trkpt>
      <trkpt lat="45.95306" lon="3.31062">
        <ele>307.2</ele>
        <time>2024-04-15T16:27:08Z</time>
      </trkpt>
      <trkpt lat="45.95306" lon="3.31071">
        <ele>307.2</ele>
        <time>2024-04-15T16:27:09Z</time>
      </trkpt>
      <trkpt lat="45.95306" lon="3.3108">
        <ele>307.2</ele>
        <time>2024-04-15T16:27:10Z</time>
      </trkpt>
      <trkpt lat="45.95306" lon="3.31089">
        <ele>307.2</ele>
        <time>2024-04-15T16:27:11Z</time>
      </trkpt>
      <trkpt lat="45.95306" lon="3.31098">
        <ele>307.2</ele>
        <time>2024-04-15T16:27:12Z</time>
      </trkpt>
      <trkpt lat="45.95306" lon="3.31108">
        <ele>307.4</ele>
        <time>2024-04-15T16:27:13Z</time>
      </trkpt>
      <trkpt lat="45.95306" lon="3.31117">
        <ele>307.4</ele>
        <time>2024-04-15T16:27:14Z</time>
      </trkpt>
      <trkpt lat="45.95306" lon="3.31127">
        <ele>307.4</ele>
        <time>2024-04-15T16:27:15Z</time>
      </trkpt>
      <trkpt lat="45.95306" lon="3.31137">
        <ele>307.4</ele>
        <time>2024-04-15T16:27:16Z</time>
      </trkpt>
      <trkpt lat="45.95306" lon="3.31146">
        <ele>307.6</ele>
        <time>2024-04-15T16:27:17Z</time>
      </trkpt>
      <trkpt lat="45.95306" lon="3.31156">
        <ele>307.6</ele>
        <time>2024-04-15T16:27:18Z</time>
      </trkpt>
      <trkpt lat="45.95306" lon="3.31166">
        <ele>307.6</ele>
        <time>2024-04-15T16:27:19Z</time>
      </trkpt>
      <trkpt lat="45.95306" lon="3.31176">
        <ele>307.8</ele>
        <time>2024-04-15T16:27:20Z</time>
      </trkpt>
      <trkpt lat="45.95306" lon="3.31186">
        <ele>307.8</ele>
        <time>2024-04-15T16:27:21Z</time>
      </trkpt>
      <trkpt lat="45.95306" lon="3.31196">
        <ele>307.8</ele>
        <time>2024-04-15T16:27:22Z</time>
      </trkpt>
      <trkpt lat="45.95306" lon="3.31206">
        <ele>307.8</ele>
        <time>2024-04-15T16:27:23Z</time>
      </trkpt>
      <trkpt lat="45.95306" lon="3.31215">
        <ele>308</ele>
        <time>2024-04-15T16:27:24Z</time>
      </trkpt>
      <trkpt lat="45.95306" lon="3.31225">
        <ele>308</ele>
        <time>2024-04-15T16:27:25Z</time>
      </trkpt>
      <trkpt lat="45.95306" lon="3.31235">
        <ele>308</ele>
        <time>2024-04-15T16:27:26Z</time>
      </trkpt>
      <trkpt lat="45.95306" lon="3.31244">
        <ele>308</ele>
        <time>2024-04-15T16:27:27Z</time>
      </trkpt>
      <trkpt lat="45.95306" lon="3.31253">
        <ele>308</ele>
        <time>2024-04-15T16:27:28Z</time>
      </trkpt>
      <trkpt lat="45.95306" lon="3.31263">
        <ele>308</ele>
        <time>2024-04-15T16:27:29Z</time>
      </trkpt>
      <trkpt lat="45.95306" lon="3.31272">
        <ele>308.2</ele>
        <time>2024-04-15T16:27:30Z</time>
      </trkpt>
      <trkpt lat="45.95306" lon="3.31282">
        <ele>308.2</ele>
        <time>2024-04-15T16:27:31Z</time>
      </trkpt>
      <trkpt lat="45.95306" lon="3.31291">
        <ele>308.2</ele>
        <time>2024-04-15T16:27:32Z</time>
      </trkpt>
      <trkpt lat="45.95306" lon="3.313">
        <ele>308.4</ele>
        <time>2024-04-15T16:27:33Z</time>
      </trkpt>
      <trkpt lat="45.95306" lon="3.31309">
        <ele>308.4</ele>
        <time>2024-04-15T16:27:34Z</time>
      </trkpt>
      <trkpt lat="45.95306" lon="3.31318">
        <ele>308.4</ele>
        <time>2024-04-15T16:27:35Z</time>
      </trkpt>
      <trkpt lat="45.95306" lon="3.31327">
        <ele>308.6</ele>
        <time>2024-04-15T16:27:36Z</time>
      </trkpt>
      <trkpt lat="45.95306" lon="3.31336">
        <ele>308.6</ele>
        <time>2024-04-15T16:27:37Z</time>
      </trkpt>
      <trkpt lat="45.95307" lon="3.31346">
        <ele>308.6</ele>
        <time>2024-04-15T16:27:38Z</time>
      </trkpt>
      <trkpt lat="45.9531" lon="3.31353">
        <ele>308.8</ele>
        <time>2024-04-15T16:27:39Z</time>
      </trkpt>
      <trkpt lat="45.95312" lon="3.31361">
        <ele>308.8</ele>
        <time>2024-04-15T16:27:40Z</time>
      </trkpt>
      <trkpt lat="45.95315" lon="3.31369">
        <ele>308.8</ele>
        <time>2024-04-15T16:27:41Z</time>
      </trkpt>
      <trkpt lat="45.95317" lon="3.31377">
        <ele>309</ele>
        <time>2024-04-15T16:27:42Z</time>
      </trkpt>
      <trkpt lat="45.95319" lon="3.31386">
        <ele>309</ele>
        <time>2024-04-15T16:27:43Z</time>
      </trkpt>
      <trkpt lat="45.9532" lon="3.31394">
        <ele>309.2</ele>
        <time>2024-04-15T16:27:44Z</time>
      </trkpt>
      <trkpt lat="45.95322" lon="3.31403">
        <ele>309.2</ele>
        <time>2024-04-15T16:27:45Z</time>
      </trkpt>
      <trkpt lat="45.95323" lon="3.31411">
        <ele>309.4</ele>
        <time>2024-04-15T16:27:46Z</time>
      </trkpt>
      <trkpt lat="45.95325" lon="3.3142">
        <ele>309.4</ele>
        <time>2024-04-15T16:27:47Z</time>
      </trkpt>
      <trkpt lat="45.95326" lon="3.31429">
        <ele>309.6</ele>
        <time>2024-04-15T16:27:48Z</time>
      </trkpt>
      <trkpt lat="45.95326" lon="3.31437">
        <ele>309.6</ele>
        <time>2024-04-15T16:27:49Z</time>
      </trkpt>
      <trkpt lat="45.95327" lon="3.31446">
        <ele>309.8</ele>
        <time>2024-04-15T16:27:50Z</time>
      </trkpt>
      <trkpt lat="45.95327" lon="3.31454">
        <ele>309.8</ele>
        <time>2024-04-15T16:27:51Z</time>
      </trkpt>
      <trkpt lat="45.95328" lon="3.31463">
        <ele>309.8</ele>
        <time>2024-04-15T16:27:52Z</time>
      </trkpt>
      <trkpt lat="45.95328" lon="3.31471">
        <ele>310</ele>
        <time>2024-04-15T16:27:53Z</time>
      </trkpt>
      <trkpt lat="45.95328" lon="3.31479">
        <ele>310</ele>
        <time>2024-04-15T16:27:54Z</time>
      </trkpt>
      <trkpt lat="45.95329" lon="3.31488">
        <ele>310</ele>
        <time>2024-04-15T16:27:55Z</time>
      </trkpt>
      <trkpt lat="45.95329" lon="3.31496">
        <ele>310.2</ele>
        <time>2024-04-15T16:27:56Z</time>
      </trkpt>
      <trkpt lat="45.9533" lon="3.31505">
        <ele>310.2</ele>
        <time>2024-04-15T16:27:57Z</time>
      </trkpt>
      <trkpt lat="45.9533" lon="3.31514">
        <ele>310.2</ele>
        <time>2024-04-15T16:27:58Z</time>
      </trkpt>
      <trkpt lat="45.95329" lon="3.31523">
        <ele>310.4</ele>
        <time>2024-04-15T16:27:59Z</time>
      </trkpt>
      <trkpt lat="45.95328" lon="3.31531">
        <ele>310.4</ele>
        <time>2024-04-15T16:28:00Z</time>
      </trkpt>
      <trkpt lat="45.95327" lon="3.31539">
        <ele>310.4</ele>
        <time>2024-04-15T16:28:01Z</time>
      </trkpt>
      <trkpt lat="45.95326" lon="3.31547">
        <ele>310.6</ele>
        <time>2024-04-15T16:28:02Z</time>
      </trkpt>
      <trkpt lat="45.95325" lon="3.31556">
        <ele>310.6</ele>
        <time>2024-04-15T16:28:03Z</time>
      </trkpt>
      <trkpt lat="45.95324" lon="3.31564">
        <ele>310.8</ele>
        <time>2024-04-15T16:28:04Z</time>
      </trkpt>
      <trkpt lat="45.95323" lon="3.31572">
        <ele>310.8</ele>
        <time>2024-04-15T16:28:05Z</time>
      </trkpt>
      <trkpt lat="45.95322" lon="3.3158">
        <ele>310.8</ele>
        <time>2024-04-15T16:28:06Z</time>
      </trkpt>
      <trkpt lat="45.95322" lon="3.31588">
        <ele>311</ele>
        <time>2024-04-15T16:28:07Z</time>
      </trkpt>
      <trkpt lat="45.95321" lon="3.31596">
        <ele>311.2</ele>
        <time>2024-04-15T16:28:08Z</time>
      </trkpt>
      <trkpt lat="45.9532" lon="3.31605">
        <ele>311.2</ele>
        <time>2024-04-15T16:28:09Z</time>
      </trkpt>
      <trkpt lat="45.95319" lon="3.31613">
        <ele>311.4</ele>
        <time>2024-04-15T16:28:10Z</time>
      </trkpt>
      <trkpt lat="45.95318" lon="3.31621">
        <ele>311.4</ele>
        <time>2024-04-15T16:28:11Z</time>
      </trkpt>
      <trkpt lat="45.95317" lon="3.3163">
        <ele>311.6</ele>
        <time>2024-04-15T16:28:12Z</time>
      </trkpt>
      <trkpt lat="45.95316" lon="3.31639">
        <ele>311.6</ele>
        <time>2024-04-15T16:28:13Z</time>
      </trkpt>
      <trkpt lat="45.95315" lon="3.31647">
        <ele>311.8</ele>
        <time>2024-04-15T16:28:14Z</time>
      </trkpt>
      <trkpt lat="45.95314" lon="3.31656">
        <ele>312</ele>
        <time>2024-04-15T16:28:15Z</time>
      </trkpt>
      <trkpt lat="45.95313" lon="3.31665">
        <ele>312</ele>
        <time>2024-04-15T16:28:16Z</time>
      </trkpt>
      <trkpt lat="45.95312" lon="3.31674">
        <ele>312.2</ele>
        <time>2024-04-15T16:28:17Z</time>
      </trkpt>
      <trkpt lat="45.95311" lon="3.31683">
        <ele>312.2</ele>
        <time>2024-04-15T16:28:18Z</time>
      </trkpt>
      <trkpt lat="45.9531" lon="3.31691">
        <ele>312.4</ele>
        <time>2024-04-15T16:28:19Z</time>
      </trkpt>
      <trkpt lat="45.95309" lon="3.317">
        <ele>312.4</ele>
        <time>2024-04-15T16:28:20Z</time>
      </trkpt>
      <trkpt lat="45.95308" lon="3.31708">
        <ele>312.6</ele>
        <time>2024-04-15T16:28:21Z</time>
      </trkpt>
      <trkpt lat="45.95307" lon="3.31717">
        <ele>312.6</ele>
        <time>2024-04-15T16:28:22Z</time>
      </trkpt>
      <trkpt lat="45.95306" lon="3.31726">
        <ele>312.8</ele>
        <time>2024-04-15T16:28:23Z</time>
      </trkpt>
      <trkpt lat="45.95306" lon="3.31734">
        <ele>312.8</ele>
        <time>2024-04-15T16:28:24Z</time>
      </trkpt>
      <trkpt lat="45.95307" lon="3.31743">
        <ele>313</ele>
        <time>2024-04-15T16:28:25Z</time>
      </trkpt>
      <trkpt lat="45.95308" lon="3.31752">
        <ele>313</ele>
        <time>2024-04-15T16:28:26Z</time>
      </trkpt>
      <trkpt lat="45.95309" lon="3.3176">
        <ele>313.2</ele>
        <time>2024-04-15T16:28:27Z</time>
      </trkpt>
      <trkpt lat="45.95309" lon="3.31769">
        <ele>313.2</ele>
        <time>2024-04-15T16:28:28Z</time>
      </trkpt>
      <trkpt lat="45.9531" lon="3.31778">
        <ele>313.4</ele>
        <time>2024-04-15T16:28:29Z</time>
      </trkpt>
      <trkpt lat="45.95311" lon="3.31787">
        <ele>313.4</ele>
        <time>2024-04-15T16:28:30Z</time>
      </trkpt>
      <trkpt lat="45.95312" lon="3.31796">
        <ele>313.6</ele>
        <time>2024-04-15T16:28:31Z</time>
      </trkpt>
      <trkpt lat="45.95313" lon="3.31804">
        <ele>313.6</ele>
        <time>2024-04-15T16:28:32Z</time>
      </trkpt>
      <trkpt lat="45.95314" lon="3.31813">
        <ele>313.8</ele>
        <time>2024-04-15T16:28:33Z</time>
      </trkpt>
      <trkpt lat="45.95315" lon="3.31822">
        <ele>313.8</ele>
        <time>2024-04-15T16:28:34Z</time>
      </trkpt>
      <trkpt lat="45.95315" lon="3.31831">
        <ele>313.8</ele>
        <time>2024-04-15T16:28:35Z</time>
      </trkpt>
      <trkpt lat="45.95316" lon="3.3184">
        <ele>314</ele>
        <time>2024-04-15T16:28:36Z</time>
      </trkpt>
      <trkpt lat="45.95317" lon="3.3185">
        <ele>314</ele>
        <time>2024-04-15T16:28:37Z</time>
      </trkpt>
      <trkpt lat="45.95318" lon="3.31859">
        <ele>314.2</ele>
        <time>2024-04-15T16:28:38Z</time>
      </trkpt>
      <trkpt lat="45.95319" lon="3.31868">
        <ele>314.2</ele>
        <time>2024-04-15T16:28:39Z</time>
      </trkpt>
      <trkpt lat="45.9532" lon="3.31878">
        <ele>314.2</ele>
        <time>2024-04-15T16:28:40Z</time>
      </trkpt>
      <trkpt lat="45.95321" lon="3.31888">
        <ele>314.4</ele>
        <time>2024-04-15T16:28:41Z</time>
      </trkpt>
      <trkpt lat="45.95322" lon="3.31897">
        <ele>314.4</ele>
        <time>2024-04-15T16:28:42Z</time>
      </trkpt>
      <trkpt lat="45.95323" lon="3.31907">
        <ele>314.6</ele>
        <time>2024-04-15T16:28:43Z</time>
      </trkpt>
      <trkpt lat="45.95324" lon="3.31917">
        <ele>314.6</ele>
        <time>2024-04-15T16:28:44Z</time>
      </trkpt>
      <trkpt lat="45.95325" lon="3.31926">
        <ele>314.6</ele>
        <time>2024-04-15T16:28:45Z</time>
      </trkpt>
      <trkpt lat="45.95326" lon="3.31936">
        <ele>314.8</ele>
        <time>2024-04-15T16:28:46Z</time>
      </trkpt>
      <trkpt lat="45.95326" lon="3.31946">
        <ele>314.8</ele>
        <time>2024-04-15T16:28:47Z</time>
      </trkpt>
      <trkpt lat="45.95327" lon="3.31955">
        <ele>315</ele>
        <time>2024-04-15T16:28:48Z</time>
      </trkpt>
      <trkpt lat="45.95328" lon="3.31964">
        <ele>315</ele>
        <time>2024-04-15T16:28:49Z</time>
      </trkpt>
      <trkpt lat="45.95328" lon="3.31974">
        <ele>315</ele>
        <time>2024-04-15T16:28:50Z</time>
      </trkpt>
      <trkpt lat="45.95329" lon="3.31984">
        <ele>315</ele>
        <time>2024-04-15T16:28:51Z</time>
      </trkpt>
      <trkpt lat="45.9533" lon="3.31993">
        <ele>315.2</ele>
        <time>2024-04-15T16:28:52Z</time>
      </trkpt>
      <trkpt lat="45.9533" lon="3.32003">
        <ele>315.2</ele>
        <time>2024-04-15T16:28:53Z</time>
      </trkpt>
      <trkpt lat="45.9533" lon="3.32013">
        <ele>315.4</ele>
        <time>2024-04-15T16:28:54Z</time>
      </trkpt>
      <trkpt lat="45.9533" lon="3.32022">
        <ele>315.4</ele>
        <time>2024-04-15T16:28:55Z</time>
      </trkpt>
      <trkpt lat="45.9533" lon="3.32032">
        <ele>315.6</ele>
        <time>2024-04-15T16:28:56Z</time>
      </trkpt>
      <trkpt lat="45.9533" lon="3.32041">
        <ele>315.6</ele>
        <time>2024-04-15T16:28:57Z</time>
      </trkpt>
      <trkpt lat="45.9533" lon="3.32051">
        <ele>315.8</ele>
        <time>2024-04-15T16:28:58Z</time>
      </trkpt>
      <trkpt lat="45.9533" lon="3.3206">
        <ele>316</ele>
        <time>2024-04-15T16:28:59Z</time>
      </trkpt>
      <trkpt lat="45.9533" lon="3.32069">
        <ele>316</ele>
        <time>2024-04-15T16:29:00Z</time>
      </trkpt>
      <trkpt lat="45.9533" lon="3.32078">
        <ele>316.2</ele>
        <time>2024-04-15T16:29:01Z</time>
      </trkpt>
      <trkpt lat="45.9533" lon="3.32088">
        <ele>316.2</ele>
        <time>2024-04-15T16:29:02Z</time>
      </trkpt>
      <trkpt lat="45.9533" lon="3.32097">
        <ele>316.4</ele>
        <time>2024-04-15T16:29:03Z</time>
      </trkpt>
      <trkpt lat="45.9533" lon="3.32106">
        <ele>316.6</ele>
        <time>2024-04-15T16:29:04Z</time>
      </trkpt>
      <trkpt lat="45.9533" lon="3.32114">
        <ele>316.6</ele>
        <time>2024-04-15T16:29:05Z</time>
      </trkpt>
      <trkpt lat="45.9533" lon="3.32123">
        <ele>316.8</ele>
        <time>2024-04-15T16:29:06Z</time>
      </trkpt>
      <trkpt lat="45.9533" lon="3.32132">
        <ele>317</ele>
        <time>2024-04-15T16:29:07Z</time>
      </trkpt>
      <trkpt lat="45.9533" lon="3.32141">
        <ele>317</ele>
        <time>2024-04-15T16:29:08Z</time>
      </trkpt>
      <trkpt lat="45.9533" lon="3.3215">
        <ele>317.2</ele>
        <time>2024-04-15T16:29:09Z</time>
      </trkpt>
      <trkpt lat="45.9533" lon="3.32158">
        <ele>317.4</ele>
        <time>2024-04-15T16:29:10Z</time>
      </trkpt>
      <trkpt lat="45.9533" lon="3.32167">
        <ele>317.4</ele>
        <time>2024-04-15T16:29:11Z</time>
      </trkpt>
      <trkpt lat="45.9533" lon="3.32176">
        <ele>317.6</ele>
        <time>2024-04-15T16:29:12Z</time>
      </trkpt>
      <trkpt lat="45.9533" lon="3.32184">
        <ele>317.8</ele>
        <time>2024-04-15T16:29:13Z</time>
      </trkpt>
      <trkpt lat="45.9533" lon="3.32192">
        <ele>317.8</ele>
        <time>2024-04-15T16:29:14Z</time>
      </trkpt>
      <trkpt lat="45.9533" lon="3.322">
        <ele>318</ele>
        <time>2024-04-15T16:29:15Z</time>
      </trkpt>
      <trkpt lat="45.9533" lon="3.32207">
        <ele>318.2</ele>
        <time>2024-04-15T16:29:16Z</time>
      </trkpt>
      <trkpt lat="45.9533" lon="3.32215">
        <ele>318.2</ele>
        <time>2024-04-15T16:29:17Z</time>
      </trkpt>
      <trkpt lat="45.9533" lon="3.32222">
        <ele>318.4</ele>
        <time>2024-04-15T16:29:18Z</time>
      </trkpt>
      <trkpt lat="45.9533" lon="3.32229">
        <ele>318.4</ele>
        <time>2024-04-15T16:29:19Z</time>
      </trkpt>
      <trkpt lat="45.9533" lon="3.32237">
        <ele>318.6</ele>
        <time>2024-04-15T16:29:20Z</time>
      </trkpt>
      <trkpt lat="45.9533" lon="3.32245">
        <ele>318.8</ele>
        <time>2024-04-15T16:29:21Z</time>
      </trkpt>
      <trkpt lat="45.9533" lon="3.32252">
        <ele>318.8</ele>
        <time>2024-04-15T16:29:22Z</time>
      </trkpt>
      <trkpt lat="45.9533" lon="3.3226">
        <ele>319</ele>
        <time>2024-04-15T16:29:23Z</time>
      </trkpt>
      <trkpt lat="45.9533" lon="3.32267">
        <ele>319.2</ele>
        <time>2024-04-15T16:29:24Z</time>
      </trkpt>
      <trkpt lat="45.9533" lon="3.32274">
        <ele>319.2</ele>
        <time>2024-04-15T16:29:25Z</time>
      </trkpt>
      <trkpt lat="45.9533" lon="3.32282">
        <ele>319.4</ele>
        <time>2024-04-15T16:29:26Z</time>
      </trkpt>
      <trkpt lat="45.9533" lon="3.32289">
        <ele>319.6</ele>
        <time>2024-04-15T16:29:27Z</time>
      </trkpt>
      <trkpt lat="45.9533" lon="3.32297">
        <ele>319.8</ele>
        <time>2024-04-15T16:29:28Z</time>
      </trkpt>
      <trkpt lat="45.9533" lon="3.32304">
        <ele>320</ele>
        <time>2024-04-15T16:29:29Z</time>
      </trkpt>
      <trkpt lat="45.9533" lon="3.32311">
        <ele>320</ele>
        <time>2024-04-15T16:29:30Z</time>
      </trkpt>
      <trkpt lat="45.9533" lon="3.32318">
        <ele>320.2</ele>
        <time>2024-04-15T16:29:31Z</time>
      </trkpt>
      <trkpt lat="45.9533" lon="3.32325">
        <ele>320.4</ele>
        <time>2024-04-15T16:29:32Z</time>
      </trkpt>
      <trkpt lat="45.9533" lon="3.32332">
        <ele>320.4</ele>
        <time>2024-04-15T16:29:33Z</time>
      </trkpt>
      <trkpt lat="45.9533" lon="3.32339">
        <ele>320.6</ele>
        <time>2024-04-15T16:29:34Z</time>
      </trkpt>
      <trkpt lat="45.9533" lon="3.32346">
        <ele>320.8</ele>
        <time>2024-04-15T16:29:35Z</time>
      </trkpt>
      <trkpt lat="45.9533" lon="3.32353">
        <ele>321</ele>
        <time>2024-04-15T16:29:36Z</time>
      </trkpt>
      <trkpt lat="45.9533" lon="3.32359">
        <ele>321</ele>
        <time>2024-04-15T16:29:37Z</time>
      </trkpt>
      <trkpt lat="45.9533" lon="3.32367">
        <ele>321.2</ele>
        <time>2024-04-15T16:29:38Z</time>
      </trkpt>
      <trkpt lat="45.9533" lon="3.32373">
        <ele>321.4</ele>
        <time>2024-04-15T16:29:39Z</time>
      </trkpt>
      <trkpt lat="45.9533" lon="3.3238">
        <ele>321.4</ele>
        <time>2024-04-15T16:29:40Z</time>
      </trkpt>
      <trkpt lat="45.9533" lon="3.32386">
        <ele>321.6</ele>
        <time>2024-04-15T16:29:41Z</time>
      </trkpt>
      <trkpt lat="45.9533" lon="3.32393">
        <ele>321.8</ele>
        <time>2024-04-15T16:29:42Z</time>
      </trkpt>
      <trkpt lat="45.9533" lon="3.32399">
        <ele>322</ele>
        <time>2024-04-15T16:29:43Z</time>
      </trkpt>
      <trkpt lat="45.9533" lon="3.32406">
        <ele>322</ele>
        <time>2024-04-15T16:29:44Z</time>
      </trkpt>
      <trkpt lat="45.9533" lon="3.32412">
        <ele>322.2</ele>
        <time>2024-04-15T16:29:45Z</time>
      </trkpt>
      <trkpt lat="45.9533" lon="3.32418">
        <ele>322.4</ele>
        <time>2024-04-15T16:29:46Z</time>
      </trkpt>
      <trkpt lat="45.9533" lon="3.32425">
        <ele>322.4</ele>
        <time>2024-04-15T16:29:47Z</time>
      </trkpt>
      <trkpt lat="45.9533" lon="3.32432">
        <ele>322.6</ele>
        <time>2024-04-15T16:29:48Z</time>
      </trkpt>
      <trkpt lat="45.9533" lon="3.32438">
        <ele>322.8</ele>
        <time>2024-04-15T16:29:49Z</time>
      </trkpt>
      <trkpt lat="45.9533" lon="3.32444">
        <ele>323</ele>
        <time>2024-04-15T16:29:50Z</time>
      </trkpt>
      <trkpt lat="45.9533" lon="3.32451">
        <ele>323.2</ele>
        <time>2024-04-15T16:29:51Z</time>
      </trkpt>
      <trkpt lat="45.9533" lon="3.32457">
        <ele>323.4</ele>
        <time>2024-04-15T16:29:52Z</time>
      </trkpt>
      <trkpt lat="45.9533" lon="3.32463">
        <ele>323.6</ele>
        <time>2024-04-15T16:29:53Z</time>
      </trkpt>
      <trkpt lat="45.9533" lon="3.32469">
        <ele>323.8</ele>
        <time>2024-04-15T16:29:54Z</time>
      </trkpt>
      <trkpt lat="45.9533" lon="3.32475">
        <ele>324</ele>
        <time>2024-04-15T16:29:55Z</time>
      </trkpt>
      <trkpt lat="45.9533" lon="3.32481">
        <ele>324.2</ele>
        <time>2024-04-15T16:29:56Z</time>
      </trkpt>
      <trkpt lat="45.9533" lon="3.32487">
        <ele>324.2</ele>
        <time>2024-04-15T16:29:57Z</time>
      </trkpt>
      <trkpt lat="45.9533" lon="3.32494">
        <ele>324.4</ele>
        <time>2024-04-15T16:29:58Z</time>
      </trkpt>
      <trkpt lat="45.9533" lon="3.325">
        <ele>324.8</ele>
        <time>2024-04-15T16:29:59Z</time>
      </trkpt>
      <trkpt lat="45.9533" lon="3.32506">
        <ele>324.8</ele>
        <time>2024-04-15T16:30:00Z</time>
      </trkpt>
      <trkpt lat="45.9533" lon="3.32512">
        <ele>325</ele>
        <time>2024-04-15T16:30:01Z</time>
      </trkpt>
      <trkpt lat="45.9533" lon="3.32517">
        <ele>325.2</ele>
        <time>2024-04-15T16:30:02Z</time>
      </trkpt>
      <trkpt lat="45.9533" lon="3.32523">
        <ele>325.4</ele>
        <time>2024-04-15T16:30:03Z</time>
      </trkpt>
      <trkpt lat="45.9533" lon="3.32529">
        <ele>325.6</ele>
        <time>2024-04-15T16:30:04Z</time>
      </trkpt>
      <trkpt lat="45.9533" lon="3.32534">
        <ele>325.8</ele>
        <time>2024-04-15T16:30:05Z</time>
      </trkpt>
      <trkpt lat="45.9533" lon="3.3254">
        <ele>326</ele>
        <time>2024-04-15T16:30:06Z</time>
      </trkpt>
      <trkpt lat="45.9533" lon="3.32545">
        <ele>326.2</ele>
        <time>2024-04-15T16:30:07Z</time>
      </trkpt>
      <trkpt lat="45.9533" lon="3.3255">
        <ele>326.4</ele>
        <time>2024-04-15T16:30:08Z</time>
      </trkpt>
      <trkpt lat="45.9533" lon="3.32555">
        <ele>326.6</ele>
        <time>2024-04-15T16:30:09Z</time>
      </trkpt>
      <trkpt lat="45.95323" lon="3.32566">
        <ele>327</ele>
        <time>2024-04-15T16:30:10Z</time>
      </trkpt>
      <trkpt lat="45.9532" lon="3.32565">
        <ele>327.2</ele>
        <time>2024-04-15T16:30:11Z</time>
      </trkpt>
      <trkpt lat="45.95316" lon="3.32564">
        <ele>327.2</ele>
        <time>2024-04-15T16:30:12Z</time>
      </trkpt>
      <trkpt lat="45.95311" lon="3.32563">
        <ele>327.4</ele>
        <time>2024-04-15T16:30:13Z</time>
      </trkpt>
      <trkpt lat="45.95306" lon="3.32562">
        <ele>327.6</ele>
        <time>2024-04-15T16:30:14Z</time>
      </trkpt>
      <trkpt lat="45.95301" lon="3.3256">
        <ele>327.8</ele>
        <time>2024-04-15T16:30:15Z</time>
      </trkpt>
      <trkpt lat="45.95296" lon="3.32559">
        <ele>328</ele>
        <time>2024-04-15T16:30:16Z</time>
      </trkpt>
      <trkpt lat="45.9529" lon="3.32558">
        <ele>328</ele>
        <time>2024-04-15T16:30:17Z</time>
      </trkpt>
      <trkpt lat="45.95284" lon="3.32553">
        <ele>328.2</ele>
        <time>2024-04-15T16:30:18Z</time>
      </trkpt>
      <trkpt lat="45.95279" lon="3.32548">
        <ele>328.4</ele>
        <time>2024-04-15T16:30:19Z</time>
      </trkpt>
      <trkpt lat="45.95274" lon="3.32543">
        <ele>328.4</ele>
        <time>2024-04-15T16:30:20Z</time>
      </trkpt>
      <trkpt lat="45.95268" lon="3.32538">
        <ele>328.6</ele>
        <time>2024-04-15T16:30:21Z</time>
      </trkpt>
      <trkpt lat="45.95263" lon="3.32532">
        <ele>328.8</ele>
        <time>2024-04-15T16:30:22Z</time>
      </trkpt>
      <trkpt lat="45.95258" lon="3.32526">
        <ele>328.8</ele>
        <time>2024-04-15T16:30:23Z</time>
      </trkpt>
      <trkpt lat="45.95253" lon="3.32519">
        <ele>329</ele>
        <time>2024-04-15T16:30:24Z</time>
      </trkpt>
      <trkpt lat="45.95247" lon="3.32513">
        <ele>329</ele>
        <time>2024-04-15T16:30:25Z</time>
      </trkpt>
      <trkpt lat="45.95242" lon="3.32506">
        <ele>329.2</ele>
        <time>2024-04-15T16:30:26Z</time>
      </trkpt>
      <trkpt lat="45.95237" lon="3.32499">
        <ele>329.4</ele>
        <time>2024-04-15T16:30:27Z</time>
      </trkpt>
      <trkpt lat="45.95231" lon="3.32492">
        <ele>329.4</ele>
        <time>2024-04-15T16:30:28Z</time>
      </trkpt>
      <trkpt lat="45.95226" lon="3.32485">
        <ele>329.4</ele>
        <time>2024-04-15T16:30:29Z</time>
      </trkpt>
      <trkpt lat="45.9522" lon="3.32478">
        <ele>329.6</ele>
        <time>2024-04-15T16:30:30Z</time>
      </trkpt>
      <trkpt lat="45.95215" lon="3.32471">
        <ele>329.6</ele>
        <time>2024-04-15T16:30:31Z</time>
      </trkpt>
      <trkpt lat="45.9521" lon="3.32465">
        <ele>329.6</ele>
        <time>2024-04-15T16:30:32Z</time>
      </trkpt>
      <trkpt lat="45.95205" lon="3.32458">
        <ele>329.6</ele>
        <time>2024-04-15T16:30:33Z</time>
      </trkpt>
      <trkpt lat="45.952" lon="3.32452">
        <ele>329.6</ele>
        <time>2024-04-15T16:30:34Z</time>
      </trkpt>
      <trkpt lat="45.95195" lon="3.32445">
        <ele>329.8</ele>
        <time>2024-04-15T16:30:35Z</time>
      </trkpt>
      <trkpt lat="45.9519" lon="3.32438">
        <ele>329.8</ele>
        <time>2024-04-15T16:30:36Z</time>
      </trkpt>
      <trkpt lat="45.95184" lon="3.32432">
        <ele>329.8</ele>
        <time>2024-04-15T16:30:37Z</time>
      </trkpt>
      <trkpt lat="45.95178" lon="3.32426">
        <ele>330</ele>
        <time>2024-04-15T16:30:38Z</time>
      </trkpt>
      <trkpt lat="45.95172" lon="3.32421">
        <ele>330</ele>
        <time>2024-04-15T16:30:39Z</time>
      </trkpt>
      <trkpt lat="45.95165" lon="3.32416">
        <ele>330</ele>
        <time>2024-04-15T16:30:40Z</time>
      </trkpt>
      <trkpt lat="45.95159" lon="3.32411">
        <ele>330</ele>
        <time>2024-04-15T16:30:41Z</time>
      </trkpt>
      <trkpt lat="45.95152" lon="3.32406">
        <ele>330</ele>
        <time>2024-04-15T16:30:42Z</time>
      </trkpt>
      <trkpt lat="45.95145" lon="3.32401">
        <ele>330.2</ele>
        <time>2024-04-15T16:30:43Z</time>
      </trkpt>
      <trkpt lat="45.95139" lon="3.32396">
        <ele>330.2</ele>
        <time>2024-04-15T16:30:44Z</time>
      </trkpt>
      <trkpt lat="45.95132" lon="3.32391">
        <ele>330.2</ele>
        <time>2024-04-15T16:30:45Z</time>
      </trkpt>
      <trkpt lat="45.95126" lon="3.32386">
        <ele>330.2</ele>
        <time>2024-04-15T16:30:46Z</time>
      </trkpt>
      <trkpt lat="45.95119" lon="3.32383">
        <ele>330.4</ele>
        <time>2024-04-15T16:30:47Z</time>
      </trkpt>
      <trkpt lat="45.95112" lon="3.3238">
        <ele>330.4</ele>
        <time>2024-04-15T16:30:48Z</time>
      </trkpt>
      <trkpt lat="45.95105" lon="3.32377">
        <ele>330.4</ele>
        <time>2024-04-15T16:30:49Z</time>
      </trkpt>
      <trkpt lat="45.95097" lon="3.32373">
        <ele>330.6</ele>
        <time>2024-04-15T16:30:50Z</time>
      </trkpt>
      <trkpt lat="45.9509" lon="3.3237">
        <ele>330.6</ele>
        <time>2024-04-15T16:30:51Z</time>
      </trkpt>
      <trkpt lat="45.95083" lon="3.32367">
        <ele>330.6</ele>
        <time>2024-04-15T16:30:52Z</time>
      </trkpt>
      <trkpt lat="45.95076" lon="3.32366">
        <ele>330.6</ele>
        <time>2024-04-15T16:30:53Z</time>
      </trkpt>
      <trkpt lat="45.95068" lon="3.32365">
        <ele>330.6</ele>
        <time>2024-04-15T16:30:54Z</time>
      </trkpt>
      <trkpt lat="45.95061" lon="3.32364">
        <ele>330.8</ele>
        <time>2024-04-15T16:30:55Z</time>
      </trkpt>
      <trkpt lat="45.95053" lon="3.32362">
        <ele>330.8</ele>
        <time>2024-04-15T16:30:56Z</time>
      </trkpt>
      <trkpt lat="45.95045" lon="3.32361">
        <ele>330.8</ele>
        <time>2024-04-15T16:30:57Z</time>
      </trkpt>
      <trkpt lat="45.95038" lon="3.3236">
        <ele>330.8</ele>
        <time>2024-04-15T16:30:58Z</time>
      </trkpt>
      <trkpt lat="45.9503" lon="3.3236">
        <ele>330.8</ele>
        <time>2024-04-15T16:30:59Z</time>
      </trkpt>
      <trkpt lat="45.95021" lon="3.32361">
        <ele>331</ele>
        <time>2024-04-15T16:31:00Z</time>
      </trkpt>
      <trkpt lat="45.95013" lon="3.32361">
        <ele>331</ele>
        <time>2024-04-15T16:31:01Z</time>
      </trkpt>
      <trkpt lat="45.95005" lon="3.32362">
        <ele>331</ele>
        <time>2024-04-15T16:31:02Z</time>
      </trkpt>
      <trkpt lat="45.94997" lon="3.32362">
        <ele>331</ele>
        <time>2024-04-15T16:31:03Z</time>
      </trkpt>
      <trkpt lat="45.94989" lon="3.32366">
        <ele>331</ele>
        <time>2024-04-15T16:31:04Z</time>
      </trkpt>
      <trkpt lat="45.94981" lon="3.3237">
        <ele>331</ele>
        <time>2024-04-15T16:31:05Z</time>
      </trkpt>
      <trkpt lat="45.94973" lon="3.32374">
        <ele>331.2</ele>
        <time>2024-04-15T16:31:06Z</time>
      </trkpt>
      <trkpt lat="45.94965" lon="3.32378">
        <ele>331.2</ele>
        <time>2024-04-15T16:31:07Z</time>
      </trkpt>
      <trkpt lat="45.94958" lon="3.32381">
        <ele>331.2</ele>
        <time>2024-04-15T16:31:08Z</time>
      </trkpt>
      <trkpt lat="45.9495" lon="3.32385">
        <ele>331.2</ele>
        <time>2024-04-15T16:31:09Z</time>
      </trkpt>
      <trkpt lat="45.94942" lon="3.32389">
        <ele>331.2</ele>
        <time>2024-04-15T16:31:10Z</time>
      </trkpt>
      <trkpt lat="45.94935" lon="3.32393">
        <ele>331.2</ele>
        <time>2024-04-15T16:31:11Z</time>
      </trkpt>
      <trkpt lat="45.94927" lon="3.32397">
        <ele>331.2</ele>
        <time>2024-04-15T16:31:12Z</time>
      </trkpt>
      <trkpt lat="45.9492" lon="3.32403">
        <ele>331.2</ele>
        <time>2024-04-15T16:31:13Z</time>
      </trkpt>
      <trkpt lat="45.94913" lon="3.32409">
        <ele>331.2</ele>
        <time>2024-04-15T16:31:14Z</time>
      </trkpt>
      <trkpt lat="45.94905" lon="3.32415">
        <ele>331.2</ele>
        <time>2024-04-15T16:31:15Z</time>
      </trkpt>
      <trkpt lat="45.94898" lon="3.32421">
        <ele>331.2</ele>
        <time>2024-04-15T16:31:16Z</time>
      </trkpt>
      <trkpt lat="45.94891" lon="3.32427">
        <ele>331.2</ele>
        <time>2024-04-15T16:31:17Z</time>
      </trkpt>
      <trkpt lat="45.94883" lon="3.32433">
        <ele>331.4</ele>
        <time>2024-04-15T16:31:18Z</time>
      </trkpt>
      <trkpt lat="45.94875" lon="3.3244">
        <ele>331.2</ele>
        <time>2024-04-15T16:31:19Z</time>
      </trkpt>
      <trkpt lat="45.94868" lon="3.32446">
        <ele>331.2</ele>
        <time>2024-04-15T16:31:20Z</time>
      </trkpt>
      <trkpt lat="45.9486" lon="3.32453">
        <ele>331.2</ele>
        <time>2024-04-15T16:31:21Z</time>
      </trkpt>
      <trkpt lat="45.94852" lon="3.3246">
        <ele>331.2</ele>
        <time>2024-04-15T16:31:22Z</time>
      </trkpt>
      <trkpt lat="45.94844" lon="3.32466">
        <ele>331.2</ele>
        <time>2024-04-15T16:31:23Z</time>
      </trkpt>
      <trkpt lat="45.94836" lon="3.32473">
        <ele>331.2</ele>
        <time>2024-04-15T16:31:24Z</time>
      </trkpt>
      <trkpt lat="45.94828" lon="3.3248">
        <ele>331.4</ele>
        <time>2024-04-15T16:31:25Z</time>
      </trkpt>
      <trkpt lat="45.9482" lon="3.32486">
        <ele>331.2</ele>
        <time>2024-04-15T16:31:26Z</time>
      </trkpt>
      <trkpt lat="45.94812" lon="3.32493">
        <ele>331</ele>
        <time>2024-04-15T16:31:27Z</time>
      </trkpt>
      <trkpt lat="45.94804" lon="3.325">
        <ele>330.8</ele>
        <time>2024-04-15T16:31:28Z</time>
      </trkpt>
      <trkpt lat="45.94796" lon="3.32507">
        <ele>330.8</ele>
        <time>2024-04-15T16:31:29Z</time>
      </trkpt>
      <trkpt lat="45.94787" lon="3.32514">
        <ele>331</ele>
        <time>2024-04-15T16:31:30Z</time>
      </trkpt>
      <trkpt lat="45.9478" lon="3.32522">
        <ele>331</ele>
        <time>2024-04-15T16:31:31Z</time>
      </trkpt>
      <trkpt lat="45.94772" lon="3.3253">
        <ele>330.8</ele>
        <time>2024-04-15T16:31:32Z</time>
      </trkpt>
      <trkpt lat="45.94764" lon="3.32538">
        <ele>330.8</ele>
        <time>2024-04-15T16:31:33Z</time>
      </trkpt>
      <trkpt lat="45.94756" lon="3.32547">
        <ele>330.8</ele>
        <time>2024-04-15T16:31:34Z</time>
      </trkpt>
      <trkpt lat="45.94748" lon="3.32555">
        <ele>330.8</ele>
        <time>2024-04-15T16:31:35Z</time>
      </trkpt>
      <trkpt lat="45.9474" lon="3.32563">
        <ele>330.8</ele>
        <time>2024-04-15T16:31:36Z</time>
      </trkpt>
      <trkpt lat="45.94733" lon="3.32571">
        <ele>330.6</ele>
        <time>2024-04-15T16:31:37Z</time>
      </trkpt>
      <trkpt lat="45.94725" lon="3.32578">
        <ele>330.6</ele>
        <time>2024-04-15T16:31:38Z</time>
      </trkpt>
      <trkpt lat="45.94717" lon="3.32586">
        <ele>330.6</ele>
        <time>2024-04-15T16:31:39Z</time>
      </trkpt>
      <trkpt lat="45.9471" lon="3.32594">
        <ele>330.6</ele>
        <time>2024-04-15T16:31:40Z</time>
      </trkpt>
      <trkpt lat="45.94704" lon="3.32604">
        <ele>330.6</ele>
        <time>2024-04-15T16:31:41Z</time>
      </trkpt>
      <trkpt lat="45.94698" lon="3.32614">
        <ele>330.4</ele>
        <time>2024-04-15T16:31:42Z</time>
      </trkpt>
      <trkpt lat="45.94692" lon="3.32624">
        <ele>330.4</ele>
        <time>2024-04-15T16:31:43Z</time>
      </trkpt>
      <trkpt lat="45.94686" lon="3.32634">
        <ele>330.4</ele>
        <time>2024-04-15T16:31:44Z</time>
      </trkpt>
      <trkpt lat="45.94679" lon="3.32643">
        <ele>330.4</ele>
        <time>2024-04-15T16:31:45Z</time>
      </trkpt>
      <trkpt lat="45.94673" lon="3.32653">
        <ele>330.4</ele>
        <time>2024-04-15T16:31:46Z</time>
      </trkpt>
      <trkpt lat="45.94667" lon="3.32663">
        <ele>330.2</ele>
        <time>2024-04-15T16:31:47Z</time>
      </trkpt>
      <trkpt lat="45.94661" lon="3.32673">
        <ele>330.2</ele>
        <time>2024-04-15T16:31:48Z</time>
      </trkpt>
      <trkpt lat="45.94656" lon="3.32685">
        <ele>330.2</ele>
        <time>2024-04-15T16:31:49Z</time>
      </trkpt>
      <trkpt lat="45.94651" lon="3.32696">
        <ele>330.2</ele>
        <time>2024-04-15T16:31:50Z</time>
      </trkpt>
      <trkpt lat="45.94646" lon="3.32707">
        <ele>330.2</ele>
        <time>2024-04-15T16:31:51Z</time>
      </trkpt>
      <trkpt lat="45.94641" lon="3.32719">
        <ele>330.2</ele>
        <time>2024-04-15T16:31:52Z</time>
      </trkpt>
      <trkpt lat="45.94636" lon="3.3273">
        <ele>330</ele>
        <time>2024-04-15T16:31:53Z</time>
      </trkpt>
      <trkpt lat="45.94631" lon="3.32742">
        <ele>330</ele>
        <time>2024-04-15T16:31:54Z</time>
      </trkpt>
      <trkpt lat="45.94627" lon="3.32753">
        <ele>330</ele>
        <time>2024-04-15T16:31:55Z</time>
      </trkpt>
      <trkpt lat="45.94623" lon="3.32765">
        <ele>330</ele>
        <time>2024-04-15T16:31:56Z</time>
      </trkpt>
      <trkpt lat="45.94619" lon="3.32778">
        <ele>330</ele>
        <time>2024-04-15T16:31:57Z</time>
      </trkpt>
      <trkpt lat="45.94614" lon="3.3279">
        <ele>330</ele>
        <time>2024-04-15T16:31:58Z</time>
      </trkpt>
      <trkpt lat="45.9461" lon="3.32803">
        <ele>329.8</ele>
        <time>2024-04-15T16:31:59Z</time>
      </trkpt>
      <trkpt lat="45.94606" lon="3.32815">
        <ele>329.8</ele>
        <time>2024-04-15T16:32:00Z</time>
      </trkpt>
      <trkpt lat="45.94602" lon="3.32828">
        <ele>329.8</ele>
        <time>2024-04-15T16:32:01Z</time>
      </trkpt>
      <trkpt lat="45.94598" lon="3.32841">
        <ele>329.6</ele>
        <time>2024-04-15T16:32:02Z</time>
      </trkpt>
      <trkpt lat="45.94593" lon="3.32853">
        <ele>329.6</ele>
        <time>2024-04-15T16:32:03Z</time>
      </trkpt>
      <trkpt lat="45.94589" lon="3.32866">
        <ele>329.6</ele>
        <time>2024-04-15T16:32:04Z</time>
      </trkpt>
      <trkpt lat="45.94585" lon="3.32878">
        <ele>329.6</ele>
        <time>2024-04-15T16:32:05Z</time>
      </trkpt>
      <trkpt lat="45.94581" lon="3.3289">
        <ele>329.6</ele>
        <time>2024-04-15T16:32:06Z</time>
      </trkpt>
      <trkpt lat="45.94577" lon="3.32902">
        <ele>329.6</ele>
        <time>2024-04-15T16:32:07Z</time>
      </trkpt>
      <trkpt lat="45.94573" lon="3.32914">
        <ele>329.4</ele>
        <time>2024-04-15T16:32:08Z</time>
      </trkpt>
      <trkpt lat="45.94569" lon="3.32926">
        <ele>329.4</ele>
        <time>2024-04-15T16:32:09Z</time>
      </trkpt>
      <trkpt lat="45.94565" lon="3.32938">
        <ele>329.4</ele>
        <time>2024-04-15T16:32:10Z</time>
      </trkpt>
      <trkpt lat="45.94561" lon="3.3295">
        <ele>329.4</ele>
        <time>2024-04-15T16:32:11Z</time>
      </trkpt>
      <trkpt lat="45.94557" lon="3.32962">
        <ele>329.4</ele>
        <time>2024-04-15T16:32:12Z</time>
      </trkpt>
      <trkpt lat="45.94553" lon="3.32975">
        <ele>329.4</ele>
        <time>2024-04-15T16:32:13Z</time>
      </trkpt>
      <trkpt lat="45.94549" lon="3.32987">
        <ele>329.2</ele>
        <time>2024-04-15T16:32:14Z</time>
      </trkpt>
      <trkpt lat="45.94545" lon="3.32999">
        <ele>329.2</ele>
        <time>2024-04-15T16:32:15Z</time>
      </trkpt>
      <trkpt lat="45.94541" lon="3.33012">
        <ele>329.2</ele>
        <time>2024-04-15T16:32:16Z</time>
      </trkpt>
      <trkpt lat="45.94537" lon="3.33024">
        <ele>329.2</ele>
        <time>2024-04-15T16:32:17Z</time>
      </trkpt>
      <trkpt lat="45.94533" lon="3.33036">
        <ele>329.2</ele>
        <time>2024-04-15T16:32:18Z</time>
      </trkpt>
      <trkpt lat="45.94528" lon="3.33049">
        <ele>329.2</ele>
        <time>2024-04-15T16:32:19Z</time>
      </trkpt>
      <trkpt lat="45.94524" lon="3.33061">
        <ele>329</ele>
        <time>2024-04-15T16:32:20Z</time>
      </trkpt>
      <trkpt lat="45.9452" lon="3.33074">
        <ele>329</ele>
        <time>2024-04-15T16:32:21Z</time>
      </trkpt>
      <trkpt lat="45.94516" lon="3.33086">
        <ele>329</ele>
        <time>2024-04-15T16:32:22Z</time>
      </trkpt>
      <trkpt lat="45.94512" lon="3.33099">
        <ele>329</ele>
        <time>2024-04-15T16:32:23Z</time>
      </trkpt>
      <trkpt lat="45.94508" lon="3.33111">
        <ele>329</ele>
        <time>2024-04-15T16:32:24Z</time>
      </trkpt>
      <trkpt lat="45.94504" lon="3.33123">
        <ele>329</ele>
        <time>2024-04-15T16:32:25Z</time>
      </trkpt>
      <trkpt lat="45.945" lon="3.33136">
        <ele>329</ele>
        <time>2024-04-15T16:32:26Z</time>
      </trkpt>
      <trkpt lat="45.94495" lon="3.33148">
        <ele>328.8</ele>
        <time>2024-04-15T16:32:27Z</time>
      </trkpt>
      <trkpt lat="45.94492" lon="3.3316">
        <ele>328.8</ele>
        <time>2024-04-15T16:32:28Z</time>
      </trkpt>
      <trkpt lat="45.94488" lon="3.33172">
        <ele>328.8</ele>
        <time>2024-04-15T16:32:29Z</time>
      </trkpt>
      <trkpt lat="45.94484" lon="3.33183">
        <ele>328.8</ele>
        <time>2024-04-15T16:32:30Z</time>
      </trkpt>
      <trkpt lat="45.9448" lon="3.33195">
        <ele>328.8</ele>
        <time>2024-04-15T16:32:31Z</time>
      </trkpt>
      <trkpt lat="45.94476" lon="3.33208">
        <ele>328.8</ele>
        <time>2024-04-15T16:32:32Z</time>
      </trkpt>
      <trkpt lat="45.94472" lon="3.3322">
        <ele>328.8</ele>
        <time>2024-04-15T16:32:33Z</time>
      </trkpt>
      <trkpt lat="45.94468" lon="3.33232">
        <ele>328.8</ele>
        <time>2024-04-15T16:32:34Z</time>
      </trkpt>
      <trkpt lat="45.94464" lon="3.33243">
        <ele>328.8</ele>
        <time>2024-04-15T16:32:35Z</time>
      </trkpt>
      <trkpt lat="45.9446" lon="3.33256">
        <ele>328.8</ele>
        <time>2024-04-15T16:32:36Z</time>
      </trkpt>
      <trkpt lat="45.94456" lon="3.33268">
        <ele>328.8</ele>
        <time>2024-04-15T16:32:37Z</time>
      </trkpt>
      <trkpt lat="45.94452" lon="3.3328">
        <ele>328.6</ele>
        <time>2024-04-15T16:32:38Z</time>
      </trkpt>
      <trkpt lat="45.94448" lon="3.33291">
        <ele>328.6</ele>
        <time>2024-04-15T16:32:39Z</time>
      </trkpt>
      <trkpt lat="45.94444" lon="3.33303">
        <ele>328.6</ele>
        <time>2024-04-15T16:32:40Z</time>
      </trkpt>
      <trkpt lat="45.9444" lon="3.33315">
        <ele>328.6</ele>
        <time>2024-04-15T16:32:41Z</time>
      </trkpt>
      <trkpt lat="45.94436" lon="3.33327">
        <ele>328.4</ele>
        <time>2024-04-15T16:32:42Z</time>
      </trkpt>
      <trkpt lat="45.94432" lon="3.33339">
        <ele>328.4</ele>
        <time>2024-04-15T16:32:43Z</time>
      </trkpt>
      <trkpt lat="45.94428" lon="3.33351">
        <ele>328.4</ele>
        <time>2024-04-15T16:32:44Z</time>
      </trkpt>
      <trkpt lat="45.94424" lon="3.33363">
        <ele>328.4</ele>
        <time>2024-04-15T16:32:45Z</time>
      </trkpt>
      <trkpt lat="45.9442" lon="3.33375">
        <ele>328.2</ele>
        <time>2024-04-15T16:32:46Z</time>
      </trkpt>
      <trkpt lat="45.94416" lon="3.33387">
        <ele>328.2</ele>
        <time>2024-04-15T16:32:47Z</time>
      </trkpt>
      <trkpt lat="45.94412" lon="3.33399">
        <ele>328.2</ele>
        <time>2024-04-15T16:32:48Z</time>
      </trkpt>
      <trkpt lat="45.94408" lon="3.33411">
        <ele>328.2</ele>
        <time>2024-04-15T16:32:49Z</time>
      </trkpt>
      <trkpt lat="45.94404" lon="3.33423">
        <ele>328.2</ele>
        <time>2024-04-15T16:32:50Z</time>
      </trkpt>
      <trkpt lat="45.944" lon="3.33435">
        <ele>328.2</ele>
        <time>2024-04-15T16:32:51Z</time>
      </trkpt>
      <trkpt lat="45.94396" lon="3.33447">
        <ele>328</ele>
        <time>2024-04-15T16:32:52Z</time>
      </trkpt>
      <trkpt lat="45.94392" lon="3.33459">
        <ele>328</ele>
        <time>2024-04-15T16:32:53Z</time>
      </trkpt>
      <trkpt lat="45.94388" lon="3.33471">
        <ele>328</ele>
        <time>2024-04-15T16:32:54Z</time>
      </trkpt>
      <trkpt lat="45.94384" lon="3.33483">
        <ele>328</ele>
        <time>2024-04-15T16:32:55Z</time>
      </trkpt>
      <trkpt lat="45.9438" lon="3.33495">
        <ele>327.8</ele>
        <time>2024-04-15T16:32:56Z</time>
      </trkpt>
      <trkpt lat="45.94376" lon="3.33507">
        <ele>327.8</ele>
        <time>2024-04-15T16:32:57Z</time>
      </trkpt>
      <trkpt lat="45.94372" lon="3.33519">
        <ele>327.8</ele>
        <time>2024-04-15T16:32:58Z</time>
      </trkpt>
      <trkpt lat="45.94368" lon="3.33531">
        <ele>327.6</ele>
        <time>2024-04-15T16:32:59Z</time>
      </trkpt>
      <trkpt lat="45.94364" lon="3.33543">
        <ele>327.6</ele>
        <time>2024-04-15T16:33:00Z</time>
      </trkpt>
      <trkpt lat="45.9436" lon="3.33556">
        <ele>327.6</ele>
        <time>2024-04-15T16:33:01Z</time>
      </trkpt>
      <trkpt lat="45.94356" lon="3.33568">
        <ele>327.6</ele>
        <time>2024-04-15T16:33:02Z</time>
      </trkpt>
      <trkpt lat="45.94352" lon="3.3358">
        <ele>327.4</ele>
        <time>2024-04-15T16:33:03Z</time>
      </trkpt>
      <trkpt lat="45.94347" lon="3.33593">
        <ele>327.4</ele>
        <time>2024-04-15T16:33:04Z</time>
      </trkpt>
      <trkpt lat="45.94343" lon="3.33606">
        <ele>327.4</ele>
        <time>2024-04-15T16:33:05Z</time>
      </trkpt>
      <trkpt lat="45.94339" lon="3.33619">
        <ele>327.2</ele>
        <time>2024-04-15T16:33:06Z</time>
      </trkpt>
      <trkpt lat="45.94335" lon="3.33632">
        <ele>327.2</ele>
        <time>2024-04-15T16:33:07Z</time>
      </trkpt>
      <trkpt lat="45.9433" lon="3.33645">
        <ele>327.2</ele>
        <time>2024-04-15T16:33:08Z</time>
      </trkpt>
      <trkpt lat="45.94326" lon="3.33657">
        <ele>327</ele>
        <time>2024-04-15T16:33:09Z</time>
      </trkpt>
      <trkpt lat="45.94322" lon="3.3367">
        <ele>327</ele>
        <time>2024-04-15T16:33:10Z</time>
      </trkpt>
      <trkpt lat="45.94317" lon="3.33683">
        <ele>326.8</ele>
        <time>2024-04-15T16:33:11Z</time>
      </trkpt>
      <trkpt lat="45.94313" lon="3.33696">
        <ele>326.8</ele>
        <time>2024-04-15T16:33:12Z</time>
      </trkpt>
      <trkpt lat="45.94309" lon="3.33708">
        <ele>326.8</ele>
        <time>2024-04-15T16:33:13Z</time>
      </trkpt>
      <trkpt lat="45.94305" lon="3.33721">
        <ele>326.8</ele>
        <time>2024-04-15T16:33:14Z</time>
      </trkpt>
      <trkpt lat="45.94301" lon="3.33733">
        <ele>326.6</ele>
        <time>2024-04-15T16:33:15Z</time>
      </trkpt>
      <trkpt lat="45.94297" lon="3.33745">
        <ele>326.6</ele>
        <time>2024-04-15T16:33:16Z</time>
      </trkpt>
      <trkpt lat="45.94293" lon="3.33757">
        <ele>326.6</ele>
        <time>2024-04-15T16:33:17Z</time>
      </trkpt>
      <trkpt lat="45.94289" lon="3.33769">
        <ele>326.6</ele>
        <time>2024-04-15T16:33:18Z</time>
      </trkpt>
      <trkpt lat="45.94285" lon="3.33781">
        <ele>326.4</ele>
        <time>2024-04-15T16:33:19Z</time>
      </trkpt>
      <trkpt lat="45.9428" lon="3.33793">
        <ele>326.4</ele>
        <time>2024-04-15T16:33:20Z</time>
      </trkpt>
      <trkpt lat="45.94276" lon="3.33805">
        <ele>326.4</ele>
        <time>2024-04-15T16:33:21Z</time>
      </trkpt>
      <trkpt lat="45.94272" lon="3.33817">
        <ele>326.2</ele>
        <time>2024-04-15T16:33:22Z</time>
      </trkpt>
      <trkpt lat="45.94268" lon="3.33829">
        <ele>326.2</ele>
        <time>2024-04-15T16:33:23Z</time>
      </trkpt>
      <trkpt lat="45.94264" lon="3.33842">
        <ele>326.2</ele>
        <time>2024-04-15T16:33:24Z</time>
      </trkpt>
      <trkpt lat="45.9426" lon="3.33854">
        <ele>326</ele>
        <time>2024-04-15T16:33:25Z</time>
      </trkpt>
      <trkpt lat="45.94256" lon="3.33866">
        <ele>326</ele>
        <time>2024-04-15T16:33:26Z</time>
      </trkpt>
      <trkpt lat="45.94252" lon="3.33878">
        <ele>325.8</ele>
        <time>2024-04-15T16:33:27Z</time>
      </trkpt>
      <trkpt lat="45.94248" lon="3.3389">
        <ele>325.8</ele>
        <time>2024-04-15T16:33:28Z</time>
      </trkpt>
      <trkpt lat="45.94244" lon="3.33901">
        <ele>325.8</ele>
        <time>2024-04-15T16:33:29Z</time>
      </trkpt>
      <trkpt lat="45.9424" lon="3.33913">
        <ele>325.6</ele>
        <time>2024-04-15T16:33:30Z</time>
      </trkpt>
      <trkpt lat="45.94236" lon="3.33925">
        <ele>325.6</ele>
        <time>2024-04-15T16:33:31Z</time>
      </trkpt>
      <trkpt lat="45.94232" lon="3.33937">
        <ele>325.6</ele>
        <time>2024-04-15T16:33:32Z</time>
      </trkpt>
      <trkpt lat="45.94226" lon="3.33948">
        <ele>325.4</ele>
        <time>2024-04-15T16:33:33Z</time>
      </trkpt>
      <trkpt lat="45.94221" lon="3.33958">
        <ele>325.4</ele>
        <time>2024-04-15T16:33:34Z</time>
      </trkpt>
      <trkpt lat="45.94216" lon="3.33968">
        <ele>325.4</ele>
        <time>2024-04-15T16:33:35Z</time>
      </trkpt>
      <trkpt lat="45.94211" lon="3.33979">
        <ele>325.2</ele>
        <time>2024-04-15T16:33:36Z</time>
      </trkpt>
      <trkpt lat="45.94205" lon="3.33989">
        <ele>325.2</ele>
        <time>2024-04-15T16:33:37Z</time>
      </trkpt>
      <trkpt lat="45.942" lon="3.34">
        <ele>325.2</ele>
        <time>2024-04-15T16:33:38Z</time>
      </trkpt>
      <trkpt lat="45.94194" lon="3.34011">
        <ele>325</ele>
        <time>2024-04-15T16:33:39Z</time>
      </trkpt>
      <trkpt lat="45.94188" lon="3.3402">
        <ele>325</ele>
        <time>2024-04-15T16:33:40Z</time>
      </trkpt>
      <trkpt lat="45.94181" lon="3.3403">
        <ele>324.8</ele>
        <time>2024-04-15T16:33:41Z</time>
      </trkpt>
      <trkpt lat="45.94175" lon="3.34039">
        <ele>324.8</ele>
        <time>2024-04-15T16:33:42Z</time>
      </trkpt>
      <trkpt lat="45.94168" lon="3.34048">
        <ele>324.8</ele>
        <time>2024-04-15T16:33:43Z</time>
      </trkpt>
      <trkpt lat="45.94162" lon="3.34058">
        <ele>324.8</ele>
        <time>2024-04-15T16:33:44Z</time>
      </trkpt>
      <trkpt lat="45.94155" lon="3.34067">
        <ele>324.8</ele>
        <time>2024-04-15T16:33:45Z</time>
      </trkpt>
      <trkpt lat="45.94149" lon="3.34076">
        <ele>324.6</ele>
        <time>2024-04-15T16:33:46Z</time>
      </trkpt>
      <trkpt lat="45.94142" lon="3.34084">
        <ele>324.6</ele>
        <time>2024-04-15T16:33:47Z</time>
      </trkpt>
      <trkpt lat="45.94135" lon="3.34091">
        <ele>324.4</ele>
        <time>2024-04-15T16:33:48Z</time>
      </trkpt>
      <trkpt lat="45.94127" lon="3.34098">
        <ele>324.4</ele>
        <time>2024-04-15T16:33:49Z</time>
      </trkpt>
      <trkpt lat="45.94119" lon="3.34105">
        <ele>324.2</ele>
        <time>2024-04-15T16:33:50Z</time>
      </trkpt>
      <trkpt lat="45.94111" lon="3.34112">
        <ele>324.2</ele>
        <time>2024-04-15T16:33:51Z</time>
      </trkpt>
      <trkpt lat="45.94103" lon="3.34119">
        <ele>324.2</ele>
        <time>2024-04-15T16:33:52Z</time>
      </trkpt>
      <trkpt lat="45.94096" lon="3.34127">
        <ele>324.2</ele>
        <time>2024-04-15T16:33:53Z</time>
      </trkpt>
      <trkpt lat="45.94088" lon="3.34134">
        <ele>324.2</ele>
        <time>2024-04-15T16:33:54Z</time>
      </trkpt>
      <trkpt lat="45.9408" lon="3.34141">
        <ele>324</ele>
        <time>2024-04-15T16:33:55Z</time>
      </trkpt>
      <trkpt lat="45.94072" lon="3.34148">
        <ele>324</ele>
        <time>2024-04-15T16:33:56Z</time>
      </trkpt>
      <trkpt lat="45.94064" lon="3.34153">
        <ele>323.8</ele>
        <time>2024-04-15T16:33:57Z</time>
      </trkpt>
      <trkpt lat="45.94055" lon="3.34158">
        <ele>323.8</ele>
        <time>2024-04-15T16:33:58Z</time>
      </trkpt>
      <trkpt lat="45.94047" lon="3.34162">
        <ele>323.6</ele>
        <time>2024-04-15T16:33:59Z</time>
      </trkpt>
      <trkpt lat="45.94039" lon="3.34167">
        <ele>323.4</ele>
        <time>2024-04-15T16:34:00Z</time>
      </trkpt>
      <trkpt lat="45.9403" lon="3.34172">
        <ele>323.4</ele>
        <time>2024-04-15T16:34:01Z</time>
      </trkpt>
      <trkpt lat="45.94022" lon="3.34177">
        <ele>323.2</ele>
        <time>2024-04-15T16:34:02Z</time>
      </trkpt>
      <trkpt lat="45.94014" lon="3.34181">
        <ele>323</ele>
        <time>2024-04-15T16:34:03Z</time>
      </trkpt>
      <trkpt lat="45.94005" lon="3.34184">
        <ele>323</ele>
        <time>2024-04-15T16:34:04Z</time>
      </trkpt>
      <trkpt lat="45.93997" lon="3.34187">
        <ele>322.8</ele>
        <time>2024-04-15T16:34:05Z</time>
      </trkpt>
      <trkpt lat="45.93988" lon="3.3419">
        <ele>322.8</ele>
        <time>2024-04-15T16:34:06Z</time>
      </trkpt>
      <trkpt lat="45.9398" lon="3.34193">
        <ele>322.6</ele>
        <time>2024-04-15T16:34:07Z</time>
      </trkpt>
      <trkpt lat="45.93971" lon="3.34195">
        <ele>322.6</ele>
        <time>2024-04-15T16:34:08Z</time>
      </trkpt>
      <trkpt lat="45.93962" lon="3.34197">
        <ele>322.4</ele>
        <time>2024-04-15T16:34:09Z</time>
      </trkpt>
      <trkpt lat="45.93954" lon="3.34198">
        <ele>322.4</ele>
        <time>2024-04-15T16:34:10Z</time>
      </trkpt>
      <trkpt lat="45.93945" lon="3.34199">
        <ele>322.4</ele>
        <time>2024-04-15T16:34:11Z</time>
      </trkpt>
      <trkpt lat="45.93936" lon="3.34199">
        <ele>322.4</ele>
        <time>2024-04-15T16:34:12Z</time>
      </trkpt>
      <trkpt lat="45.93927" lon="3.342">
        <ele>322.2</ele>
        <time>2024-04-15T16:34:13Z</time>
      </trkpt>
      <trkpt lat="45.93919" lon="3.34201">
        <ele>322.2</ele>
        <time>2024-04-15T16:34:14Z</time>
      </trkpt>
      <trkpt lat="45.9391" lon="3.34201">
        <ele>322</ele>
        <time>2024-04-15T16:34:15Z</time>
      </trkpt>
      <trkpt lat="45.93901" lon="3.34202">
        <ele>322</ele>
        <time>2024-04-15T16:34:16Z</time>
      </trkpt>
      <trkpt lat="45.93892" lon="3.34203">
        <ele>321.8</ele>
        <time>2024-04-15T16:34:17Z</time>
      </trkpt>
      <trkpt lat="45.93883" lon="3.34203">
        <ele>321.8</ele>
        <time>2024-04-15T16:34:18Z</time>
      </trkpt>
      <trkpt lat="45.93875" lon="3.34202">
        <ele>321.8</ele>
        <time>2024-04-15T16:34:19Z</time>
      </trkpt>
      <trkpt lat="45.93866" lon="3.34201">
        <ele>321.6</ele>
        <time>2024-04-15T16:34:20Z</time>
      </trkpt>
      <trkpt lat="45.93857" lon="3.342">
        <ele>321.6</ele>
        <time>2024-04-15T16:34:21Z</time>
      </trkpt>
      <trkpt lat="45.93848" lon="3.34199">
        <ele>321.6</ele>
        <time>2024-04-15T16:34:22Z</time>
      </trkpt>
      <trkpt lat="45.93839" lon="3.34198">
        <ele>321.4</ele>
        <time>2024-04-15T16:34:23Z</time>
      </trkpt>
      <trkpt lat="45.9383" lon="3.34197">
        <ele>321.4</ele>
        <time>2024-04-15T16:34:24Z</time>
      </trkpt>
      <trkpt lat="45.93821" lon="3.34196">
        <ele>321.2</ele>
        <time>2024-04-15T16:34:25Z</time>
      </trkpt>
      <trkpt lat="45.93813" lon="3.34195">
        <ele>321.2</ele>
        <time>2024-04-15T16:34:26Z</time>
      </trkpt>
      <trkpt lat="45.93804" lon="3.34195">
        <ele>321.2</ele>
        <time>2024-04-15T16:34:27Z</time>
      </trkpt>
      <trkpt lat="45.93795" lon="3.34194">
        <ele>321</ele>
        <time>2024-04-15T16:34:28Z</time>
      </trkpt>
      <trkpt lat="45.93787" lon="3.34193">
        <ele>321</ele>
        <time>2024-04-15T16:34:29Z</time>
      </trkpt>
      <trkpt lat="45.93778" lon="3.34192">
        <ele>320.8</ele>
        <time>2024-04-15T16:34:30Z</time>
      </trkpt>
      <trkpt lat="45.93769" lon="3.34191">
        <ele>320.8</ele>
        <time>2024-04-15T16:34:31Z</time>
      </trkpt>
      <trkpt lat="45.93761" lon="3.3419">
        <ele>320.8</ele>
        <time>2024-04-15T16:34:32Z</time>
      </trkpt>
      <trkpt lat="45.93752" lon="3.34189">
        <ele>320.6</ele>
        <time>2024-04-15T16:34:33Z</time>
      </trkpt>
      <trkpt lat="45.93744" lon="3.34188">
        <ele>320.6</ele>
        <time>2024-04-15T16:34:34Z</time>
      </trkpt>
      <trkpt lat="45.93735" lon="3.34187">
        <ele>320.6</ele>
        <time>2024-04-15T16:34:35Z</time>
      </trkpt>
      <trkpt lat="45.93726" lon="3.34186">
        <ele>320.6</ele>
        <time>2024-04-15T16:34:36Z</time>
      </trkpt>
      <trkpt lat="45.93718" lon="3.34185">
        <ele>320.4</ele>
        <time>2024-04-15T16:34:37Z</time>
      </trkpt>
      <trkpt lat="45.93709" lon="3.34184">
        <ele>320.4</ele>
        <time>2024-04-15T16:34:38Z</time>
      </trkpt>
      <trkpt lat="45.93701" lon="3.34183">
        <ele>320.2</ele>
        <time>2024-04-15T16:34:39Z</time>
      </trkpt>
      <trkpt lat="45.93692" lon="3.34182">
        <ele>320.2</ele>
        <time>2024-04-15T16:34:40Z</time>
      </trkpt>
      <trkpt lat="45.93684" lon="3.34181">
        <ele>320.2</ele>
        <time>2024-04-15T16:34:41Z</time>
      </trkpt>
      <trkpt lat="45.93676" lon="3.34181">
        <ele>320</ele>
        <time>2024-04-15T16:34:42Z</time>
      </trkpt>
      <trkpt lat="45.93667" lon="3.3418">
        <ele>320</ele>
        <time>2024-04-15T16:34:43Z</time>
      </trkpt>
      <trkpt lat="45.93659" lon="3.34179">
        <ele>320</ele>
        <time>2024-04-15T16:34:44Z</time>
      </trkpt>
      <trkpt lat="45.93651" lon="3.34178">
        <ele>320</ele>
        <time>2024-04-15T16:34:45Z</time>
      </trkpt>
      <trkpt lat="45.93642" lon="3.34177">
        <ele>320</ele>
        <time>2024-04-15T16:34:46Z</time>
      </trkpt>
      <trkpt lat="45.93634" lon="3.34176">
        <ele>319.8</ele>
        <time>2024-04-15T16:34:47Z</time>
      </trkpt>
      <trkpt lat="45.93626" lon="3.34175">
        <ele>319.8</ele>
        <time>2024-04-15T16:34:48Z</time>
      </trkpt>
      <trkpt lat="45.93618" lon="3.34174">
        <ele>319.8</ele>
        <time>2024-04-15T16:34:49Z</time>
      </trkpt>
      <trkpt lat="45.9361" lon="3.34173">
        <ele>319.6</ele>
        <time>2024-04-15T16:34:50Z</time>
      </trkpt>
      <trkpt lat="45.93602" lon="3.34173">
        <ele>319.6</ele>
        <time>2024-04-15T16:34:51Z</time>
      </trkpt>
      <trkpt lat="45.93594" lon="3.34172">
        <ele>319.4</ele>
        <time>2024-04-15T16:34:52Z</time>
      </trkpt>
      <trkpt lat="45.93586" lon="3.34171">
        <ele>319.4</ele>
        <time>2024-04-15T16:34:53Z</time>
      </trkpt>
      <trkpt lat="45.93578" lon="3.3417">
        <ele>319.4</ele>
        <time>2024-04-15T16:34:54Z</time>
      </trkpt>
      <trkpt lat="45.9357" lon="3.34169">
        <ele>319.2</ele>
        <time>2024-04-15T16:34:55Z</time>
      </trkpt>
      <trkpt lat="45.93562" lon="3.34168">
        <ele>319.2</ele>
        <time>2024-04-15T16:34:56Z</time>
      </trkpt>
      <trkpt lat="45.93554" lon="3.34167">
        <ele>319</ele>
        <time>2024-04-15T16:34:57Z</time>
      </trkpt>
      <trkpt lat="45.93546" lon="3.34167">
        <ele>319</ele>
        <time>2024-04-15T16:34:58Z</time>
      </trkpt>
      <trkpt lat="45.93537" lon="3.34166">
        <ele>319</ele>
        <time>2024-04-15T16:34:59Z</time>
      </trkpt>
      <trkpt lat="45.93529" lon="3.34165">
        <ele>319</ele>
        <time>2024-04-15T16:35:00Z</time>
      </trkpt>
      <trkpt lat="45.93521" lon="3.34164">
        <ele>318.8</ele>
        <time>2024-04-15T16:35:01Z</time>
      </trkpt>
      <trkpt lat="45.93513" lon="3.34163">
        <ele>318.8</ele>
        <time>2024-04-15T16:35:02Z</time>
      </trkpt>
      <trkpt lat="45.93505" lon="3.34161">
        <ele>318.8</ele>
        <time>2024-04-15T16:35:03Z</time>
      </trkpt>
      <trkpt lat="45.93497" lon="3.34158">
        <ele>318.6</ele>
        <time>2024-04-15T16:35:04Z</time>
      </trkpt>
      <trkpt lat="45.93489" lon="3.34155">
        <ele>318.6</ele>
        <time>2024-04-15T16:35:05Z</time>
      </trkpt>
      <trkpt lat="45.93481" lon="3.34152">
        <ele>318.6</ele>
        <time>2024-04-15T16:35:06Z</time>
      </trkpt>
      <trkpt lat="45.93473" lon="3.34149">
        <ele>318.4</ele>
        <time>2024-04-15T16:35:07Z</time>
      </trkpt>
      <trkpt lat="45.93465" lon="3.34145">
        <ele>318.4</ele>
        <time>2024-04-15T16:35:08Z</time>
      </trkpt>
      <trkpt lat="45.93457" lon="3.34142">
        <ele>318.2</ele>
        <time>2024-04-15T16:35:09Z</time>
      </trkpt>
      <trkpt lat="45.93449" lon="3.34139">
        <ele>318.2</ele>
        <time>2024-04-15T16:35:10Z</time>
      </trkpt>
      <trkpt lat="45.93441" lon="3.34135">
        <ele>318</ele>
        <time>2024-04-15T16:35:11Z</time>
      </trkpt>
      <trkpt lat="45.93432" lon="3.34132">
        <ele>318</ele>
        <time>2024-04-15T16:35:12Z</time>
      </trkpt>
      <trkpt lat="45.93424" lon="3.34129">
        <ele>318</ele>
        <time>2024-04-15T16:35:13Z</time>
      </trkpt>
      <trkpt lat="45.93416" lon="3.34125">
        <ele>317.8</ele>
        <time>2024-04-15T16:35:14Z</time>
      </trkpt>
      <trkpt lat="45.93408" lon="3.34121">
        <ele>317.8</ele>
        <time>2024-04-15T16:35:15Z</time>
      </trkpt>
      <trkpt lat="45.934" lon="3.34116">
        <ele>317.6</ele>
        <time>2024-04-15T16:35:16Z</time>
      </trkpt>
      <trkpt lat="45.93393" lon="3.34112">
        <ele>317.6</ele>
        <time>2024-04-15T16:35:17Z</time>
      </trkpt>
      <trkpt lat="45.93384" lon="3.34108">
        <ele>317.6</ele>
        <time>2024-04-15T16:35:18Z</time>
      </trkpt>
      <trkpt lat="45.93377" lon="3.34103">
        <ele>317.4</ele>
        <time>2024-04-15T16:35:19Z</time>
      </trkpt>
      <trkpt lat="45.93369" lon="3.34099">
        <ele>317.4</ele>
        <time>2024-04-15T16:35:20Z</time>
      </trkpt>
      <trkpt lat="45.9336" lon="3.34095">
        <ele>317.4</ele>
        <time>2024-04-15T16:35:21Z</time>
      </trkpt>
      <trkpt lat="45.93352" lon="3.3409">
        <ele>317.2</ele>
        <time>2024-04-15T16:35:22Z</time>
      </trkpt>
      <trkpt lat="45.93344" lon="3.34086">
        <ele>317.2</ele>
        <time>2024-04-15T16:35:23Z</time>
      </trkpt>
      <trkpt lat="45.93337" lon="3.34081">
        <ele>317</ele>
        <time>2024-04-15T16:35:24Z</time>
      </trkpt>
      <trkpt lat="45.93329" lon="3.34077">
        <ele>317</ele>
        <time>2024-04-15T16:35:25Z</time>
      </trkpt>
      <trkpt lat="45.93321" lon="3.34072">
        <ele>316.8</ele>
        <time>2024-04-15T16:35:26Z</time>
      </trkpt>
      <trkpt lat="45.93313" lon="3.34068">
        <ele>316.8</ele>
        <time>2024-04-15T16:35:27Z</time>
      </trkpt>
      <trkpt lat="45.93306" lon="3.34063">
        <ele>316.6</ele>
        <time>2024-04-15T16:35:28Z</time>
      </trkpt>
      <trkpt lat="45.93298" lon="3.34059">
        <ele>316.6</ele>
        <time>2024-04-15T16:35:29Z</time>
      </trkpt>
      <trkpt lat="45.9329" lon="3.34054">
        <ele>316.4</ele>
        <time>2024-04-15T16:35:30Z</time>
      </trkpt>
      <trkpt lat="45.93282" lon="3.3405">
        <ele>316.4</ele>
        <time>2024-04-15T16:35:31Z</time>
      </trkpt>
      <trkpt lat="45.93274" lon="3.34045">
        <ele>316.4</ele>
        <time>2024-04-15T16:35:32Z</time>
      </trkpt>
      <trkpt lat="45.93267" lon="3.3404">
        <ele>316.2</ele>
        <time>2024-04-15T16:35:33Z</time>
      </trkpt>
      <trkpt lat="45.93259" lon="3.34036">
        <ele>316.2</ele>
        <time>2024-04-15T16:35:34Z</time>
      </trkpt>
      <trkpt lat="45.93251" lon="3.34031">
        <ele>316</ele>
        <time>2024-04-15T16:35:35Z</time>
      </trkpt>
      <trkpt lat="45.93244" lon="3.34027">
        <ele>316</ele>
        <time>2024-04-15T16:35:36Z</time>
      </trkpt>
      <trkpt lat="45.93236" lon="3.34022">
        <ele>315.8</ele>
        <time>2024-04-15T16:35:37Z</time>
      </trkpt>
      <trkpt lat="45.93228" lon="3.34018">
        <ele>315.8</ele>
        <time>2024-04-15T16:35:38Z</time>
      </trkpt>
      <trkpt lat="45.93221" lon="3.34013">
        <ele>315.6</ele>
        <time>2024-04-15T16:35:39Z</time>
      </trkpt>
      <trkpt lat="45.93213" lon="3.34009">
        <ele>315.6</ele>
        <time>2024-04-15T16:35:40Z</time>
      </trkpt>
      <trkpt lat="45.93206" lon="3.34005">
        <ele>315.4</ele>
        <time>2024-04-15T16:35:41Z</time>
      </trkpt>
      <trkpt lat="45.93198" lon="3.34">
        <ele>315.4</ele>
        <time>2024-04-15T16:35:42Z</time>
      </trkpt>
      <trkpt lat="45.9319" lon="3.33996">
        <ele>315.2</ele>
        <time>2024-04-15T16:35:43Z</time>
      </trkpt>
      <trkpt lat="45.93182" lon="3.33991">
        <ele>315.2</ele>
        <time>2024-04-15T16:35:44Z</time>
      </trkpt>
      <trkpt lat="45.93175" lon="3.33986">
        <ele>315</ele>
        <time>2024-04-15T16:35:45Z</time>
      </trkpt>
      <trkpt lat="45.93167" lon="3.33982">
        <ele>315</ele>
        <time>2024-04-15T16:35:46Z</time>
      </trkpt>
      <trkpt lat="45.93159" lon="3.33977">
        <ele>315</ele>
        <time>2024-04-15T16:35:47Z</time>
      </trkpt>
      <trkpt lat="45.93152" lon="3.33973">
        <ele>314.8</ele>
        <time>2024-04-15T16:35:48Z</time>
      </trkpt>
      <trkpt lat="45.93144" lon="3.33968">
        <ele>314.8</ele>
        <time>2024-04-15T16:35:49Z</time>
      </trkpt>
      <trkpt lat="45.93136" lon="3.33964">
        <ele>314.6</ele>
        <time>2024-04-15T16:35:50Z</time>
      </trkpt>
      <trkpt lat="45.93129" lon="3.33959">
        <ele>314.6</ele>
        <time>2024-04-15T16:35:51Z</time>
      </trkpt>
      <trkpt lat="45.93121" lon="3.33955">
        <ele>314.4</ele>
        <time>2024-04-15T16:35:52Z</time>
      </trkpt>
      <trkpt lat="45.93114" lon="3.33951">
        <ele>314.4</ele>
        <time>2024-04-15T16:35:53Z</time>
      </trkpt>
      <trkpt lat="45.93106" lon="3.33946">
        <ele>314.4</ele>
        <time>2024-04-15T16:35:54Z</time>
      </trkpt>
      <trkpt lat="45.93099" lon="3.33942">
        <ele>314.2</ele>
        <time>2024-04-15T16:35:55Z</time>
      </trkpt>
      <trkpt lat="45.93092" lon="3.33938">
        <ele>314.2</ele>
        <time>2024-04-15T16:35:56Z</time>
      </trkpt>
      <trkpt lat="45.93084" lon="3.33933">
        <ele>314.2</ele>
        <time>2024-04-15T16:35:57Z</time>
      </trkpt>
      <trkpt lat="45.93077" lon="3.33929">
        <ele>314.2</ele>
        <time>2024-04-15T16:35:58Z</time>
      </trkpt>
      <trkpt lat="45.93069" lon="3.33925">
        <ele>314</ele>
        <time>2024-04-15T16:35:59Z</time>
      </trkpt>
      <trkpt lat="45.93062" lon="3.3392">
        <ele>314</ele>
        <time>2024-04-15T16:36:00Z</time>
      </trkpt>
      <trkpt lat="45.93054" lon="3.33916">
        <ele>313.8</ele>
        <time>2024-04-15T16:36:01Z</time>
      </trkpt>
      <trkpt lat="45.93047" lon="3.33912">
        <ele>313.8</ele>
        <time>2024-04-15T16:36:02Z</time>
      </trkpt>
      <trkpt lat="45.9304" lon="3.33907">
        <ele>313.6</ele>
        <time>2024-04-15T16:36:03Z</time>
      </trkpt>
      <trkpt lat="45.93032" lon="3.33903">
        <ele>313.6</ele>
        <time>2024-04-15T16:36:04Z</time>
      </trkpt>
      <trkpt lat="45.93025" lon="3.33898">
        <ele>313.6</ele>
        <time>2024-04-15T16:36:05Z</time>
      </trkpt>
      <trkpt lat="45.93018" lon="3.33894">
        <ele>313.4</ele>
        <time>2024-04-15T16:36:06Z</time>
      </trkpt>
      <trkpt lat="45.93011" lon="3.3389">
        <ele>313.4</ele>
        <time>2024-04-15T16:36:07Z</time>
      </trkpt>
      <trkpt lat="45.93004" lon="3.33886">
        <ele>313.4</ele>
        <time>2024-04-15T16:36:08Z</time>
      </trkpt>
      <trkpt lat="45.92996" lon="3.33882">
        <ele>313.2</ele>
        <time>2024-04-15T16:36:09Z</time>
      </trkpt>
      <trkpt lat="45.92989" lon="3.33877">
        <ele>313.2</ele>
        <time>2024-04-15T16:36:10Z</time>
      </trkpt>
      <trkpt lat="45.92982" lon="3.33873">
        <ele>313</ele>
        <time>2024-04-15T16:36:11Z</time>
      </trkpt>
      <trkpt lat="45.92974" lon="3.33869">
        <ele>313</ele>
        <time>2024-04-15T16:36:12Z</time>
      </trkpt>
      <trkpt lat="45.92966" lon="3.33866">
        <ele>313</ele>
        <time>2024-04-15T16:36:13Z</time>
      </trkpt>
      <trkpt lat="45.92959" lon="3.33864">
        <ele>312.8</ele>
        <time>2024-04-15T16:36:14Z</time>
      </trkpt>
      <trkpt lat="45.92951" lon="3.33861">
        <ele>312.6</ele>
        <time>2024-04-15T16:36:15Z</time>
      </trkpt>
      <trkpt lat="45.92943" lon="3.33859">
        <ele>312.6</ele>
        <time>2024-04-15T16:36:16Z</time>
      </trkpt>
      <trkpt lat="45.92935" lon="3.33856">
        <ele>312.6</ele>
        <time>2024-04-15T16:36:17Z</time>
      </trkpt>
      <trkpt lat="45.92928" lon="3.33853">
        <ele>312.4</ele>
        <time>2024-04-15T16:36:18Z</time>
      </trkpt>
      <trkpt lat="45.92921" lon="3.33848">
        <ele>312.4</ele>
        <time>2024-04-15T16:36:19Z</time>
      </trkpt>
      <trkpt lat="45.92914" lon="3.33844">
        <ele>312.2</ele>
        <time>2024-04-15T16:36:20Z</time>
      </trkpt>
      <trkpt lat="45.92907" lon="3.3384">
        <ele>312.2</ele>
        <time>2024-04-15T16:36:21Z</time>
      </trkpt>
      <trkpt lat="45.929" lon="3.33836">
        <ele>312.2</ele>
        <time>2024-04-15T16:36:22Z</time>
      </trkpt>
      <trkpt lat="45.92892" lon="3.33831">
        <ele>312.2</ele>
        <time>2024-04-15T16:36:23Z</time>
      </trkpt>
      <trkpt lat="45.92892" lon="3.33831">
        <ele>312</ele>
        <time>2024-04-15T16:36:24Z</time>
      </trkpt>
      <trkpt lat="45.92882" lon="3.33818">
        <ele>312</ele>
        <time>2024-04-15T16:36:25Z</time>
      </trkpt>
      <trkpt lat="45.92874" lon="3.33809">
        <ele>312</ele>
        <time>2024-04-15T16:36:26Z</time>
      </trkpt>
      <trkpt lat="45.92863" lon="3.3381">
        <ele>312</ele>
        <time>2024-04-15T16:36:27Z</time>
      </trkpt>
      <trkpt lat="45.92856" lon="3.33814">
        <ele>311.8</ele>
        <time>2024-04-15T16:36:28Z</time>
      </trkpt>
      <trkpt lat="45.92849" lon="3.33822">
        <ele>311.8</ele>
        <time>2024-04-15T16:36:29Z</time>
      </trkpt>
      <trkpt lat="45.92843" lon="3.3383">
        <ele>311.8</ele>
        <time>2024-04-15T16:36:30Z</time>
      </trkpt>
      <trkpt lat="45.92837" lon="3.33837">
        <ele>311.6</ele>
        <time>2024-04-15T16:36:31Z</time>
      </trkpt>
      <trkpt lat="45.92829" lon="3.33841">
        <ele>311.4</ele>
        <time>2024-04-15T16:36:32Z</time>
      </trkpt>
      <trkpt lat="45.92821" lon="3.33845">
        <ele>311.4</ele>
        <time>2024-04-15T16:36:33Z</time>
      </trkpt>
      <trkpt lat="45.92813" lon="3.33846">
        <ele>311.2</ele>
        <time>2024-04-15T16:36:34Z</time>
      </trkpt>
      <trkpt lat="45.92804" lon="3.33847">
        <ele>311.2</ele>
        <time>2024-04-15T16:36:35Z</time>
      </trkpt>
      <trkpt lat="45.92796" lon="3.33848">
        <ele>311</ele>
        <time>2024-04-15T16:36:36Z</time>
      </trkpt>
      <trkpt lat="45.92788" lon="3.33849">
        <ele>311</ele>
        <time>2024-04-15T16:36:37Z</time>
      </trkpt>
      <trkpt lat="45.9278" lon="3.3385">
        <ele>310.8</ele>
        <time>2024-04-15T16:36:38Z</time>
      </trkpt>
      <trkpt lat="45.92773" lon="3.33851">
        <ele>310.8</ele>
        <time>2024-04-15T16:36:39Z</time>
      </trkpt>
      <trkpt lat="45.92765" lon="3.33852">
        <ele>310.8</ele>
        <time>2024-04-15T16:36:40Z</time>
      </trkpt>
      <trkpt lat="45.92757" lon="3.33853">
        <ele>310.8</ele>
        <time>2024-04-15T16:36:41Z</time>
      </trkpt>
      <trkpt lat="45.92749" lon="3.33853">
        <ele>310.6</ele>
        <time>2024-04-15T16:36:42Z</time>
      </trkpt>
      <trkpt lat="45.92741" lon="3.33853">
        <ele>310.6</ele>
        <time>2024-04-15T16:36:43Z</time>
      </trkpt>
      <trkpt lat="45.92733" lon="3.33853">
        <ele>310.6</ele>
        <time>2024-04-15T16:36:44Z</time>
      </trkpt>
      <trkpt lat="45.92725" lon="3.33852">
        <ele>310.6</ele>
        <time>2024-04-15T16:36:45Z</time>
      </trkpt>
      <trkpt lat="45.92717" lon="3.33852">
        <ele>310.4</ele>
        <time>2024-04-15T16:36:46Z</time>
      </trkpt>
      <trkpt lat="45.9271" lon="3.33851">
        <ele>310.4</ele>
        <time>2024-04-15T16:36:47Z</time>
      </trkpt>
      <trkpt lat="45.92702" lon="3.33851">
        <ele>310.4</ele>
        <time>2024-04-15T16:36:48Z</time>
      </trkpt>
      <trkpt lat="45.92694" lon="3.3385">
        <ele>310.2</ele>
        <time>2024-04-15T16:36:49Z</time>
      </trkpt>
      <trkpt lat="45.92686" lon="3.3385">
        <ele>310.2</ele>
        <time>2024-04-15T16:36:50Z</time>
      </trkpt>
      <trkpt lat="45.92677" lon="3.33849">
        <ele>310</ele>
        <time>2024-04-15T16:36:51Z</time>
      </trkpt>
      <trkpt lat="45.92669" lon="3.33849">
        <ele>310</ele>
        <time>2024-04-15T16:36:52Z</time>
      </trkpt>
      <trkpt lat="45.92661" lon="3.33848">
        <ele>310</ele>
        <time>2024-04-15T16:36:53Z</time>
      </trkpt>
      <trkpt lat="45.92652" lon="3.33848">
        <ele>309.8</ele>
        <time>2024-04-15T16:36:54Z</time>
      </trkpt>
      <trkpt lat="45.92644" lon="3.33847">
        <ele>309.8</ele>
        <time>2024-04-15T16:36:55Z</time>
      </trkpt>
      <trkpt lat="45.92635" lon="3.33847">
        <ele>309.6</ele>
        <time>2024-04-15T16:36:56Z</time>
      </trkpt>
      <trkpt lat="45.92627" lon="3.33846">
        <ele>309.6</ele>
        <time>2024-04-15T16:36:57Z</time>
      </trkpt>
      <trkpt lat="45.92619" lon="3.33846">
        <ele>309.6</ele>
        <time>2024-04-15T16:36:58Z</time>
      </trkpt>
      <trkpt lat="45.9261" lon="3.33845">
        <ele>309.6</ele>
        <time>2024-04-15T16:36:59Z</time>
      </trkpt>
      <trkpt lat="45.92602" lon="3.33845">
        <ele>309.4</ele>
        <time>2024-04-15T16:37:00Z</time>
      </trkpt>
      <trkpt lat="45.92593" lon="3.33845">
        <ele>309.4</ele>
        <time>2024-04-15T16:37:01Z</time>
      </trkpt>
      <trkpt lat="45.92585" lon="3.33845">
        <ele>309.2</ele>
        <time>2024-04-15T16:37:02Z</time>
      </trkpt>
      <trkpt lat="45.92577" lon="3.33846">
        <ele>309.2</ele>
        <time>2024-04-15T16:37:03Z</time>
      </trkpt>
      <trkpt lat="45.92569" lon="3.33846">
        <ele>309.2</ele>
        <time>2024-04-15T16:37:04Z</time>
      </trkpt>
      <trkpt lat="45.92561" lon="3.33846">
        <ele>309</ele>
        <time>2024-04-15T16:37:05Z</time>
      </trkpt>
      <trkpt lat="45.92552" lon="3.33846">
        <ele>309</ele>
        <time>2024-04-15T16:37:06Z</time>
      </trkpt>
      <trkpt lat="45.92544" lon="3.33847">
        <ele>308.8</ele>
        <time>2024-04-15T16:37:07Z</time>
      </trkpt>
      <trkpt lat="45.92535" lon="3.33847">
        <ele>308.8</ele>
        <time>2024-04-15T16:37:08Z</time>
      </trkpt>
      <trkpt lat="45.92527" lon="3.33848">
        <ele>308.8</ele>
        <time>2024-04-15T16:37:09Z</time>
      </trkpt>
      <trkpt lat="45.92519" lon="3.3385">
        <ele>308.6</ele>
        <time>2024-04-15T16:37:10Z</time>
      </trkpt>
      <trkpt lat="45.92511" lon="3.33851">
        <ele>308.6</ele>
        <time>2024-04-15T16:37:11Z</time>
      </trkpt>
      <trkpt lat="45.92503" lon="3.33853">
        <ele>308.4</ele>
        <time>2024-04-15T16:37:12Z</time>
      </trkpt>
      <trkpt lat="45.92495" lon="3.33856">
        <ele>308.4</ele>
        <time>2024-04-15T16:37:13Z</time>
      </trkpt>
      <trkpt lat="45.92487" lon="3.33859">
        <ele>308.4</ele>
        <time>2024-04-15T16:37:14Z</time>
      </trkpt>
      <trkpt lat="45.92479" lon="3.33861">
        <ele>308.2</ele>
        <time>2024-04-15T16:37:15Z</time>
      </trkpt>
      <trkpt lat="45.92471" lon="3.33864">
        <ele>308.2</ele>
        <time>2024-04-15T16:37:16Z</time>
      </trkpt>
      <trkpt lat="45.92463" lon="3.33866">
        <ele>308</ele>
        <time>2024-04-15T16:37:17Z</time>
      </trkpt>
      <trkpt lat="45.92455" lon="3.33869">
        <ele>308</ele>
        <time>2024-04-15T16:37:18Z</time>
      </trkpt>
      <trkpt lat="45.92447" lon="3.33872">
        <ele>307.8</ele>
        <time>2024-04-15T16:37:19Z</time>
      </trkpt>
      <trkpt lat="45.92439" lon="3.33875">
        <ele>307.6</ele>
        <time>2024-04-15T16:37:20Z</time>
      </trkpt>
      <trkpt lat="45.9243" lon="3.33877">
        <ele>307.6</ele>
        <time>2024-04-15T16:37:21Z</time>
      </trkpt>
      <trkpt lat="45.92421" lon="3.3388">
        <ele>307.4</ele>
        <time>2024-04-15T16:37:22Z</time>
      </trkpt>
      <trkpt lat="45.92413" lon="3.33883">
        <ele>307.4</ele>
        <time>2024-04-15T16:37:23Z</time>
      </trkpt>
      <trkpt lat="45.92404" lon="3.33886">
        <ele>307.2</ele>
        <time>2024-04-15T16:37:24Z</time>
      </trkpt>
      <trkpt lat="45.92395" lon="3.33889">
        <ele>307.2</ele>
        <time>2024-04-15T16:37:25Z</time>
      </trkpt>
      <trkpt lat="45.92387" lon="3.33892">
        <ele>307</ele>
        <time>2024-04-15T16:37:26Z</time>
      </trkpt>
      <trkpt lat="45.92378" lon="3.33895">
        <ele>306.8</ele>
        <time>2024-04-15T16:37:27Z</time>
      </trkpt>
      <trkpt lat="45.92369" lon="3.33898">
        <ele>306.6</ele>
        <time>2024-04-15T16:37:28Z</time>
      </trkpt>
      <trkpt lat="45.92361" lon="3.33901">
        <ele>306.4</ele>
        <time>2024-04-15T16:37:29Z</time>
      </trkpt>
      <trkpt lat="45.92352" lon="3.33904">
        <ele>306.4</ele>
        <time>2024-04-15T16:37:30Z</time>
      </trkpt>
      <trkpt lat="45.92343" lon="3.33907">
        <ele>306.2</ele>
        <time>2024-04-15T16:37:31Z</time>
      </trkpt>
      <trkpt lat="45.92333" lon="3.33909">
        <ele>306</ele>
        <time>2024-04-15T16:37:32Z</time>
      </trkpt>
      <trkpt lat="45.92324" lon="3.33911">
        <ele>306</ele>
        <time>2024-04-15T16:37:33Z</time>
      </trkpt>
      <trkpt lat="45.92314" lon="3.33911">
        <ele>305.8</ele>
        <time>2024-04-15T16:37:34Z</time>
      </trkpt>
      <trkpt lat="45.92304" lon="3.33911">
        <ele>305.6</ele>
        <time>2024-04-15T16:37:35Z</time>
      </trkpt>
      <trkpt lat="45.92294" lon="3.33911">
        <ele>305.4</ele>
        <time>2024-04-15T16:37:36Z</time>
      </trkpt>
      <trkpt lat="45.92284" lon="3.33911">
        <ele>305.4</ele>
        <time>2024-04-15T16:37:37Z</time>
      </trkpt>
      <trkpt lat="45.92274" lon="3.33911">
        <ele>305.2</ele>
        <time>2024-04-15T16:37:38Z</time>
      </trkpt>
      <trkpt lat="45.92264" lon="3.33911">
        <ele>305</ele>
        <time>2024-04-15T16:37:39Z</time>
      </trkpt>
      <trkpt lat="45.92254" lon="3.33909">
        <ele>304.8</ele>
        <time>2024-04-15T16:37:40Z</time>
      </trkpt>
      <trkpt lat="45.92243" lon="3.33906">
        <ele>304.6</ele>
        <time>2024-04-15T16:37:41Z</time>
      </trkpt>
      <trkpt lat="45.92233" lon="3.33903">
        <ele>304.4</ele>
        <time>2024-04-15T16:37:42Z</time>
      </trkpt>
      <trkpt lat="45.92222" lon="3.33901">
        <ele>304.2</ele>
        <time>2024-04-15T16:37:43Z</time>
      </trkpt>
      <trkpt lat="45.92212" lon="3.33898">
        <ele>304</ele>
        <time>2024-04-15T16:37:44Z</time>
      </trkpt>
      <trkpt lat="45.92202" lon="3.33896">
        <ele>303.8</ele>
        <time>2024-04-15T16:37:45Z</time>
      </trkpt>
      <trkpt lat="45.92191" lon="3.33892">
        <ele>303.6</ele>
        <time>2024-04-15T16:37:46Z</time>
      </trkpt>
      <trkpt lat="45.92181" lon="3.33888">
        <ele>303.4</ele>
        <time>2024-04-15T16:37:47Z</time>
      </trkpt>
      <trkpt lat="45.92171" lon="3.33885">
        <ele>303.2</ele>
        <time>2024-04-15T16:37:48Z</time>
      </trkpt>
      <trkpt lat="45.92161" lon="3.33881">
        <ele>303</ele>
        <time>2024-04-15T16:37:49Z</time>
      </trkpt>
      <trkpt lat="45.92151" lon="3.33877">
        <ele>303</ele>
        <time>2024-04-15T16:37:50Z</time>
      </trkpt>
      <trkpt lat="45.92141" lon="3.33873">
        <ele>302.8</ele>
        <time>2024-04-15T16:37:51Z</time>
      </trkpt>
      <trkpt lat="45.92132" lon="3.33868">
        <ele>302.8</ele>
        <time>2024-04-15T16:37:52Z</time>
      </trkpt>
      <trkpt lat="45.92123" lon="3.33864">
        <ele>302.8</ele>
        <time>2024-04-15T16:37:53Z</time>
      </trkpt>
      <trkpt lat="45.92115" lon="3.3386">
        <ele>302.8</ele>
        <time>2024-04-15T16:37:54Z</time>
      </trkpt>
      <trkpt lat="45.92107" lon="3.33856">
        <ele>302.6</ele>
        <time>2024-04-15T16:37:55Z</time>
      </trkpt>
      <trkpt lat="45.921" lon="3.33851">
        <ele>302.6</ele>
        <time>2024-04-15T16:37:56Z</time>
      </trkpt>
      <trkpt lat="45.92093" lon="3.33845">
        <ele>302.4</ele>
        <time>2024-04-15T16:37:57Z</time>
      </trkpt>
      <trkpt lat="45.92086" lon="3.3384">
        <ele>302.4</ele>
        <time>2024-04-15T16:37:58Z</time>
      </trkpt>
      <trkpt lat="45.92079" lon="3.33834">
        <ele>302.4</ele>
        <time>2024-04-15T16:37:59Z</time>
      </trkpt>
      <trkpt lat="45.92072" lon="3.33828">
        <ele>302.4</ele>
        <time>2024-04-15T16:38:00Z</time>
      </trkpt>
      <trkpt lat="45.92065" lon="3.33823">
        <ele>302.4</ele>
        <time>2024-04-15T16:38:01Z</time>
      </trkpt>
      <trkpt lat="45.92059" lon="3.33817">
        <ele>302.4</ele>
        <time>2024-04-15T16:38:02Z</time>
      </trkpt>
      <trkpt lat="45.92054" lon="3.33809">
        <ele>302.4</ele>
        <time>2024-04-15T16:38:03Z</time>
      </trkpt>
      <trkpt lat="45.9205" lon="3.33801">
        <ele>302.4</ele>
        <time>2024-04-15T16:38:04Z</time>
      </trkpt>
      <trkpt lat="45.92043" lon="3.33796">
        <ele>302.4</ele>
        <time>2024-04-15T16:38:05Z</time>
      </trkpt>
      <trkpt lat="45.92036" lon="3.33794">
        <ele>302.6</ele>
        <time>2024-04-15T16:38:06Z</time>
      </trkpt>
      <trkpt lat="45.92026" lon="3.33792">
        <ele>302.4</ele>
        <time>2024-04-15T16:38:07Z</time>
      </trkpt>
      <trkpt lat="45.9202" lon="3.33797">
        <ele>302.4</ele>
        <time>2024-04-15T16:38:08Z</time>
      </trkpt>
      <trkpt lat="45.92015" lon="3.3381">
        <ele>302.4</ele>
        <time>2024-04-15T16:38:09Z</time>
      </trkpt>
      <trkpt lat="45.92014" lon="3.33821">
        <ele>302.4</ele>
        <time>2024-04-15T16:38:10Z</time>
      </trkpt>
      <trkpt lat="45.92015" lon="3.33835">
        <ele>302.4</ele>
        <time>2024-04-15T16:38:11Z</time>
      </trkpt>
      <trkpt lat="45.92019" lon="3.33845">
        <ele>302.2</ele>
        <time>2024-04-15T16:38:12Z</time>
      </trkpt>
      <trkpt lat="45.92022" lon="3.33857">
        <ele>302.2</ele>
        <time>2024-04-15T16:38:13Z</time>
      </trkpt>
      <trkpt lat="45.92023" lon="3.3387">
        <ele>302.2</ele>
        <time>2024-04-15T16:38:14Z</time>
      </trkpt>
      <trkpt lat="45.92024" lon="3.33883">
        <ele>302</ele>
        <time>2024-04-15T16:38:15Z</time>
      </trkpt>
      <trkpt lat="45.92026" lon="3.33896">
        <ele>301.8</ele>
        <time>2024-04-15T16:38:16Z</time>
      </trkpt>
      <trkpt lat="45.92027" lon="3.33909">
        <ele>301.8</ele>
        <time>2024-04-15T16:38:17Z</time>
      </trkpt>
      <trkpt lat="45.92028" lon="3.33921">
        <ele>301.6</ele>
        <time>2024-04-15T16:38:18Z</time>
      </trkpt>
      <trkpt lat="45.92029" lon="3.33934">
        <ele>301.6</ele>
        <time>2024-04-15T16:38:19Z</time>
      </trkpt>
      <trkpt lat="45.92032" lon="3.33947">
        <ele>301.6</ele>
        <time>2024-04-15T16:38:20Z</time>
      </trkpt>
      <trkpt lat="45.92034" lon="3.33959">
        <ele>301.4</ele>
        <time>2024-04-15T16:38:21Z</time>
      </trkpt>
      <trkpt lat="45.92037" lon="3.33972">
        <ele>301.4</ele>
        <time>2024-04-15T16:38:22Z</time>
      </trkpt>
      <trkpt lat="45.9204" lon="3.33984">
        <ele>301.4</ele>
        <time>2024-04-15T16:38:23Z</time>
      </trkpt>
      <trkpt lat="45.92043" lon="3.33996">
        <ele>301.2</ele>
        <time>2024-04-15T16:38:24Z</time>
      </trkpt>
      <trkpt lat="45.92046" lon="3.34008">
        <ele>301.2</ele>
        <time>2024-04-15T16:38:25Z</time>
      </trkpt>
      <trkpt lat="45.92049" lon="3.34019">
        <ele>301.2</ele>
        <time>2024-04-15T16:38:26Z</time>
      </trkpt>
      <trkpt lat="45.92053" lon="3.3403">
        <ele>301.2</ele>
        <time>2024-04-15T16:38:27Z</time>
      </trkpt>
      <trkpt lat="45.92058" lon="3.3404">
        <ele>301</ele>
        <time>2024-04-15T16:38:28Z</time>
      </trkpt>
      <trkpt lat="45.92063" lon="3.34051">
        <ele>301</ele>
        <time>2024-04-15T16:38:29Z</time>
      </trkpt>
      <trkpt lat="45.92068" lon="3.34062">
        <ele>300.8</ele>
        <time>2024-04-15T16:38:30Z</time>
      </trkpt>
      <trkpt lat="45.92073" lon="3.34073">
        <ele>300.8</ele>
        <time>2024-04-15T16:38:31Z</time>
      </trkpt>
      <trkpt lat="45.92078" lon="3.34084">
        <ele>300.6</ele>
        <time>2024-04-15T16:38:32Z</time>
      </trkpt>
      <trkpt lat="45.92083" lon="3.34096">
        <ele>300.4</ele>
        <time>2024-04-15T16:38:33Z</time>
      </trkpt>
      <trkpt lat="45.92088" lon="3.34107">
        <ele>300.2</ele>
        <time>2024-04-15T16:38:34Z</time>
      </trkpt>
      <trkpt lat="45.92089" lon="3.34119">
        <ele>300</ele>
        <time>2024-04-15T16:38:35Z</time>
      </trkpt>
      <trkpt lat="45.9209" lon="3.34132">
        <ele>299.8</ele>
        <time>2024-04-15T16:38:36Z</time>
      </trkpt>
      <trkpt lat="45.92091" lon="3.34145">
        <ele>299.6</ele>
        <time>2024-04-15T16:38:37Z</time>
      </trkpt>
      <trkpt lat="45.92092" lon="3.34158">
        <ele>299.4</ele>
        <time>2024-04-15T16:38:38Z</time>
      </trkpt>
      <trkpt lat="45.92093" lon="3.34171">
        <ele>299.2</ele>
        <time>2024-04-15T16:38:39Z</time>
      </trkpt>
      <trkpt lat="45.92094" lon="3.34184">
        <ele>299</ele>
        <time>2024-04-15T16:38:40Z</time>
      </trkpt>
      <trkpt lat="45.92095" lon="3.34196">
        <ele>299</ele>
        <time>2024-04-15T16:38:41Z</time>
      </trkpt>
      <trkpt lat="45.92096" lon="3.34208">
        <ele>298.8</ele>
        <time>2024-04-15T16:38:42Z</time>
      </trkpt>
      <trkpt lat="45.92097" lon="3.34221">
        <ele>298.8</ele>
        <time>2024-04-15T16:38:43Z</time>
      </trkpt>
      <trkpt lat="45.92098" lon="3.34233">
        <ele>298.8</ele>
        <time>2024-04-15T16:38:44Z</time>
      </trkpt>
      <trkpt lat="45.92099" lon="3.34245">
        <ele>298.6</ele>
        <time>2024-04-15T16:38:45Z</time>
      </trkpt>
      <trkpt lat="45.921" lon="3.34258">
        <ele>298.6</ele>
        <time>2024-04-15T16:38:46Z</time>
      </trkpt>
      <trkpt lat="45.92101" lon="3.3427">
        <ele>298.6</ele>
        <time>2024-04-15T16:38:47Z</time>
      </trkpt>
      <trkpt lat="45.92101" lon="3.34282">
        <ele>298.4</ele>
        <time>2024-04-15T16:38:48Z</time>
      </trkpt>
      <trkpt lat="45.92101" lon="3.34295">
        <ele>298.4</ele>
        <time>2024-04-15T16:38:49Z</time>
      </trkpt>
      <trkpt lat="45.92101" lon="3.34307">
        <ele>298.2</ele>
        <time>2024-04-15T16:38:50Z</time>
      </trkpt>
      <trkpt lat="45.92101" lon="3.34319">
        <ele>298.2</ele>
        <time>2024-04-15T16:38:51Z</time>
      </trkpt>
      <trkpt lat="45.92101" lon="3.34332">
        <ele>298</ele>
        <time>2024-04-15T16:38:52Z</time>
      </trkpt>
      <trkpt lat="45.921" lon="3.34344">
        <ele>298</ele>
        <time>2024-04-15T16:38:53Z</time>
      </trkpt>
      <trkpt lat="45.92098" lon="3.34356">
        <ele>298.2</ele>
        <time>2024-04-15T16:38:54Z</time>
      </trkpt>
      <trkpt lat="45.92095" lon="3.34368">
        <ele>298</ele>
        <time>2024-04-15T16:38:55Z</time>
      </trkpt>
      <trkpt lat="45.92093" lon="3.3438">
        <ele>298</ele>
        <time>2024-04-15T16:38:56Z</time>
      </trkpt>
      <trkpt lat="45.9209" lon="3.34391">
        <ele>298</ele>
        <time>2024-04-15T16:38:57Z</time>
      </trkpt>
      <trkpt lat="45.92085" lon="3.34402">
        <ele>298</ele>
        <time>2024-04-15T16:38:58Z</time>
      </trkpt>
      <trkpt lat="45.92079" lon="3.34411">
        <ele>297.8</ele>
        <time>2024-04-15T16:38:59Z</time>
      </trkpt>
      <trkpt lat="45.92073" lon="3.3442">
        <ele>297.8</ele>
        <time>2024-04-15T16:39:00Z</time>
      </trkpt>
      <trkpt lat="45.92067" lon="3.34428">
        <ele>297.8</ele>
        <time>2024-04-15T16:39:01Z</time>
      </trkpt>
      <trkpt lat="45.92061" lon="3.34435">
        <ele>297.8</ele>
        <time>2024-04-15T16:39:02Z</time>
      </trkpt>
      <trkpt lat="45.92055" lon="3.34442">
        <ele>297.8</ele>
        <time>2024-04-15T16:39:03Z</time>
      </trkpt>
      <trkpt lat="45.92049" lon="3.34449">
        <ele>297.8</ele>
        <time>2024-04-15T16:39:04Z</time>
      </trkpt>
      <trkpt lat="45.92043" lon="3.34456">
        <ele>297.8</ele>
        <time>2024-04-15T16:39:05Z</time>
      </trkpt>
      <trkpt lat="45.92037" lon="3.34463">
        <ele>297.8</ele>
        <time>2024-04-15T16:39:06Z</time>
      </trkpt>
      <trkpt lat="45.92031" lon="3.3447">
        <ele>297.8</ele>
        <time>2024-04-15T16:39:07Z</time>
      </trkpt>
      <trkpt lat="45.92024" lon="3.34476">
        <ele>297.8</ele>
        <time>2024-04-15T16:39:08Z</time>
      </trkpt>
      <trkpt lat="45.92018" lon="3.34481">
        <ele>298</ele>
        <time>2024-04-15T16:39:09Z</time>
      </trkpt>
      <trkpt lat="45.92011" lon="3.34485">
        <ele>297.6</ele>
        <time>2024-04-15T16:39:10Z</time>
      </trkpt>
      <trkpt lat="45.92004" lon="3.3449">
        <ele>298.2</ele>
        <time>2024-04-15T16:39:11Z</time>
      </trkpt>
      <trkpt lat="45.91997" lon="3.34494">
        <ele>298.6</ele>
        <time>2024-04-15T16:39:12Z</time>
      </trkpt>
      <trkpt lat="45.9199" lon="3.34499">
        <ele>298.4</ele>
        <time>2024-04-15T16:39:13Z</time>
      </trkpt>
      <trkpt lat="45.91983" lon="3.34504">
        <ele>298.6</ele>
        <time>2024-04-15T16:39:14Z</time>
      </trkpt>
      <trkpt lat="45.91976" lon="3.34509">
        <ele>298.6</ele>
        <time>2024-04-15T16:39:15Z</time>
      </trkpt>
      <trkpt lat="45.91969" lon="3.34515">
        <ele>298.6</ele>
        <time>2024-04-15T16:39:16Z</time>
      </trkpt>
      <trkpt lat="45.91962" lon="3.3452">
        <ele>298.6</ele>
        <time>2024-04-15T16:39:17Z</time>
      </trkpt>
      <trkpt lat="45.91955" lon="3.34525">
        <ele>298.6</ele>
        <time>2024-04-15T16:39:18Z</time>
      </trkpt>
      <trkpt lat="45.91948" lon="3.34531">
        <ele>298.6</ele>
        <time>2024-04-15T16:39:19Z</time>
      </trkpt>
      <trkpt lat="45.91941" lon="3.34537">
        <ele>298.4</ele>
        <time>2024-04-15T16:39:20Z</time>
      </trkpt>
      <trkpt lat="45.91935" lon="3.34545">
        <ele>298.4</ele>
        <time>2024-04-15T16:39:21Z</time>
      </trkpt>
      <trkpt lat="45.91929" lon="3.34553">
        <ele>298.4</ele>
        <time>2024-04-15T16:39:22Z</time>
      </trkpt>
      <trkpt lat="45.91922" lon="3.34562">
        <ele>298.4</ele>
        <time>2024-04-15T16:39:23Z</time>
      </trkpt>
      <trkpt lat="45.91916" lon="3.34571">
        <ele>298.6</ele>
        <time>2024-04-15T16:39:24Z</time>
      </trkpt>
      <trkpt lat="45.91909" lon="3.3458">
        <ele>298</ele>
        <time>2024-04-15T16:39:25Z</time>
      </trkpt>
      <trkpt lat="45.91903" lon="3.3459">
        <ele>298</ele>
        <time>2024-04-15T16:39:26Z</time>
      </trkpt>
      <trkpt lat="45.91896" lon="3.346">
        <ele>297.8</ele>
        <time>2024-04-15T16:39:27Z</time>
      </trkpt>
      <trkpt lat="45.9189" lon="3.34611">
        <ele>297.8</ele>
        <time>2024-04-15T16:39:28Z</time>
      </trkpt>
      <trkpt lat="45.91883" lon="3.34623">
        <ele>297.8</ele>
        <time>2024-04-15T16:39:29Z</time>
      </trkpt>
      <trkpt lat="45.91877" lon="3.34636">
        <ele>297.6</ele>
        <time>2024-04-15T16:39:30Z</time>
      </trkpt>
      <trkpt lat="45.91872" lon="3.34648">
        <ele>297.4</ele>
        <time>2024-04-15T16:39:31Z</time>
      </trkpt>
      <trkpt lat="45.91866" lon="3.34661">
        <ele>297.4</ele>
        <time>2024-04-15T16:39:32Z</time>
      </trkpt>
      <trkpt lat="45.91859" lon="3.34674">
        <ele>297.2</ele>
        <time>2024-04-15T16:39:33Z</time>
      </trkpt>
      <trkpt lat="45.91854" lon="3.34688">
        <ele>297</ele>
        <time>2024-04-15T16:39:34Z</time>
      </trkpt>
      <trkpt lat="45.9185" lon="3.34703">
        <ele>297</ele>
        <time>2024-04-15T16:39:35Z</time>
      </trkpt>
      <trkpt lat="45.91846" lon="3.34718">
        <ele>296.8</ele>
        <time>2024-04-15T16:39:36Z</time>
      </trkpt>
      <trkpt lat="45.91841" lon="3.34734">
        <ele>296.6</ele>
        <time>2024-04-15T16:39:37Z</time>
      </trkpt>
      <trkpt lat="45.91837" lon="3.34749">
        <ele>296.4</ele>
        <time>2024-04-15T16:39:38Z</time>
      </trkpt>
      <trkpt lat="45.91833" lon="3.34764">
        <ele>296.2</ele>
        <time>2024-04-15T16:39:39Z</time>
      </trkpt>
      <trkpt lat="45.91828" lon="3.34779">
        <ele>296</ele>
        <time>2024-04-15T16:39:40Z</time>
      </trkpt>
      <trkpt lat="45.91824" lon="3.34794">
        <ele>295.8</ele>
        <time>2024-04-15T16:39:41Z</time>
      </trkpt>
      <trkpt lat="45.9182" lon="3.3481">
        <ele>295.6</ele>
        <time>2024-04-15T16:39:42Z</time>
      </trkpt>
      <trkpt lat="45.91815" lon="3.34825">
        <ele>295.4</ele>
        <time>2024-04-15T16:39:43Z</time>
      </trkpt>
      <trkpt lat="45.91811" lon="3.34841">
        <ele>295.2</ele>
        <time>2024-04-15T16:39:44Z</time>
      </trkpt>
      <trkpt lat="45.91806" lon="3.34857">
        <ele>295</ele>
        <time>2024-04-15T16:39:45Z</time>
      </trkpt>
      <trkpt lat="45.91802" lon="3.34873">
        <ele>294.8</ele>
        <time>2024-04-15T16:39:46Z</time>
      </trkpt>
      <trkpt lat="45.91797" lon="3.34888">
        <ele>294.6</ele>
        <time>2024-04-15T16:39:47Z</time>
      </trkpt>
      <trkpt lat="45.91793" lon="3.34904">
        <ele>294.2</ele>
        <time>2024-04-15T16:39:48Z</time>
      </trkpt>
      <trkpt lat="45.91789" lon="3.34918">
        <ele>294</ele>
        <time>2024-04-15T16:39:49Z</time>
      </trkpt>
      <trkpt lat="45.91785" lon="3.34933">
        <ele>293.8</ele>
        <time>2024-04-15T16:39:50Z</time>
      </trkpt>
      <trkpt lat="45.91781" lon="3.34948">
        <ele>293.6</ele>
        <time>2024-04-15T16:39:51Z</time>
      </trkpt>
      <trkpt lat="45.91778" lon="3.34962">
        <ele>293.6</ele>
        <time>2024-04-15T16:39:52Z</time>
      </trkpt>
      <trkpt lat="45.91776" lon="3.34976">
        <ele>293.4</ele>
        <time>2024-04-15T16:39:53Z</time>
      </trkpt>
      <trkpt lat="45.91773" lon="3.34991">
        <ele>293.4</ele>
        <time>2024-04-15T16:39:54Z</time>
      </trkpt>
      <trkpt lat="45.9177" lon="3.35005">
        <ele>293.4</ele>
        <time>2024-04-15T16:39:55Z</time>
      </trkpt>
      <trkpt lat="45.91767" lon="3.35018">
        <ele>293.2</ele>
        <time>2024-04-15T16:39:56Z</time>
      </trkpt>
      <trkpt lat="45.91764" lon="3.35032">
        <ele>293</ele>
        <time>2024-04-15T16:39:57Z</time>
      </trkpt>
      <trkpt lat="45.91764" lon="3.35032">
        <ele>293</ele>
        <time>2024-04-15T16:39:58Z</time>
      </trkpt>
      <trkpt lat="45.91759" lon="3.3506">
        <ele>292.8</ele>
        <time>2024-04-15T16:39:59Z</time>
      </trkpt>
      <trkpt lat="45.91756" lon="3.35074">
        <ele>292.8</ele>
        <time>2024-04-15T16:40:00Z</time>
      </trkpt>
      <trkpt lat="45.91753" lon="3.35087">
        <ele>292.6</ele>
        <time>2024-04-15T16:40:01Z</time>
      </trkpt>
      <trkpt lat="45.91751" lon="3.351">
        <ele>292.6</ele>
        <time>2024-04-15T16:40:02Z</time>
      </trkpt>
      <trkpt lat="45.91748" lon="3.35114">
        <ele>292.6</ele>
        <time>2024-04-15T16:40:03Z</time>
      </trkpt>
      <trkpt lat="45.91748" lon="3.35114">
        <ele>292.4</ele>
        <time>2024-04-15T16:40:04Z</time>
      </trkpt>
      <trkpt lat="45.91743" lon="3.3514">
        <ele>292.2</ele>
        <time>2024-04-15T16:40:05Z</time>
      </trkpt>
      <trkpt lat="45.9174" lon="3.35153">
        <ele>292.2</ele>
        <time>2024-04-15T16:40:06Z</time>
      </trkpt>
      <trkpt lat="45.91738" lon="3.35166">
        <ele>292.2</ele>
        <time>2024-04-15T16:40:07Z</time>
      </trkpt>
      <trkpt lat="45.91735" lon="3.35179">
        <ele>292</ele>
        <time>2024-04-15T16:40:08Z</time>
      </trkpt>
      <trkpt lat="45.91732" lon="3.35191">
        <ele>292</ele>
        <time>2024-04-15T16:40:09Z</time>
      </trkpt>
      <trkpt lat="45.91729" lon="3.35203">
        <ele>291.8</ele>
        <time>2024-04-15T16:40:10Z</time>
      </trkpt>
      <trkpt lat="45.91725" lon="3.35215">
        <ele>291.8</ele>
        <time>2024-04-15T16:40:11Z</time>
      </trkpt>
      <trkpt lat="45.91722" lon="3.35227">
        <ele>291.6</ele>
        <time>2024-04-15T16:40:12Z</time>
      </trkpt>
      <trkpt lat="45.91719" lon="3.3524">
        <ele>291.6</ele>
        <time>2024-04-15T16:40:13Z</time>
      </trkpt>
      <trkpt lat="45.91715" lon="3.35253">
        <ele>291.4</ele>
        <time>2024-04-15T16:40:14Z</time>
      </trkpt>
      <trkpt lat="45.91712" lon="3.35265">
        <ele>291.2</ele>
        <time>2024-04-15T16:40:15Z</time>
      </trkpt>
      <trkpt lat="45.91709" lon="3.35277">
        <ele>291.2</ele>
        <time>2024-04-15T16:40:16Z</time>
      </trkpt>
      <trkpt lat="45.91706" lon="3.3529">
        <ele>291</ele>
        <time>2024-04-15T16:40:17Z</time>
      </trkpt>
      <trkpt lat="45.91702" lon="3.35302">
        <ele>291</ele>
        <time>2024-04-15T16:40:18Z</time>
      </trkpt>
      <trkpt lat="45.91699" lon="3.35315">
        <ele>290.8</ele>
        <time>2024-04-15T16:40:19Z</time>
      </trkpt>
      <trkpt lat="45.91696" lon="3.35328">
        <ele>290.8</ele>
        <time>2024-04-15T16:40:20Z</time>
      </trkpt>
      <trkpt lat="45.91692" lon="3.3534">
        <ele>290.6</ele>
        <time>2024-04-15T16:40:21Z</time>
      </trkpt>
      <trkpt lat="45.91689" lon="3.35353">
        <ele>290.6</ele>
        <time>2024-04-15T16:40:22Z</time>
      </trkpt>
      <trkpt lat="45.91685" lon="3.35366">
        <ele>290.4</ele>
        <time>2024-04-15T16:40:23Z</time>
      </trkpt>
      <trkpt lat="45.91682" lon="3.35379">
        <ele>290.4</ele>
        <time>2024-04-15T16:40:24Z</time>
      </trkpt>
      <trkpt lat="45.91678" lon="3.35392">
        <ele>290.2</ele>
        <time>2024-04-15T16:40:25Z</time>
      </trkpt>
      <trkpt lat="45.91675" lon="3.35405">
        <ele>290.2</ele>
        <time>2024-04-15T16:40:26Z</time>
      </trkpt>
      <trkpt lat="45.91672" lon="3.35418">
        <ele>290</ele>
        <time>2024-04-15T16:40:27Z</time>
      </trkpt>
      <trkpt lat="45.91668" lon="3.35431">
        <ele>290</ele>
        <time>2024-04-15T16:40:28Z</time>
      </trkpt>
      <trkpt lat="45.91665" lon="3.35445">
        <ele>289.8</ele>
        <time>2024-04-15T16:40:29Z</time>
      </trkpt>
      <trkpt lat="45.91661" lon="3.35458">
        <ele>289.8</ele>
        <time>2024-04-15T16:40:30Z</time>
      </trkpt>
      <trkpt lat="45.91658" lon="3.35471">
        <ele>289.6</ele>
        <time>2024-04-15T16:40:31Z</time>
      </trkpt>
      <trkpt lat="45.91654" lon="3.35484">
        <ele>289.6</ele>
        <time>2024-04-15T16:40:32Z</time>
      </trkpt>
      <trkpt lat="45.91651" lon="3.35497">
        <ele>289.4</ele>
        <time>2024-04-15T16:40:33Z</time>
      </trkpt>
      <trkpt lat="45.91648" lon="3.35511">
        <ele>289.4</ele>
        <time>2024-04-15T16:40:34Z</time>
      </trkpt>
      <trkpt lat="45.91647" lon="3.35524">
        <ele>289.2</ele>
        <time>2024-04-15T16:40:35Z</time>
      </trkpt>
      <trkpt lat="45.91646" lon="3.35538">
        <ele>289.2</ele>
        <time>2024-04-15T16:40:36Z</time>
      </trkpt>
      <trkpt lat="45.91645" lon="3.35552">
        <ele>289.2</ele>
        <time>2024-04-15T16:40:37Z</time>
      </trkpt>
      <trkpt lat="45.91645" lon="3.35566">
        <ele>289</ele>
        <time>2024-04-15T16:40:38Z</time>
      </trkpt>
      <trkpt lat="45.91644" lon="3.3558">
        <ele>289</ele>
        <time>2024-04-15T16:40:39Z</time>
      </trkpt>
      <trkpt lat="45.91645" lon="3.35593">
        <ele>288.8</ele>
        <time>2024-04-15T16:40:40Z</time>
      </trkpt>
      <trkpt lat="45.91646" lon="3.35607">
        <ele>288.8</ele>
        <time>2024-04-15T16:40:41Z</time>
      </trkpt>
      <trkpt lat="45.91648" lon="3.3562">
        <ele>288.8</ele>
        <time>2024-04-15T16:40:42Z</time>
      </trkpt>
      <trkpt lat="45.9165" lon="3.35634">
        <ele>288.6</ele>
        <time>2024-04-15T16:40:43Z</time>
      </trkpt>
      <trkpt lat="45.91652" lon="3.35647">
        <ele>288.6</ele>
        <time>2024-04-15T16:40:44Z</time>
      </trkpt>
      <trkpt lat="45.91655" lon="3.3566">
        <ele>288.4</ele>
        <time>2024-04-15T16:40:45Z</time>
      </trkpt>
      <trkpt lat="45.91658" lon="3.35673">
        <ele>288.4</ele>
        <time>2024-04-15T16:40:46Z</time>
      </trkpt>
      <trkpt lat="45.91661" lon="3.35687">
        <ele>288.4</ele>
        <time>2024-04-15T16:40:47Z</time>
      </trkpt>
      <trkpt lat="45.91663" lon="3.357">
        <ele>288.2</ele>
        <time>2024-04-15T16:40:48Z</time>
      </trkpt>
      <trkpt lat="45.91666" lon="3.35713">
        <ele>288.2</ele>
        <time>2024-04-15T16:40:49Z</time>
      </trkpt>
      <trkpt lat="45.91669" lon="3.35727">
        <ele>288</ele>
        <time>2024-04-15T16:40:50Z</time>
      </trkpt>
      <trkpt lat="45.91672" lon="3.3574">
        <ele>288</ele>
        <time>2024-04-15T16:40:51Z</time>
      </trkpt>
      <trkpt lat="45.91674" lon="3.35753">
        <ele>287.8</ele>
        <time>2024-04-15T16:40:52Z</time>
      </trkpt>
      <trkpt lat="45.91678" lon="3.35766">
        <ele>287.8</ele>
        <time>2024-04-15T16:40:53Z</time>
      </trkpt>
      <trkpt lat="45.91681" lon="3.35778">
        <ele>287.8</ele>
        <time>2024-04-15T16:40:54Z</time>
      </trkpt>
      <trkpt lat="45.91685" lon="3.35791">
        <ele>287.8</ele>
        <time>2024-04-15T16:40:55Z</time>
      </trkpt>
      <trkpt lat="45.91688" lon="3.35804">
        <ele>287.6</ele>
        <time>2024-04-15T16:40:56Z</time>
      </trkpt>
      <trkpt lat="45.91692" lon="3.35816">
        <ele>287.6</ele>
        <time>2024-04-15T16:40:57Z</time>
      </trkpt>
      <trkpt lat="45.91695" lon="3.35829">
        <ele>287.6</ele>
        <time>2024-04-15T16:40:58Z</time>
      </trkpt>
      <trkpt lat="45.91699" lon="3.35841">
        <ele>287.6</ele>
        <time>2024-04-15T16:40:59Z</time>
      </trkpt>
      <trkpt lat="45.91702" lon="3.35854">
        <ele>287.4</ele>
        <time>2024-04-15T16:41:00Z</time>
      </trkpt>
      <trkpt lat="45.91706" lon="3.35866">
        <ele>287.4</ele>
        <time>2024-04-15T16:41:01Z</time>
      </trkpt>
      <trkpt lat="45.91709" lon="3.35878">
        <ele>287.4</ele>
        <time>2024-04-15T16:41:02Z</time>
      </trkpt>
      <trkpt lat="45.91713" lon="3.3589">
        <ele>287.4</ele>
        <time>2024-04-15T16:41:03Z</time>
      </trkpt>
      <trkpt lat="45.91716" lon="3.35902">
        <ele>287.2</ele>
        <time>2024-04-15T16:41:04Z</time>
      </trkpt>
      <trkpt lat="45.9172" lon="3.35915">
        <ele>287.2</ele>
        <time>2024-04-15T16:41:05Z</time>
      </trkpt>
      <trkpt lat="45.91723" lon="3.35926">
        <ele>287.2</ele>
        <time>2024-04-15T16:41:06Z</time>
      </trkpt>
      <trkpt lat="45.91726" lon="3.35938">
        <ele>287</ele>
        <time>2024-04-15T16:41:07Z</time>
      </trkpt>
      <trkpt lat="45.91729" lon="3.3595">
        <ele>287</ele>
        <time>2024-04-15T16:41:08Z</time>
      </trkpt>
      <trkpt lat="45.91733" lon="3.35962">
        <ele>287</ele>
        <time>2024-04-15T16:41:09Z</time>
      </trkpt>
      <trkpt lat="45.91735" lon="3.35974">
        <ele>286.8</ele>
        <time>2024-04-15T16:41:10Z</time>
      </trkpt>
      <trkpt lat="45.91737" lon="3.35986">
        <ele>286.8</ele>
        <time>2024-04-15T16:41:11Z</time>
      </trkpt>
      <trkpt lat="45.91738" lon="3.35998">
        <ele>286.8</ele>
        <time>2024-04-15T16:41:12Z</time>
      </trkpt>
      <trkpt lat="45.9174" lon="3.3601">
        <ele>286.8</ele>
        <time>2024-04-15T16:41:13Z</time>
      </trkpt>
      <trkpt lat="45.9174" lon="3.36022">
        <ele>286.8</ele>
        <time>2024-04-15T16:41:14Z</time>
      </trkpt>
      <trkpt lat="45.9174" lon="3.36033">
        <ele>286.6</ele>
        <time>2024-04-15T16:41:15Z</time>
      </trkpt>
      <trkpt lat="45.9174" lon="3.36045">
        <ele>286.8</ele>
        <time>2024-04-15T16:41:16Z</time>
      </trkpt>
      <trkpt lat="45.91739" lon="3.36056">
        <ele>286.6</ele>
        <time>2024-04-15T16:41:17Z</time>
      </trkpt>
      <trkpt lat="45.91738" lon="3.36068">
        <ele>286.6</ele>
        <time>2024-04-15T16:41:18Z</time>
      </trkpt>
      <trkpt lat="45.91737" lon="3.36079">
        <ele>286.6</ele>
        <time>2024-04-15T16:41:19Z</time>
      </trkpt>
      <trkpt lat="45.91735" lon="3.3609">
        <ele>286.6</ele>
        <time>2024-04-15T16:41:20Z</time>
      </trkpt>
      <trkpt lat="45.91734" lon="3.36101">
        <ele>286.6</ele>
        <time>2024-04-15T16:41:21Z</time>
      </trkpt>
      <trkpt lat="45.91733" lon="3.36111">
        <ele>286.6</ele>
        <time>2024-04-15T16:41:22Z</time>
      </trkpt>
      <trkpt lat="45.91732" lon="3.36122">
        <ele>286.6</ele>
        <time>2024-04-15T16:41:23Z</time>
      </trkpt>
      <trkpt lat="45.9173" lon="3.36133">
        <ele>286.6</ele>
        <time>2024-04-15T16:41:24Z</time>
      </trkpt>
      <trkpt lat="45.91728" lon="3.36143">
        <ele>286.6</ele>
        <time>2024-04-15T16:41:25Z</time>
      </trkpt>
      <trkpt lat="45.91725" lon="3.36154">
        <ele>286.6</ele>
        <time>2024-04-15T16:41:26Z</time>
      </trkpt>
      <trkpt lat="45.91723" lon="3.36164">
        <ele>286.6</ele>
        <time>2024-04-15T16:41:27Z</time>
      </trkpt>
      <trkpt lat="45.91721" lon="3.36174">
        <ele>286.6</ele>
        <time>2024-04-15T16:41:28Z</time>
      </trkpt>
      <trkpt lat="45.91719" lon="3.36185">
        <ele>286.6</ele>
        <time>2024-04-15T16:41:29Z</time>
      </trkpt>
      <trkpt lat="45.91716" lon="3.36195">
        <ele>286.6</ele>
        <time>2024-04-15T16:41:30Z</time>
      </trkpt>
      <trkpt lat="45.91714" lon="3.36206">
        <ele>286.6</ele>
        <time>2024-04-15T16:41:31Z</time>
      </trkpt>
      <trkpt lat="45.91712" lon="3.36216">
        <ele>286.6</ele>
        <time>2024-04-15T16:41:32Z</time>
      </trkpt>
      <trkpt lat="45.91709" lon="3.36227">
        <ele>286.6</ele>
        <time>2024-04-15T16:41:33Z</time>
      </trkpt>
      <trkpt lat="45.91707" lon="3.36237">
        <ele>286.6</ele>
        <time>2024-04-15T16:41:34Z</time>
      </trkpt>
      <trkpt lat="45.91705" lon="3.36248">
        <ele>286.6</ele>
        <time>2024-04-15T16:41:35Z</time>
      </trkpt>
      <trkpt lat="45.91703" lon="3.36258">
        <ele>286.6</ele>
        <time>2024-04-15T16:41:36Z</time>
      </trkpt>
      <trkpt lat="45.917" lon="3.36268">
        <ele>286.6</ele>
        <time>2024-04-15T16:41:37Z</time>
      </trkpt>
      <trkpt lat="45.91698" lon="3.36279">
        <ele>286.6</ele>
        <time>2024-04-15T16:41:38Z</time>
      </trkpt>
      <trkpt lat="45.91696" lon="3.36289">
        <ele>286.6</ele>
        <time>2024-04-15T16:41:39Z</time>
      </trkpt>
      <trkpt lat="45.91694" lon="3.36299">
        <ele>286.6</ele>
        <time>2024-04-15T16:41:40Z</time>
      </trkpt>
      <trkpt lat="45.91691" lon="3.36309">
        <ele>286.6</ele>
        <time>2024-04-15T16:41:41Z</time>
      </trkpt>
      <trkpt lat="45.91689" lon="3.36319">
        <ele>286.6</ele>
        <time>2024-04-15T16:41:42Z</time>
      </trkpt>
      <trkpt lat="45.91687" lon="3.36329">
        <ele>286.6</ele>
        <time>2024-04-15T16:41:43Z</time>
      </trkpt>
      <trkpt lat="45.91685" lon="3.36339">
        <ele>286.6</ele>
        <time>2024-04-15T16:41:44Z</time>
      </trkpt>
      <trkpt lat="45.91683" lon="3.3635">
        <ele>286.8</ele>
        <time>2024-04-15T16:41:45Z</time>
      </trkpt>
      <trkpt lat="45.9168" lon="3.3636">
        <ele>286.6</ele>
        <time>2024-04-15T16:41:46Z</time>
      </trkpt>
      <trkpt lat="45.91678" lon="3.3637">
        <ele>286.6</ele>
        <time>2024-04-15T16:41:47Z</time>
      </trkpt>
      <trkpt lat="45.91676" lon="3.36381">
        <ele>286.6</ele>
        <time>2024-04-15T16:41:48Z</time>
      </trkpt>
      <trkpt lat="45.91673" lon="3.36391">
        <ele>286.8</ele>
        <time>2024-04-15T16:41:49Z</time>
      </trkpt>
      <trkpt lat="45.91671" lon="3.36401">
        <ele>286.8</ele>
        <time>2024-04-15T16:41:50Z</time>
      </trkpt>
      <trkpt lat="45.91669" lon="3.36411">
        <ele>286.8</ele>
        <time>2024-04-15T16:41:51Z</time>
      </trkpt>
      <trkpt lat="45.91667" lon="3.36422">
        <ele>286.8</ele>
        <time>2024-04-15T16:41:52Z</time>
      </trkpt>
      <trkpt lat="45.91664" lon="3.36432">
        <ele>287</ele>
        <time>2024-04-15T16:41:53Z</time>
      </trkpt>
      <trkpt lat="45.91662" lon="3.36442">
        <ele>287</ele>
        <time>2024-04-15T16:41:54Z</time>
      </trkpt>
      <trkpt lat="45.9166" lon="3.36453">
        <ele>287</ele>
        <time>2024-04-15T16:41:55Z</time>
      </trkpt>
      <trkpt lat="45.91657" lon="3.36463">
        <ele>287</ele>
        <time>2024-04-15T16:41:56Z</time>
      </trkpt>
      <trkpt lat="45.91655" lon="3.36473">
        <ele>287</ele>
        <time>2024-04-15T16:41:57Z</time>
      </trkpt>
      <trkpt lat="45.91653" lon="3.36484">
        <ele>287</ele>
        <time>2024-04-15T16:41:58Z</time>
      </trkpt>
      <trkpt lat="45.9165" lon="3.36494">
        <ele>287</ele>
        <time>2024-04-15T16:41:59Z</time>
      </trkpt>
      <trkpt lat="45.91648" lon="3.36505">
        <ele>287</ele>
        <time>2024-04-15T16:42:00Z</time>
      </trkpt>
      <trkpt lat="45.91646" lon="3.36515">
        <ele>287</ele>
        <time>2024-04-15T16:42:01Z</time>
      </trkpt>
      <trkpt lat="45.91644" lon="3.36525">
        <ele>287</ele>
        <time>2024-04-15T16:42:02Z</time>
      </trkpt>
      <trkpt lat="45.91641" lon="3.36536">
        <ele>287</ele>
        <time>2024-04-15T16:42:03Z</time>
      </trkpt>
      <trkpt lat="45.91639" lon="3.36546">
        <ele>287</ele>
        <time>2024-04-15T16:42:04Z</time>
      </trkpt>
      <trkpt lat="45.91637" lon="3.36556">
        <ele>287</ele>
        <time>2024-04-15T16:42:05Z</time>
      </trkpt>
      <trkpt lat="45.91635" lon="3.36566">
        <ele>287</ele>
        <time>2024-04-15T16:42:06Z</time>
      </trkpt>
      <trkpt lat="45.91632" lon="3.36576">
        <ele>287</ele>
        <time>2024-04-15T16:42:07Z</time>
      </trkpt>
      <trkpt lat="45.9163" lon="3.36587">
        <ele>287.2</ele>
        <time>2024-04-15T16:42:08Z</time>
      </trkpt>
      <trkpt lat="45.91628" lon="3.36597">
        <ele>287.2</ele>
        <time>2024-04-15T16:42:09Z</time>
      </trkpt>
      <trkpt lat="45.91627" lon="3.36608">
        <ele>287.2</ele>
        <time>2024-04-15T16:42:10Z</time>
      </trkpt>
      <trkpt lat="45.91625" lon="3.36619">
        <ele>287.2</ele>
        <time>2024-04-15T16:42:11Z</time>
      </trkpt>
      <trkpt lat="45.91623" lon="3.36629">
        <ele>287.2</ele>
        <time>2024-04-15T16:42:12Z</time>
      </trkpt>
      <trkpt lat="45.91622" lon="3.3664">
        <ele>287.2</ele>
        <time>2024-04-15T16:42:13Z</time>
      </trkpt>
      <trkpt lat="45.9162" lon="3.36651">
        <ele>287.2</ele>
        <time>2024-04-15T16:42:14Z</time>
      </trkpt>
      <trkpt lat="45.9162" lon="3.36662">
        <ele>287.2</ele>
        <time>2024-04-15T16:42:15Z</time>
      </trkpt>
      <trkpt lat="45.9162" lon="3.36673">
        <ele>287.4</ele>
        <time>2024-04-15T16:42:16Z</time>
      </trkpt>
      <trkpt lat="45.9162" lon="3.36685">
        <ele>287.4</ele>
        <time>2024-04-15T16:42:17Z</time>
      </trkpt>
      <trkpt lat="45.9162" lon="3.36695">
        <ele>287.4</ele>
        <time>2024-04-15T16:42:18Z</time>
      </trkpt>
      <trkpt lat="45.9162" lon="3.36706">
        <ele>287.4</ele>
        <time>2024-04-15T16:42:19Z</time>
      </trkpt>
      <trkpt lat="45.9162" lon="3.36718">
        <ele>287.4</ele>
        <time>2024-04-15T16:42:20Z</time>
      </trkpt>
      <trkpt lat="45.9162" lon="3.36729">
        <ele>287.4</ele>
        <time>2024-04-15T16:42:21Z</time>
      </trkpt>
      <trkpt lat="45.9162" lon="3.3674">
        <ele>287.4</ele>
        <time>2024-04-15T16:42:22Z</time>
      </trkpt>
      <trkpt lat="45.9162" lon="3.36751">
        <ele>287.4</ele>
        <time>2024-04-15T16:42:23Z</time>
      </trkpt>
      <trkpt lat="45.9162" lon="3.36762">
        <ele>287.4</ele>
        <time>2024-04-15T16:42:24Z</time>
      </trkpt>
      <trkpt lat="45.9162" lon="3.36773">
        <ele>287.2</ele>
        <time>2024-04-15T16:42:25Z</time>
      </trkpt>
      <trkpt lat="45.91619" lon="3.36784">
        <ele>287.2</ele>
        <time>2024-04-15T16:42:26Z</time>
      </trkpt>
      <trkpt lat="45.91619" lon="3.36795">
        <ele>287.2</ele>
        <time>2024-04-15T16:42:27Z</time>
      </trkpt>
      <trkpt lat="45.91619" lon="3.36805">
        <ele>287.4</ele>
        <time>2024-04-15T16:42:28Z</time>
      </trkpt>
      <trkpt lat="45.91619" lon="3.36816">
        <ele>287</ele>
        <time>2024-04-15T16:42:29Z</time>
      </trkpt>
      <trkpt lat="45.91619" lon="3.36827">
        <ele>287</ele>
        <time>2024-04-15T16:42:30Z</time>
      </trkpt>
      <trkpt lat="45.91619" lon="3.36837">
        <ele>287</ele>
        <time>2024-04-15T16:42:31Z</time>
      </trkpt>
      <trkpt lat="45.91619" lon="3.36848">
        <ele>287</ele>
        <time>2024-04-15T16:42:32Z</time>
      </trkpt>
      <trkpt lat="45.91619" lon="3.36859">
        <ele>287</ele>
        <time>2024-04-15T16:42:33Z</time>
      </trkpt>
      <trkpt lat="45.91619" lon="3.3687">
        <ele>287</ele>
        <time>2024-04-15T16:42:34Z</time>
      </trkpt>
      <trkpt lat="45.91619" lon="3.36881">
        <ele>287</ele>
        <time>2024-04-15T16:42:35Z</time>
      </trkpt>
      <trkpt lat="45.91619" lon="3.36891">
        <ele>287</ele>
        <time>2024-04-15T16:42:36Z</time>
      </trkpt>
      <trkpt lat="45.91619" lon="3.36902">
        <ele>287</ele>
        <time>2024-04-15T16:42:37Z</time>
      </trkpt>
      <trkpt lat="45.91619" lon="3.36912">
        <ele>287.2</ele>
        <time>2024-04-15T16:42:38Z</time>
      </trkpt>
      <trkpt lat="45.91619" lon="3.36923">
        <ele>287</ele>
        <time>2024-04-15T16:42:39Z</time>
      </trkpt>
      <trkpt lat="45.91619" lon="3.36933">
        <ele>287</ele>
        <time>2024-04-15T16:42:40Z</time>
      </trkpt>
      <trkpt lat="45.91619" lon="3.36943">
        <ele>287.2</ele>
        <time>2024-04-15T16:42:41Z</time>
      </trkpt>
      <trkpt lat="45.91619" lon="3.36954">
        <ele>287.2</ele>
        <time>2024-04-15T16:42:42Z</time>
      </trkpt>
      <trkpt lat="45.91619" lon="3.36965">
        <ele>287.2</ele>
        <time>2024-04-15T16:42:43Z</time>
      </trkpt>
      <trkpt lat="45.91619" lon="3.36976">
        <ele>287</ele>
        <time>2024-04-15T16:42:44Z</time>
      </trkpt>
      <trkpt lat="45.91619" lon="3.36987">
        <ele>287</ele>
        <time>2024-04-15T16:42:45Z</time>
      </trkpt>
      <trkpt lat="45.91619" lon="3.36998">
        <ele>287</ele>
        <time>2024-04-15T16:42:46Z</time>
      </trkpt>
      <trkpt lat="45.91619" lon="3.37009">
        <ele>287</ele>
        <time>2024-04-15T16:42:47Z</time>
      </trkpt>
      <trkpt lat="45.91619" lon="3.37021">
        <ele>287</ele>
        <time>2024-04-15T16:42:48Z</time>
      </trkpt>
      <trkpt lat="45.91619" lon="3.37032">
        <ele>286.8</ele>
        <time>2024-04-15T16:42:49Z</time>
      </trkpt>
      <trkpt lat="45.91619" lon="3.37043">
        <ele>287</ele>
        <time>2024-04-15T16:42:50Z</time>
      </trkpt>
      <trkpt lat="45.91618" lon="3.37054">
        <ele>287</ele>
        <time>2024-04-15T16:42:51Z</time>
      </trkpt>
      <trkpt lat="45.91618" lon="3.37065">
        <ele>287.2</ele>
        <time>2024-04-15T16:42:52Z</time>
      </trkpt>
      <trkpt lat="45.91618" lon="3.37076">
        <ele>287.2</ele>
        <time>2024-04-15T16:42:53Z</time>
      </trkpt>
      <trkpt lat="45.91618" lon="3.37087">
        <ele>287.4</ele>
        <time>2024-04-15T16:42:54Z</time>
      </trkpt>
      <trkpt lat="45.91618" lon="3.37098">
        <ele>287.2</ele>
        <time>2024-04-15T16:42:55Z</time>
      </trkpt>
      <trkpt lat="45.91618" lon="3.37109">
        <ele>287.2</ele>
        <time>2024-04-15T16:42:56Z</time>
      </trkpt>
      <trkpt lat="45.91618" lon="3.37119">
        <ele>287.2</ele>
        <time>2024-04-15T16:42:57Z</time>
      </trkpt>
      <trkpt lat="45.91618" lon="3.3713">
        <ele>287.2</ele>
        <time>2024-04-15T16:42:58Z</time>
      </trkpt>
      <trkpt lat="45.91618" lon="3.37141">
        <ele>287.2</ele>
        <time>2024-04-15T16:42:59Z</time>
      </trkpt>
      <trkpt lat="45.91618" lon="3.37152">
        <ele>287.2</ele>
        <time>2024-04-15T16:43:00Z</time>
      </trkpt>
      <trkpt lat="45.91618" lon="3.37162">
        <ele>287.4</ele>
        <time>2024-04-15T16:43:01Z</time>
      </trkpt>
      <trkpt lat="45.91618" lon="3.37173">
        <ele>287.4</ele>
        <time>2024-04-15T16:43:02Z</time>
      </trkpt>
      <trkpt lat="45.91618" lon="3.37183">
        <ele>287.4</ele>
        <time>2024-04-15T16:43:03Z</time>
      </trkpt>
      <trkpt lat="45.91618" lon="3.37193">
        <ele>287.4</ele>
        <time>2024-04-15T16:43:04Z</time>
      </trkpt>
      <trkpt lat="45.91618" lon="3.37204">
        <ele>287.4</ele>
        <time>2024-04-15T16:43:05Z</time>
      </trkpt>
      <trkpt lat="45.91618" lon="3.37214">
        <ele>287.4</ele>
        <time>2024-04-15T16:43:06Z</time>
      </trkpt>
      <trkpt lat="45.91618" lon="3.37224">
        <ele>287.6</ele>
        <time>2024-04-15T16:43:07Z</time>
      </trkpt>
      <trkpt lat="45.91617" lon="3.37235">
        <ele>287.6</ele>
        <time>2024-04-15T16:43:08Z</time>
      </trkpt>
      <trkpt lat="45.91615" lon="3.37244">
        <ele>287.8</ele>
        <time>2024-04-15T16:43:09Z</time>
      </trkpt>
      <trkpt lat="45.91612" lon="3.37254">
        <ele>287.8</ele>
        <time>2024-04-15T16:43:10Z</time>
      </trkpt>
      <trkpt lat="45.91609" lon="3.37263">
        <ele>287.8</ele>
        <time>2024-04-15T16:43:11Z</time>
      </trkpt>
      <trkpt lat="45.91607" lon="3.37272">
        <ele>288</ele>
        <time>2024-04-15T16:43:12Z</time>
      </trkpt>
      <trkpt lat="45.91604" lon="3.37281">
        <ele>288</ele>
        <time>2024-04-15T16:43:13Z</time>
      </trkpt>
      <trkpt lat="45.91602" lon="3.37289">
        <ele>288.2</ele>
        <time>2024-04-15T16:43:14Z</time>
      </trkpt>
      <trkpt lat="45.91599" lon="3.37298">
        <ele>288.4</ele>
        <time>2024-04-15T16:43:15Z</time>
      </trkpt>
      <trkpt lat="45.91597" lon="3.37306">
        <ele>288.4</ele>
        <time>2024-04-15T16:43:16Z</time>
      </trkpt>
      <trkpt lat="45.91594" lon="3.37315">
        <ele>288.4</ele>
        <time>2024-04-15T16:43:17Z</time>
      </trkpt>
      <trkpt lat="45.91592" lon="3.37323">
        <ele>288.6</ele>
        <time>2024-04-15T16:43:18Z</time>
      </trkpt>
      <trkpt lat="45.9159" lon="3.37331">
        <ele>288.6</ele>
        <time>2024-04-15T16:43:19Z</time>
      </trkpt>
      <trkpt lat="45.91587" lon="3.37339">
        <ele>288.8</ele>
        <time>2024-04-15T16:43:20Z</time>
      </trkpt>
      <trkpt lat="45.91585" lon="3.37347">
        <ele>288.8</ele>
        <time>2024-04-15T16:43:21Z</time>
      </trkpt>
      <trkpt lat="45.91583" lon="3.37355">
        <ele>289</ele>
        <time>2024-04-15T16:43:22Z</time>
      </trkpt>
      <trkpt lat="45.91581" lon="3.37363">
        <ele>289</ele>
        <time>2024-04-15T16:43:23Z</time>
      </trkpt>
      <trkpt lat="45.91578" lon="3.3737">
        <ele>289.2</ele>
        <time>2024-04-15T16:43:24Z</time>
      </trkpt>
      <trkpt lat="45.91576" lon="3.37378">
        <ele>289.2</ele>
        <time>2024-04-15T16:43:25Z</time>
      </trkpt>
      <trkpt lat="45.91574" lon="3.37385">
        <ele>289.4</ele>
        <time>2024-04-15T16:43:26Z</time>
      </trkpt>
      <trkpt lat="45.91572" lon="3.37392">
        <ele>289.4</ele>
        <time>2024-04-15T16:43:27Z</time>
      </trkpt>
      <trkpt lat="45.9157" lon="3.37399">
        <ele>289.6</ele>
        <time>2024-04-15T16:43:28Z</time>
      </trkpt>
      <trkpt lat="45.91568" lon="3.37406">
        <ele>289.6</ele>
        <time>2024-04-15T16:43:29Z</time>
      </trkpt>
      <trkpt lat="45.91566" lon="3.37414">
        <ele>289.8</ele>
        <time>2024-04-15T16:43:30Z</time>
      </trkpt>
      <trkpt lat="45.91564" lon="3.37421">
        <ele>289.8</ele>
        <time>2024-04-15T16:43:31Z</time>
      </trkpt>
      <trkpt lat="45.91562" lon="3.37428">
        <ele>290</ele>
        <time>2024-04-15T16:43:32Z</time>
      </trkpt>
      <trkpt lat="45.9156" lon="3.37435">
        <ele>290</ele>
        <time>2024-04-15T16:43:33Z</time>
      </trkpt>
      <trkpt lat="45.91558" lon="3.37442">
        <ele>290.2</ele>
        <time>2024-04-15T16:43:34Z</time>
      </trkpt>
      <trkpt lat="45.91556" lon="3.37449">
        <ele>290.4</ele>
        <time>2024-04-15T16:43:35Z</time>
      </trkpt>
      <trkpt lat="45.91554" lon="3.37457">
        <ele>290.4</ele>
        <time>2024-04-15T16:43:36Z</time>
      </trkpt>
      <trkpt lat="45.91553" lon="3.37464">
        <ele>290.6</ele>
        <time>2024-04-15T16:43:37Z</time>
      </trkpt>
      <trkpt lat="45.91551" lon="3.37471">
        <ele>290.6</ele>
        <time>2024-04-15T16:43:38Z</time>
      </trkpt>
      <trkpt lat="45.9155" lon="3.37478">
        <ele>290.8</ele>
        <time>2024-04-15T16:43:39Z</time>
      </trkpt>
      <trkpt lat="45.91548" lon="3.37486">
        <ele>290.8</ele>
        <time>2024-04-15T16:43:40Z</time>
      </trkpt>
      <trkpt lat="45.91547" lon="3.37494">
        <ele>291</ele>
        <time>2024-04-15T16:43:41Z</time>
      </trkpt>
      <trkpt lat="45.91545" lon="3.37501">
        <ele>291</ele>
        <time>2024-04-15T16:43:42Z</time>
      </trkpt>
      <trkpt lat="45.91544" lon="3.37509">
        <ele>291.2</ele>
        <time>2024-04-15T16:43:43Z</time>
      </trkpt>
      <trkpt lat="45.91543" lon="3.37516">
        <ele>291.4</ele>
        <time>2024-04-15T16:43:44Z</time>
      </trkpt>
      <trkpt lat="45.91542" lon="3.37524">
        <ele>291.4</ele>
        <time>2024-04-15T16:43:45Z</time>
      </trkpt>
      <trkpt lat="45.91542" lon="3.37533">
        <ele>291.6</ele>
        <time>2024-04-15T16:43:46Z</time>
      </trkpt>
      <trkpt lat="45.91541" lon="3.37541">
        <ele>291.6</ele>
        <time>2024-04-15T16:43:47Z</time>
      </trkpt>
      <trkpt lat="45.91541" lon="3.37549">
        <ele>291.8</ele>
        <time>2024-04-15T16:43:48Z</time>
      </trkpt>
      <trkpt lat="45.91541" lon="3.37557">
        <ele>292</ele>
        <time>2024-04-15T16:43:49Z</time>
      </trkpt>
      <trkpt lat="45.91541" lon="3.37564">
        <ele>292</ele>
        <time>2024-04-15T16:43:50Z</time>
      </trkpt>
      <trkpt lat="45.91542" lon="3.37573">
        <ele>292.2</ele>
        <time>2024-04-15T16:43:51Z</time>
      </trkpt>
      <trkpt lat="45.91543" lon="3.3758">
        <ele>292.2</ele>
        <time>2024-04-15T16:43:52Z</time>
      </trkpt>
      <trkpt lat="45.91544" lon="3.37588">
        <ele>292.4</ele>
        <time>2024-04-15T16:43:53Z</time>
      </trkpt>
      <trkpt lat="45.91544" lon="3.37596">
        <ele>292.6</ele>
        <time>2024-04-15T16:43:54Z</time>
      </trkpt>
      <trkpt lat="45.91545" lon="3.37603">
        <ele>292.6</ele>
        <time>2024-04-15T16:43:55Z</time>
      </trkpt>
      <trkpt lat="45.91546" lon="3.37611">
        <ele>292.8</ele>
        <time>2024-04-15T16:43:56Z</time>
      </trkpt>
      <trkpt lat="45.91547" lon="3.37619">
        <ele>293</ele>
        <time>2024-04-15T16:43:57Z</time>
      </trkpt>
      <trkpt lat="45.91547" lon="3.37626">
        <ele>293.2</ele>
        <time>2024-04-15T16:43:58Z</time>
      </trkpt>
      <trkpt lat="45.91548" lon="3.37634">
        <ele>293.4</ele>
        <time>2024-04-15T16:43:59Z</time>
      </trkpt>
      <trkpt lat="45.91549" lon="3.37641">
        <ele>293.4</ele>
        <time>2024-04-15T16:44:00Z</time>
      </trkpt>
      <trkpt lat="45.91549" lon="3.37648">
        <ele>293.6</ele>
        <time>2024-04-15T16:44:01Z</time>
      </trkpt>
      <trkpt lat="45.91541" lon="3.37655">
        <ele>293.8</ele>
        <time>2024-04-15T16:44:02Z</time>
      </trkpt>
      <trkpt lat="45.91536" lon="3.37655">
        <ele>293.8</ele>
        <time>2024-04-15T16:44:03Z</time>
      </trkpt>
      <trkpt lat="45.9153" lon="3.37656">
        <ele>294</ele>
        <time>2024-04-15T16:44:04Z</time>
      </trkpt>
      <trkpt lat="45.91525" lon="3.37657">
        <ele>294.2</ele>
        <time>2024-04-15T16:44:05Z</time>
      </trkpt>
      <trkpt lat="45.91519" lon="3.37658">
        <ele>294.4</ele>
        <time>2024-04-15T16:44:06Z</time>
      </trkpt>
      <trkpt lat="45.91513" lon="3.37657">
        <ele>294.4</ele>
        <time>2024-04-15T16:44:07Z</time>
      </trkpt>
      <trkpt lat="45.91508" lon="3.37655">
        <ele>294.6</ele>
        <time>2024-04-15T16:44:08Z</time>
      </trkpt>
      <trkpt lat="45.91503" lon="3.37653">
        <ele>294.8</ele>
        <time>2024-04-15T16:44:09Z</time>
      </trkpt>
      <trkpt lat="45.91498" lon="3.37648">
        <ele>294.8</ele>
        <time>2024-04-15T16:44:10Z</time>
      </trkpt>
      <trkpt lat="45.91495" lon="3.37642">
        <ele>295</ele>
        <time>2024-04-15T16:44:11Z</time>
      </trkpt>
      <trkpt lat="45.91493" lon="3.37635">
        <ele>295.2</ele>
        <time>2024-04-15T16:44:12Z</time>
      </trkpt>
      <trkpt lat="45.91491" lon="3.37629">
        <ele>295.2</ele>
        <time>2024-04-15T16:44:13Z</time>
      </trkpt>
      <trkpt lat="45.9149" lon="3.37623">
        <ele>295.4</ele>
        <time>2024-04-15T16:44:14Z</time>
      </trkpt>
      <trkpt lat="45.91489" lon="3.37616">
        <ele>295.6</ele>
        <time>2024-04-15T16:44:15Z</time>
      </trkpt>
      <trkpt lat="45.91487" lon="3.37609">
        <ele>295.6</ele>
        <time>2024-04-15T16:44:16Z</time>
      </trkpt>
      <trkpt lat="45.91486" lon="3.37602">
        <ele>295.8</ele>
        <time>2024-04-15T16:44:17Z</time>
      </trkpt>
      <trkpt lat="45.91485" lon="3.37595">
        <ele>296</ele>
        <time>2024-04-15T16:44:18Z</time>
      </trkpt>
      <trkpt lat="45.91483" lon="3.37589">
        <ele>296.2</ele>
        <time>2024-04-15T16:44:19Z</time>
      </trkpt>
      <trkpt lat="45.91482" lon="3.37582">
        <ele>296.4</ele>
        <time>2024-04-15T16:44:20Z</time>
      </trkpt>
      <trkpt lat="45.91481" lon="3.37575">
        <ele>296.6</ele>
        <time>2024-04-15T16:44:21Z</time>
      </trkpt>
      <trkpt lat="45.91479" lon="3.37568">
        <ele>296.6</ele>
        <time>2024-04-15T16:44:22Z</time>
      </trkpt>
      <trkpt lat="45.91478" lon="3.37561">
        <ele>296.8</ele>
        <time>2024-04-15T16:44:23Z</time>
      </trkpt>
      <trkpt lat="45.91477" lon="3.37555">
        <ele>296.8</ele>
        <time>2024-04-15T16:44:24Z</time>
      </trkpt>
      <trkpt lat="45.91475" lon="3.37549">
        <ele>297</ele>
        <time>2024-04-15T16:44:25Z</time>
      </trkpt>
      <trkpt lat="45.91474" lon="3.37543">
        <ele>297.2</ele>
        <time>2024-04-15T16:44:26Z</time>
      </trkpt>
      <trkpt lat="45.91471" lon="3.37537">
        <ele>297.2</ele>
        <time>2024-04-15T16:44:27Z</time>
      </trkpt>
      <trkpt lat="45.91468" lon="3.37532">
        <ele>297.4</ele>
        <time>2024-04-15T16:44:28Z</time>
      </trkpt>
      <trkpt lat="45.91465" lon="3.37527">
        <ele>297.6</ele>
        <time>2024-04-15T16:44:29Z</time>
      </trkpt>
      <trkpt lat="45.91462" lon="3.37522">
        <ele>297.6</ele>
        <time>2024-04-15T16:44:30Z</time>
      </trkpt>
      <trkpt lat="45.91459" lon="3.37516">
        <ele>297.8</ele>
        <time>2024-04-15T16:44:31Z</time>
      </trkpt>
      <trkpt lat="45.91456" lon="3.37511">
        <ele>298</ele>
        <time>2024-04-15T16:44:32Z</time>
      </trkpt>
      <trkpt lat="45.91451" lon="3.37509">
        <ele>298</ele>
        <time>2024-04-15T16:44:33Z</time>
      </trkpt>
      <trkpt lat="45.91447" lon="3.37506">
        <ele>298.2</ele>
        <time>2024-04-15T16:44:34Z</time>
      </trkpt>
      <trkpt lat="45.91443" lon="3.37504">
        <ele>298.4</ele>
        <time>2024-04-15T16:44:35Z</time>
      </trkpt>
      <trkpt lat="45.91439" lon="3.37501">
        <ele>298.6</ele>
        <time>2024-04-15T16:44:36Z</time>
      </trkpt>
      <trkpt lat="45.91434" lon="3.37495">
        <ele>298.6</ele>
        <time>2024-04-15T16:44:37Z</time>
      </trkpt>
      <trkpt lat="45.91432" lon="3.3749">
        <ele>298.8</ele>
        <time>2024-04-15T16:44:38Z</time>
      </trkpt>
      <trkpt lat="45.9143" lon="3.37484">
        <ele>299</ele>
        <time>2024-04-15T16:44:39Z</time>
      </trkpt>
      <trkpt lat="45.91428" lon="3.37478">
        <ele>299.2</ele>
        <time>2024-04-15T16:44:40Z</time>
      </trkpt>
      <trkpt lat="45.91426" lon="3.37471">
        <ele>299.2</ele>
        <time>2024-04-15T16:44:41Z</time>
      </trkpt>
      <trkpt lat="45.91424" lon="3.37465">
        <ele>299.4</ele>
        <time>2024-04-15T16:44:42Z</time>
      </trkpt>
      <trkpt lat="45.91422" lon="3.37458">
        <ele>299.6</ele>
        <time>2024-04-15T16:44:43Z</time>
      </trkpt>
      <trkpt lat="45.91419" lon="3.37451">
        <ele>299.6</ele>
        <time>2024-04-15T16:44:44Z</time>
      </trkpt>
      <trkpt lat="45.91416" lon="3.37443">
        <ele>299.6</ele>
        <time>2024-04-15T16:44:45Z</time>
      </trkpt>
      <trkpt lat="45.91414" lon="3.37434">
        <ele>299.8</ele>
        <time>2024-04-15T16:44:46Z</time>
      </trkpt>
      <trkpt lat="45.91411" lon="3.37426">
        <ele>299.8</ele>
        <time>2024-04-15T16:44:47Z</time>
      </trkpt>
      <trkpt lat="45.91408" lon="3.37417">
        <ele>299.8</ele>
        <time>2024-04-15T16:44:48Z</time>
      </trkpt>
      <trkpt lat="45.91405" lon="3.37408">
        <ele>300</ele>
        <time>2024-04-15T16:44:49Z</time>
      </trkpt>
      <trkpt lat="45.91402" lon="3.37399">
        <ele>300</ele>
        <time>2024-04-15T16:44:50Z</time>
      </trkpt>
      <trkpt lat="45.91398" lon="3.37389">
        <ele>300.2</ele>
        <time>2024-04-15T16:44:51Z</time>
      </trkpt>
      <trkpt lat="45.91395" lon="3.3738">
        <ele>300.2</ele>
        <time>2024-04-15T16:44:52Z</time>
      </trkpt>
      <trkpt lat="45.91392" lon="3.37371">
        <ele>300.2</ele>
        <time>2024-04-15T16:44:53Z</time>
      </trkpt>
      <trkpt lat="45.91389" lon="3.37362">
        <ele>300.4</ele>
        <time>2024-04-15T16:44:54Z</time>
      </trkpt>
      <trkpt lat="45.91386" lon="3.37353">
        <ele>300.6</ele>
        <time>2024-04-15T16:44:55Z</time>
      </trkpt>
      <trkpt lat="45.91383" lon="3.37344">
        <ele>300.6</ele>
        <time>2024-04-15T16:44:56Z</time>
      </trkpt>
      <trkpt lat="45.91381" lon="3.37337">
        <ele>300.8</ele>
        <time>2024-04-15T16:44:57Z</time>
      </trkpt>
      <trkpt lat="45.91372" lon="3.37337">
        <ele>300.8</ele>
        <time>2024-04-15T16:44:58Z</time>
      </trkpt>
      <trkpt lat="45.91367" lon="3.37339">
        <ele>301</ele>
        <time>2024-04-15T16:44:59Z</time>
      </trkpt>
      <trkpt lat="45.91362" lon="3.37341">
        <ele>301</ele>
        <time>2024-04-15T16:45:00Z</time>
      </trkpt>
      <trkpt lat="45.91357" lon="3.37343">
        <ele>301.2</ele>
        <time>2024-04-15T16:45:01Z</time>
      </trkpt>
      <trkpt lat="45.91352" lon="3.37345">
        <ele>301.2</ele>
        <time>2024-04-15T16:45:02Z</time>
      </trkpt>
      <trkpt lat="45.91348" lon="3.37347">
        <ele>301.2</ele>
        <time>2024-04-15T16:45:03Z</time>
      </trkpt>
      <trkpt lat="45.91344" lon="3.37348">
        <ele>301.4</ele>
        <time>2024-04-15T16:45:04Z</time>
      </trkpt>
    </trkseg>
  </trk>
</gpx>